Wetterdaten: Montag, 08.01.2018
Datum Zeit Temp. A. Pool Temp. Feuchte A. Luftdruck Regen Wind Richtung Richtung Sonnenschein ET UV Solar Taupunkt Windchill Windben Empfang
08.01.2018 00:00 5,6 C 4,4 C 94 % 1022,6 hPa 0,0 l/m 17,7 km/h (3 Bft) O-NO 67 0 min 0,025 mm 0,0 UV-I 0 W/m 4,7 C -1,5 C 20,9 km/h (4 Bft) 91,30 %
08.01.2018 00:01 5,6 C 4,4 C 94 % 1022,6 hPa 0,0 l/m 16,1 km/h (3 Bft) O-NO 67 0 min 0,000 mm 0,0 UV-I 0 W/m 4,7 C -0,7 C 19,3 km/h (3 Bft) 91,30 %
08.01.2018 00:02 5,6 C 4,4 C 94 % 1022,5 hPa 0,0 l/m 16,1 km/h (3 Bft) O-NO 67 0 min 0,000 mm 0,0 UV-I 0 W/m 4,7 C -0,7 C 20,9 km/h (4 Bft) 100,00 %
08.01.2018 00:03 5,6 C 4,4 C 94 % 1022,6 hPa 0,0 l/m 17,7 km/h (3 Bft) O-NO 67 0 min 0,000 mm 0,0 UV-I 0 W/m 4,7 C -1,5 C 24,1 km/h (4 Bft) 100,00 %
08.01.2018 00:04 5,5 C 4,4 C 94 % 1022,5 hPa 0,0 l/m 22,5 km/h (4 Bft) O-NO 67 0 min 0,000 mm 0,0 UV-I 0 W/m 4,6 C -3,4 C 29,0 km/h (5 Bft) 95,65 %
08.01.2018 00:05 5,5 C 4,4 C 94 % 1022,4 hPa 0,0 l/m 22,5 km/h (4 Bft) NO 45 0 min 0,000 mm 0,0 UV-I 0 W/m 4,6 C -3,4 C 29,0 km/h (5 Bft) 100,00 %
08.01.2018 00:06 5,5 C 4,4 C 94 % 1022,4 hPa 0,0 l/m 24,1 km/h (4 Bft) NO 45 0 min 0,000 mm 0,0 UV-I 0 W/m 4,6 C -4,0 C 32,2 km/h (5 Bft) 95,65 %
08.01.2018 00:07 5,5 C 4,4 C 94 % 1022,5 hPa 0,0 l/m 24,1 km/h (4 Bft) NO 45 0 min 0,000 mm 0,0 UV-I 0 W/m 4,6 C -4,0 C 30,6 km/h (5 Bft) 100,00 %
08.01.2018 00:08 5,5 C 4,4 C 94 % 1022,5 hPa 0,0 l/m 27,4 km/h (4 Bft) O-NO 67 0 min 0,000 mm 0,0 UV-I 0 W/m 4,6 C -5,0 C 37,0 km/h (5 Bft) 100,00 %
08.01.2018 00:09 5,5 C 4,4 C 94 % 1022,5 hPa 0,0 l/m 20,9 km/h (4 Bft) O-NO 67 0 min 0,000 mm 0,0 UV-I 0 W/m 4,6 C -2,9 C 27,4 km/h (4 Bft) 100,00 %
08.01.2018 00:10 5,5 C 4,4 C 94 % 1022,5 hPa 0,0 l/m 24,1 km/h (4 Bft) O-NO 67 0 min 0,000 mm 0,0 UV-I 0 W/m 4,6 C -4,0 C 33,8 km/h (5 Bft) 100,00 %
08.01.2018 00:11 5,5 C 4,4 C 94 % 1022,5 hPa 0,0 l/m 22,5 km/h (4 Bft) O-NO 67 0 min 0,000 mm 0,0 UV-I 0 W/m 4,6 C -3,4 C 27,4 km/h (4 Bft) 91,30 %
08.01.2018 00:12 5,5 C 4,4 C 94 % 1022,6 hPa 0,0 l/m 17,7 km/h (3 Bft) O-NO 67 0 min 0,000 mm 0,0 UV-I 0 W/m 4,6 C -1,6 C 24,1 km/h (4 Bft) 91,30 %
08.01.2018 00:13 5,5 C 4,4 C 94 % 1022,6 hPa 0,0 l/m 19,3 km/h (3 Bft) NO 45 0 min 0,000 mm 0,0 UV-I 0 W/m 4,6 C -2,2 C 24,1 km/h (4 Bft) 95,65 %
08.01.2018 00:14 5,4 C 4,4 C 94 % 1022,6 hPa 0,0 l/m 20,9 km/h (4 Bft) O-NO 67 0 min 0,000 mm 0,0 UV-I 0 W/m 4,5 C -3,0 C 24,1 km/h (4 Bft) 95,65 %
08.01.2018 00:15 5,4 C 4,4 C 94 % 1022,5 hPa 0,0 l/m 20,9 km/h (4 Bft) O-NO 67 0 min 0,000 mm 0,0 UV-I 0 W/m 4,5 C -3,0 C 25,7 km/h (4 Bft) 100,00 %
08.01.2018 00:16 5,4 C 4,4 C 94 % 1022,5 hPa 0,0 l/m 20,9 km/h (4 Bft) O-NO 67 0 min 0,000 mm 0,0 UV-I 0 W/m 4,5 C -3,0 C 25,7 km/h (4 Bft) 100,00 %
08.01.2018 00:17 5,4 C 4,4 C 94 % 1022,5 hPa 0,0 l/m 20,9 km/h (4 Bft) O-NO 67 0 min 0,000 mm 0,0 UV-I 0 W/m 4,5 C -3,0 C 25,7 km/h (4 Bft) 100,00 %
08.01.2018 00:18 5,4 C 4,4 C 94 % 1022,5 hPa 0,0 l/m 17,7 km/h (3 Bft) O-NO 67 0 min 0,000 mm 0,0 UV-I 0 W/m 4,5 C -1,7 C 29,0 km/h (5 Bft) 95,65 %
08.01.2018 00:19 5,4 C 4,4 C 94 % 1022,5 hPa 0,0 l/m 25,7 km/h (4 Bft) O-NO 67 0 min 0,000 mm 0,0 UV-I 0 W/m 4,5 C -4,6 C 29,0 km/h (5 Bft) 100,00 %
08.01.2018 00:20 5,4 C 4,4 C 94 % 1022,5 hPa 0,0 l/m 20,9 km/h (4 Bft) O-NO 67 0 min 0,000 mm 0,0 UV-I 0 W/m 4,5 C -3,0 C 25,7 km/h (4 Bft) 100,00 %
08.01.2018 00:21 5,4 C 4,4 C 94 % 1022,5 hPa 0,0 l/m 25,7 km/h (4 Bft) O-NO 67 0 min 0,000 mm 0,0 UV-I 0 W/m 4,5 C -4,6 C 33,8 km/h (5 Bft) 100,00 %
08.01.2018 00:22 5,4 C 4,4 C 94 % 1022,5 hPa 0,0 l/m 20,9 km/h (4 Bft) O-NO 67 0 min 0,000 mm 0,0 UV-I 0 W/m 4,5 C -3,0 C 27,4 km/h (4 Bft) 100,00 %
08.01.2018 00:23 5,4 C 4,4 C 94 % 1022,5 hPa 0,0 l/m 24,1 km/h (4 Bft) NO 45 0 min 0,000 mm 0,0 UV-I 0 W/m 4,5 C -4,1 C 30,6 km/h (5 Bft) 100,00 %
08.01.2018 00:24 5,4 C 4,4 C 94 % 1022,5 hPa 0,0 l/m 27,4 km/h (4 Bft) O-NO 67 0 min 0,000 mm 0,0 UV-I 0 W/m 4,5 C -5,1 C 30,6 km/h (5 Bft) 100,00 %
08.01.2018 00:25 5,4 C 4,4 C 94 % 1022,5 hPa 0,0 l/m 25,7 km/h (4 Bft) O-NO 67 0 min 0,000 mm 0,0 UV-I 0 W/m 4,5 C -4,6 C 32,2 km/h (5 Bft) 95,65 %
08.01.2018 00:26 5,4 C 4,4 C 94 % 1022,5 hPa 0,0 l/m 24,1 km/h (4 Bft) O-NO 67 0 min 0,000 mm 0,0 UV-I 0 W/m 4,5 C -4,1 C 29,0 km/h (5 Bft) 100,00 %
08.01.2018 00:27 5,4 C 4,4 C 94 % 1022,4 hPa 0,0 l/m 27,4 km/h (4 Bft) O-NO 67 0 min 0,000 mm 0,0 UV-I 0 W/m 4,5 C -5,1 C 33,8 km/h (5 Bft) 95,65 %
08.01.2018 00:28 5,4 C 4,4 C 94 % 1022,4 hPa 0,0 l/m 27,4 km/h (4 Bft) O-NO 67 0 min 0,000 mm 0,0 UV-I 0 W/m 4,5 C -5,1 C 33,8 km/h (5 Bft) 100,00 %
08.01.2018 00:29 5,4 C 4,4 C 94 % 1022,5 hPa 0,0 l/m 22,5 km/h (4 Bft) NO 45 0 min 0,000 mm 0,0 UV-I 0 W/m 4,5 C -3,6 C 32,2 km/h (5 Bft) 100,00 %
08.01.2018 00:30 5,4 C 4,4 C 94 % 1022,5 hPa 0,0 l/m 22,5 km/h (4 Bft) O-NO 67 0 min 0,000 mm 0,0 UV-I 0 W/m 4,5 C -3,6 C 27,4 km/h (4 Bft) 91,30 %
08.01.2018 00:31 5,4 C 4,4 C 94 % 1022,5 hPa 0,0 l/m 24,1 km/h (4 Bft) O-NO 67 0 min 0,000 mm 0,0 UV-I 0 W/m 4,5 C -4,1 C 30,6 km/h (5 Bft) 100,00 %
08.01.2018 00:32 5,4 C 4,4 C 94 % 1022,5 hPa 0,0 l/m 19,3 km/h (3 Bft) O-NO 67 0 min 0,000 mm 0,0 UV-I 0 W/m 4,5 C -2,4 C 24,1 km/h (4 Bft) 91,30 %
08.01.2018 00:33 5,4 C 4,4 C 94 % 1022,5 hPa 0,0 l/m 17,7 km/h (3 Bft) O-NO 67 0 min 0,000 mm 0,0 UV-I 0 W/m 4,5 C -1,7 C 24,1 km/h (4 Bft) 95,65 %
08.01.2018 00:34 5,4 C 4,4 C 94 % 1022,5 hPa 0,0 l/m 16,1 km/h (3 Bft) O-NO 67 0 min 0,000 mm 0,0 UV-I 0 W/m 4,5 C -1,0 C 20,9 km/h (4 Bft) 95,65 %
08.01.2018 00:35 5,3 C 4,4 C 94 % 1022,5 hPa 0,0 l/m 16,1 km/h (3 Bft) NO 45 0 min 0,000 mm 0,0 UV-I 0 W/m 4,4 C -1,1 C 22,5 km/h (4 Bft) 100,00 %
08.01.2018 00:36 5,4 C 4,4 C 94 % 1022,5 hPa 0,0 l/m 20,9 km/h (4 Bft) O-NO 67 0 min 0,000 mm 0,0 UV-I 0 W/m 4,5 C -3,0 C 25,7 km/h (4 Bft) 95,65 %
08.01.2018 00:37 5,3 C 4,4 C 94 % 1022,5 hPa 0,0 l/m 20,9 km/h (4 Bft) O-NO 67 0 min 0,000 mm 0,0 UV-I 0 W/m 4,4 C -3,1 C 29,0 km/h (5 Bft) 100,00 %
08.01.2018 00:38 5,3 C 4,4 C 94 % 1022,6 hPa 0,0 l/m 16,1 km/h (3 Bft) O-NO 67 0 min 0,000 mm 0,0 UV-I 0 W/m 4,4 C -1,1 C 24,1 km/h (4 Bft) 95,65 %
08.01.2018 00:39 5,3 C 4,4 C 94 % 1022,6 hPa 0,0 l/m 20,9 km/h (4 Bft) O-NO 67 0 min 0,000 mm 0,0 UV-I 0 W/m 4,4 C -3,1 C 24,1 km/h (4 Bft) 86,96 %
08.01.2018 00:40 5,3 C 4,4 C 95 % 1022,6 hPa 0,0 l/m 17,7 km/h (3 Bft) O-NO 67 0 min 0,000 mm 0,0 UV-I 0 W/m 4,6 C -1,8 C 27,4 km/h (4 Bft) 100,00 %
08.01.2018 00:41 5,3 C 4,4 C 95 % 1022,6 hPa 0,0 l/m 22,5 km/h (4 Bft) O-NO 67 0 min 0,000 mm 0,0 UV-I 0 W/m 4,6 C -3,7 C 30,6 km/h (5 Bft) 95,65 %
08.01.2018 00:42 5,3 C 4,4 C 95 % 1022,6 hPa 0,0 l/m 17,7 km/h (3 Bft) O-NO 67 0 min 0,000 mm 0,0 UV-I 0 W/m 4,6 C -1,8 C 24,1 km/h (4 Bft) 95,65 %
08.01.2018 00:43 5,3 C 4,4 C 95 % 1022,6 hPa 0,0 l/m 17,7 km/h (3 Bft) O-NO 67 0 min 0,000 mm 0,0 UV-I 0 W/m 4,6 C -1,8 C 22,5 km/h (4 Bft) 95,65 %
08.01.2018 00:44 5,3 C 4,4 C 95 % 1022,6 hPa 0,0 l/m 17,7 km/h (3 Bft) O-NO 67 0 min 0,000 mm 0,0 UV-I 0 W/m 4,6 C -1,8 C 24,1 km/h (4 Bft) 91,30 %
08.01.2018 00:45 5,3 C 4,4 C 95 % 1022,6 hPa 0,0 l/m 17,7 km/h (3 Bft) O-NO 67 0 min 0,000 mm 0,0 UV-I 0 W/m 4,6 C -1,8 C 22,5 km/h (4 Bft) 95,65 %
08.01.2018 00:46 5,3 C 4,4 C 95 % 1022,6 hPa 0,0 l/m 17,7 km/h (3 Bft) O-NO 67 0 min 0,000 mm 0,0 UV-I 0 W/m 4,6 C -1,8 C 22,5 km/h (4 Bft) 91,30 %
08.01.2018 00:47 5,3 C 4,4 C 95 % 1022,6 hPa 0,0 l/m 14,5 km/h (3 Bft) O-NO 67 0 min 0,000 mm 0,0 UV-I 0 W/m 4,6 C -0,3 C 22,5 km/h (4 Bft) 91,30 %
08.01.2018 00:48 5,3 C 4,4 C 95 % 1022,7 hPa 0,0 l/m 19,3 km/h (3 Bft) O-NO 67 0 min 0,000 mm 0,0 UV-I 0 W/m 4,6 C -2,5 C 25,7 km/h (4 Bft) 95,65 %
08.01.2018 00:49 5,3 C 4,4 C 95 % 1022,6 hPa 0,0 l/m 17,7 km/h (3 Bft) O-NO 67 0 min 0,000 mm 0,0 UV-I 0 W/m 4,6 C -1,8 C 22,5 km/h (4 Bft) 91,30 %
08.01.2018 00:50 5,3 C 4,4 C 95 % 1022,7 hPa 0,0 l/m 19,3 km/h (3 Bft) O 90 0 min 0,000 mm 0,0 UV-I 0 W/m 4,6 C -2,5 C 25,7 km/h (4 Bft) 100,00 %
08.01.2018 00:51 5,3 C 4,4 C 95 % 1022,7 hPa 0,0 l/m 16,1 km/h (3 Bft) O-NO 67 0 min 0,000 mm 0,0 UV-I 0 W/m 4,6 C -1,1 C 22,5 km/h (4 Bft) 91,30 %
08.01.2018 00:52 5,3 C 4,4 C 95 % 1022,6 hPa 0,0 l/m 16,1 km/h (3 Bft) O-NO 67 0 min 0,000 mm 0,0 UV-I 0 W/m 4,6 C -1,1 C 20,9 km/h (4 Bft) 100,00 %
08.01.2018 00:53 5,3 C 4,4 C 95 % 1022,7 hPa 0,0 l/m 16,1 km/h (3 Bft) O-NO 67 0 min 0,000 mm 0,0 UV-I 0 W/m 4,6 C -1,1 C 22,5 km/h (4 Bft) 91,30 %
08.01.2018 00:54 5,3 C 4,4 C 95 % 1022,7 hPa 0,0 l/m 19,3 km/h (3 Bft) NO 45 0 min 0,000 mm 0,0 UV-I 0 W/m 4,6 C -2,5 C 24,1 km/h (4 Bft) 100,00 %
08.01.2018 00:55 5,2 C 4,4 C 95 % 1022,6 hPa 0,0 l/m 24,1 km/h (4 Bft) O-NO 67 0 min 0,000 mm 0,0 UV-I 0 W/m 4,5 C -4,4 C 32,2 km/h (5 Bft) 95,65 %
08.01.2018 00:56 5,2 C 4,4 C 95 % 1022,6 hPa 0,0 l/m 20,9 km/h (4 Bft) O-NO 67 0 min 0,000 mm 0,0 UV-I 0 W/m 4,5 C -3,3 C 30,6 km/h (5 Bft) 100,00 %
08.01.2018 00:57 5,2 C 4,4 C 95 % 1022,6 hPa 0,0 l/m 17,7 km/h (3 Bft) O-NO 67 0 min 0,000 mm 0,0 UV-I 0 W/m 4,5 C -2,0 C 22,5 km/h (4 Bft) 95,65 %
08.01.2018 00:58 5,2 C 4,4 C 95 % 1022,6 hPa 0,0 l/m 16,1 km/h (3 Bft) O-NO 67 0 min 0,000 mm 0,0 UV-I 0 W/m 4,5 C -1,2 C 19,3 km/h (3 Bft) 95,65 %
08.01.2018 00:59 5,2 C 4,4 C 95 % 1022,6 hPa 0,0 l/m 14,5 km/h (3 Bft) O-NO 67 0 min 0,000 mm 0,0 UV-I 0 W/m 4,5 C -0,4 C 20,9 km/h (4 Bft) 100,00 %
08.01.2018 01:00 5,2 C 4,4 C 95 % 1022,6 hPa 0,0 l/m 16,1 km/h (3 Bft) O-NO 67 0 min 0,000 mm 0,0 UV-I 0 W/m 4,5 C -1,2 C 20,9 km/h (4 Bft) 91,30 %
08.01.2018 01:01 5,2 C 4,4 C 95 % 1022,6 hPa 0,0 l/m 16,1 km/h (3 Bft) O-NO 67 0 min 0,000 mm 0,0 UV-I 0 W/m 4,5 C -1,2 C 22,5 km/h (4 Bft) 95,65 %
08.01.2018 01:02 5,2 C 4,4 C 95 % 1022,6 hPa 0,0 l/m 20,9 km/h (4 Bft) O-NO 67 0 min 0,000 mm 0,0 UV-I 0 W/m 4,5 C -3,3 C 29,0 km/h (5 Bft) 100,00 %
08.01.2018 01:03 5,2 C 4,4 C 95 % 1022,6 hPa 0,0 l/m 19,3 km/h (3 Bft) O-NO 67 0 min 0,000 mm 0,0 UV-I 0 W/m 4,5 C -2,6 C 24,1 km/h (4 Bft) 95,65 %
08.01.2018 01:04 5,2 C 4,4 C 95 % 1022,5 hPa 0,0 l/m 20,9 km/h (4 Bft) NO 45 0 min 0,000 mm 0,0 UV-I 0 W/m 4,5 C -3,3 C 27,4 km/h (4 Bft) 95,65 %
08.01.2018 01:05 5,2 C 4,4 C 95 % 1022,5 hPa 0,0 l/m 20,9 km/h (4 Bft) O-NO 67 0 min 0,000 mm 0,0 UV-I 0 W/m 4,5 C -3,3 C 25,7 km/h (4 Bft) 100,00 %
08.01.2018 01:06 5,2 C 4,4 C 95 % 1022,5 hPa 0,0 l/m 22,5 km/h (4 Bft) O-NO 67 0 min 0,000 mm 0,0 UV-I 0 W/m 4,5 C -3,8 C 29,0 km/h (5 Bft) 95,65 %
08.01.2018 01:07 5,2 C 4,4 C 95 % 1022,5 hPa 0,0 l/m 22,5 km/h (4 Bft) O-NO 67 0 min 0,000 mm 0,0 UV-I 0 W/m 4,5 C -3,8 C 27,4 km/h (4 Bft) 91,30 %
08.01.2018 01:08 5,2 C 4,4 C 95 % 1022,5 hPa 0,0 l/m 20,9 km/h (4 Bft) O-NO 67 0 min 0,000 mm 0,0 UV-I 0 W/m 4,5 C -3,3 C 25,7 km/h (4 Bft) 100,00 %
08.01.2018 01:09 5,2 C 4,4 C 95 % 1022,5 hPa 0,0 l/m 19,3 km/h (3 Bft) O-NO 67 0 min 0,000 mm 0,0 UV-I 0 W/m 4,5 C -2,6 C 24,1 km/h (4 Bft) 95,65 %
08.01.2018 01:10 5,2 C 4,4 C 95 % 1022,5 hPa 0,0 l/m 22,5 km/h (4 Bft) O-NO 67 0 min 0,000 mm 0,0 UV-I 0 W/m 4,5 C -3,8 C 29,0 km/h (5 Bft) 100,00 %
08.01.2018 01:11 5,2 C 4,4 C 95 % 1022,5 hPa 0,0 l/m 27,4 km/h (4 Bft) O-NO 67 0 min 0,000 mm 0,0 UV-I 0 W/m 4,5 C -5,4 C 35,4 km/h (5 Bft) 95,65 %
08.01.2018 01:12 5,1 C 4,4 C 95 % 1022,5 hPa 0,0 l/m 22,5 km/h (4 Bft) O-NO 67 0 min 0,000 mm 0,0 UV-I 0 W/m 4,4 C -4,0 C 29,0 km/h (5 Bft) 100,00 %
08.01.2018 01:13 5,2 C 4,4 C 95 % 1022,5 hPa 0,0 l/m 20,9 km/h (4 Bft) O-NO 67 0 min 0,000 mm 0,0 UV-I 0 W/m 4,5 C -3,3 C 29,0 km/h (5 Bft) 95,65 %
08.01.2018 01:14 5,2 C 4,4 C 95 % 1022,5 hPa 0,0 l/m 25,7 km/h (4 Bft) O-NO 67 0 min 0,000 mm 0,0 UV-I 0 W/m 4,5 C -4,9 C 32,2 km/h (5 Bft) 95,65 %
08.01.2018 01:15 5,2 C 4,4 C 95 % 1022,5 hPa 0,0 l/m 20,9 km/h (4 Bft) O-NO 67 0 min 0,000 mm 0,0 UV-I 0 W/m 4,5 C -3,3 C 25,7 km/h (4 Bft) 95,65 %
08.01.2018 01:16 5,2 C 4,4 C 95 % 1022,5 hPa 0,0 l/m 20,9 km/h (4 Bft) NO 45 0 min 0,000 mm 0,0 UV-I 0 W/m 4,5 C -3,3 C 30,6 km/h (5 Bft) 95,65 %
08.01.2018 01:17 5,2 C 4,4 C 95 % 1022,5 hPa 0,0 l/m 25,7 km/h (4 Bft) O-NO 67 0 min 0,000 mm 0,0 UV-I 0 W/m 4,5 C -4,9 C 33,8 km/h (5 Bft) 100,00 %
08.01.2018 01:18 5,1 C 4,4 C 95 % 1022,5 hPa 0,0 l/m 22,5 km/h (4 Bft) O-NO 67 0 min 0,000 mm 0,0 UV-I 0 W/m 4,4 C -4,0 C 32,2 km/h (5 Bft) 95,65 %
08.01.2018 01:19 5,1 C 4,4 C 95 % 1022,5 hPa 0,0 l/m 24,1 km/h (4 Bft) O-NO 67 0 min 0,000 mm 0,0 UV-I 0 W/m 4,4 C -4,5 C 29,0 km/h (5 Bft) 100,00 %
08.01.2018 01:20 5,1 C 4,4 C 95 % 1022,5 hPa 0,0 l/m 24,1 km/h (4 Bft) O-NO 67 0 min 0,000 mm 0,0 UV-I 0 W/m 4,4 C -4,5 C 29,0 km/h (5 Bft) 100,00 %
08.01.2018 01:21 5,1 C 4,4 C 95 % 1022,5 hPa 0,0 l/m 20,9 km/h (4 Bft) O-NO 67 0 min 0,000 mm 0,0 UV-I 0 W/m 4,4 C -3,4 C 27,4 km/h (4 Bft) 95,65 %
08.01.2018 01:22 5,1 C 4,4 C 95 % 1022,5 hPa 0,0 l/m 22,5 km/h (4 Bft) O-NO 67 0 min 0,000 mm 0,0 UV-I 0 W/m 4,4 C -4,0 C 25,7 km/h (4 Bft) 100,00 %
08.01.2018 01:23 5,1 C 4,4 C 95 % 1022,5 hPa 0,0 l/m 19,3 km/h (3 Bft) O-NO 67 0 min 0,000 mm 0,0 UV-I 0 W/m 4,4 C -2,8 C 32,2 km/h (5 Bft) 100,00 %
08.01.2018 01:24 5,1 C 4,4 C 95 % 1022,4 hPa 0,0 l/m 20,9 km/h (4 Bft) O-NO 67 0 min 0,000 mm 0,0 UV-I 0 W/m 4,4 C -3,4 C 27,4 km/h (4 Bft) 100,00 %
08.01.2018 01:25 5,1 C 4,4 C 95 % 1022,5 hPa 0,0 l/m 17,7 km/h (3 Bft) O-NO 67 0 min 0,000 mm 0,0 UV-I 0 W/m 4,4 C -2,1 C 25,7 km/h (4 Bft) 95,65 %
08.01.2018 01:26 5,1 C 4,4 C 95 % 1022,4 hPa 0,0 l/m 17,7 km/h (3 Bft) O-NO 67 0 min 0,000 mm 0,0 UV-I 0 W/m 4,4 C -2,1 C 27,4 km/h (4 Bft) 100,00 %
08.01.2018 01:27 5,1 C 4,4 C 95 % 1022,4 hPa 0,0 l/m 25,7 km/h (4 Bft) O-NO 67 0 min 0,000 mm 0,0 UV-I 0 W/m 4,4 C -5,0 C 33,8 km/h (5 Bft) 100,00 %
08.01.2018 01:28 5,1 C 4,4 C 95 % 1022,4 hPa 0,0 l/m 30,6 km/h (5 Bft) O-NO 67 0 min 0,000 mm 0,0 UV-I 0 W/m 4,4 C -6,4 C 38,6 km/h (5 Bft) 95,65 %
08.01.2018 01:29 5,1 C 4,4 C 95 % 1022,3 hPa 0,0 l/m 25,7 km/h (4 Bft) O 90 0 min 0,000 mm 0,0 UV-I 0 W/m 4,4 C -5,0 C 38,6 km/h (5 Bft) 100,00 %
08.01.2018 01:30 5,1 C 4,4 C 95 % 1022,3 hPa 0,0 l/m 24,1 km/h (4 Bft) O-NO 67 0 min 0,000 mm 0,0 UV-I 0 W/m 4,4 C -4,5 C 32,2 km/h (5 Bft) 100,00 %
08.01.2018 01:31 5,1 C 4,4 C 95 % 1022,2 hPa 0,0 l/m 24,1 km/h (4 Bft) O-NO 67 0 min 0,000 mm 0,0 UV-I 0 W/m 4,4 C -4,5 C 37,0 km/h (5 Bft) 100,00 %
08.01.2018 01:32 5,1 C 4,4 C 95 % 1022,2 hPa 0,0 l/m 29,0 km/h (5 Bft) O-NO 67 0 min 0,000 mm 0,0 UV-I 0 W/m 4,4 C -6,0 C 37,0 km/h (5 Bft) 100,00 %
08.01.2018 01:33 5,1 C 4,4 C 95 % 1022,2 hPa 0,0 l/m 24,1 km/h (4 Bft) O-NO 67 0 min 0,000 mm 0,0 UV-I 0 W/m 4,4 C -4,5 C 35,4 km/h (5 Bft) 100,00 %
08.01.2018 01:34 5,1 C 4,4 C 95 % 1022,3 hPa 0,0 l/m 30,6 km/h (5 Bft) O 90 0 min 0,000 mm 0,0 UV-I 0 W/m 4,4 C -6,4 C 45,1 km/h (6 Bft) 95,65 %
08.01.2018 01:35 5,1 C 4,4 C 95 % 1022,2 hPa 0,0 l/m 25,7 km/h (4 Bft) O 90 0 min 0,000 mm 0,0 UV-I 0 W/m 4,4 C -5,0 C 45,1 km/h (6 Bft) 91,30 %
08.01.2018 01:36 5,1 C 4,4 C 95 % 1022,3 hPa 0,0 l/m 27,4 km/h (4 Bft) O-NO 67 0 min 0,000 mm 0,0 UV-I 0 W/m 4,4 C -5,5 C 33,8 km/h (5 Bft) 100,00 %
08.01.2018 01:37 5,1 C 4,4 C 95 % 1022,3 hPa 0,0 l/m 22,5 km/h (4 Bft) O-NO 67 0 min 0,000 mm 0,0 UV-I 0 W/m 4,4 C -4,0 C 30,6 km/h (5 Bft) 100,00 %
08.01.2018 01:38 5,1 C 4,4 C 95 % 1022,4 hPa 0,0 l/m 24,1 km/h (4 Bft) O-NO 67 0 min 0,000 mm 0,0 UV-I 0 W/m 4,4 C -4,5 C 35,4 km/h (5 Bft) 100,00 %
08.01.2018 01:39 5,1 C 4,4 C 95 % 1022,4 hPa 0,0 l/m 25,7 km/h (4 Bft) O-NO 67 0 min 0,000 mm 0,0 UV-I 0 W/m 4,4 C -5,0 C 35,4 km/h (5 Bft) 100,00 %
08.01.2018 01:40 5,1 C 4,4 C 95 % 1022,5 hPa 0,0 l/m 25,7 km/h (4 Bft) O-NO 67 0 min 0,000 mm 0,0 UV-I 0 W/m 4,4 C -5,0 C 33,8 km/h (5 Bft) 100,00 %
08.01.2018 01:41 5,1 C 4,4 C 95 % 1022,4 hPa 0,0 l/m 20,9 km/h (4 Bft) O-NO 67 0 min 0,000 mm 0,0 UV-I 0 W/m 4,4 C -3,4 C 27,4 km/h (4 Bft) 100,00 %
08.01.2018 01:42 5,1 C 4,4 C 95 % 1022,5 hPa 0,0 l/m 24,1 km/h (4 Bft) O-NO 67 0 min 0,000 mm 0,0 UV-I 0 W/m 4,4 C -4,5 C 30,6 km/h (5 Bft) 95,65 %
08.01.2018 01:43 5,1 C 4,4 C 95 % 1022,5 hPa 0,0 l/m 27,4 km/h (4 Bft) O 90 0 min 0,000 mm 0,0 UV-I 0 W/m 4,4 C -5,5 C 38,6 km/h (5 Bft) 100,00 %
08.01.2018 01:44 5,1 C 4,4 C 95 % 1022,5 hPa 0,0 l/m 27,4 km/h (4 Bft) O-NO 67 0 min 0,000 mm 0,0 UV-I 0 W/m 4,4 C -5,5 C 33,8 km/h (5 Bft) 100,00 %
08.01.2018 01:45 5,1 C 4,4 C 95 % 1022,5 hPa 0,0 l/m 22,5 km/h (4 Bft) O-NO 67 0 min 0,000 mm 0,0 UV-I 0 W/m 4,4 C -4,0 C 30,6 km/h (5 Bft) 100,00 %
08.01.2018 01:46 5,1 C 4,4 C 95 % 1022,5 hPa 0,0 l/m 24,1 km/h (4 Bft) O-NO 67 0 min 0,000 mm 0,0 UV-I 0 W/m 4,4 C -4,5 C 37,0 km/h (5 Bft) 100,00 %
08.01.2018 01:47 5,1 C 4,4 C 95 % 1022,6 hPa 0,0 l/m 24,1 km/h (4 Bft) O-NO 67 0 min 0,000 mm 0,0 UV-I 0 W/m 4,4 C -4,5 C 30,6 km/h (5 Bft) 100,00 %
08.01.2018 01:48 5,1 C 4,4 C 95 % 1022,6 hPa 0,0 l/m 20,9 km/h (4 Bft) O 90 0 min 0,000 mm 0,0 UV-I 0 W/m 4,4 C -3,4 C 30,6 km/h (5 Bft) 100,00 %
08.01.2018 01:49 5,1 C 4,4 C 95 % 1022,6 hPa 0,0 l/m 25,7 km/h (4 Bft) O-NO 67 0 min 0,000 mm 0,0 UV-I 0 W/m 4,4 C -5,0 C 33,8 km/h (5 Bft) 91,30 %
08.01.2018 01:50 5,1 C 4,4 C 95 % 1022,5 hPa 0,0 l/m 24,1 km/h (4 Bft) O-NO 67 0 min 0,000 mm 0,0 UV-I 0 W/m 4,4 C -4,5 C 33,8 km/h (5 Bft) 100,00 %
08.01.2018 01:51 5,1 C 4,4 C 95 % 1022,6 hPa 0,0 l/m 24,1 km/h (4 Bft) O-NO 67 0 min 0,000 mm 0,0 UV-I 0 W/m 4,4 C -4,5 C 32,2 km/h (5 Bft) 95,65 %
08.01.2018 01:52 5,1 C 4,4 C 95 % 1022,6 hPa 0,0 l/m 19,3 km/h (3 Bft) O-NO 67 0 min 0,000 mm 0,0 UV-I 0 W/m 4,4 C -2,8 C 29,0 km/h (5 Bft) 100,00 %
08.01.2018 01:53 5,1 C 4,4 C 95 % 1022,6 hPa 0,0 l/m 27,4 km/h (4 Bft) O-NO 67 0 min 0,000 mm 0,0 UV-I 0 W/m 4,4 C -5,5 C 35,4 km/h (5 Bft) 95,65 %
08.01.2018 01:54 5,1 C 4,4 C 95 % 1022,6 hPa 0,0 l/m 24,1 km/h (4 Bft) O-NO 67 0 min 0,000 mm 0,0 UV-I 0 W/m 4,4 C -4,5 C 37,0 km/h (5 Bft) 100,00 %
08.01.2018 01:55 5,1 C 4,4 C 95 % 1022,6 hPa 0,0 l/m 29,0 km/h (5 Bft) O-NO 67 0 min 0,000 mm 0,0 UV-I 0 W/m 4,4 C -6,0 C 35,4 km/h (5 Bft) 86,96 %
08.01.2018 01:56 5,1 C 4,4 C 95 % 1022,6 hPa 0,0 l/m 25,7 km/h (4 Bft) O-NO 67 0 min 0,000 mm 0,0 UV-I 0 W/m 4,4 C -5,0 C 38,6 km/h (5 Bft) 95,65 %
08.01.2018 01:57 5,1 C 4,4 C 95 % 1022,6 hPa 0,0 l/m 22,5 km/h (4 Bft) O-NO 67 0 min 0,000 mm 0,0 UV-I 0 W/m 4,4 C -4,0 C 32,2 km/h (5 Bft) 91,30 %
08.01.2018 01:58 5,1 C 4,4 C 95 % 1022,6 hPa 0,0 l/m 20,9 km/h (4 Bft) O-NO 67 0 min 0,000 mm 0,0 UV-I 0 W/m 4,4 C -3,4 C 25,7 km/h (4 Bft) 100,00 %
08.01.2018 01:59 5,1 C 4,4 C 95 % 1022,6 hPa 0,0 l/m 20,9 km/h (4 Bft) O-NO 67 0 min 0,000 mm 0,0 UV-I 0 W/m 4,4 C -3,4 C 30,6 km/h (5 Bft) 95,65 %
08.01.2018 02:00 5,0 C 4,4 C 95 % 1022,6 hPa 0,0 l/m 27,4 km/h (4 Bft) O-NO 67 0 min 0,000 mm 0,0 UV-I 0 W/m 4,3 C -5,7 C 35,4 km/h (5 Bft) 95,65 %
08.01.2018 02:01 5,0 C 4,4 C 95 % 1022,6 hPa 0,0 l/m 27,4 km/h (4 Bft) O-NO 67 0 min 0,000 mm 0,0 UV-I 0 W/m 4,3 C -5,7 C 35,4 km/h (5 Bft) 100,00 %
08.01.2018 02:02 5,0 C 4,4 C 95 % 1022,6 hPa 0,0 l/m 22,5 km/h (4 Bft) O-NO 67 0 min 0,000 mm 0,0 UV-I 0 W/m 4,3 C -4,1 C 29,0 km/h (5 Bft) 95,65 %
08.01.2018 02:03 5,0 C 4,4 C 95 % 1022,7 hPa 0,0 l/m 30,6 km/h (5 Bft) O-NO 67 0 min 0,000 mm 0,0 UV-I 0 W/m 4,3 C -6,5 C 38,6 km/h (5 Bft) 95,65 %
08.01.2018 02:04 5,1 C 4,4 C 95 % 1022,7 hPa 0,0 l/m 29,0 km/h (5 Bft) O-NO 67 0 min 0,000 mm 0,0 UV-I 0 W/m 4,4 C -6,0 C 38,6 km/h (5 Bft) 95,65 %
08.01.2018 02:05 5,0 C 4,4 C 95 % 1022,7 hPa 0,0 l/m 24,1 km/h (4 Bft) O-NO 67 0 min 0,000 mm 0,0 UV-I 0 W/m 4,3 C -4,7 C 30,6 km/h (5 Bft) 100,00 %
08.01.2018 02:06 5,0 C 4,4 C 95 % 1022,7 hPa 0,0 l/m 20,9 km/h (4 Bft) O-NO 67 0 min 0,000 mm 0,0 UV-I 0 W/m 4,3 C -3,5 C 25,7 km/h (4 Bft) 95,65 %
08.01.2018 02:07 5,0 C 4,4 C 95 % 1022,7 hPa 0,0 l/m 24,1 km/h (4 Bft) O-NO 67 0 min 0,000 mm 0,0 UV-I 0 W/m 4,3 C -4,7 C 32,2 km/h (5 Bft) 100,00 %
08.01.2018 02:08 5,0 C 4,4 C 95 % 1022,7 hPa 0,0 l/m 19,3 km/h (3 Bft) O-NO 67 0 min 0,000 mm 0,0 UV-I 0 W/m 4,3 C -2,9 C 24,1 km/h (4 Bft) 91,30 %
08.01.2018 02:09 5,0 C 4,4 C 95 % 1022,7 hPa 0,0 l/m 20,9 km/h (4 Bft) O-NO 67 0 min 0,000 mm 0,0 UV-I 0 W/m 4,3 C -3,5 C 25,7 km/h (4 Bft) 100,00 %
08.01.2018 02:10 5,0 C 4,4 C 95 % 1022,7 hPa 0,0 l/m 25,7 km/h (4 Bft) O-NO 67 0 min 0,000 mm 0,0 UV-I 0 W/m 4,3 C -5,2 C 33,8 km/h (5 Bft) 91,30 %
08.01.2018 02:11 5,0 C 4,4 C 95 % 1022,7 hPa 0,0 l/m 24,1 km/h (4 Bft) O-NO 67 0 min 0,000 mm 0,0 UV-I 0 W/m 4,3 C -4,7 C 30,6 km/h (5 Bft) 100,00 %
08.01.2018 02:12 5,0 C 4,4 C 95 % 1022,7 hPa 0,0 l/m 17,7 km/h (3 Bft) O-NO 67 0 min 0,000 mm 0,0 UV-I 0 W/m 4,3 C -2,2 C 27,4 km/h (4 Bft) 86,96 %
08.01.2018 02:13 5,0 C 4,4 C 95 % 1022,8 hPa 0,0 l/m 19,3 km/h (3 Bft) O-NO 67 0 min 0,000 mm 0,0 UV-I 0 W/m 4,3 C -2,9 C 29,0 km/h (5 Bft) 100,00 %
08.01.2018 02:14 5,0 C 4,4 C 95 % 1022,8 hPa 0,0 l/m 24,1 km/h (4 Bft) O-NO 67 0 min 0,000 mm 0,0 UV-I 0 W/m 4,3 C -4,7 C 38,6 km/h (5 Bft) 100,00 %
08.01.2018 02:15 5,0 C 4,4 C 95 % 1022,7 hPa 0,0 l/m 24,1 km/h (4 Bft) O-NO 67 0 min 0,000 mm 0,0 UV-I 0 W/m 4,3 C -4,7 C 32,2 km/h (5 Bft) 100,00 %
08.01.2018 02:16 4,9 C 4,4 C 95 % 1022,8 hPa 0,0 l/m 22,5 km/h (4 Bft) O-NO 67 0 min 0,000 mm 0,0 UV-I 0 W/m 4,2 C -4,2 C 27,4 km/h (4 Bft) 100,00 %
08.01.2018 02:17 5,0 C 4,4 C 95 % 1022,7 hPa 0,0 l/m 24,1 km/h (4 Bft) O-NO 67 0 min 0,000 mm 0,0 UV-I 0 W/m 4,3 C -4,7 C 30,6 km/h (5 Bft) 95,65 %
08.01.2018 02:18 4,9 C 4,4 C 95 % 1022,7 hPa 0,0 l/m 24,1 km/h (4 Bft) O-NO 67 0 min 0,000 mm 0,0 UV-I 0 W/m 4,2 C -4,8 C 29,0 km/h (5 Bft) 95,65 %
08.01.2018 02:19 4,9 C 4,4 C 95 % 1022,7 hPa 0,0 l/m 20,9 km/h (4 Bft) O-NO 67 0 min 0,000 mm 0,0 UV-I 0 W/m 4,2 C -3,7 C 29,0 km/h (5 Bft) 100,00 %
08.01.2018 02:20 4,9 C 4,4 C 95 % 1022,7 hPa 0,0 l/m 20,9 km/h (4 Bft) O-NO 67 0 min 0,000 mm 0,0 UV-I 0 W/m 4,2 C -3,7 C 27,4 km/h (4 Bft) 95,65 %
08.01.2018 02:21 4,9 C 4,4 C 95 % 1022,7 hPa 0,0 l/m 22,5 km/h (4 Bft) O-NO 67 0 min 0,000 mm 0,0 UV-I 0 W/m 4,2 C -4,2 C 27,4 km/h (4 Bft) 100,00 %
08.01.2018 02:22 4,9 C 4,4 C 95 % 1022,7 hPa 0,0 l/m 24,1 km/h (4 Bft) O-NO 67 0 min 0,000 mm 0,0 UV-I 0 W/m 4,2 C -4,8 C 33,8 km/h (5 Bft) 100,00 %
08.01.2018 02:23 4,9 C 4,4 C 95 % 1022,6 hPa 0,0 l/m 22,5 km/h (4 Bft) O-NO 67 0 min 0,000 mm 0,0 UV-I 0 W/m 4,2 C -4,2 C 32,2 km/h (5 Bft) 100,00 %
08.01.2018 02:24 4,9 C 4,4 C 95 % 1022,7 hPa 0,0 l/m 19,3 km/h (3 Bft) O 90 0 min 0,000 mm 0,0 UV-I 0 W/m 4,2 C -3,0 C 29,0 km/h (5 Bft) 91,30 %
08.01.2018 02:25 4,9 C 4,4 C 95 % 1022,7 hPa 0,0 l/m 22,5 km/h (4 Bft) O-NO 67 0 min 0,000 mm 0,0 UV-I 0 W/m 4,2 C -4,2 C 29,0 km/h (5 Bft) 100,00 %
08.01.2018 02:26 4,9 C 4,4 C 95 % 1022,7 hPa 0,0 l/m 25,7 km/h (4 Bft) O-NO 67 0 min 0,000 mm 0,0 UV-I 0 W/m 4,2 C -5,3 C 33,8 km/h (5 Bft) 100,00 %
08.01.2018 02:27 4,9 C 4,4 C 95 % 1022,6 hPa 0,0 l/m 24,1 km/h (4 Bft) O-NO 67 0 min 0,000 mm 0,0 UV-I 0 W/m 4,2 C -4,8 C 32,2 km/h (5 Bft) 100,00 %
08.01.2018 02:28 4,9 C 4,4 C 95 % 1022,6 hPa 0,0 l/m 29,0 km/h (5 Bft) O-NO 67 0 min 0,000 mm 0,0 UV-I 0 W/m 4,2 C -6,3 C 35,4 km/h (5 Bft) 100,00 %
08.01.2018 02:29 4,9 C 4,4 C 95 % 1022,6 hPa 0,0 l/m 24,1 km/h (4 Bft) O-NO 67 0 min 0,000 mm 0,0 UV-I 0 W/m 4,2 C -4,8 C 32,2 km/h (5 Bft) 100,00 %
08.01.2018 02:30 4,9 C 4,4 C 96 % 1022,6 hPa 0,0 l/m 20,9 km/h (4 Bft) O-NO 67 0 min 0,000 mm 0,0 UV-I 0 W/m 4,3 C -3,7 C 29,0 km/h (5 Bft) 100,00 %
08.01.2018 02:31 4,9 C 4,4 C 96 % 1022,6 hPa 0,0 l/m 22,5 km/h (4 Bft) NO 45 0 min 0,000 mm 0,0 UV-I 0 W/m 4,3 C -4,2 C 32,2 km/h (5 Bft) 95,65 %
08.01.2018 02:32 4,9 C 4,4 C 96 % 1022,6 hPa 0,0 l/m 24,1 km/h (4 Bft) O-NO 67 0 min 0,000 mm 0,0 UV-I 0 W/m 4,3 C -4,8 C 32,2 km/h (5 Bft) 95,65 %
08.01.2018 02:33 4,9 C 4,4 C 96 % 1022,6 hPa 0,0 l/m 20,9 km/h (4 Bft) O-NO 67 0 min 0,000 mm 0,0 UV-I 0 W/m 4,3 C -3,7 C 25,7 km/h (4 Bft) 100,00 %
08.01.2018 02:34 4,8 C 4,4 C 96 % 1022,6 hPa 0,0 l/m 19,3 km/h (3 Bft) O-NO 67 0 min 0,000 mm 0,0 UV-I 0 W/m 4,2 C -3,1 C 22,5 km/h (4 Bft) 100,00 %
08.01.2018 02:35 4,9 C 4,4 C 96 % 1022,6 hPa 0,0 l/m 24,1 km/h (4 Bft) O-NO 67 0 min 0,000 mm 0,0 UV-I 0 W/m 4,3 C -4,8 C 33,8 km/h (5 Bft) 95,65 %
08.01.2018 02:36 4,8 C 4,4 C 96 % 1022,5 hPa 0,0 l/m 25,7 km/h (4 Bft) O-NO 67 0 min 0,000 mm 0,0 UV-I 0 W/m 4,2 C -5,4 C 33,8 km/h (5 Bft) 100,00 %
08.01.2018 02:37 4,8 C 4,4 C 96 % 1022,5 hPa 0,0 l/m 22,5 km/h (4 Bft) O-NO 67 0 min 0,000 mm 0,0 UV-I 0 W/m 4,2 C -4,4 C 30,6 km/h (5 Bft) 100,00 %
08.01.2018 02:38 4,8 C 4,4 C 96 % 1022,6 hPa 0,0 l/m 27,4 km/h (4 Bft) O-NO 67 0 min 0,000 mm 0,0 UV-I 0 W/m 4,2 C -5,9 C 35,4 km/h (5 Bft) 91,30 %
08.01.2018 02:39 4,8 C 4,4 C 96 % 1022,6 hPa 0,0 l/m 29,0 km/h (5 Bft) O-NO 67 0 min 0,000 mm 0,0 UV-I 0 W/m 4,2 C -6,4 C 35,4 km/h (5 Bft) 100,00 %
08.01.2018 02:40 4,8 C 4,4 C 96 % 1022,6 hPa 0,0 l/m 24,1 km/h (4 Bft) O-NO 67 0 min 0,000 mm 0,0 UV-I 0 W/m 4,2 C -4,9 C 32,2 km/h (5 Bft) 100,00 %
08.01.2018 02:41 4,8 C 4,4 C 96 % 1022,6 hPa 0,0 l/m 29,0 km/h (5 Bft) O-NO 67 0 min 0,000 mm 0,0 UV-I 0 W/m 4,2 C -6,4 C 35,4 km/h (5 Bft) 95,65 %
08.01.2018 02:42 4,8 C 4,4 C 96 % 1022,7 hPa 0,0 l/m 27,4 km/h (4 Bft) O-NO 67 0 min 0,000 mm 0,0 UV-I 0 W/m 4,2 C -5,9 C 35,4 km/h (5 Bft) 100,00 %
08.01.2018 02:43 4,8 C 4,4 C 96 % 1022,7 hPa 0,0 l/m 19,3 km/h (3 Bft) O-NO 67 0 min 0,000 mm 0,0 UV-I 0 W/m 4,2 C -3,1 C 24,1 km/h (4 Bft) 100,00 %
08.01.2018 02:44 4,8 C 4,4 C 96 % 1022,7 hPa 0,0 l/m 19,3 km/h (3 Bft) O-NO 67 0 min 0,000 mm 0,0 UV-I 0 W/m 4,2 C -3,1 C 27,4 km/h (4 Bft) 91,30 %
08.01.2018 02:45 4,8 C 4,4 C 96 % 1022,7 hPa 0,0 l/m 16,1 km/h (3 Bft) O-NO 67 0 min 0,000 mm 0,0 UV-I 0 W/m 4,2 C -1,7 C 24,1 km/h (4 Bft) 95,65 %
08.01.2018 02:46 4,8 C 4,4 C 96 % 1022,7 hPa 0,0 l/m 14,5 km/h (3 Bft) O-NO 67 0 min 0,000 mm 0,0 UV-I 0 W/m 4,2 C -0,9 C 19,3 km/h (3 Bft) 91,30 %
08.01.2018 02:47 4,8 C 4,4 C 96 % 1022,6 hPa 0,0 l/m 19,3 km/h (3 Bft) O-NO 67 0 min 0,000 mm 0,0 UV-I 0 W/m 4,2 C -3,1 C 27,4 km/h (4 Bft) 100,00 %
08.01.2018 02:48 4,8 C 4,4 C 96 % 1022,6 hPa 0,0 l/m 17,7 km/h (3 Bft) O-NO 67 0 min 0,000 mm 0,0 UV-I 0 W/m 4,2 C -2,5 C 22,5 km/h (4 Bft) 95,65 %
08.01.2018 02:49 4,8 C 4,4 C 96 % 1022,6 hPa 0,0 l/m 17,7 km/h (3 Bft) O-NO 67 0 min 0,000 mm 0,0 UV-I 0 W/m 4,2 C -2,5 C 22,5 km/h (4 Bft) 100,00 %
08.01.2018 02:50 4,8 C 4,4 C 96 % 1022,6 hPa 0,0 l/m 16,1 km/h (3 Bft) O-NO 67 0 min 0,000 mm 0,0 UV-I 0 W/m 4,2 C -1,7 C 22,5 km/h (4 Bft) 95,65 %
08.01.2018 02:51 4,8 C 4,4 C 96 % 1022,6 hPa 0,0 l/m 16,1 km/h (3 Bft) O-NO 67 0 min 0,000 mm 0,0 UV-I 0 W/m 4,2 C -1,7 C 22,5 km/h (4 Bft) 95,65 %
08.01.2018 02:52 4,8 C 4,4 C 96 % 1022,7 hPa 0,0 l/m 20,9 km/h (4 Bft) O-NO 67 0 min 0,000 mm 0,0 UV-I 0 W/m 4,2 C -3,8 C 30,6 km/h (5 Bft) 95,65 %
08.01.2018 02:53 4,8 C 4,4 C 96 % 1022,6 hPa 0,0 l/m 24,1 km/h (4 Bft) O-NO 67 0 min 0,000 mm 0,0 UV-I 0 W/m 4,2 C -4,9 C 27,4 km/h (4 Bft) 95,65 %
08.01.2018 02:54 4,8 C 4,4 C 96 % 1022,6 hPa 0,0 l/m 25,7 km/h (4 Bft) O 90 0 min 0,000 mm 0,0 UV-I 0 W/m 4,2 C -5,4 C 37,0 km/h (5 Bft) 100,00 %
08.01.2018 02:55 4,8 C 4,4 C 96 % 1022,6 hPa 0,0 l/m 24,1 km/h (4 Bft) O-NO 67 0 min 0,000 mm 0,0 UV-I 0 W/m 4,2 C -4,9 C 29,0 km/h (5 Bft) 95,65 %
08.01.2018 02:56 4,8 C 4,4 C 96 % 1022,6 hPa 0,0 l/m 20,9 km/h (4 Bft) NO 45 0 min 0,000 mm 0,0 UV-I 0 W/m 4,2 C -3,8 C 27,4 km/h (4 Bft) 100,00 %
08.01.2018 02:57 4,8 C 4,4 C 96 % 1022,6 hPa 0,0 l/m 19,3 km/h (3 Bft) NO 45 0 min 0,000 mm 0,0 UV-I 0 W/m 4,2 C -3,1 C 24,1 km/h (4 Bft) 95,65 %
08.01.2018 02:58 4,8 C 4,4 C 96 % 1022,6 hPa 0,0 l/m 24,1 km/h (4 Bft) O-NO 67 0 min 0,000 mm 0,0 UV-I 0 W/m 4,2 C -4,9 C 30,6 km/h (5 Bft) 100,00 %
08.01.2018 02:59 4,8 C 4,4 C 96 % 1022,6 hPa 0,0 l/m 20,9 km/h (4 Bft) O-NO 67 0 min 0,000 mm 0,0 UV-I 0 W/m 4,2 C -3,8 C 25,7 km/h (4 Bft) 91,30 %
08.01.2018 03:00 4,8 C 4,4 C 96 % 1022,6 hPa 0,0 l/m 17,7 km/h (3 Bft) O-NO 67 0 min 0,000 mm 0,0 UV-I 0 W/m 4,2 C -2,5 C 20,9 km/h (4 Bft) 91,30 %
08.01.2018 03:01 4,8 C 4,4 C 96 % 1022,6 hPa 0,0 l/m 17,7 km/h (3 Bft) O-NO 67 0 min 0,000 mm 0,0 UV-I 0 W/m 4,2 C -2,5 C 29,0 km/h (5 Bft) 95,65 %
08.01.2018 03:02 4,8 C 4,4 C 96 % 1022,6 hPa 0,0 l/m 20,9 km/h (4 Bft) O-NO 67 0 min 0,000 mm 0,0 UV-I 0 W/m 4,2 C -3,8 C 30,6 km/h (5 Bft) 95,65 %
08.01.2018 03:03 4,8 C 4,4 C 96 % 1022,6 hPa 0,0 l/m 19,3 km/h (3 Bft) O-NO 67 0 min 0,000 mm 0,0 UV-I 0 W/m 4,2 C -3,1 C 25,7 km/h (4 Bft) 95,65 %
08.01.2018 03:04 4,8 C 4,4 C 96 % 1022,6 hPa 0,0 l/m 16,1 km/h (3 Bft) O-NO 67 0 min 0,000 mm 0,0 UV-I 0 W/m 4,2 C -1,7 C 20,9 km/h (4 Bft) 95,65 %
08.01.2018 03:05 4,8 C 4,4 C 96 % 1022,6 hPa 0,0 l/m 14,5 km/h (3 Bft) O-NO 67 0 min 0,000 mm 0,0 UV-I 0 W/m 4,2 C -0,9 C 19,3 km/h (3 Bft) 95,65 %
08.01.2018 03:06 4,8 C 4,4 C 96 % 1022,6 hPa 0,0 l/m 17,7 km/h (3 Bft) O-NO 67 0 min 0,000 mm 0,0 UV-I 0 W/m 4,2 C -2,5 C 24,1 km/h (4 Bft) 91,30 %
08.01.2018 03:07 4,8 C 4,4 C 96 % 1022,6 hPa 0,0 l/m 19,3 km/h (3 Bft) O-NO 67 0 min 0,000 mm 0,0 UV-I 0 W/m 4,2 C -3,1 C 24,1 km/h (4 Bft) 100,00 %
08.01.2018 03:08 4,8 C 4,4 C 96 % 1022,6 hPa 0,0 l/m 19,3 km/h (3 Bft) O-NO 67 0 min 0,000 mm 0,0 UV-I 0 W/m 4,2 C -3,1 C 25,7 km/h (4 Bft) 95,65 %
08.01.2018 03:09 4,8 C 4,4 C 96 % 1022,6 hPa 0,0 l/m 16,1 km/h (3 Bft) O-NO 67 0 min 0,000 mm 0,0 UV-I 0 W/m 4,2 C -1,7 C 20,9 km/h (4 Bft) 95,65 %
08.01.2018 03:10 4,8 C 4,4 C 96 % 1022,6 hPa 0,0 l/m 20,9 km/h (4 Bft) O-NO 67 0 min 0,000 mm 0,0 UV-I 0 W/m 4,2 C -3,8 C 29,0 km/h (5 Bft) 100,00 %
08.01.2018 03:11 4,8 C 4,4 C 96 % 1022,6 hPa 0,0 l/m 17,7 km/h (3 Bft) O-NO 67 0 min 0,000 mm 0,0 UV-I 0 W/m 4,2 C -2,5 C 22,5 km/h (4 Bft) 91,30 %
08.01.2018 03:12 4,8 C 4,4 C 96 % 1022,5 hPa 0,0 l/m 16,1 km/h (3 Bft) O-NO 67 0 min 0,000 mm 0,0 UV-I 0 W/m 4,2 C -1,7 C 20,9 km/h (4 Bft) 95,65 %
08.01.2018 03:13 4,8 C 4,4 C 96 % 1022,5 hPa 0,0 l/m 19,3 km/h (3 Bft) O-NO 67 0 min 0,000 mm 0,0 UV-I 0 W/m 4,2 C -3,1 C 24,1 km/h (4 Bft) 86,96 %
08.01.2018 03:14 4,8 C 4,4 C 96 % 1022,6 hPa 0,0 l/m 14,5 km/h (3 Bft) O-NO 67 0 min 0,000 mm 0,0 UV-I 0 W/m 4,2 C -0,9 C 22,5 km/h (4 Bft) 95,65 %
08.01.2018 03:15 4,7 C 4,4 C 96 % 1022,5 hPa 0,0 l/m 14,5 km/h (3 Bft) O-NO 67 0 min 0,000 mm 0,0 UV-I 0 W/m 4,1 C -1,0 C 17,7 km/h (3 Bft) 95,65 %
08.01.2018 03:16 4,8 C 4,4 C 96 % 1022,6 hPa 0,0 l/m 17,7 km/h (3 Bft) O-NO 67 0 min 0,000 mm 0,0 UV-I 0 W/m 4,2 C -2,5 C 25,7 km/h (4 Bft) 95,65 %
08.01.2018 03:17 4,8 C 4,4 C 96 % 1022,5 hPa 0,0 l/m 20,9 km/h (4 Bft) O-NO 67 0 min 0,000 mm 0,0 UV-I 0 W/m 4,2 C -3,8 C 27,4 km/h (4 Bft) 91,30 %
08.01.2018 03:18 4,8 C 4,4 C 96 % 1022,6 hPa 0,0 l/m 16,1 km/h (3 Bft) O 90 0 min 0,000 mm 0,0 UV-I 0 W/m 4,2 C -1,7 C 24,1 km/h (4 Bft) 91,30 %
08.01.2018 03:19 4,8 C 4,4 C 96 % 1022,6 hPa 0,0 l/m 16,1 km/h (3 Bft) NO 45 0 min 0,000 mm 0,0 UV-I 0 W/m 4,2 C -1,7 C 20,9 km/h (4 Bft) 95,65 %
08.01.2018 03:20 4,8 C 4,4 C 96 % 1022,7 hPa 0,0 l/m 24,1 km/h (4 Bft) O-NO 67 0 min 0,000 mm 0,0 UV-I 0 W/m 4,2 C -4,9 C 30,6 km/h (5 Bft) 91,30 %
08.01.2018 03:21 4,8 C 4,4 C 96 % 1022,7 hPa 0,0 l/m 22,5 km/h (4 Bft) O-NO 67 0 min 0,000 mm 0,0 UV-I 0 W/m 4,2 C -4,4 C 30,6 km/h (5 Bft) 95,65 %
08.01.2018 03:22 4,8 C 4,4 C 96 % 1022,6 hPa 0,0 l/m 19,3 km/h (3 Bft) O-NO 67 0 min 0,000 mm 0,0 UV-I 0 W/m 4,2 C -3,1 C 22,5 km/h (4 Bft) 100,00 %
08.01.2018 03:23 4,8 C 4,4 C 96 % 1022,7 hPa 0,0 l/m 19,3 km/h (3 Bft) O-NO 67 0 min 0,000 mm 0,0 UV-I 0 W/m 4,2 C -3,1 C 25,7 km/h (4 Bft) 95,65 %
08.01.2018 03:24 4,8 C 4,4 C 96 % 1022,7 hPa 0,0 l/m 17,7 km/h (3 Bft) O-NO 67 0 min 0,000 mm 0,0 UV-I 0 W/m 4,2 C -2,5 C 22,5 km/h (4 Bft) 91,30 %
08.01.2018 03:25 4,8 C 4,4 C 96 % 1022,7 hPa 0,0 l/m 22,5 km/h (4 Bft) O-NO 67 0 min 0,000 mm 0,0 UV-I 0 W/m 4,2 C -4,4 C 33,8 km/h (5 Bft) 95,65 %
08.01.2018 03:26 4,8 C 4,4 C 96 % 1022,7 hPa 0,0 l/m 20,9 km/h (4 Bft) NO 45 0 min 0,000 mm 0,0 UV-I 0 W/m 4,2 C -3,8 C 27,4 km/h (4 Bft) 100,00 %
08.01.2018 03:27 4,8 C 4,4 C 96 % 1022,7 hPa 0,0 l/m 20,9 km/h (4 Bft) NO 45 0 min 0,000 mm 0,0 UV-I 0 W/m 4,2 C -3,8 C 24,1 km/h (4 Bft) 86,96 %
08.01.2018 03:28 4,8 C 4,4 C 96 % 1022,7 hPa 0,0 l/m 19,3 km/h (3 Bft) O-NO 67 0 min 0,000 mm 0,0 UV-I 0 W/m 4,2 C -3,1 C 24,1 km/h (4 Bft) 100,00 %
08.01.2018 03:29 4,8 C 4,4 C 96 % 1022,8 hPa 0,0 l/m 14,5 km/h (3 Bft) O-NO 67 0 min 0,000 mm 0,0 UV-I 0 W/m 4,2 C -0,9 C 19,3 km/h (3 Bft) 95,65 %
08.01.2018 03:30 4,8 C 4,4 C 96 % 1022,7 hPa 0,0 l/m 14,5 km/h (3 Bft) O-NO 67 0 min 0,000 mm 0,0 UV-I 0 W/m 4,2 C -0,9 C 20,9 km/h (4 Bft) 100,00 %
08.01.2018 03:31 4,8 C 4,4 C 96 % 1022,8 hPa 0,0 l/m 12,9 km/h (3 Bft) O-NO 67 0 min 0,000 mm 0,0 UV-I 0 W/m 4,2 C -0,0 C 19,3 km/h (3 Bft) 91,30 %
08.01.2018 03:32 4,8 C 4,4 C 96 % 1022,8 hPa 0,0 l/m 17,7 km/h (3 Bft) O-NO 67 0 min 0,000 mm 0,0 UV-I 0 W/m 4,2 C -2,5 C 25,7 km/h (4 Bft) 100,00 %
08.01.2018 03:33 4,8 C 4,4 C 96 % 1022,8 hPa 0,0 l/m 17,7 km/h (3 Bft) O-NO 67 0 min 0,000 mm 0,0 UV-I 0 W/m 4,2 C -2,5 C 22,5 km/h (4 Bft) 95,65 %
08.01.2018 03:34 4,8 C 4,4 C 96 % 1022,7 hPa 0,0 l/m 19,3 km/h (3 Bft) O 90 0 min 0,000 mm 0,0 UV-I 0 W/m 4,2 C -3,1 C 27,4 km/h (4 Bft) 95,65 %
08.01.2018 03:35 4,8 C 4,4 C 96 % 1022,8 hPa 0,0 l/m 20,9 km/h (4 Bft) O-NO 67 0 min 0,000 mm 0,0 UV-I 0 W/m 4,2 C -3,8 C 24,1 km/h (4 Bft) 95,65 %
08.01.2018 03:36 4,8 C 4,4 C 96 % 1022,8 hPa 0,0 l/m 16,1 km/h (3 Bft) O-NO 67 0 min 0,000 mm 0,0 UV-I 0 W/m 4,2 C -1,7 C 22,5 km/h (4 Bft) 100,00 %
08.01.2018 03:37 4,8 C 4,4 C 96 % 1022,8 hPa 0,0 l/m 20,9 km/h (4 Bft) O-NO 67 0 min 0,000 mm 0,0 UV-I 0 W/m 4,2 C -3,8 C 32,2 km/h (5 Bft) 91,30 %
08.01.2018 03:38 4,8 C 4,4 C 96 % 1022,8 hPa 0,0 l/m 25,7 km/h (4 Bft) O-NO 67 0 min 0,000 mm 0,0 UV-I 0 W/m 4,2 C -5,4 C 35,4 km/h (5 Bft) 100,00 %
08.01.2018 03:39 4,8 C 4,4 C 96 % 1022,8 hPa 0,0 l/m 25,7 km/h (4 Bft) O-NO 67 0 min 0,000 mm 0,0 UV-I 0 W/m 4,2 C -5,4 C 32,2 km/h (5 Bft) 100,00 %
08.01.2018 03:40 4,8 C 4,4 C 96 % 1022,8 hPa 0,0 l/m 20,9 km/h (4 Bft) O-NO 67 0 min 0,000 mm 0,0 UV-I 0 W/m 4,2 C -3,8 C 27,4 km/h (4 Bft) 100,00 %
08.01.2018 03:41 4,8 C 4,4 C 96 % 1022,8 hPa 0,0 l/m 17,7 km/h (3 Bft) O-NO 67 0 min 0,000 mm 0,0 UV-I 0 W/m 4,2 C -2,5 C 22,5 km/h (4 Bft) 95,65 %
08.01.2018 03:42 4,8 C 4,4 C 96 % 1022,8 hPa 0,0 l/m 16,1 km/h (3 Bft) O-NO 67 0 min 0,000 mm 0,0 UV-I 0 W/m 4,2 C -1,7 C 22,5 km/h (4 Bft) 100,00 %
08.01.2018 03:43 4,8 C 4,4 C 96 % 1022,9 hPa 0,0 l/m 14,5 km/h (3 Bft) O-NO 67 0 min 0,000 mm 0,0 UV-I 0 W/m 4,2 C -0,9 C 20,9 km/h (4 Bft) 100,00 %
08.01.2018 03:44 4,8 C 4,4 C 96 % 1022,9 hPa 0,0 l/m 16,1 km/h (3 Bft) O-NO 67 0 min 0,000 mm 0,0 UV-I 0 W/m 4,2 C -1,7 C 22,5 km/h (4 Bft) 100,00 %
08.01.2018 03:45 4,8 C 4,4 C 96 % 1022,9 hPa 0,0 l/m 20,9 km/h (4 Bft) O-NO 67 0 min 0,000 mm 0,0 UV-I 0 W/m 4,2 C -3,8 C 29,0 km/h (5 Bft) 100,00 %
08.01.2018 03:46 4,8 C 4,4 C 96 % 1023,0 hPa 0,0 l/m 20,9 km/h (4 Bft) O-NO 67 0 min 0,000 mm 0,0 UV-I 0 W/m 4,2 C -3,8 C 29,0 km/h (5 Bft) 95,65 %
08.01.2018 03:47 4,8 C 4,4 C 96 % 1023,0 hPa 0,0 l/m 17,7 km/h (3 Bft) O-NO 67 0 min 0,000 mm 0,0 UV-I 0 W/m 4,2 C -2,5 C 22,5 km/h (4 Bft) 100,00 %
08.01.2018 03:48 4,8 C 4,4 C 96 % 1023,0 hPa 0,0 l/m 16,1 km/h (3 Bft) O-NO 67 0 min 0,000 mm 0,0 UV-I 0 W/m 4,2 C -1,7 C 20,9 km/h (4 Bft) 95,65 %
08.01.2018 03:49 4,8 C 4,4 C 96 % 1022,9 hPa 0,0 l/m 16,1 km/h (3 Bft) O-NO 67 0 min 0,000 mm 0,0 UV-I 0 W/m 4,2 C -1,7 C 22,5 km/h (4 Bft) 95,65 %
08.01.2018 03:50 4,8 C 4,4 C 96 % 1023,0 hPa 0,0 l/m 17,7 km/h (3 Bft) O-NO 67 0 min 0,000 mm 0,0 UV-I 0 W/m 4,2 C -2,5 C 20,9 km/h (4 Bft) 100,00 %
08.01.2018 03:51 4,8 C 4,4 C 96 % 1022,9 hPa 0,0 l/m 19,3 km/h (3 Bft) O-NO 67 0 min 0,000 mm 0,0 UV-I 0 W/m 4,2 C -3,1 C 29,0 km/h (5 Bft) 100,00 %
08.01.2018 03:52 4,8 C 4,4 C 96 % 1022,9 hPa 0,0 l/m 25,7 km/h (4 Bft) O-NO 67 0 min 0,000 mm 0,0 UV-I 0 W/m 4,2 C -5,4 C 30,6 km/h (5 Bft) 100,00 %
08.01.2018 03:53 4,7 C 4,4 C 96 % 1022,9 hPa 0,0 l/m 22,5 km/h (4 Bft) O-NO 67 0 min 0,000 mm 0,0 UV-I 0 W/m 4,1 C -4,5 C 32,2 km/h (5 Bft) 100,00 %
08.01.2018 03:54 4,7 C 4,4 C 96 % 1022,9 hPa 0,0 l/m 20,9 km/h (4 Bft) O-NO 67 0 min 0,000 mm 0,0 UV-I 0 W/m 4,1 C -3,9 C 25,7 km/h (4 Bft) 100,00 %
08.01.2018 03:55 4,7 C 4,4 C 96 % 1022,9 hPa 0,0 l/m 22,5 km/h (4 Bft) NO 45 0 min 0,000 mm 0,0 UV-I 0 W/m 4,1 C -4,5 C 30,6 km/h (5 Bft) 95,65 %
08.01.2018 03:56 4,7 C 4,4 C 96 % 1022,9 hPa 0,0 l/m 22,5 km/h (4 Bft) O-NO 67 0 min 0,000 mm 0,0 UV-I 0 W/m 4,1 C -4,5 C 32,2 km/h (5 Bft) 95,65 %
08.01.2018 03:57 4,7 C 4,4 C 96 % 1022,9 hPa 0,0 l/m 17,7 km/h (3 Bft) O-NO 67 0 min 0,000 mm 0,0 UV-I 0 W/m 4,1 C -2,6 C 25,7 km/h (4 Bft) 100,00 %
08.01.2018 03:58 4,7 C 4,4 C 96 % 1022,9 hPa 0,0 l/m 19,3 km/h (3 Bft) O-NO 67 0 min 0,000 mm 0,0 UV-I 0 W/m 4,1 C -3,3 C 25,7 km/h (4 Bft) 100,00 %
08.01.2018 03:59 4,7 C 4,4 C 96 % 1022,9 hPa 0,0 l/m 16,1 km/h (3 Bft) O-NO 67 0 min 0,000 mm 0,0 UV-I 0 W/m 4,1 C -1,8 C 22,5 km/h (4 Bft) 100,00 %
08.01.2018 04:00 4,7 C 4,4 C 96 % 1022,9 hPa 0,0 l/m 19,3 km/h (3 Bft) O-NO 67 0 min 0,000 mm 0,0 UV-I 0 W/m 4,1 C -3,3 C 27,4 km/h (4 Bft) 100,00 %
08.01.2018 04:01 4,7 C 4,4 C 96 % 1022,8 hPa 0,0 l/m 17,7 km/h (3 Bft) O-NO 67 0 min 0,000 mm 0,0 UV-I 0 W/m 4,1 C -2,6 C 24,1 km/h (4 Bft) 95,65 %
08.01.2018 04:02 4,7 C 4,4 C 96 % 1022,9 hPa 0,0 l/m 16,1 km/h (3 Bft) O-NO 67 0 min 0,000 mm 0,0 UV-I 0 W/m 4,1 C -1,8 C 20,9 km/h (4 Bft) 91,30 %
08.01.2018 04:03 4,7 C 4,4 C 96 % 1022,9 hPa 0,0 l/m 20,9 km/h (4 Bft) O-NO 67 0 min 0,000 mm 0,0 UV-I 0 W/m 4,1 C -3,9 C 27,4 km/h (4 Bft) 100,00 %
08.01.2018 04:04 4,7 C 4,4 C 96 % 1022,9 hPa 0,0 l/m 24,1 km/h (4 Bft) O-NO 67 0 min 0,000 mm 0,0 UV-I 0 W/m 4,1 C -5,1 C 30,6 km/h (5 Bft) 100,00 %
08.01.2018 04:05 4,7 C 4,4 C 96 % 1022,9 hPa 0,0 l/m 22,5 km/h (4 Bft) O-NO 67 0 min 0,000 mm 0,0 UV-I 0 W/m 4,1 C -4,5 C 33,8 km/h (5 Bft) 100,00 %
08.01.2018 04:06 4,7 C 4,4 C 96 % 1023,0 hPa 0,0 l/m 24,1 km/h (4 Bft) O-NO 67 0 min 0,000 mm 0,0 UV-I 0 W/m 4,1 C -5,1 C 32,2 km/h (5 Bft) 100,00 %
08.01.2018 04:07 4,7 C 4,4 C 96 % 1022,9 hPa 0,0 l/m 20,9 km/h (4 Bft) O-NO 67 0 min 0,000 mm 0,0 UV-I 0 W/m 4,1 C -3,9 C 27,4 km/h (4 Bft) 100,00 %
08.01.2018 04:08 4,7 C 4,4 C 96 % 1023,0 hPa 0,0 l/m 20,9 km/h (4 Bft) O-NO 67 0 min 0,000 mm 0,0 UV-I 0 W/m 4,1 C -3,9 C 29,0 km/h (5 Bft) 100,00 %
08.01.2018 04:09 4,7 C 4,4 C 96 % 1022,9 hPa 0,0 l/m 22,5 km/h (4 Bft) O-NO 67 0 min 0,000 mm 0,0 UV-I 0 W/m 4,1 C -4,5 C 29,0 km/h (5 Bft) 95,65 %
08.01.2018 04:10 4,7 C 4,4 C 96 % 1022,9 hPa 0,0 l/m 20,9 km/h (4 Bft) O-NO 67 0 min 0,000 mm 0,0 UV-I 0 W/m 4,1 C -3,9 C 27,4 km/h (4 Bft) 100,00 %
08.01.2018 04:11 4,7 C 4,4 C 96 % 1023,0 hPa 0,0 l/m 19,3 km/h (3 Bft) O-NO 67 0 min 0,000 mm 0,0 UV-I 0 W/m 4,1 C -3,3 C 30,6 km/h (5 Bft) 95,65 %
08.01.2018 04:12 4,7 C 4,4 C 96 % 1022,9 hPa 0,0 l/m 17,7 km/h (3 Bft) O-NO 67 0 min 0,000 mm 0,0 UV-I 0 W/m 4,1 C -2,6 C 30,6 km/h (5 Bft) 100,00 %
08.01.2018 04:13 4,7 C 4,4 C 96 % 1023,0 hPa 0,0 l/m 12,9 km/h (3 Bft) NO 45 0 min 0,000 mm 0,0 UV-I 0 W/m 4,1 C -0,1 C 19,3 km/h (3 Bft) 100,00 %
08.01.2018 04:14 4,7 C 4,4 C 96 % 1023,0 hPa 0,0 l/m 16,1 km/h (3 Bft) NO 45 0 min 0,000 mm 0,0 UV-I 0 W/m 4,1 C -1,8 C 20,9 km/h (4 Bft) 100,00 %
08.01.2018 04:15 4,7 C 4,4 C 96 % 1023,0 hPa 0,0 l/m 17,7 km/h (3 Bft) O-NO 67 0 min 0,000 mm 0,0 UV-I 0 W/m 4,1 C -2,6 C 22,5 km/h (4 Bft) 100,00 %
08.01.2018 04:16 4,7 C 4,4 C 96 % 1023,0 hPa 0,0 l/m 20,9 km/h (4 Bft) O-NO 67 0 min 0,000 mm 0,0 UV-I 0 W/m 4,1 C -3,9 C 27,4 km/h (4 Bft) 95,65 %
08.01.2018 04:17 4,7 C 4,4 C 96 % 1023,0 hPa 0,0 l/m 22,5 km/h (4 Bft) O-NO 67 0 min 0,000 mm 0,0 UV-I 0 W/m 4,1 C -4,5 C 29,0 km/h (5 Bft) 100,00 %
08.01.2018 04:18 4,7 C 4,4 C 96 % 1023,0 hPa 0,0 l/m 20,9 km/h (4 Bft) O-NO 67 0 min 0,000 mm 0,0 UV-I 0 W/m 4,1 C -3,9 C 32,2 km/h (5 Bft) 100,00 %
08.01.2018 04:19 4,7 C 4,4 C 96 % 1023,0 hPa 0,0 l/m 19,3 km/h (3 Bft) O-NO 67 0 min 0,000 mm 0,0 UV-I 0 W/m 4,1 C -3,3 C 24,1 km/h (4 Bft) 100,00 %
08.01.2018 04:20 4,7 C 4,4 C 96 % 1023,1 hPa 0,0 l/m 19,3 km/h (3 Bft) O-NO 67 0 min 0,000 mm 0,0 UV-I 0 W/m 4,1 C -3,3 C 24,1 km/h (4 Bft) 100,00 %
08.01.2018 04:21 4,7 C 4,4 C 96 % 1023,1 hPa 0,0 l/m 20,9 km/h (4 Bft) O-NO 67 0 min 0,000 mm 0,0 UV-I 0 W/m 4,1 C -3,9 C 25,7 km/h (4 Bft) 100,00 %
08.01.2018 04:22 4,7 C 4,4 C 96 % 1023,0 hPa 0,0 l/m 25,7 km/h (4 Bft) O-NO 67 0 min 0,000 mm 0,0 UV-I 0 W/m 4,1 C -5,6 C 33,8 km/h (5 Bft) 100,00 %
08.01.2018 04:23 4,7 C 4,4 C 96 % 1023,0 hPa 0,0 l/m 24,1 km/h (4 Bft) O-NO 67 0 min 0,000 mm 0,0 UV-I 0 W/m 4,1 C -5,1 C 32,2 km/h (5 Bft) 95,65 %
08.01.2018 04:24 4,7 C 4,4 C 96 % 1023,1 hPa 0,0 l/m 20,9 km/h (4 Bft) O-NO 67 0 min 0,000 mm 0,0 UV-I 0 W/m 4,1 C -3,9 C 27,4 km/h (4 Bft) 100,00 %
08.01.2018 04:25 4,6 C 4,4 C 96 % 1023,1 hPa 0,0 l/m 22,5 km/h (4 Bft) O-NO 67 0 min 0,000 mm 0,0 UV-I 0 W/m 4,0 C -4,6 C 29,0 km/h (5 Bft) 95,65 %
08.01.2018 04:26 4,6 C 4,4 C 96 % 1023,0 hPa 0,0 l/m 19,3 km/h (3 Bft) O-NO 67 0 min 0,000 mm 0,0 UV-I 0 W/m 4,0 C -3,4 C 22,5 km/h (4 Bft) 95,65 %
08.01.2018 04:27 4,6 C 4,4 C 96 % 1023,0 hPa 0,0 l/m 19,3 km/h (3 Bft) O-NO 67 0 min 0,000 mm 0,0 UV-I 0 W/m 4,0 C -3,4 C 24,1 km/h (4 Bft) 100,00 %
08.01.2018 04:28 4,6 C 4,4 C 96 % 1023,0 hPa 0,0 l/m 22,5 km/h (4 Bft) O-NO 67 0 min 0,000 mm 0,0 UV-I 0 W/m 4,0 C -4,6 C 27,4 km/h (4 Bft) 100,00 %
08.01.2018 04:29 4,6 C 4,4 C 96 % 1023,0 hPa 0,0 l/m 17,7 km/h (3 Bft) O-NO 67 0 min 0,000 mm 0,0 UV-I 0 W/m 4,0 C -2,7 C 24,1 km/h (4 Bft) 95,65 %
08.01.2018 04:30 4,6 C 4,4 C 96 % 1022,9 hPa 0,0 l/m 14,5 km/h (3 Bft) O-NO 67 0 min 0,000 mm 0,0 UV-I 0 W/m 4,0 C -1,1 C 20,9 km/h (4 Bft) 95,65 %
08.01.2018 04:31 4,6 C 4,4 C 96 % 1023,0 hPa 0,0 l/m 19,3 km/h (3 Bft) NO 45 0 min 0,000 mm 0,0 UV-I 0 W/m 4,0 C -3,4 C 25,7 km/h (4 Bft) 100,00 %
08.01.2018 04:32 4,6 C 4,4 C 96 % 1022,9 hPa 0,0 l/m 17,7 km/h (3 Bft) O-NO 67 0 min 0,000 mm 0,0 UV-I 0 W/m 4,0 C -2,7 C 22,5 km/h (4 Bft) 95,65 %
08.01.2018 04:33 4,6 C 4,4 C 96 % 1023,0 hPa 0,0 l/m 17,7 km/h (3 Bft) O-NO 67 0 min 0,000 mm 0,0 UV-I 0 W/m 4,0 C -2,7 C 25,7 km/h (4 Bft) 100,00 %
08.01.2018 04:34 4,6 C 4,4 C 96 % 1022,9 hPa 0,0 l/m 22,5 km/h (4 Bft) O-NO 67 0 min 0,000 mm 0,0 UV-I 0 W/m 4,0 C -4,6 C 32,2 km/h (5 Bft) 100,00 %
08.01.2018 04:35 4,6 C 4,4 C 96 % 1022,9 hPa 0,0 l/m 24,1 km/h (4 Bft) O-NO 67 0 min 0,000 mm 0,0 UV-I 0 W/m 4,0 C -5,2 C 32,2 km/h (5 Bft) 95,65 %
08.01.2018 04:36 4,6 C 4,4 C 96 % 1022,9 hPa 0,0 l/m 22,5 km/h (4 Bft) O-NO 67 0 min 0,000 mm 0,0 UV-I 0 W/m 4,0 C -4,6 C 29,0 km/h (5 Bft) 100,00 %
08.01.2018 04:37 4,6 C 4,4 C 96 % 1023,0 hPa 0,0 l/m 19,3 km/h (3 Bft) O-NO 67 0 min 0,000 mm 0,0 UV-I 0 W/m 4,0 C -3,4 C 25,7 km/h (4 Bft) 91,30 %
08.01.2018 04:38 4,6 C 4,4 C 96 % 1023,0 hPa 0,0 l/m 19,3 km/h (3 Bft) O-NO 67 0 min 0,000 mm 0,0 UV-I 0 W/m 4,0 C -3,4 C 27,4 km/h (4 Bft) 95,65 %
08.01.2018 04:39 4,6 C 4,4 C 96 % 1023,1 hPa 0,0 l/m 25,7 km/h (4 Bft) O-NO 67 0 min 0,000 mm 0,0 UV-I 0 W/m 4,0 C -5,7 C 32,2 km/h (5 Bft) 91,30 %
08.01.2018 04:40 4,6 C 4,4 C 96 % 1023,0 hPa 0,0 l/m 22,5 km/h (4 Bft) O-NO 67 0 min 0,000 mm 0,0 UV-I 0 W/m 4,0 C -4,6 C 25,7 km/h (4 Bft) 95,65 %
08.01.2018 04:41 4,6 C 4,4 C 96 % 1023,1 hPa 0,0 l/m 19,3 km/h (3 Bft) O-NO 67 0 min 0,000 mm 0,0 UV-I 0 W/m 4,0 C -3,4 C 27,4 km/h (4 Bft) 95,65 %
08.01.2018 04:42 4,6 C 4,4 C 96 % 1023,0 hPa 0,0 l/m 20,9 km/h (4 Bft) O-NO 67 0 min 0,000 mm 0,0 UV-I 0 W/m 4,0 C -4,0 C 30,6 km/h (5 Bft) 95,65 %
08.01.2018 04:43 4,6 C 4,4 C 96 % 1023,0 hPa 0,0 l/m 16,1 km/h (3 Bft) O-NO 67 0 min 0,000 mm 0,0 UV-I 0 W/m 4,0 C -2,0 C 20,9 km/h (4 Bft) 95,65 %
08.01.2018 04:44 4,6 C 4,4 C 96 % 1023,0 hPa 0,0 l/m 17,7 km/h (3 Bft) O-NO 67 0 min 0,000 mm 0,0 UV-I 0 W/m 4,0 C -2,7 C 25,7 km/h (4 Bft) 91,30 %
08.01.2018 04:45 4,6 C 4,4 C 96 % 1023,0 hPa 0,0 l/m 17,7 km/h (3 Bft) O-NO 67 0 min 0,000 mm 0,0 UV-I 0 W/m 4,0 C -2,7 C 22,5 km/h (4 Bft) 100,00 %
08.01.2018 04:46 4,6 C 4,4 C 96 % 1023,1 hPa 0,0 l/m 19,3 km/h (3 Bft) O-NO 67 0 min 0,000 mm 0,0 UV-I 0 W/m 4,0 C -3,4 C 27,4 km/h (4 Bft) 91,30 %
08.01.2018 04:47 4,6 C 4,4 C 96 % 1023,1 hPa 0,0 l/m 19,3 km/h (3 Bft) O-NO 67 0 min 0,000 mm 0,0 UV-I 0 W/m 4,0 C -3,4 C 22,5 km/h (4 Bft) 100,00 %
08.01.2018 04:48 4,6 C 4,4 C 96 % 1023,1 hPa 0,0 l/m 19,3 km/h (3 Bft) O-NO 67 0 min 0,000 mm 0,0 UV-I 0 W/m 4,0 C -3,4 C 27,4 km/h (4 Bft) 91,30 %
08.01.2018 04:49 4,6 C 4,4 C 96 % 1023,1 hPa 0,0 l/m 19,3 km/h (3 Bft) O-NO 67 0 min 0,000 mm 0,0 UV-I 0 W/m 4,0 C -3,4 C 24,1 km/h (4 Bft) 100,00 %
08.01.2018 04:50 4,6 C 4,4 C 96 % 1023,1 hPa 0,0 l/m 17,7 km/h (3 Bft) O 90 0 min 0,000 mm 0,0 UV-I 0 W/m 4,0 C -2,7 C 27,4 km/h (4 Bft) 91,30 %
08.01.2018 04:51 4,6 C 4,4 C 96 % 1023,1 hPa 0,0 l/m 17,7 km/h (3 Bft) O-NO 67 0 min 0,000 mm 0,0 UV-I 0 W/m 4,0 C -2,7 C 22,5 km/h (4 Bft) 95,65 %
08.01.2018 04:52 4,6 C 4,4 C 96 % 1023,1 hPa 0,0 l/m 19,3 km/h (3 Bft) O-NO 67 0 min 0,000 mm 0,0 UV-I 0 W/m 4,0 C -3,4 C 27,4 km/h (4 Bft) 91,30 %
08.01.2018 04:53 4,6 C 4,4 C 96 % 1023,1 hPa 0,0 l/m 17,7 km/h (3 Bft) O-NO 67 0 min 0,000 mm 0,0 UV-I 0 W/m 4,0 C -2,7 C 30,6 km/h (5 Bft) 95,65 %
08.01.2018 04:54 4,6 C 4,4 C 96 % 1023,1 hPa 0,0 l/m 19,3 km/h (3 Bft) O-NO 67 0 min 0,000 mm 0,0 UV-I 0 W/m 4,0 C -3,4 C 29,0 km/h (5 Bft) 95,65 %
08.01.2018 04:55 4,6 C 4,4 C 96 % 1023,1 hPa 0,0 l/m 17,7 km/h (3 Bft) O 90 0 min 0,000 mm 0,0 UV-I 0 W/m 4,0 C -2,7 C 24,1 km/h (4 Bft) 91,30 %
08.01.2018 04:56 4,6 C 4,4 C 96 % 1023,0 hPa 0,0 l/m 17,7 km/h (3 Bft) O-NO 67 0 min 0,000 mm 0,0 UV-I 0 W/m 4,0 C -2,7 C 22,5 km/h (4 Bft) 100,00 %
08.01.2018 04:57 4,5 C 4,4 C 96 % 1023,0 hPa 0,0 l/m 19,3 km/h (3 Bft) O-NO 67 0 min 0,000 mm 0,0 UV-I 0 W/m 3,9 C -3,5 C 27,4 km/h (4 Bft) 95,65 %
08.01.2018 04:58 4,6 C 4,4 C 96 % 1023,0 hPa 0,0 l/m 20,9 km/h (4 Bft) O 90 0 min 0,000 mm 0,0 UV-I 0 W/m 4,0 C -4,0 C 24,1 km/h (4 Bft) 95,65 %
08.01.2018 04:59 4,5 C 4,4 C 96 % 1023,0 hPa 0,0 l/m 16,1 km/h (3 Bft) O-NO 67 0 min 0,000 mm 0,0 UV-I 0 W/m 3,9 C -2,1 C 20,9 km/h (4 Bft) 91,30 %
08.01.2018 05:00 4,5 C 4,4 C 96 % 1023,0 hPa 0,0 l/m 19,3 km/h (3 Bft) O-NO 67 0 min 0,000 mm 0,0 UV-I 0 W/m 3,9 C -3,5 C 25,7 km/h (4 Bft) 100,00 %
08.01.2018 05:01 4,6 C 4,4 C 96 % 1023,0 hPa 0,0 l/m 16,1 km/h (3 Bft) O-NO 67 0 min 0,000 mm 0,0 UV-I 0 W/m 4,0 C -2,0 C 20,9 km/h (4 Bft) 95,65 %
08.01.2018 05:02 4,6 C 4,4 C 96 % 1023,0 hPa 0,0 l/m 16,1 km/h (3 Bft) O-NO 67 0 min 0,000 mm 0,0 UV-I 0 W/m 4,0 C -2,0 C 24,1 km/h (4 Bft) 91,30 %
08.01.2018 05:03 4,5 C 4,4 C 96 % 1023,1 hPa 0,0 l/m 19,3 km/h (3 Bft) O-NO 67 0 min 0,000 mm 0,0 UV-I 0 W/m 3,9 C -3,5 C 25,7 km/h (4 Bft) 95,65 %
08.01.2018 05:04 4,5 C 4,4 C 96 % 1023,1 hPa 0,0 l/m 17,7 km/h (3 Bft) O-NO 67 0 min 0,000 mm 0,0 UV-I 0 W/m 3,9 C -2,8 C 25,7 km/h (4 Bft) 95,65 %
08.01.2018 05:05 4,6 C 4,4 C 96 % 1023,1 hPa 0,0 l/m 22,5 km/h (4 Bft) O-NO 67 0 min 0,000 mm 0,0 UV-I 0 W/m 4,0 C -4,6 C 27,4 km/h (4 Bft) 95,65 %
08.01.2018 05:06 4,5 C 4,4 C 96 % 1023,1 hPa 0,0 l/m 22,5 km/h (4 Bft) O-NO 67 0 min 0,000 mm 0,0 UV-I 0 W/m 3,9 C -4,8 C 27,4 km/h (4 Bft) 95,65 %
08.01.2018 05:07 4,6 C 4,4 C 96 % 1023,1 hPa 0,0 l/m 20,9 km/h (4 Bft) NO 45 0 min 0,000 mm 0,0 UV-I 0 W/m 4,0 C -4,0 C 25,7 km/h (4 Bft) 100,00 %
08.01.2018 05:08 4,6 C 4,4 C 96 % 1023,1 hPa 0,0 l/m 16,1 km/h (3 Bft) NO 45 0 min 0,000 mm 0,0 UV-I 0 W/m 4,0 C -2,0 C 20,9 km/h (4 Bft) 95,65 %
08.01.2018 05:09 4,6 C 4,4 C 96 % 1023,1 hPa 0,0 l/m 16,1 km/h (3 Bft) O-NO 67 0 min 0,000 mm 0,0 UV-I 0 W/m 4,0 C -2,0 C 22,5 km/h (4 Bft) 95,65 %
08.01.2018 05:10 4,6 C 4,4 C 96 % 1023,1 hPa 0,0 l/m 17,7 km/h (3 Bft) NO 45 0 min 0,000 mm 0,0 UV-I 0 W/m 4,0 C -2,7 C 27,4 km/h (4 Bft) 100,00 %
08.01.2018 05:11 4,5 C 4,4 C 96 % 1023,1 hPa 0,0 l/m 17,7 km/h (3 Bft) O-NO 67 0 min 0,000 mm 0,0 UV-I 0 W/m 3,9 C -2,8 C 24,1 km/h (4 Bft) 91,30 %
08.01.2018 05:12 4,5 C 4,4 C 96 % 1023,1 hPa 0,0 l/m 19,3 km/h (3 Bft) O-NO 67 0 min 0,000 mm 0,0 UV-I 0 W/m 3,9 C -3,5 C 25,7 km/h (4 Bft) 95,65 %
08.01.2018 05:13 4,6 C 4,4 C 96 % 1023,1 hPa 0,0 l/m 22,5 km/h (4 Bft) O-NO 67 0 min 0,000 mm 0,0 UV-I 0 W/m 4,0 C -4,6 C 27,4 km/h (4 Bft) 95,65 %
08.01.2018 05:14 4,5 C 4,4 C 96 % 1023,1 hPa 0,0 l/m 22,5 km/h (4 Bft) O-NO 67 0 min 0,000 mm 0,0 UV-I 0 W/m 3,9 C -4,8 C 30,6 km/h (5 Bft) 100,00 %
08.01.2018 05:15 4,6 C 4,4 C 96 % 1023,1 hPa 0,0 l/m 20,9 km/h (4 Bft) O-NO 67 0 min 0,000 mm 0,0 UV-I 0 W/m 4,0 C -4,0 C 27,4 km/h (4 Bft) 95,65 %
08.01.2018 05:16 4,6 C 4,4 C 96 % 1023,1 hPa 0,0 l/m 19,3 km/h (3 Bft) O-NO 67 0 min 0,000 mm 0,0 UV-I 0 W/m 4,0 C -3,4 C 24,1 km/h (4 Bft) 100,00 %
08.01.2018 05:17 4,6 C 4,4 C 96 % 1023,1 hPa 0,0 l/m 16,1 km/h (3 Bft) O-NO 67 0 min 0,000 mm 0,0 UV-I 0 W/m 4,0 C -2,0 C 19,3 km/h (3 Bft) 95,65 %
08.01.2018 05:18 4,5 C 4,4 C 96 % 1023,1 hPa 0,0 l/m 17,7 km/h (3 Bft) O-NO 67 0 min 0,000 mm 0,0 UV-I 0 W/m 3,9 C -2,8 C 20,9 km/h (4 Bft) 95,65 %
08.01.2018 05:19 4,5 C 4,4 C 96 % 1023,2 hPa 0,0 l/m 14,5 km/h (3 Bft) O-NO 67 0 min 0,000 mm 0,0 UV-I 0 W/m 3,9 C -1,3 C 20,9 km/h (4 Bft) 100,00 %
08.01.2018 05:20 4,6 C 4,4 C 96 % 1023,2 hPa 0,0 l/m 20,9 km/h (4 Bft) O-NO 67 0 min 0,000 mm 0,0 UV-I 0 W/m 4,0 C -4,0 C 25,7 km/h (4 Bft) 91,30 %
08.01.2018 05:21 4,6 C 4,4 C 96 % 1023,2 hPa 0,0 l/m 16,1 km/h (3 Bft) O-NO 67 0 min 0,000 mm 0,0 UV-I 0 W/m 4,0 C -2,0 C 24,1 km/h (4 Bft) 100,00 %
08.01.2018 05:22 4,5 C 4,4 C 96 % 1023,2 hPa 0,0 l/m 17,7 km/h (3 Bft) O-NO 67 0 min 0,000 mm 0,0 UV-I 0 W/m 3,9 C -2,8 C 24,1 km/h (4 Bft) 95,65 %
08.01.2018 05:23 4,5 C 4,4 C 96 % 1023,2 hPa 0,0 l/m 17,7 km/h (3 Bft) O-NO 67 0 min 0,000 mm 0,0 UV-I 0 W/m 3,9 C -2,8 C 22,5 km/h (4 Bft) 100,00 %
08.01.2018 05:24 4,6 C 4,4 C 96 % 1023,2 hPa 0,0 l/m 19,3 km/h (3 Bft) O-NO 67 0 min 0,000 mm 0,0 UV-I 0 W/m 4,0 C -3,4 C 27,4 km/h (4 Bft) 100,00 %
08.01.2018 05:25 4,6 C 4,4 C 96 % 1023,2 hPa 0,0 l/m 20,9 km/h (4 Bft) O-NO 67 0 min 0,000 mm 0,0 UV-I 0 W/m 4,0 C -4,0 C 25,7 km/h (4 Bft) 100,00 %
08.01.2018 05:26 4,5 C 4,4 C 96 % 1023,2 hPa 0,0 l/m 22,5 km/h (4 Bft) O-NO 67 0 min 0,000 mm 0,0 UV-I 0 W/m 3,9 C -4,8 C 29,0 km/h (5 Bft) 95,65 %
08.01.2018 05:27 4,6 C 4,4 C 96 % 1023,3 hPa 0,0 l/m 17,7 km/h (3 Bft) O-NO 67 0 min 0,000 mm 0,0 UV-I 0 W/m 4,0 C -2,7 C 20,9 km/h (4 Bft) 100,00 %
08.01.2018 05:28 4,6 C 4,4 C 96 % 1023,3 hPa 0,0 l/m 19,3 km/h (3 Bft) O-NO 67 0 min 0,000 mm 0,0 UV-I 0 W/m 4,0 C -3,4 C 24,1 km/h (4 Bft) 100,00 %
08.01.2018 05:29 4,6 C 4,4 C 96 % 1023,3 hPa 0,0 l/m 17,7 km/h (3 Bft) O-NO 67 0 min 0,000 mm 0,0 UV-I 0 W/m 4,0 C -2,7 C 22,5 km/h (4 Bft) 95,65 %
08.01.2018 05:30 4,6 C 4,4 C 96 % 1023,3 hPa 0,0 l/m 17,7 km/h (3 Bft) O-NO 67 0 min 0,000 mm 0,0 UV-I 0 W/m 4,0 C -2,7 C 22,5 km/h (4 Bft) 95,65 %
08.01.2018 05:31 4,5 C 4,4 C 96 % 1023,3 hPa 0,0 l/m 22,5 km/h (4 Bft) NO 45 0 min 0,000 mm 0,0 UV-I 0 W/m 3,9 C -4,8 C 25,7 km/h (4 Bft) 95,65 %
08.01.2018 05:32 4,6 C 4,4 C 96 % 1023,4 hPa 0,0 l/m 20,9 km/h (4 Bft) O-NO 67 0 min 0,000 mm 0,0 UV-I 0 W/m 4,0 C -4,0 C 24,1 km/h (4 Bft) 100,00 %
08.01.2018 05:33 4,6 C 4,4 C 96 % 1023,4 hPa 0,0 l/m 24,1 km/h (4 Bft) O-NO 67 0 min 0,000 mm 0,0 UV-I 0 W/m 4,0 C -5,2 C 32,2 km/h (5 Bft) 91,30 %
08.01.2018 05:34 4,6 C 4,4 C 96 % 1023,3 hPa 0,0 l/m 22,5 km/h (4 Bft) O-NO 67 0 min 0,000 mm 0,0 UV-I 0 W/m 4,0 C -4,6 C 30,6 km/h (5 Bft) 100,00 %
08.01.2018 05:35 4,6 C 4,4 C 96 % 1023,3 hPa 0,0 l/m 16,1 km/h (3 Bft) O-NO 67 0 min 0,000 mm 0,0 UV-I 0 W/m 4,0 C -2,0 C 22,5 km/h (4 Bft) 100,00 %
08.01.2018 05:36 4,5 C 4,4 C 96 % 1023,4 hPa 0,0 l/m 17,7 km/h (3 Bft) O-NO 67 0 min 0,000 mm 0,0 UV-I 0 W/m 3,9 C -2,8 C 22,5 km/h (4 Bft) 100,00 %
08.01.2018 05:37 4,6 C 4,4 C 96 % 1023,4 hPa 0,0 l/m 14,5 km/h (3 Bft) O-NO 67 0 min 0,000 mm 0,0 UV-I 0 W/m 4,0 C -1,1 C 20,9 km/h (4 Bft) 100,00 %
08.01.2018 05:38 4,5 C 4,4 C 96 % 1023,5 hPa 0,0 l/m 14,5 km/h (3 Bft) O-NO 67 0 min 0,000 mm 0,0 UV-I 0 W/m 3,9 C -1,3 C 19,3 km/h (3 Bft) 100,00 %
08.01.2018 05:39 4,5 C 4,4 C 96 % 1023,5 hPa 0,0 l/m 16,1 km/h (3 Bft) O-NO 67 0 min 0,000 mm 0,0 UV-I 0 W/m 3,9 C -2,1 C 19,3 km/h (3 Bft) 95,65 %
08.01.2018 05:40 4,5 C 4,4 C 96 % 1023,5 hPa 0,0 l/m 22,5 km/h (4 Bft) NO 45 0 min 0,000 mm 0,0 UV-I 0 W/m 3,9 C -4,8 C 29,0 km/h (5 Bft) 95,65 %
08.01.2018 05:41 4,5 C 4,4 C 96 % 1023,4 hPa 0,0 l/m 17,7 km/h (3 Bft) NO 45 0 min 0,000 mm 0,0 UV-I 0 W/m 3,9 C -2,8 C 22,5 km/h (4 Bft) 100,00 %
08.01.2018 05:42 4,5 C 4,4 C 96 % 1023,5 hPa 0,0 l/m 14,5 km/h (3 Bft) O-NO 67 0 min 0,000 mm 0,0 UV-I 0 W/m 3,9 C -1,3 C 19,3 km/h (3 Bft) 100,00 %
08.01.2018 05:43 4,5 C 4,4 C 96 % 1023,5 hPa 0,0 l/m 19,3 km/h (3 Bft) O-NO 67 0 min 0,000 mm 0,0 UV-I 0 W/m 3,9 C -3,5 C 29,0 km/h (5 Bft) 100,00 %
08.01.2018 05:44 4,5 C 4,4 C 97 % 1023,4 hPa 0,0 l/m 17,7 km/h (3 Bft) O-NO 67 0 min 0,000 mm 0,0 UV-I 0 W/m 4,1 C -2,8 C 25,7 km/h (4 Bft) 100,00 %
08.01.2018 05:45 4,5 C 4,4 C 97 % 1023,4 hPa 0,0 l/m 17,7 km/h (3 Bft) O-NO 67 0 min 0,000 mm 0,0 UV-I 0 W/m 4,1 C -2,8 C 22,5 km/h (4 Bft) 100,00 %
08.01.2018 05:46 4,5 C 4,4 C 97 % 1023,4 hPa 0,0 l/m 22,5 km/h (4 Bft) O-NO 67 0 min 0,000 mm 0,0 UV-I 0 W/m 4,1 C -4,8 C 30,6 km/h (5 Bft) 100,00 %
08.01.2018 05:47 4,5 C 4,4 C 97 % 1023,4 hPa 0,0 l/m 22,5 km/h (4 Bft) O-NO 67 0 min 0,000 mm 0,0 UV-I 0 W/m 4,1 C -4,8 C 30,6 km/h (5 Bft) 95,65 %
08.01.2018 05:48 4,5 C 4,4 C 97 % 1023,4 hPa 0,0 l/m 24,1 km/h (4 Bft) O-NO 67 0 min 0,000 mm 0,0 UV-I 0 W/m 4,1 C -5,3 C 27,4 km/h (4 Bft) 95,65 %
08.01.2018 05:49 4,5 C 4,4 C 97 % 1023,5 hPa 0,0 l/m 19,3 km/h (3 Bft) O-NO 67 0 min 0,000 mm 0,0 UV-I 0 W/m 4,1 C -3,5 C 24,1 km/h (4 Bft) 100,00 %
08.01.2018 05:50 4,5 C 4,4 C 97 % 1023,5 hPa 0,0 l/m 19,3 km/h (3 Bft) O-NO 67 0 min 0,000 mm 0,0 UV-I 0 W/m 4,1 C -3,5 C 29,0 km/h (5 Bft) 100,00 %
08.01.2018 05:51 4,5 C 4,4 C 97 % 1023,5 hPa 0,0 l/m 20,9 km/h (4 Bft) O-NO 67 0 min 0,000 mm 0,0 UV-I 0 W/m 4,1 C -4,2 C 25,7 km/h (4 Bft) 100,00 %
08.01.2018 05:52 4,5 C 4,4 C 97 % 1023,5 hPa 0,0 l/m 20,9 km/h (4 Bft) NO 45 0 min 0,000 mm 0,0 UV-I 0 W/m 4,1 C -4,2 C 27,4 km/h (4 Bft) 100,00 %
08.01.2018 05:53 4,5 C 4,4 C 97 % 1023,5 hPa 0,0 l/m 22,5 km/h (4 Bft) NO 45 0 min 0,000 mm 0,0 UV-I 0 W/m 4,1 C -4,8 C 32,2 km/h (5 Bft) 100,00 %
08.01.2018 05:54 4,5 C 4,4 C 97 % 1023,4 hPa 0,0 l/m 20,9 km/h (4 Bft) O-NO 67 0 min 0,000 mm 0,0 UV-I 0 W/m 4,1 C -4,2 C 29,0 km/h (5 Bft) 100,00 %
08.01.2018 05:55 4,5 C 4,4 C 97 % 1023,5 hPa 0,0 l/m 24,1 km/h (4 Bft) O-NO 67 0 min 0,000 mm 0,0 UV-I 0 W/m 4,1 C -5,3 C 29,0 km/h (5 Bft) 95,65 %
08.01.2018 05:56 4,5 C 4,4 C 97 % 1023,5 hPa 0,0 l/m 22,5 km/h (4 Bft) O-NO 67 0 min 0,000 mm 0,0 UV-I 0 W/m 4,1 C -4,8 C 29,0 km/h (5 Bft) 100,00 %
08.01.2018 05:57 4,5 C 4,4 C 97 % 1023,5 hPa 0,0 l/m 20,9 km/h (4 Bft) O-NO 67 0 min 0,000 mm 0,0 UV-I 0 W/m 4,1 C -4,2 C 27,4 km/h (4 Bft) 100,00 %
08.01.2018 05:58 4,5 C 4,4 C 97 % 1023,5 hPa 0,0 l/m 17,7 km/h (3 Bft) O-NO 67 0 min 0,000 mm 0,0 UV-I 0 W/m 4,1 C -2,8 C 25,7 km/h (4 Bft) 95,65 %
08.01.2018 05:59 4,5 C 4,4 C 97 % 1023,5 hPa 0,0 l/m 19,3 km/h (3 Bft) O-NO 67 0 min 0,000 mm 0,0 UV-I 0 W/m 4,1 C -3,5 C 25,7 km/h (4 Bft) 95,65 %
08.01.2018 06:00 4,5 C 4,4 C 97 % 1023,5 hPa 0,0 l/m 20,9 km/h (4 Bft) O-NO 67 0 min 0,000 mm 0,0 UV-I 0 W/m 4,1 C -4,2 C 27,4 km/h (4 Bft) 100,00 %
08.01.2018 06:01 4,5 C 4,4 C 97 % 1023,5 hPa 0,0 l/m 24,1 km/h (4 Bft) O-NO 67 0 min 0,000 mm 0,0 UV-I 0 W/m 4,1 C -5,3 C 30,6 km/h (5 Bft) 91,30 %
08.01.2018 06:02 4,5 C 4,4 C 97 % 1023,4 hPa 0,0 l/m 19,3 km/h (3 Bft) O-NO 67 0 min 0,000 mm 0,0 UV-I 0 W/m 4,1 C -3,5 C 24,1 km/h (4 Bft) 95,65 %
08.01.2018 06:03 4,5 C 4,4 C 97 % 1023,4 hPa 0,0 l/m 17,7 km/h (3 Bft) NO 45 0 min 0,000 mm 0,0 UV-I 0 W/m 4,1 C -2,8 C 22,5 km/h (4 Bft) 95,65 %
08.01.2018 06:04 4,5 C 4,4 C 97 % 1023,4 hPa 0,0 l/m 16,1 km/h (3 Bft) O-NO 67 0 min 0,000 mm 0,0 UV-I 0 W/m 4,1 C -2,1 C 19,3 km/h (3 Bft) 100,00 %
08.01.2018 06:05 4,5 C 4,4 C 97 % 1023,4 hPa 0,0 l/m 22,5 km/h (4 Bft) O-NO 67 0 min 0,000 mm 0,0 UV-I 0 W/m 4,1 C -4,8 C 29,0 km/h (5 Bft) 95,65 %
08.01.2018 06:06 4,5 C 4,4 C 97 % 1023,4 hPa 0,0 l/m 16,1 km/h (3 Bft) O-NO 67 0 min 0,000 mm 0,0 UV-I 0 W/m 4,1 C -2,1 C 24,1 km/h (4 Bft) 100,00 %
08.01.2018 06:07 4,5 C 4,4 C 97 % 1023,4 hPa 0,0 l/m 17,7 km/h (3 Bft) O-NO 67 0 min 0,000 mm 0,0 UV-I 0 W/m 4,1 C -2,8 C 22,5 km/h (4 Bft) 95,65 %
08.01.2018 06:08 4,5 C 4,4 C 97 % 1023,5 hPa 0,0 l/m 14,5 km/h (3 Bft) O-NO 67 0 min 0,000 mm 0,0 UV-I 0 W/m 4,1 C -1,3 C 20,9 km/h (4 Bft) 100,00 %
08.01.2018 06:09 4,5 C 4,4 C 97 % 1023,5 hPa 0,0 l/m 17,7 km/h (3 Bft) NO 45 0 min 0,000 mm 0,0 UV-I 0 W/m 4,1 C -2,8 C 22,5 km/h (4 Bft) 86,96 %
08.01.2018 06:10 4,5 C 4,4 C 97 % 1023,5 hPa 0,0 l/m 16,1 km/h (3 Bft) O-NO 67 0 min 0,000 mm 0,0 UV-I 0 W/m 4,1 C -2,1 C 19,3 km/h (3 Bft) 100,00 %
08.01.2018 06:11 4,5 C 4,4 C 97 % 1023,5 hPa 0,0 l/m 16,1 km/h (3 Bft) O-NO 67 0 min 0,000 mm 0,0 UV-I 0 W/m 4,1 C -2,1 C 20,9 km/h (4 Bft) 95,65 %
08.01.2018 06:12 4,5 C 4,4 C 97 % 1023,6 hPa 0,0 l/m 17,7 km/h (3 Bft) NO 45 0 min 0,000 mm 0,0 UV-I 0 W/m 4,1 C -2,8 C 20,9 km/h (4 Bft) 100,00 %
08.01.2018 06:13 4,5 C 4,4 C 97 % 1023,6 hPa 0,0 l/m 17,7 km/h (3 Bft) NO 45 0 min 0,000 mm 0,0 UV-I 0 W/m 4,1 C -2,8 C 22,5 km/h (4 Bft) 91,30 %
08.01.2018 06:14 4,5 C 4,4 C 97 % 1023,6 hPa 0,0 l/m 17,7 km/h (3 Bft) O-NO 67 0 min 0,000 mm 0,0 UV-I 0 W/m 4,1 C -2,8 C 20,9 km/h (4 Bft) 91,30 %
08.01.2018 06:15 4,5 C 4,4 C 97 % 1023,6 hPa 0,0 l/m 16,1 km/h (3 Bft) NO 45 0 min 0,000 mm 0,0 UV-I 0 W/m 4,1 C -2,1 C 20,9 km/h (4 Bft) 100,00 %
08.01.2018 06:16 4,5 C 4,4 C 97 % 1023,6 hPa 0,0 l/m 16,1 km/h (3 Bft) O-NO 67 0 min 0,000 mm 0,0 UV-I 0 W/m 4,1 C -2,1 C 19,3 km/h (3 Bft) 91,30 %
08.01.2018 06:17 4,5 C 4,4 C 97 % 1023,7 hPa 0,0 l/m 14,5 km/h (3 Bft) O-NO 67 0 min 0,000 mm 0,0 UV-I 0 W/m 4,1 C -1,3 C 20,9 km/h (4 Bft) 100,00 %
08.01.2018 06:18 4,5 C 4,4 C 97 % 1023,7 hPa 0,0 l/m 19,3 km/h (3 Bft) NO 45 0 min 0,000 mm 0,0 UV-I 0 W/m 4,1 C -3,5 C 22,5 km/h (4 Bft) 95,65 %
08.01.2018 06:19 4,5 C 4,4 C 97 % 1023,7 hPa 0,0 l/m 17,7 km/h (3 Bft) O-NO 67 0 min 0,000 mm 0,0 UV-I 0 W/m 4,1 C -2,8 C 20,9 km/h (4 Bft) 100,00 %
08.01.2018 06:20 4,5 C 4,4 C 97 % 1023,7 hPa 0,0 l/m 16,1 km/h (3 Bft) O-NO 67 0 min 0,000 mm 0,0 UV-I 0 W/m 4,1 C -2,1 C 20,9 km/h (4 Bft) 100,00 %
08.01.2018 06:21 4,5 C 4,4 C 97 % 1023,6 hPa 0,0 l/m 16,1 km/h (3 Bft) O-NO 67 0 min 0,000 mm 0,0 UV-I 0 W/m 4,1 C -2,1 C 22,5 km/h (4 Bft) 95,65 %
08.01.2018 06:22 4,5 C 4,4 C 97 % 1023,6 hPa 0,0 l/m 14,5 km/h (3 Bft) O-NO 67 0 min 0,000 mm 0,0 UV-I 0 W/m 4,1 C -1,3 C 22,5 km/h (4 Bft) 100,00 %
08.01.2018 06:23 4,5 C 4,4 C 97 % 1023,6 hPa 0,0 l/m 19,3 km/h (3 Bft) O-NO 67 0 min 0,000 mm 0,0 UV-I 0 W/m 4,1 C -3,5 C 24,1 km/h (4 Bft) 95,65 %
08.01.2018 06:24 4,5 C 4,4 C 97 % 1023,5 hPa 0,0 l/m 19,3 km/h (3 Bft) NO 45 0 min 0,000 mm 0,0 UV-I 0 W/m 4,1 C -3,5 C 25,7 km/h (4 Bft) 100,00 %
08.01.2018 06:25 4,5 C 4,4 C 97 % 1023,5 hPa 0,0 l/m 17,7 km/h (3 Bft) O-NO 67 0 min 0,000 mm 0,0 UV-I 0 W/m 4,1 C -2,8 C 22,5 km/h (4 Bft) 95,65 %
08.01.2018 06:26 4,5 C 4,4 C 97 % 1023,5 hPa 0,0 l/m 14,5 km/h (3 Bft) NO 45 0 min 0,000 mm 0,0 UV-I 0 W/m 4,1 C -1,3 C 19,3 km/h (3 Bft) 100,00 %
08.01.2018 06:27 4,5 C 4,4 C 97 % 1023,6 hPa 0,0 l/m 12,9 km/h (3 Bft) O-NO 67 0 min 0,000 mm 0,0 UV-I 0 W/m 4,1 C -0,4 C 16,1 km/h (3 Bft) 100,00 %
08.01.2018 06:28 4,5 C 4,4 C 97 % 1023,6 hPa 0,0 l/m 12,9 km/h (3 Bft) O-NO 67 0 min 0,000 mm 0,0 UV-I 0 W/m 4,1 C -0,4 C 16,1 km/h (3 Bft) 100,00 %
08.01.2018 06:29 4,6 C 4,4 C 97 % 1023,7 hPa 0,0 l/m 16,1 km/h (3 Bft) O-NO 67 0 min 0,000 mm 0,0 UV-I 0 W/m 4,2 C -2,0 C 22,5 km/h (4 Bft) 100,00 %
08.01.2018 06:30 4,6 C 4,4 C 97 % 1023,7 hPa 0,0 l/m 16,1 km/h (3 Bft) O-NO 67 0 min 0,000 mm 0,0 UV-I 0 W/m 4,2 C -2,0 C 24,1 km/h (4 Bft) 95,65 %
08.01.2018 06:31 4,6 C 4,4 C 97 % 1023,7 hPa 0,0 l/m 16,1 km/h (3 Bft) O-NO 67 0 min 0,000 mm 0,0 UV-I 0 W/m 4,2 C -2,0 C 24,1 km/h (4 Bft) 95,65 %
08.01.2018 06:32 4,6 C 4,4 C 97 % 1023,7 hPa 0,0 l/m 19,3 km/h (3 Bft) O-NO 67 0 min 0,000 mm 0,0 UV-I 0 W/m 4,2 C -3,4 C 22,5 km/h (4 Bft) 95,65 %
08.01.2018 06:33 4,6 C 4,4 C 97 % 1023,7 hPa 0,0 l/m 16,1 km/h (3 Bft) O-NO 67 0 min 0,000 mm 0,0 UV-I 0 W/m 4,2 C -2,0 C 24,1 km/h (4 Bft) 100,00 %
08.01.2018 06:34 4,6 C 4,4 C 97 % 1023,8 hPa 0,0 l/m 19,3 km/h (3 Bft) NO 45 0 min 0,000 mm 0,0 UV-I 0 W/m 4,2 C -3,4 C 24,1 km/h (4 Bft) 100,00 %
08.01.2018 06:35 4,6 C 4,4 C 97 % 1023,7 hPa 0,0 l/m 20,9 km/h (4 Bft) O-NO 67 0 min 0,000 mm 0,0 UV-I 0 W/m 4,2 C -4,0 C 27,4 km/h (4 Bft) 100,00 %
08.01.2018 06:36 4,6 C 4,4 C 97 % 1023,8 hPa 0,0 l/m 17,7 km/h (3 Bft) O-NO 67 0 min 0,000 mm 0,0 UV-I 0 W/m 4,2 C -2,7 C 22,5 km/h (4 Bft) 100,00 %
08.01.2018 06:37 4,6 C 4,4 C 97 % 1023,7 hPa 0,0 l/m 14,5 km/h (3 Bft) O-NO 67 0 min 0,000 mm 0,0 UV-I 0 W/m 4,2 C -1,1 C 19,3 km/h (3 Bft) 95,65 %
08.01.2018 06:38 4,6 C 4,4 C 97 % 1023,7 hPa 0,0 l/m 17,7 km/h (3 Bft) NO 45 0 min 0,000 mm 0,0 UV-I 0 W/m 4,2 C -2,7 C 20,9 km/h (4 Bft) 100,00 %
08.01.2018 06:39 4,6 C 4,4 C 97 % 1023,7 hPa 0,0 l/m 16,1 km/h (3 Bft) NO 45 0 min 0,000 mm 0,0 UV-I 0 W/m 4,2 C -2,0 C 20,9 km/h (4 Bft) 100,00 %
08.01.2018 06:40 4,6 C 4,4 C 97 % 1023,7 hPa 0,0 l/m 12,9 km/h (3 Bft) O-NO 67 0 min 0,000 mm 0,0 UV-I 0 W/m 4,2 C -0,2 C 22,5 km/h (4 Bft) 95,65 %
08.01.2018 06:41 4,6 C 4,4 C 97 % 1023,7 hPa 0,0 l/m 17,7 km/h (3 Bft) NO 45 0 min 0,000 mm 0,0 UV-I 0 W/m 4,2 C -2,7 C 20,9 km/h (4 Bft) 100,00 %
08.01.2018 06:42 4,6 C 4,4 C 97 % 1023,7 hPa 0,0 l/m 14,5 km/h (3 Bft) O-NO 67 0 min 0,000 mm 0,0 UV-I 0 W/m 4,2 C -1,1 C 20,9 km/h (4 Bft) 100,00 %
08.01.2018 06:43 4,6 C 4,4 C 97 % 1023,7 hPa 0,0 l/m 14,5 km/h (3 Bft) O-NO 67 0 min 0,000 mm 0,0 UV-I 0 W/m 4,2 C -1,1 C 17,7 km/h (3 Bft) 100,00 %
08.01.2018 06:44 4,6 C 4,4 C 97 % 1023,7 hPa 0,0 l/m 16,1 km/h (3 Bft) O-NO 67 0 min 0,000 mm 0,0 UV-I 0 W/m 4,2 C -2,0 C 24,1 km/h (4 Bft) 95,65 %
08.01.2018 06:45 4,6 C 4,4 C 97 % 1023,7 hPa 0,0 l/m 17,7 km/h (3 Bft) O-NO 67 0 min 0,000 mm 0,0 UV-I 0 W/m 4,2 C -2,7 C 27,4 km/h (4 Bft) 100,00 %
08.01.2018 06:46 4,6 C 4,4 C 97 % 1023,7 hPa 0,0 l/m 19,3 km/h (3 Bft) O-NO 67 0 min 0,000 mm 0,0 UV-I 0 W/m 4,2 C -3,4 C 24,1 km/h (4 Bft) 95,65 %
08.01.2018 06:47 4,6 C 4,4 C 97 % 1023,7 hPa 0,0 l/m 16,1 km/h (3 Bft) O-NO 67 0 min 0,000 mm 0,0 UV-I 0 W/m 4,2 C -2,0 C 22,5 km/h (4 Bft) 100,00 %
08.01.2018 06:48 4,6 C 4,4 C 97 % 1023,7 hPa 0,0 l/m 17,7 km/h (3 Bft) O-NO 67 0 min 0,000 mm 0,0 UV-I 0 W/m 4,2 C -2,7 C 22,5 km/h (4 Bft) 95,65 %
08.01.2018 06:49 4,6 C 4,4 C 97 % 1023,7 hPa 0,0 l/m 17,7 km/h (3 Bft) NO 45 0 min 0,000 mm 0,0 UV-I 0 W/m 4,2 C -2,7 C 22,5 km/h (4 Bft) 100,00 %
08.01.2018 06:50 4,6 C 4,4 C 97 % 1023,6 hPa 0,0 l/m 17,7 km/h (3 Bft) O-NO 67 0 min 0,000 mm 0,0 UV-I 0 W/m 4,2 C -2,7 C 22,5 km/h (4 Bft) 95,65 %
08.01.2018 06:51 4,6 C 4,4 C 97 % 1023,7 hPa 0,0 l/m 17,7 km/h (3 Bft) O-NO 67 0 min 0,000 mm 0,0 UV-I 0 W/m 4,2 C -2,7 C 20,9 km/h (4 Bft) 95,65 %
08.01.2018 06:52 4,6 C 4,4 C 97 % 1023,7 hPa 0,0 l/m 16,1 km/h (3 Bft) O-NO 67 0 min 0,000 mm 0,0 UV-I 0 W/m 4,2 C -2,0 C 19,3 km/h (3 Bft) 95,65 %
08.01.2018 06:53 4,6 C 4,4 C 97 % 1023,7 hPa 0,0 l/m 12,9 km/h (3 Bft) O-NO 67 0 min 0,000 mm 0,0 UV-I 0 W/m 4,2 C -0,2 C 19,3 km/h (3 Bft) 95,65 %
08.01.2018 06:54 4,6 C 4,4 C 97 % 1023,7 hPa 0,0 l/m 14,5 km/h (3 Bft) NO 45 0 min 0,000 mm 0,0 UV-I 0 W/m 4,2 C -1,1 C 17,7 km/h (3 Bft) 100,00 %
08.01.2018 06:55 4,6 C 4,4 C 97 % 1023,7 hPa 0,0 l/m 17,7 km/h (3 Bft) O-NO 67 0 min 0,000 mm 0,0 UV-I 0 W/m 4,2 C -2,7 C 22,5 km/h (4 Bft) 95,65 %
08.01.2018 06:56 4,6 C 4,4 C 97 % 1023,7 hPa 0,0 l/m 11,3 km/h (2 Bft) O-NO 67 0 min 0,000 mm 0,0 UV-I 0 W/m 4,2 C 0,7 C 17,7 km/h (3 Bft) 100,00 %
08.01.2018 06:57 4,6 C 4,4 C 97 % 1023,7 hPa 0,0 l/m 14,5 km/h (3 Bft) NO 45 0 min 0,000 mm 0,0 UV-I 0 W/m 4,2 C -1,1 C 20,9 km/h (4 Bft) 95,65 %
08.01.2018 06:58 4,6 C 4,4 C 97 % 1023,7 hPa 0,0 l/m 9,7 km/h (2 Bft) NO 45 0 min 0,000 mm 0,0 UV-I 0 W/m 4,2 C 1,8 C 16,1 km/h (3 Bft) 95,65 %
08.01.2018 06:59 4,6 C 4,4 C 97 % 1023,7 hPa 0,0 l/m 12,9 km/h (3 Bft) O-NO 67 0 min 0,000 mm 0,0 UV-I 0 W/m 4,2 C -0,2 C 19,3 km/h (3 Bft) 95,65 %
08.01.2018 07:00 4,6 C 4,4 C 97 % 1023,7 hPa 0,0 l/m 11,3 km/h (2 Bft) NO 45 0 min 0,000 mm 0,0 UV-I 0 W/m 4,2 C 0,7 C 19,3 km/h (3 Bft) 100,00 %
08.01.2018 07:01 4,6 C 4,4 C 97 % 1023,7 hPa 0,0 l/m 16,1 km/h (3 Bft) O-NO 67 0 min 0,000 mm 0,0 UV-I 0 W/m 4,2 C -2,0 C 24,1 km/h (4 Bft) 95,65 %
08.01.2018 07:02 4,6 C 4,4 C 97 % 1023,7 hPa 0,0 l/m 19,3 km/h (3 Bft) NO 45 0 min 0,000 mm 0,0 UV-I 0 W/m 4,2 C -3,4 C 24,1 km/h (4 Bft) 95,65 %
08.01.2018 07:03 4,6 C 4,4 C 97 % 1023,7 hPa 0,0 l/m 17,7 km/h (3 Bft) O-NO 67 0 min 0,000 mm 0,0 UV-I 0 W/m 4,2 C -2,7 C 22,5 km/h (4 Bft) 100,00 %
08.01.2018 07:04 4,6 C 4,4 C 97 % 1023,7 hPa 0,0 l/m 17,7 km/h (3 Bft) O-NO 67 0 min 0,000 mm 0,0 UV-I 0 W/m 4,2 C -2,7 C 22,5 km/h (4 Bft) 95,65 %
08.01.2018 07:05 4,6 C 4,4 C 97 % 1023,7 hPa 0,0 l/m 14,5 km/h (3 Bft) O-NO 67 0 min 0,000 mm 0,0 UV-I 0 W/m 4,2 C -1,1 C 17,7 km/h (3 Bft) 95,65 %
08.01.2018 07:06 4,6 C 4,4 C 97 % 1023,8 hPa 0,0 l/m 12,9 km/h (3 Bft) NO 45 0 min 0,000 mm 0,0 UV-I 0 W/m 4,2 C -0,2 C 17,7 km/h (3 Bft) 95,65 %
08.01.2018 07:07 4,6 C 4,4 C 97 % 1023,8 hPa 0,0 l/m 14,5 km/h (3 Bft) O-NO 67 0 min 0,000 mm 0,0 UV-I 0 W/m 4,2 C -1,1 C 17,7 km/h (3 Bft) 95,65 %
08.01.2018 07:08 4,6 C 4,4 C 97 % 1023,8 hPa 0,0 l/m 14,5 km/h (3 Bft) O-NO 67 0 min 0,000 mm 0,0 UV-I 0 W/m 4,2 C -1,1 C 19,3 km/h (3 Bft) 95,65 %
08.01.2018 07:09 4,6 C 4,4 C 97 % 1023,8 hPa 0,0 l/m 12,9 km/h (3 Bft) NO 45 0 min 0,000 mm 0,0 UV-I 0 W/m 4,2 C -0,2 C 17,7 km/h (3 Bft) 95,65 %
08.01.2018 07:10 4,6 C 4,4 C 97 % 1023,9 hPa 0,0 l/m 12,9 km/h (3 Bft) NO 45 0 min 0,000 mm 0,0 UV-I 0 W/m 4,2 C -0,2 C 19,3 km/h (3 Bft) 91,30 %
08.01.2018 07:11 4,6 C 4,4 C 97 % 1023,9 hPa 0,0 l/m 12,9 km/h (3 Bft) NO 45 0 min 0,000 mm 0,0 UV-I 0 W/m 4,2 C -0,2 C 16,1 km/h (3 Bft) 95,65 %
08.01.2018 07:12 4,6 C 4,4 C 97 % 1023,9 hPa 0,0 l/m 14,5 km/h (3 Bft) O-NO 67 0 min 0,000 mm 0,0 UV-I 0 W/m 4,2 C -1,1 C 20,9 km/h (4 Bft) 95,65 %
08.01.2018 07:13 4,6 C 4,4 C 97 % 1023,9 hPa 0,0 l/m 12,9 km/h (3 Bft) O-NO 67 0 min 0,000 mm 0,0 UV-I 0 W/m 4,2 C -0,2 C 24,1 km/h (4 Bft) 95,65 %
08.01.2018 07:14 4,6 C 4,4 C 97 % 1024,0 hPa 0,0 l/m 12,9 km/h (3 Bft) NO 45 0 min 0,000 mm 0,0 UV-I 0 W/m 4,2 C -0,2 C 17,7 km/h (3 Bft) 100,00 %
08.01.2018 07:15 4,6 C 4,4 C 97 % 1023,9 hPa 0,0 l/m 14,5 km/h (3 Bft) NO 45 0 min 0,000 mm 0,0 UV-I 0 W/m 4,2 C -1,1 C 17,7 km/h (3 Bft) 95,65 %
08.01.2018 07:16 4,6 C 4,4 C 97 % 1024,0 hPa 0,0 l/m 12,9 km/h (3 Bft) NO 45 0 min 0,000 mm 0,0 UV-I 0 W/m 4,2 C -0,2 C 16,1 km/h (3 Bft) 95,65 %
08.01.2018 07:17 4,6 C 4,4 C 97 % 1024,0 hPa 0,0 l/m 12,9 km/h (3 Bft) O-NO 67 0 min 0,000 mm 0,0 UV-I 0 W/m 4,2 C -0,2 C 19,3 km/h (3 Bft) 91,30 %
08.01.2018 07:18 4,6 C 4,4 C 97 % 1024,0 hPa 0,0 l/m 17,7 km/h (3 Bft) O-NO 67 0 min 0,000 mm 0,0 UV-I 0 W/m 4,2 C -2,7 C 20,9 km/h (4 Bft) 95,65 %
08.01.2018 07:19 4,6 C 4,4 C 97 % 1024,0 hPa 0,0 l/m 14,5 km/h (3 Bft) O-NO 67 0 min 0,000 mm 0,0 UV-I 0 W/m 4,2 C -1,1 C 19,3 km/h (3 Bft) 91,30 %
08.01.2018 07:20 4,6 C 4,4 C 97 % 1024,0 hPa 0,0 l/m 11,3 km/h (2 Bft) O-NO 67 0 min 0,000 mm 0,0 UV-I 0 W/m 4,2 C 0,7 C 19,3 km/h (3 Bft) 95,65 %
08.01.2018 07:21 4,6 C 4,4 C 97 % 1024,0 hPa 0,0 l/m 16,1 km/h (3 Bft) O-NO 67 0 min 0,000 mm 0,0 UV-I 0 W/m 4,2 C -2,0 C 20,9 km/h (4 Bft) 100,00 %
08.01.2018 07:22 4,5 C 4,4 C 97 % 1023,9 hPa 0,0 l/m 16,1 km/h (3 Bft) O-NO 67 0 min 0,000 mm 0,0 UV-I 0 W/m 4,1 C -2,1 C 22,5 km/h (4 Bft) 86,96 %
08.01.2018 07:23 4,6 C 4,4 C 97 % 1023,9 hPa 0,0 l/m 16,1 km/h (3 Bft) O-NO 67 0 min 0,000 mm 0,0 UV-I 0 W/m 4,2 C -2,0 C 24,1 km/h (4 Bft) 100,00 %
08.01.2018 07:24 4,6 C 4,4 C 97 % 1024,0 hPa 0,0 l/m 16,1 km/h (3 Bft) O-NO 67 0 min 0,000 mm 0,0 UV-I 0 W/m 4,2 C -2,0 C 24,1 km/h (4 Bft) 91,30 %
08.01.2018 07:25 4,6 C 4,4 C 97 % 1023,9 hPa 0,0 l/m 16,1 km/h (3 Bft) O-NO 67 0 min 0,000 mm 0,0 UV-I 0 W/m 4,2 C -2,0 C 20,9 km/h (4 Bft) 100,00 %
08.01.2018 07:26 4,6 C 4,4 C 97 % 1023,9 hPa 0,0 l/m 14,5 km/h (3 Bft) O-NO 67 0 min 0,000 mm 0,0 UV-I 0 W/m 4,2 C -1,1 C 17,7 km/h (3 Bft) 91,30 %
08.01.2018 07:27 4,6 C 4,4 C 97 % 1023,9 hPa 0,0 l/m 17,7 km/h (3 Bft) O-NO 67 0 min 0,000 mm 0,0 UV-I 0 W/m 4,2 C -2,7 C 24,1 km/h (4 Bft) 100,00 %
08.01.2018 07:28 4,6 C 4,4 C 97 % 1023,9 hPa 0,0 l/m 16,1 km/h (3 Bft) O-NO 67 0 min 0,000 mm 0,0 UV-I 0 W/m 4,2 C -2,0 C 22,5 km/h (4 Bft) 95,65 %
08.01.2018 07:29 4,6 C 4,4 C 97 % 1024,0 hPa 0,0 l/m 14,5 km/h (3 Bft) O-NO 67 0 min 0,000 mm 0,0 UV-I 0 W/m 4,2 C -1,1 C 19,3 km/h (3 Bft) 100,00 %
08.01.2018 07:30 4,6 C 4,4 C 97 % 1024,0 hPa 0,0 l/m 14,5 km/h (3 Bft) O-NO 67 0 min 0,000 mm 0,0 UV-I 0 W/m 4,2 C -1,1 C 19,3 km/h (3 Bft) 95,65 %
08.01.2018 07:31 4,6 C 4,4 C 97 % 1023,9 hPa 0,0 l/m 17,7 km/h (3 Bft) O-NO 67 0 min 0,000 mm 0,0 UV-I 0 W/m 4,2 C -2,7 C 24,1 km/h (4 Bft) 100,00 %
08.01.2018 07:32 4,6 C 4,4 C 97 % 1023,9 hPa 0,0 l/m 16,1 km/h (3 Bft) O-NO 67 0 min 0,000 mm 0,0 UV-I 0 W/m 4,2 C -2,0 C 20,9 km/h (4 Bft) 95,65 %
08.01.2018 07:33 4,6 C 4,4 C 97 % 1024,0 hPa 0,0 l/m 17,7 km/h (3 Bft) O-NO 67 0 min 0,000 mm 0,0 UV-I 0 W/m 4,2 C -2,7 C 20,9 km/h (4 Bft) 95,65 %
08.01.2018 07:34 4,6 C 4,4 C 97 % 1023,9 hPa 0,0 l/m 17,7 km/h (3 Bft) NO 45 0 min 0,000 mm 0,0 UV-I 0 W/m 4,2 C -2,7 C 22,5 km/h (4 Bft) 95,65 %
08.01.2018 07:35 4,6 C 4,4 C 97 % 1023,9 hPa 0,0 l/m 16,1 km/h (3 Bft) NO 45 0 min 0,000 mm 0,0 UV-I 0 W/m 4,2 C -2,0 C 19,3 km/h (3 Bft) 95,65 %
08.01.2018 07:36 4,6 C 4,4 C 97 % 1024,0 hPa 0,0 l/m 16,1 km/h (3 Bft) O-NO 67 0 min 0,000 mm 0,0 UV-I 0 W/m 4,2 C -2,0 C 24,1 km/h (4 Bft) 100,00 %
08.01.2018 07:37 4,6 C 4,4 C 97 % 1024,0 hPa 0,0 l/m 16,1 km/h (3 Bft) O-NO 67 0 min 0,000 mm 0,0 UV-I 0 W/m 4,2 C -2,0 C 20,9 km/h (4 Bft) 91,30 %
08.01.2018 07:38 4,6 C 4,4 C 97 % 1024,0 hPa 0,0 l/m 12,9 km/h (3 Bft) O-NO 67 0 min 0,000 mm 0,0 UV-I 0 W/m 4,2 C -0,2 C 16,1 km/h (3 Bft) 100,00 %
08.01.2018 07:39 4,6 C 4,4 C 97 % 1024,0 hPa 0,0 l/m 12,9 km/h (3 Bft) NO 45 0 min 0,000 mm 0,0 UV-I 0 W/m 4,2 C -0,2 C 19,3 km/h (3 Bft) 95,65 %
08.01.2018 07:40 4,6 C 4,4 C 97 % 1024,0 hPa 0,0 l/m 17,7 km/h (3 Bft) O-NO 67 0 min 0,000 mm 0,0 UV-I 0 W/m 4,2 C -2,7 C 19,3 km/h (3 Bft) 95,65 %
08.01.2018 07:41 4,6 C 4,4 C 97 % 1024,0 hPa 0,0 l/m 16,1 km/h (3 Bft) NO 45 0 min 0,000 mm 0,0 UV-I 0 W/m 4,2 C -2,0 C 20,9 km/h (4 Bft) 100,00 %
08.01.2018 07:42 4,6 C 4,4 C 97 % 1024,1 hPa 0,0 l/m 14,5 km/h (3 Bft) O-NO 67 0 min 0,000 mm 0,0 UV-I 0 W/m 4,2 C -1,1 C 19,3 km/h (3 Bft) 100,00 %
08.01.2018 07:43 4,6 C 4,4 C 97 % 1024,1 hPa 0,0 l/m 16,1 km/h (3 Bft) NO 45 0 min 0,000 mm 0,0 UV-I 0 W/m 4,2 C -2,0 C 20,9 km/h (4 Bft) 100,00 %
08.01.2018 07:44 4,6 C 4,4 C 97 % 1024,1 hPa 0,0 l/m 16,1 km/h (3 Bft) O-NO 67 0 min 0,000 mm 0,0 UV-I 0 W/m 4,2 C -2,0 C 20,9 km/h (4 Bft) 100,00 %
08.01.2018 07:45 4,6 C 4,4 C 97 % 1024,2 hPa 0,0 l/m 16,1 km/h (3 Bft) NO 45 0 min 0,000 mm 0,0 UV-I 0 W/m 4,2 C -2,0 C 19,3 km/h (3 Bft) 100,00 %
08.01.2018 07:46 4,6 C 4,4 C 97 % 1024,3 hPa 0,0 l/m 11,3 km/h (2 Bft) NO 45 0 min 0,000 mm 0,0 UV-I 0 W/m 4,2 C 0,7 C 16,1 km/h (3 Bft) 95,65 %
08.01.2018 07:47 4,6 C 4,4 C 97 % 1024,3 hPa 0,0 l/m 8,0 km/h (2 Bft) O-NO 67 0 min 0,000 mm 0,0 UV-I 0 W/m 4,2 C 3,2 C 14,5 km/h (3 Bft) 86,96 %
08.01.2018 07:48 4,6 C 4,4 C 96 % 1024,4 hPa 0,0 l/m 11,3 km/h (2 Bft) NO 45 0 min 0,000 mm 0,0 UV-I 0 W/m 4,0 C 0,7 C 14,5 km/h (3 Bft) 95,65 %
08.01.2018 07:49 4,6 C 4,4 C 96 % 1024,5 hPa 0,0 l/m 11,3 km/h (2 Bft) NO 45 0 min 0,000 mm 0,0 UV-I 0 W/m 4,0 C 0,7 C 16,1 km/h (3 Bft) 100,00 %
08.01.2018 07:50 4,6 C 4,4 C 96 % 1024,4 hPa 0,0 l/m 14,5 km/h (3 Bft) O-NO 67 0 min 0,000 mm 0,0 UV-I 0 W/m 4,0 C -1,1 C 22,5 km/h (4 Bft) 95,65 %
08.01.2018 07:51 4,6 C 4,4 C 96 % 1024,4 hPa 0,0 l/m 16,1 km/h (3 Bft) O-NO 67 0 min 0,000 mm 0,0 UV-I 0 W/m 4,0 C -2,0 C 19,3 km/h (3 Bft) 100,00 %
08.01.2018 07:52 4,6 C 4,4 C 96 % 1024,4 hPa 0,0 l/m 11,3 km/h (2 Bft) O-NO 67 0 min 0,000 mm 0,0 UV-I 0 W/m 4,0 C 0,7 C 16,1 km/h (3 Bft) 100,00 %
08.01.2018 07:53 4,6 C 4,4 C 96 % 1024,3 hPa 0,0 l/m 11,3 km/h (2 Bft) O-NO 67 0 min 0,000 mm 0,0 UV-I 0 W/m 4,0 C 0,7 C 16,1 km/h (3 Bft) 100,00 %
08.01.2018 07:54 4,6 C 4,4 C 96 % 1024,2 hPa 0,0 l/m 9,7 km/h (2 Bft) NO 45 0 min 0,000 mm 0,0 UV-I 0 W/m 4,0 C 1,8 C 14,5 km/h (3 Bft) 95,65 %
08.01.2018 07:55 4,6 C 4,4 C 96 % 1024,2 hPa 0,0 l/m 12,9 km/h (3 Bft) O-NO 67 0 min 0,000 mm 0,0 UV-I 0 W/m 4,0 C -0,2 C 17,7 km/h (3 Bft) 100,00 %
08.01.2018 07:56 4,6 C 4,4 C 96 % 1024,2 hPa 0,0 l/m 16,1 km/h (3 Bft) NO 45 0 min 0,000 mm 0,0 UV-I 0 W/m 4,0 C -2,0 C 22,5 km/h (4 Bft) 100,00 %
08.01.2018 07:57 4,6 C 4,4 C 96 % 1024,2 hPa 0,0 l/m 19,3 km/h (3 Bft) O-NO 67 0 min 0,000 mm 0,0 UV-I 5 W/m 4,0 C -3,4 C 27,4 km/h (4 Bft) 100,00 %
08.01.2018 07:58 4,6 C 4,4 C 96 % 1024,1 hPa 0,0 l/m 12,9 km/h (3 Bft) O-NO 67 0 min 0,000 mm 0,0 UV-I 5 W/m 4,0 C -0,2 C 19,3 km/h (3 Bft) 100,00 %
08.01.2018 07:59 4,6 C 4,4 C 96 % 1024,3 hPa 0,0 l/m 12,9 km/h (3 Bft) O-NO 67 0 min 0,000 mm 0,0 UV-I 5 W/m 4,0 C -0,2 C 20,9 km/h (4 Bft) 100,00 %
08.01.2018 08:00 4,6 C 4,4 C 96 % 1024,3 hPa 0,0 l/m 12,9 km/h (3 Bft) O-NO 67 0 min 0,000 mm 0,0 UV-I 5 W/m 4,0 C -0,2 C 16,1 km/h (3 Bft) 100,00 %
08.01.2018 08:01 4,6 C 4,4 C 96 % 1024,3 hPa 0,0 l/m 12,9 km/h (3 Bft) NO 45 0 min 0,000 mm 0,0 UV-I 5 W/m 4,0 C -0,2 C 20,9 km/h (4 Bft) 95,65 %
08.01.2018 08:02 4,6 C 4,4 C 96 % 1024,3 hPa 0,0 l/m 19,3 km/h (3 Bft) O-NO 67 0 min 0,000 mm 0,0 UV-I 5 W/m 4,0 C -3,4 C 22,5 km/h (4 Bft) 100,00 %
08.01.2018 08:03 4,6 C 4,4 C 96 % 1024,3 hPa 0,0 l/m 16,1 km/h (3 Bft) O-NO 67 0 min 0,000 mm 0,0 UV-I 5 W/m 4,0 C -2,0 C 24,1 km/h (4 Bft) 100,00 %
08.01.2018 08:04 4,6 C 4,4 C 96 % 1024,3 hPa 0,0 l/m 14,5 km/h (3 Bft) O-NO 67 0 min 0,000 mm 0,0 UV-I 5 W/m 4,0 C -1,1 C 17,7 km/h (3 Bft) 100,00 %
08.01.2018 08:05 4,6 C 4,4 C 96 % 1024,3 hPa 0,0 l/m 17,7 km/h (3 Bft) O-NO 67 0 min 0,000 mm 0,0 UV-I 7 W/m 4,0 C -2,7 C 22,5 km/h (4 Bft) 100,00 %
08.01.2018 08:06 4,6 C 4,4 C 96 % 1024,3 hPa 0,0 l/m 17,7 km/h (3 Bft) NO 45 0 min 0,000 mm 0,0 UV-I 7 W/m 4,0 C -2,7 C 22,5 km/h (4 Bft) 100,00 %
08.01.2018 08:07 4,6 C 4,4 C 96 % 1024,3 hPa 0,0 l/m 14,5 km/h (3 Bft) O-NO 67 0 min 0,000 mm 0,0 UV-I 7 W/m 4,0 C -1,1 C 22,5 km/h (4 Bft) 100,00 %
08.01.2018 08:08 4,6 C 4,4 C 96 % 1024,3 hPa 0,0 l/m 12,9 km/h (3 Bft) O-NO 67 0 min 0,000 mm 0,0 UV-I 7 W/m 4,0 C -0,2 C 16,1 km/h (3 Bft) 95,65 %
08.01.2018 08:09 4,6 C 4,4 C 96 % 1024,3 hPa 0,0 l/m 11,3 km/h (2 Bft) NO 45 0 min 0,000 mm 0,0 UV-I 7 W/m 4,0 C 0,7 C 16,1 km/h (3 Bft) 100,00 %
08.01.2018 08:10 4,6 C 4,4 C 96 % 1024,3 hPa 0,0 l/m 12,9 km/h (3 Bft) O-NO 67 0 min 0,000 mm 0,0 UV-I 7 W/m 4,0 C -0,2 C 17,7 km/h (3 Bft) 100,00 %
08.01.2018 08:11 4,6 C 4,4 C 96 % 1024,3 hPa 0,0 l/m 8,0 km/h (2 Bft) NO 45 0 min 0,000 mm 0,0 UV-I 7 W/m 4,0 C 3,2 C 14,5 km/h (3 Bft) 100,00 %
08.01.2018 08:12 4,6 C 4,4 C 96 % 1024,3 hPa 0,0 l/m 9,7 km/h (2 Bft) NO 45 0 min 0,000 mm 0,0 UV-I 7 W/m 4,0 C 1,8 C 17,7 km/h (3 Bft) 100,00 %
08.01.2018 08:13 4,6 C 4,4 C 96 % 1024,3 hPa 0,0 l/m 16,1 km/h (3 Bft) NO 45 0 min 0,000 mm 0,0 UV-I 7 W/m 4,0 C -2,0 C 20,9 km/h (4 Bft) 95,65 %
08.01.2018 08:14 4,6 C 4,4 C 96 % 1024,3 hPa 0,0 l/m 12,9 km/h (3 Bft) O-NO 67 0 min 0,000 mm 0,0 UV-I 7 W/m 4,0 C -0,2 C 16,1 km/h (3 Bft) 100,00 %
08.01.2018 08:15 4,6 C 4,4 C 96 % 1024,3 hPa 0,0 l/m 14,5 km/h (3 Bft) O-NO 67 0 min 0,000 mm 0,0 UV-I 9 W/m 4,0 C -1,1 C 20,9 km/h (4 Bft) 95,65 %
08.01.2018 08:16 4,6 C 4,4 C 96 % 1024,3 hPa 0,0 l/m 17,7 km/h (3 Bft) O-NO 67 0 min 0,000 mm 0,0 UV-I 9 W/m 4,0 C -2,7 C 20,9 km/h (4 Bft) 100,00 %
08.01.2018 08:17 4,6 C 4,4 C 96 % 1024,3 hPa 0,0 l/m 16,1 km/h (3 Bft) NO 45 0 min 0,000 mm 0,0 UV-I 9 W/m 4,0 C -2,0 C 20,9 km/h (4 Bft) 95,65 %
08.01.2018 08:18 4,6 C 4,4 C 96 % 1024,3 hPa 0,0 l/m 12,9 km/h (3 Bft) NO 45 0 min 0,000 mm 0,0 UV-I 9 W/m 4,0 C -0,2 C 17,7 km/h (3 Bft) 100,00 %
08.01.2018 08:19 4,6 C 4,4 C 96 % 1024,4 hPa 0,0 l/m 9,7 km/h (2 Bft) NO 45 0 min 0,000 mm 0,0 UV-I 9 W/m 4,0 C 1,8 C 14,5 km/h (3 Bft) 95,65 %
08.01.2018 08:20 4,6 C 4,4 C 96 % 1024,4 hPa 0,0 l/m 11,3 km/h (2 Bft) NO 45 0 min 0,000 mm 0,0 UV-I 9 W/m 4,0 C 0,7 C 16,1 km/h (3 Bft) 100,00 %
08.01.2018 08:21 4,6 C 4,4 C 96 % 1024,4 hPa 0,0 l/m 11,3 km/h (2 Bft) NO 45 0 min 0,000 mm 0,0 UV-I 9 W/m 4,0 C 0,7 C 16,1 km/h (3 Bft) 95,65 %
08.01.2018 08:22 4,6 C 4,4 C 96 % 1024,4 hPa 0,0 l/m 9,7 km/h (2 Bft) O-NO 67 0 min 0,000 mm 0,0 UV-I 11 W/m 4,0 C 1,8 C 12,9 km/h (3 Bft) 95,65 %
08.01.2018 08:23 4,6 C 4,4 C 96 % 1024,4 hPa 0,0 l/m 12,9 km/h (3 Bft) O-NO 67 0 min 0,000 mm 0,0 UV-I 11 W/m 4,0 C -0,2 C 17,7 km/h (3 Bft) 95,65 %
08.01.2018 08:24 4,6 C 4,4 C 96 % 1024,4 hPa 0,0 l/m 11,3 km/h (2 Bft) NO 45 0 min 0,000 mm 0,0 UV-I 11 W/m 4,0 C 0,7 C 14,5 km/h (3 Bft) 95,65 %
08.01.2018 08:25 4,6 C 4,4 C 96 % 1024,3 hPa 0,0 l/m 11,3 km/h (2 Bft) NO 45 0 min 0,000 mm 0,0 UV-I 11 W/m 4,0 C 0,7 C 16,1 km/h (3 Bft) 100,00 %
08.01.2018 08:26 4,6 C 4,4 C 96 % 1024,3 hPa 0,0 l/m 14,5 km/h (3 Bft) O-NO 67 0 min 0,000 mm 0,0 UV-I 11 W/m 4,0 C -1,1 C 17,7 km/h (3 Bft) 100,00 %
08.01.2018 08:27 4,6 C 4,4 C 96 % 1024,3 hPa 0,0 l/m 12,9 km/h (3 Bft) NO 45 0 min 0,000 mm 0,0 UV-I 11 W/m 4,0 C -0,2 C 17,7 km/h (3 Bft) 100,00 %
08.01.2018 08:28 4,6 C 4,4 C 96 % 1024,3 hPa 0,0 l/m 11,3 km/h (2 Bft) O-NO 67 0 min 0,000 mm 0,0 UV-I 11 W/m 4,0 C 0,7 C 16,1 km/h (3 Bft) 100,00 %
08.01.2018 08:29 4,6 C 4,4 C 96 % 1024,3 hPa 0,0 l/m 9,7 km/h (2 Bft) NO 45 0 min 0,000 mm 0,0 UV-I 11 W/m 4,0 C 1,8 C 17,7 km/h (3 Bft) 91,30 %
08.01.2018 08:30 4,6 C 4,4 C 96 % 1024,3 hPa 0,0 l/m 17,7 km/h (3 Bft) NO 45 0 min 0,000 mm 0,0 UV-I 11 W/m 4,0 C -2,7 C 20,9 km/h (4 Bft) 100,00 %
08.01.2018 08:31 4,6 C 4,4 C 96 % 1024,3 hPa 0,0 l/m 14,5 km/h (3 Bft) NO 45 0 min 0,000 mm 0,0 UV-I 12 W/m 4,0 C -1,1 C 19,3 km/h (3 Bft) 100,00 %
08.01.2018 08:32 4,6 C 4,4 C 96 % 1024,3 hPa 0,0 l/m 14,5 km/h (3 Bft) O-NO 67 0 min 0,000 mm 0,0 UV-I 12 W/m 4,0 C -1,1 C 17,7 km/h (3 Bft) 100,00 %
08.01.2018 08:33 4,6 C 4,4 C 96 % 1024,3 hPa 0,0 l/m 11,3 km/h (2 Bft) NO 45 0 min 0,000 mm 0,0 UV-I 12 W/m 4,0 C 0,7 C 14,5 km/h (3 Bft) 100,00 %
08.01.2018 08:34 4,6 C 4,4 C 96 % 1024,3 hPa 0,0 l/m 14,5 km/h (3 Bft) O-NO 67 0 min 0,000 mm 0,0 UV-I 12 W/m 4,0 C -1,1 C 20,9 km/h (4 Bft) 100,00 %
08.01.2018 08:35 4,6 C 4,4 C 96 % 1024,3 hPa 0,0 l/m 14,5 km/h (3 Bft) O-NO 67 0 min 0,000 mm 0,0 UV-I 12 W/m 4,0 C -1,1 C 17,7 km/h (3 Bft) 95,65 %
08.01.2018 08:36 4,6 C 4,4 C 96 % 1024,3 hPa 0,0 l/m 17,7 km/h (3 Bft) O-NO 67 0 min 0,000 mm 0,0 UV-I 12 W/m 4,0 C -2,7 C 22,5 km/h (4 Bft) 91,30 %
08.01.2018 08:37 4,6 C 4,4 C 96 % 1024,3 hPa 0,0 l/m 14,5 km/h (3 Bft) O-NO 67 0 min 0,000 mm 0,0 UV-I 12 W/m 4,0 C -1,1 C 19,3 km/h (3 Bft) 100,00 %
08.01.2018 08:38 4,6 C 4,4 C 96 % 1024,3 hPa 0,0 l/m 14,5 km/h (3 Bft) O-NO 67 0 min 0,000 mm 0,0 UV-I 12 W/m 4,0 C -1,1 C 19,3 km/h (3 Bft) 95,65 %
08.01.2018 08:39 4,6 C 4,4 C 96 % 1024,3 hPa 0,0 l/m 17,7 km/h (3 Bft) O-NO 67 0 min 0,000 mm 0,0 UV-I 14 W/m 4,0 C -2,7 C 22,5 km/h (4 Bft) 95,65 %
08.01.2018 08:40 4,6 C 4,4 C 96 % 1024,3 hPa 0,0 l/m 16,1 km/h (3 Bft) NO 45 0 min 0,000 mm 0,0 UV-I 14 W/m 4,0 C -2,0 C 20,9 km/h (4 Bft) 100,00 %
08.01.2018 08:41 4,6 C 4,4 C 96 % 1024,3 hPa 0,0 l/m 17,7 km/h (3 Bft) NO 45 0 min 0,000 mm 0,0 UV-I 12 W/m 4,0 C -2,7 C 20,9 km/h (4 Bft) 91,30 %
08.01.2018 08:42 4,6 C 4,4 C 96 % 1024,3 hPa 0,0 l/m 14,5 km/h (3 Bft) NO 45 0 min 0,000 mm 0,0 UV-I 13 W/m 4,0 C -1,1 C 19,3 km/h (3 Bft) 100,00 %
08.01.2018 08:43 4,6 C 4,4 C 96 % 1024,2 hPa 0,0 l/m 17,7 km/h (3 Bft) O-NO 67 0 min 0,000 mm 0,0 UV-I 12 W/m 4,0 C -2,7 C 20,9 km/h (4 Bft) 86,96 %
08.01.2018 08:44 4,6 C 4,4 C 96 % 1024,3 hPa 0,0 l/m 12,9 km/h (3 Bft) O-NO 67 0 min 0,000 mm 0,0 UV-I 14 W/m 4,0 C -0,2 C 19,3 km/h (3 Bft) 100,00 %
08.01.2018 08:45 4,6 C 4,4 C 96 % 1024,3 hPa 0,0 l/m 12,9 km/h (3 Bft) O-NO 67 0 min 0,000 mm 0,0 UV-I 14 W/m 4,0 C -0,2 C 20,9 km/h (4 Bft) 95,65 %
08.01.2018 08:46 4,6 C 4,4 C 96 % 1024,3 hPa 0,0 l/m 16,1 km/h (3 Bft) O-NO 67 0 min 0,000 mm 0,0 UV-I 14 W/m 4,0 C -2,0 C 24,1 km/h (4 Bft) 100,00 %
08.01.2018 08:47 4,6 C 4,4 C 96 % 1024,3 hPa 0,0 l/m 16,1 km/h (3 Bft) NO 45 0 min 0,000 mm 0,0 UV-I 12 W/m 4,0 C -2,0 C 22,5 km/h (4 Bft) 95,65 %
08.01.2018 08:48 4,6 C 4,4 C 96 % 1024,3 hPa 0,0 l/m 17,7 km/h (3 Bft) O-NO 67 0 min 0,000 mm 0,0 UV-I 14 W/m 4,0 C -2,7 C 22,5 km/h (4 Bft) 100,00 %
08.01.2018 08:49 4,6 C 4,4 C 96 % 1024,3 hPa 0,0 l/m 17,7 km/h (3 Bft) O-NO 67 0 min 0,000 mm 0,0 UV-I 14 W/m 4,0 C -2,7 C 22,5 km/h (4 Bft) 95,65 %
08.01.2018 08:50 4,6 C 4,4 C 97 % 1024,3 hPa 0,0 l/m 16,1 km/h (3 Bft) NO 45 0 min 0,000 mm 0,0 UV-I 14 W/m 4,2 C -2,0 C 20,9 km/h (4 Bft) 95,65 %
08.01.2018 08:51 4,6 C 4,4 C 97 % 1024,3 hPa 0,0 l/m 19,3 km/h (3 Bft) O-NO 67 0 min 0,000 mm 0,0 UV-I 14 W/m 4,2 C -3,4 C 22,5 km/h (4 Bft) 91,30 %
08.01.2018 08:52 4,6 C 4,4 C 97 % 1024,3 hPa 0,0 l/m 16,1 km/h (3 Bft) O-NO 67 0 min 0,000 mm 0,0 UV-I 14 W/m 4,2 C -2,0 C 22,5 km/h (4 Bft) 95,65 %
08.01.2018 08:53 4,6 C 4,4 C 97 % 1024,4 hPa 0,0 l/m 19,3 km/h (3 Bft) O-NO 67 0 min 0,000 mm 0,0 UV-I 14 W/m 4,2 C -3,4 C 22,5 km/h (4 Bft) 95,65 %
08.01.2018 08:54 4,6 C 4,4 C 97 % 1024,3 hPa 0,0 l/m 14,5 km/h (3 Bft) O-NO 67 0 min 0,000 mm 0,0 UV-I 14 W/m 4,2 C -1,1 C 19,3 km/h (3 Bft) 91,30 %
08.01.2018 08:55 4,6 C 4,4 C 97 % 1024,4 hPa 0,0 l/m 17,7 km/h (3 Bft) O-NO 67 0 min 0,000 mm 0,0 UV-I 14 W/m 4,2 C -2,7 C 20,9 km/h (4 Bft) 95,65 %
08.01.2018 08:56 4,6 C 4,4 C 97 % 1024,4 hPa 0,0 l/m 17,7 km/h (3 Bft) NO 45 0 min 0,000 mm 0,0 UV-I 14 W/m 4,2 C -2,7 C 22,5 km/h (4 Bft) 91,30 %
08.01.2018 08:57 4,6 C 4,4 C 97 % 1024,4 hPa 0,0 l/m 17,7 km/h (3 Bft) O-NO 67 0 min 0,000 mm 0,0 UV-I 14 W/m 4,2 C -2,7 C 24,1 km/h (4 Bft) 86,96 %
08.01.2018 08:58 4,6 C 4,4 C 97 % 1024,5 hPa 0,0 l/m 16,1 km/h (3 Bft) O-NO 67 0 min 0,000 mm 0,0 UV-I 14 W/m 4,2 C -2,0 C 20,9 km/h (4 Bft) 95,65 %
08.01.2018 08:59 4,6 C 4,4 C 97 % 1024,5 hPa 0,0 l/m 14,5 km/h (3 Bft) O-NO 67 0 min 0,000 mm 0,0 UV-I 14 W/m 4,2 C -1,1 C 19,3 km/h (3 Bft) 95,65 %
08.01.2018 09:00 4,6 C 4,4 C 97 % 1024,5 hPa 0,0 l/m 17,7 km/h (3 Bft) O-NO 67 0 min 0,000 mm 0,0 UV-I 14 W/m 4,2 C -2,7 C 22,5 km/h (4 Bft) 95,65 %
08.01.2018 09:01 4,6 C 4,4 C 97 % 1024,6 hPa 0,0 l/m 17,7 km/h (3 Bft) O-NO 67 0 min 0,000 mm 0,0 UV-I 14 W/m 4,2 C -2,7 C 22,5 km/h (4 Bft) 95,65 %
08.01.2018 09:02 4,6 C 4,4 C 97 % 1024,5 hPa 0,0 l/m 19,3 km/h (3 Bft) O-NO 67 0 min 0,000 mm 0,0 UV-I 14 W/m 4,2 C -3,4 C 24,1 km/h (4 Bft) 100,00 %
08.01.2018 09:03 4,6 C 4,4 C 97 % 1024,5 hPa 0,0 l/m 19,3 km/h (3 Bft) O-NO 67 0 min 0,000 mm 0,0 UV-I 16 W/m 4,2 C -3,4 C 24,1 km/h (4 Bft) 91,30 %
08.01.2018 09:04 4,6 C 4,4 C 97 % 1024,4 hPa 0,0 l/m 20,9 km/h (4 Bft) O-NO 67 0 min 0,000 mm 0,0 UV-I 16 W/m 4,2 C -4,0 C 25,7 km/h (4 Bft) 91,30 %
08.01.2018 09:05 4,6 C 4,4 C 97 % 1024,4 hPa 0,0 l/m 22,5 km/h (4 Bft) O-NO 67 0 min 0,000 mm 0,0 UV-I 16 W/m 4,2 C -4,6 C 25,7 km/h (4 Bft) 100,00 %
08.01.2018 09:06 4,6 C 4,4 C 97 % 1024,4 hPa 0,0 l/m 17,7 km/h (3 Bft) O-NO 67 0 min 0,000 mm 0,0 UV-I 16 W/m 4,2 C -2,7 C 24,1 km/h (4 Bft) 95,65 %
08.01.2018 09:07 4,6 C 4,4 C 97 % 1024,4 hPa 0,0 l/m 16,1 km/h (3 Bft) O-NO 67 0 min 0,000 mm 0,0 UV-I 16 W/m 4,2 C -2,0 C 19,3 km/h (3 Bft) 100,00 %
08.01.2018 09:08 4,6 C 4,4 C 97 % 1024,4 hPa 0,0 l/m 11,3 km/h (2 Bft) O-NO 67 0 min 0,000 mm 0,0 UV-I 18 W/m 4,2 C 0,7 C 16,1 km/h (3 Bft) 95,65 %
08.01.2018 09:09 4,6 C 4,4 C 97 % 1024,4 hPa 0,0 l/m 16,1 km/h (3 Bft) O-NO 67 0 min 0,000 mm 0,0 UV-I 18 W/m 4,2 C -2,0 C 19,3 km/h (3 Bft) 100,00 %
08.01.2018 09:11 4,6 C 4,4 C 97 % 1024,5 hPa 0,0 l/m 17,7 km/h (3 Bft) NO 45 0 min 0,000 mm 0,0 UV-I 17 W/m 4,2 C -2,7 C 22,5 km/h (4 Bft) 43,48 %
08.01.2018 09:12 4,6 C 4,4 C 97 % 1024,5 hPa 0,0 l/m 20,9 km/h (4 Bft) NO 45 0 min 0,000 mm 0,0 UV-I 18 W/m 4,2 C -4,0 C 24,1 km/h (4 Bft) 95,65 %
08.01.2018 09:13 4,6 C 4,4 C 97 % 1024,5 hPa 0,0 l/m 17,7 km/h (3 Bft) O-NO 67 0 min 0,000 mm 0,0 UV-I 16 W/m 4,2 C -2,7 C 22,5 km/h (4 Bft) 95,65 %
08.01.2018 09:14 4,6 C 4,4 C 97 % 1024,5 hPa 0,0 l/m 16,1 km/h (3 Bft) O-NO 67 0 min 0,000 mm 0,0 UV-I 18 W/m 4,2 C -2,0 C 20,9 km/h (4 Bft) 100,00 %
08.01.2018 09:15 4,6 C 4,4 C 97 % 1024,5 hPa 0,0 l/m 19,3 km/h (3 Bft) O-NO 67 0 min 0,000 mm 0,0 UV-I 18 W/m 4,2 C -3,4 C 25,7 km/h (4 Bft) 91,30 %
08.01.2018 09:16 4,6 C 4,4 C 97 % 1024,5 hPa 0,0 l/m 19,3 km/h (3 Bft) NO 45 0 min 0,000 mm 0,0 UV-I 19 W/m 4,2 C -3,4 C 27,4 km/h (4 Bft) 100,00 %
08.01.2018 09:17 4,6 C 4,4 C 97 % 1024,4 hPa 0,0 l/m 20,9 km/h (4 Bft) O-NO 67 0 min 0,000 mm 0,0 UV-I 19 W/m 4,2 C -4,0 C 24,1 km/h (4 Bft) 95,65 %
08.01.2018 09:18 4,6 C 4,4 C 97 % 1024,4 hPa 0,0 l/m 17,7 km/h (3 Bft) O-NO 67 0 min 0,000 mm 0,0 UV-I 19 W/m 4,2 C -2,7 C 22,5 km/h (4 Bft) 100,00 %
08.01.2018 09:20 4,7 C 4,4 C 97 % 1024,4 hPa 0,0 l/m 15,7 km/h (3 Bft) NO 51 0 min 0,000 mm 0,0 UV-I 20 W/m 4,3 C -1,6 C 19,3 km/h (3 Bft) 90,00 %
08.01.2018 09:21 4,6 C 4,4 C 97 % 1024,5 hPa 0,0 l/m 16,2 km/h (3 Bft) O-NO 74 0 min 0,000 mm 0,0 UV-I 20 W/m 4,2 C -2,0 C 19,3 km/h (3 Bft) 100,00 %
08.01.2018 09:22 4,7 C 4,4 C 97 % 1024,5 hPa 0,0 l/m 13,1 km/h (3 Bft) O-NO 58 0 min 0,000 mm 0,0 UV-I 19 W/m 4,3 C -0,2 C 19,3 km/h (3 Bft) 92,31 %
08.01.2018 09:23 4,7 C 4,4 C 97 % 1024,5 hPa 0,0 l/m 10,5 km/h (2 Bft) O-NO 67 0 min 0,000 mm 0,0 UV-I 20 W/m 4,3 C 1,4 C 11,3 km/h (2 Bft) 100,00 %
08.01.2018 09:24 4,7 C 4,4 C 97 % 1024,5 hPa 0,0 l/m 16,1 km/h (3 Bft) O-NO 78 0 min 0,000 mm 0,0 UV-I 21 W/m 4,3 C -1,8 C 20,9 km/h (4 Bft) 100,00 %
08.01.2018 09:25 4,7 C 4,4 C 97 % 1024,5 hPa 0,0 l/m 16,1 km/h (3 Bft) O-NO 58 0 min 0,000 mm 0,0 UV-I 20 W/m 4,3 C -1,8 C 20,9 km/h (4 Bft) 100,00 %
08.01.2018 09:27 4,7 C 4,4 C 97 % 1024,5 hPa 0,0 l/m 16,4 km/h (3 Bft) NO 52 0 min 0,000 mm 0,0 UV-I 21 W/m 4,3 C -2,0 C 20,9 km/h (4 Bft) 98,00 %
08.01.2018 09:28 4,7 C 4,4 C 97 % 1024,5 hPa 0,0 l/m 14,3 km/h (3 Bft) NO 36 0 min 0,000 mm 0,0 UV-I 23 W/m 4,3 C -0,9 C 19,3 km/h (3 Bft) 100,00 %
08.01.2018 09:29 4,7 C 4,4 C 97 % 1024,5 hPa 0,0 l/m 13,2 km/h (3 Bft) O-NO 61 0 min 0,000 mm 0,0 UV-I 25 W/m 4,3 C -0,3 C 19,3 km/h (3 Bft) 100,00 %
08.01.2018 09:30 4,7 C 4,4 C 97 % 1024,5 hPa 0,0 l/m 19,0 km/h (3 Bft) O-NO 71 0 min 0,000 mm 0,0 UV-I 24 W/m 4,3 C -3,1 C 22,5 km/h (4 Bft) 100,00 %
08.01.2018 09:32 4,7 C 4,4 C 97 % 1024,5 hPa 0,0 l/m 17,5 km/h (3 Bft) O-NO 61 0 min 0,000 mm 0,0 UV-I 26 W/m 4,3 C -2,5 C 29,0 km/h (5 Bft) 98,00 %
08.01.2018 09:33 4,7 C 4,4 C 97 % 1024,5 hPa 0,0 l/m 21,9 km/h (4 Bft) O-NO 57 0 min 0,000 mm 0,0 UV-I 28 W/m 4,3 C -4,3 C 27,4 km/h (4 Bft) 100,00 %
08.01.2018 09:34 4,7 C 4,4 C 97 % 1024,5 hPa 0,0 l/m 17,7 km/h (3 Bft) NO 50 0 min 0,000 mm 0,0 UV-I 28 W/m 4,3 C -2,6 C 24,1 km/h (4 Bft) 100,00 %
08.01.2018 09:35 4,7 C 4,4 C 97 % 1024,5 hPa 0,0 l/m 17,7 km/h (3 Bft) NO 45 0 min 0,000 mm 0,0 UV-I 30 W/m 4,3 C -2,6 C 19,3 km/h (3 Bft) 100,00 %
08.01.2018 09:36 4,7 C 4,4 C 97 % 1024,5 hPa 0,0 l/m 17,7 km/h (3 Bft) NO 45 0 min 0,000 mm 0,0 UV-I 32 W/m 4,3 C -2,6 C 22,5 km/h (4 Bft) 95,65 %
08.01.2018 09:37 4,7 C 4,4 C 97 % 1024,4 hPa 0,0 l/m 16,1 km/h (3 Bft) O-NO 67 0 min 0,000 mm 0,0 UV-I 30 W/m 4,3 C -1,8 C 20,9 km/h (4 Bft) 95,65 %
08.01.2018 09:38 4,7 C 4,4 C 96 % 1024,5 hPa 0,0 l/m 20,9 km/h (4 Bft) O-NO 67 0 min 0,000 mm 0,0 UV-I 30 W/m 4,1 C -3,9 C 25,7 km/h (4 Bft) 95,65 %
08.01.2018 09:39 4,7 C 4,4 C 96 % 1024,4 hPa 0,0 l/m 14,5 km/h (3 Bft) NO 45 0 min 0,000 mm 0,0 UV-I 32 W/m 4,1 C -1,0 C 19,3 km/h (3 Bft) 100,00 %
08.01.2018 09:40 4,7 C 4,4 C 96 % 1024,5 hPa 0,0 l/m 17,7 km/h (3 Bft) O-NO 67 0 min 0,000 mm 0,0 UV-I 31 W/m 4,1 C -2,6 C 22,5 km/h (4 Bft) 100,00 %
08.01.2018 09:41 4,7 C 4,4 C 96 % 1024,5 hPa 0,0 l/m 17,7 km/h (3 Bft) O-NO 67 0 min 0,000 mm 0,0 UV-I 33 W/m 4,1 C -2,6 C 24,1 km/h (4 Bft) 95,65 %
08.01.2018 09:42 4,7 C 4,4 C 96 % 1024,5 hPa 0,0 l/m 11,3 km/h (2 Bft) NO 45 0 min 0,000 mm 0,0 UV-I 37 W/m 4,1 C 0,9 C 16,1 km/h (3 Bft) 100,00 %
08.01.2018 09:43 4,7 C 4,4 C 96 % 1024,4 hPa 0,0 l/m 19,3 km/h (3 Bft) O-NO 67 0 min 0,000 mm 0,0 UV-I 37 W/m 4,1 C -3,3 C 24,1 km/h (4 Bft) 91,30 %
08.01.2018 09:44 4,7 C 4,4 C 97 % 1024,4 hPa 0,0 l/m 19,3 km/h (3 Bft) NO 45 0 min 0,000 mm 0,0 UV-I 35 W/m 4,3 C -3,3 C 24,1 km/h (4 Bft) 100,00 %
08.01.2018 09:45 4,7 C 4,4 C 97 % 1024,4 hPa 0,0 l/m 17,7 km/h (3 Bft) NO 45 0 min 0,000 mm 0,0 UV-I 39 W/m 4,3 C -2,6 C 25,7 km/h (4 Bft) 100,00 %
08.01.2018 09:46 4,7 C 4,4 C 97 % 1024,4 hPa 0,0 l/m 20,9 km/h (4 Bft) O-NO 67 0 min 0,000 mm 0,0 UV-I 37 W/m 4,3 C -3,9 C 24,1 km/h (4 Bft) 95,65 %
08.01.2018 09:47 4,7 C 4,4 C 97 % 1024,5 hPa 0,0 l/m 17,7 km/h (3 Bft) NO 45 0 min 0,000 mm 0,0 UV-I 39 W/m 4,3 C -2,6 C 24,1 km/h (4 Bft) 100,00 %
08.01.2018 09:48 4,7 C 4,4 C 97 % 1024,5 hPa 0,0 l/m 17,7 km/h (3 Bft) NO 45 0 min 0,000 mm 0,0 UV-I 40 W/m 4,3 C -2,6 C 25,7 km/h (4 Bft) 95,65 %
08.01.2018 09:49 4,7 C 4,4 C 97 % 1024,5 hPa 0,0 l/m 17,7 km/h (3 Bft) O-NO 67 0 min 0,000 mm 0,0 UV-I 39 W/m 4,3 C -2,6 C 25,7 km/h (4 Bft) 100,00 %
08.01.2018 09:50 4,8 C 4,4 C 97 % 1024,5 hPa 0,0 l/m 20,9 km/h (4 Bft) NO 45 0 min 0,000 mm 0,0 UV-I 37 W/m 4,4 C -3,8 C 27,4 km/h (4 Bft) 95,65 %
08.01.2018 09:51 4,8 C 4,4 C 96 % 1024,5 hPa 0,0 l/m 19,3 km/h (3 Bft) O-NO 67 0 min 0,000 mm 0,0 UV-I 35 W/m 4,2 C -3,1 C 25,7 km/h (4 Bft) 100,00 %
08.01.2018 09:52 4,8 C 4,4 C 96 % 1024,5 hPa 0,0 l/m 19,3 km/h (3 Bft) O-NO 67 0 min 0,000 mm 0,0 UV-I 36 W/m 4,2 C -3,1 C 22,5 km/h (4 Bft) 100,00 %
08.01.2018 09:53 4,8 C 4,4 C 96 % 1024,5 hPa 0,0 l/m 16,1 km/h (3 Bft) O-NO 67 0 min 0,000 mm 0,0 UV-I 37 W/m 4,2 C -1,7 C 20,9 km/h (4 Bft) 100,00 %
08.01.2018 09:54 4,8 C 4,4 C 96 % 1024,5 hPa 0,0 l/m 16,1 km/h (3 Bft) O-NO 67 0 min 0,000 mm 0,0 UV-I 39 W/m 4,2 C -1,7 C 20,9 km/h (4 Bft) 100,00 %
08.01.2018 09:55 4,8 C 4,4 C 96 % 1024,5 hPa 0,0 l/m 14,5 km/h (3 Bft) O-NO 67 0 min 0,000 mm 0,0 UV-I 40 W/m 4,2 C -0,9 C 19,3 km/h (3 Bft) 100,00 %
08.01.2018 09:56 4,8 C 4,4 C 96 % 1024,4 hPa 0,0 l/m 17,7 km/h (3 Bft) O-NO 67 0 min 0,000 mm 0,0 UV-I 42 W/m 4,2 C -2,5 C 20,9 km/h (4 Bft) 100,00 %
08.01.2018 09:57 4,8 C 4,4 C 96 % 1024,4 hPa 0,0 l/m 17,7 km/h (3 Bft) O-NO 67 0 min 0,000 mm 0,0 UV-I 40 W/m 4,2 C -2,5 C 25,7 km/h (4 Bft) 95,65 %
08.01.2018 09:58 4,8 C 4,4 C 96 % 1024,4 hPa 0,0 l/m 20,9 km/h (4 Bft) O-NO 67 0 min 0,000 mm 0,0 UV-I 40 W/m 4,2 C -3,8 C 25,7 km/h (4 Bft) 100,00 %
08.01.2018 09:59 4,8 C 4,4 C 96 % 1024,4 hPa 0,0 l/m 20,9 km/h (4 Bft) O-NO 67 0 min 0,000 mm 0,0 UV-I 46 W/m 4,2 C -3,8 C 25,7 km/h (4 Bft) 100,00 %
08.01.2018 10:00 4,8 C 4,4 C 96 % 1024,4 hPa 0,0 l/m 17,7 km/h (3 Bft) NO 45 0 min 0,025 mm 0,0 UV-I 51 W/m 4,2 C -2,5 C 24,1 km/h (4 Bft) 100,00 %
08.01.2018 10:01 4,8 C 4,4 C 96 % 1024,5 hPa 0,0 l/m 16,1 km/h (3 Bft) O-NO 67 0 min 0,000 mm 0,0 UV-I 54 W/m 4,2 C -1,7 C 24,1 km/h (4 Bft) 100,00 %
08.01.2018 10:02 4,8 C 4,4 C 96 % 1024,5 hPa 0,0 l/m 16,1 km/h (3 Bft) O-NO 67 0 min 0,000 mm 0,0 UV-I 53 W/m 4,2 C -1,7 C 20,9 km/h (4 Bft) 95,65 %
08.01.2018 10:03 4,8 C 4,4 C 96 % 1024,5 hPa 0,0 l/m 17,7 km/h (3 Bft) O-NO 67 0 min 0,000 mm 0,0 UV-I 47 W/m 4,2 C -2,5 C 24,1 km/h (4 Bft) 95,65 %
08.01.2018 10:04 4,8 C 4,4 C 96 % 1024,5 hPa 0,0 l/m 16,1 km/h (3 Bft) NO 45 0 min 0,000 mm 0,0 UV-I 49 W/m 4,2 C -1,7 C 17,7 km/h (3 Bft) 95,65 %
08.01.2018 10:05 4,8 C 4,4 C 96 % 1024,5 hPa 0,0 l/m 16,1 km/h (3 Bft) NO 45 0 min 0,000 mm 0,0 UV-I 46 W/m 4,2 C -1,7 C 19,3 km/h (3 Bft) 95,65 %
08.01.2018 10:06 4,8 C 4,4 C 96 % 1024,5 hPa 0,0 l/m 17,7 km/h (3 Bft) O-NO 67 0 min 0,000 mm 0,0 UV-I 42 W/m 4,2 C -2,5 C 27,4 km/h (4 Bft) 95,65 %
08.01.2018 10:07 4,8 C 4,4 C 96 % 1024,5 hPa 0,0 l/m 16,1 km/h (3 Bft) O-NO 67 0 min 0,000 mm 0,0 UV-I 47 W/m 4,2 C -1,7 C 24,1 km/h (4 Bft) 100,00 %
08.01.2018 10:08 4,8 C 4,4 C 96 % 1024,5 hPa 0,0 l/m 11,3 km/h (2 Bft) O-NO 67 0 min 0,000 mm 0,0 UV-I 46 W/m 4,2 C 1,0 C 19,3 km/h (3 Bft) 95,65 %
08.01.2018 10:09 4,8 C 4,4 C 96 % 1024,5 hPa 0,0 l/m 14,5 km/h (3 Bft) O-NO 67 0 min 0,000 mm 0,0 UV-I 46 W/m 4,2 C -0,9 C 16,1 km/h (3 Bft) 100,00 %
08.01.2018 10:10 4,8 C 4,4 C 96 % 1024,5 hPa 0,0 l/m 9,7 km/h (2 Bft) O-NO 67 0 min 0,000 mm 0,0 UV-I 44 W/m 4,2 C 2,1 C 14,5 km/h (3 Bft) 95,65 %
08.01.2018 10:11 4,9 C 4,4 C 96 % 1024,5 hPa 0,0 l/m 17,7 km/h (3 Bft) O-NO 67 0 min 0,000 mm 0,0 UV-I 40 W/m 4,3 C -2,3 C 25,7 km/h (4 Bft) 100,00 %
08.01.2018 10:12 4,9 C 4,4 C 96 % 1024,4 hPa 0,0 l/m 20,9 km/h (4 Bft) O-NO 67 0 min 0,000 mm 0,0 UV-I 44 W/m 4,3 C -3,7 C 29,0 km/h (5 Bft) 91,30 %
08.01.2018 10:13 4,9 C 4,4 C 96 % 1024,3 hPa 0,0 l/m 16,1 km/h (3 Bft) O-NO 67 0 min 0,000 mm 0,0 UV-I 47 W/m 4,3 C -1,6 C 20,9 km/h (4 Bft) 100,00 %
08.01.2018 10:14 4,8 C 4,4 C 96 % 1024,3 hPa 0,0 l/m 19,3 km/h (3 Bft) O-NO 67 0 min 0,000 mm 0,0 UV-I 53 W/m 4,2 C -3,1 C 25,7 km/h (4 Bft) 95,65 %
08.01.2018 10:15 4,8 C 4,4 C 96 % 1024,3 hPa 0,0 l/m 17,7 km/h (3 Bft) O-NO 67 0 min 0,000 mm 0,0 UV-I 44 W/m 4,2 C -2,5 C 24,1 km/h (4 Bft) 95,65 %
08.01.2018 10:16 4,9 C 4,4 C 96 % 1024,2 hPa 0,0 l/m 17,7 km/h (3 Bft) O-NO 67 0 min 0,000 mm 0,0 UV-I 40 W/m 4,3 C -2,3 C 22,5 km/h (4 Bft) 100,00 %
08.01.2018 10:17 4,9 C 4,4 C 96 % 1024,3 hPa 0,0 l/m 14,5 km/h (3 Bft) O-NO 67 0 min 0,000 mm 0,0 UV-I 37 W/m 4,3 C -0,8 C 19,3 km/h (3 Bft) 95,65 %
08.01.2018 10:18 4,9 C 4,4 C 96 % 1024,3 hPa 0,0 l/m 14,5 km/h (3 Bft) O-NO 67 0 min 0,000 mm 0,0 UV-I 39 W/m 4,3 C -0,8 C 20,9 km/h (4 Bft) 100,00 %
08.01.2018 10:19 4,9 C 4,4 C 96 % 1024,3 hPa 0,0 l/m 17,7 km/h (3 Bft) O-NO 67 0 min 0,000 mm 0,0 UV-I 37 W/m 4,3 C -2,3 C 20,9 km/h (4 Bft) 91,30 %
08.01.2018 10:20 4,9 C 4,4 C 96 % 1024,3 hPa 0,0 l/m 16,1 km/h (3 Bft) O-NO 67 0 min 0,000 mm 0,0 UV-I 40 W/m 4,3 C -1,6 C 20,9 km/h (4 Bft) 100,00 %
08.01.2018 10:21 4,9 C 4,4 C 96 % 1024,3 hPa 0,0 l/m 17,7 km/h (3 Bft) O-NO 67 0 min 0,000 mm 0,0 UV-I 44 W/m 4,3 C -2,3 C 24,1 km/h (4 Bft) 95,65 %
08.01.2018 10:22 4,9 C 4,4 C 96 % 1024,3 hPa 0,0 l/m 17,7 km/h (3 Bft) O-NO 67 0 min 0,000 mm 0,0 UV-I 39 W/m 4,3 C -2,3 C 22,5 km/h (4 Bft) 100,00 %
08.01.2018 10:23 4,9 C 4,4 C 96 % 1024,2 hPa 0,0 l/m 17,7 km/h (3 Bft) O-NO 67 0 min 0,000 mm 0,0 UV-I 37 W/m 4,3 C -2,3 C 20,9 km/h (4 Bft) 95,65 %
08.01.2018 10:24 4,9 C 4,4 C 96 % 1024,3 hPa 0,0 l/m 14,5 km/h (3 Bft) O-NO 67 0 min 0,000 mm 0,0 UV-I 39 W/m 4,3 C -0,8 C 19,3 km/h (3 Bft) 100,00 %
08.01.2018 10:25 4,9 C 4,4 C 96 % 1024,3 hPa 0,0 l/m 17,7 km/h (3 Bft) NO 45 0 min 0,000 mm 0,0 UV-I 35 W/m 4,3 C -2,3 C 24,1 km/h (4 Bft) 95,65 %
08.01.2018 10:26 4,9 C 4,4 C 96 % 1024,3 hPa 0,0 l/m 16,1 km/h (3 Bft) O-NO 67 0 min 0,000 mm 0,0 UV-I 35 W/m 4,3 C -1,6 C 19,3 km/h (3 Bft) 95,65 %
08.01.2018 10:27 4,9 C 4,4 C 96 % 1024,3 hPa 0,0 l/m 14,5 km/h (3 Bft) O-NO 67 0 min 0,000 mm 0,0 UV-I 36 W/m 4,3 C -0,8 C 19,3 km/h (3 Bft) 100,00 %
08.01.2018 10:28 4,9 C 4,4 C 96 % 1024,4 hPa 0,0 l/m 14,5 km/h (3 Bft) O-NO 67 0 min 0,000 mm 0,0 UV-I 37 W/m 4,3 C -0,8 C 17,7 km/h (3 Bft) 95,65 %
08.01.2018 10:29 4,9 C 4,4 C 96 % 1024,4 hPa 0,0 l/m 17,7 km/h (3 Bft) O-NO 67 0 min 0,000 mm 0,0 UV-I 35 W/m 4,3 C -2,3 C 25,7 km/h (4 Bft) 95,65 %
08.01.2018 10:30 4,9 C 4,4 C 96 % 1024,4 hPa 0,0 l/m 14,5 km/h (3 Bft) O-NO 67 0 min 0,000 mm 0,0 UV-I 35 W/m 4,3 C -0,8 C 22,5 km/h (4 Bft) 100,00 %
08.01.2018 10:31 4,9 C 4,4 C 96 % 1024,5 hPa 0,0 l/m 14,5 km/h (3 Bft) O-NO 67 0 min 0,000 mm 0,0 UV-I 33 W/m 4,3 C -0,8 C 20,9 km/h (4 Bft) 100,00 %
08.01.2018 10:32 4,9 C 4,4 C 96 % 1024,5 hPa 0,0 l/m 16,1 km/h (3 Bft) O 90 0 min 0,000 mm 0,0 UV-I 35 W/m 4,3 C -1,6 C 20,9 km/h (4 Bft) 100,00 %
08.01.2018 10:33 4,9 C 4,4 C 96 % 1024,5 hPa 0,0 l/m 19,3 km/h (3 Bft) O-NO 67 0 min 0,000 mm 0,0 UV-I 37 W/m 4,3 C -3,0 C 24,1 km/h (4 Bft) 95,65 %
08.01.2018 10:34 4,9 C 4,4 C 96 % 1024,5 hPa 0,0 l/m 19,3 km/h (3 Bft) O-NO 67 0 min 0,000 mm 0,0 UV-I 33 W/m 4,3 C -3,0 C 24,1 km/h (4 Bft) 100,00 %
08.01.2018 10:35 4,9 C 4,4 C 96 % 1024,5 hPa 0,0 l/m 20,9 km/h (4 Bft) O-NO 67 0 min 0,000 mm 0,0 UV-I 35 W/m 4,3 C -3,7 C 25,7 km/h (4 Bft) 100,00 %
08.01.2018 10:36 4,9 C 4,4 C 96 % 1024,5 hPa 0,0 l/m 17,7 km/h (3 Bft) O-NO 67 0 min 0,000 mm 0,0 UV-I 37 W/m 4,3 C -2,3 C 24,1 km/h (4 Bft) 100,00 %
08.01.2018 10:37 4,9 C 4,4 C 96 % 1024,5 hPa 0,0 l/m 19,3 km/h (3 Bft) O-NO 67 0 min 0,000 mm 0,0 UV-I 40 W/m 4,3 C -3,0 C 27,4 km/h (4 Bft) 100,00 %
08.01.2018 10:38 4,9 C 4,4 C 96 % 1024,5 hPa 0,0 l/m 20,9 km/h (4 Bft) O-NO 67 0 min 0,000 mm 0,0 UV-I 44 W/m 4,3 C -3,7 C 27,4 km/h (4 Bft) 100,00 %
08.01.2018 10:39 4,9 C 4,4 C 95 % 1024,5 hPa 0,0 l/m 19,3 km/h (3 Bft) O-NO 67 0 min 0,000 mm 0,0 UV-I 39 W/m 4,2 C -3,0 C 29,0 km/h (5 Bft) 100,00 %
08.01.2018 10:40 5,0 C 4,4 C 95 % 1024,4 hPa 0,0 l/m 24,1 km/h (4 Bft) O 90 0 min 0,000 mm 0,0 UV-I 39 W/m 4,3 C -4,7 C 30,6 km/h (5 Bft) 95,65 %
08.01.2018 10:41 5,0 C 4,4 C 95 % 1024,4 hPa 0,0 l/m 24,1 km/h (4 Bft) O-NO 67 0 min 0,000 mm 0,0 UV-I 47 W/m 4,3 C -4,7 C 29,0 km/h (5 Bft) 95,65 %
08.01.2018 10:42 5,0 C 4,4 C 95 % 1024,4 hPa 0,0 l/m 22,5 km/h (4 Bft) O 90 0 min 0,000 mm 0,0 UV-I 51 W/m 4,3 C -4,1 C 30,6 km/h (5 Bft) 95,65 %
08.01.2018 10:43 4,9 C 4,4 C 95 % 1024,4 hPa 0,0 l/m 20,9 km/h (4 Bft) O-NO 67 0 min 0,000 mm 0,0 UV-I 49 W/m 4,2 C -3,7 C 27,4 km/h (4 Bft) 100,00 %
08.01.2018 10:44 5,0 C 4,4 C 95 % 1024,4 hPa 0,0 l/m 19,3 km/h (3 Bft) O-NO 67 0 min 0,000 mm 0,0 UV-I 49 W/m 4,3 C -2,9 C 22,5 km/h (4 Bft) 100,00 %
08.01.2018 10:45 5,0 C 4,4 C 95 % 1024,3 hPa 0,0 l/m 25,7 km/h (4 Bft) O-NO 67 0 min 0,000 mm 0,0 UV-I 52 W/m 4,3 C -5,2 C 33,8 km/h (5 Bft) 100,00 %
08.01.2018 10:46 5,0 C 4,4 C 95 % 1024,4 hPa 0,0 l/m 25,7 km/h (4 Bft) O-NO 67 0 min 0,000 mm 0,0 UV-I 37 W/m 4,3 C -5,2 C 33,8 km/h (5 Bft) 100,00 %
08.01.2018 10:47 5,0 C 4,4 C 95 % 1024,4 hPa 0,0 l/m 20,9 km/h (4 Bft) O-NO 67 0 min 0,000 mm 0,0 UV-I 35 W/m 4,3 C -3,5 C 25,7 km/h (4 Bft) 95,65 %
08.01.2018 10:48 5,0 C 4,4 C 95 % 1024,4 hPa 0,0 l/m 19,3 km/h (3 Bft) O-NO 67 0 min 0,000 mm 0,0 UV-I 33 W/m 4,3 C -2,9 C 25,7 km/h (4 Bft) 95,65 %
08.01.2018 10:49 5,0 C 4,4 C 95 % 1024,4 hPa 0,0 l/m 20,9 km/h (4 Bft) O-NO 67 0 min 0,000 mm 0,0 UV-I 32 W/m 4,3 C -3,5 C 27,4 km/h (4 Bft) 100,00 %
08.01.2018 10:50 5,0 C 4,4 C 95 % 1024,4 hPa 0,0 l/m 20,9 km/h (4 Bft) O-NO 67 0 min 0,000 mm 0,0 UV-I 33 W/m 4,3 C -3,5 C 30,6 km/h (5 Bft) 100,00 %
08.01.2018 10:51 5,0 C 4,4 C 95 % 1024,4 hPa 0,0 l/m 22,5 km/h (4 Bft) O-NO 67 0 min 0,000 mm 0,0 UV-I 41 W/m 4,3 C -4,1 C 30,6 km/h (5 Bft) 100,00 %
08.01.2018 10:52 5,0 C 4,4 C 95 % 1024,3 hPa 0,0 l/m 24,1 km/h (4 Bft) O-NO 67 0 min 0,000 mm 0,0 UV-I 37 W/m 4,3 C -4,7 C 30,6 km/h (5 Bft) 100,00 %
08.01.2018 10:53 5,0 C 4,4 C 95 % 1024,2 hPa 0,0 l/m 19,3 km/h (3 Bft) O-NO 67 0 min 0,000 mm 0,0 UV-I 37 W/m 4,3 C -2,9 C 22,5 km/h (4 Bft) 100,00 %
08.01.2018 10:54 5,0 C 4,4 C 95 % 1024,3 hPa 0,0 l/m 22,5 km/h (4 Bft) O-NO 67 0 min 0,000 mm 0,0 UV-I 40 W/m 4,3 C -4,1 C 33,8 km/h (5 Bft) 95,65 %
08.01.2018 10:55 5,0 C 4,4 C 95 % 1024,3 hPa 0,0 l/m 20,9 km/h (4 Bft) O-NO 67 0 min 0,000 mm 0,0 UV-I 47 W/m 4,3 C -3,5 C 29,0 km/h (5 Bft) 100,00 %
08.01.2018 10:56 5,0 C 4,4 C 95 % 1024,3 hPa 0,0 l/m 24,1 km/h (4 Bft) O-NO 67 0 min 0,000 mm 0,0 UV-I 45 W/m 4,3 C -4,7 C 35,4 km/h (5 Bft) 95,65 %
08.01.2018 10:57 4,9 C 4,4 C 95 % 1024,3 hPa 0,0 l/m 24,1 km/h (4 Bft) NO 45 0 min 0,000 mm 0,0 UV-I 44 W/m 4,2 C -4,8 C 29,0 km/h (5 Bft) 95,65 %
08.01.2018 10:58 4,9 C 4,4 C 95 % 1024,3 hPa 0,0 l/m 20,9 km/h (4 Bft) O-NO 67 0 min 0,000 mm 0,0 UV-I 42 W/m 4,2 C -3,7 C 25,7 km/h (4 Bft) 100,00 %
08.01.2018 10:59 4,9 C 4,4 C 95 % 1024,3 hPa 0,0 l/m 22,5 km/h (4 Bft) O-NO 67 0 min 0,000 mm 0,0 UV-I 42 W/m 4,2 C -4,2 C 30,6 km/h (5 Bft) 95,65 %
08.01.2018 11:00 4,9 C 4,4 C 95 % 1024,2 hPa 0,0 l/m 17,7 km/h (3 Bft) O-NO 67 0 min 0,025 mm 0,0 UV-I 60 W/m 4,2 C -2,3 C 25,7 km/h (4 Bft) 100,00 %
08.01.2018 11:01 4,9 C 4,4 C 95 % 1024,2 hPa 0,0 l/m 17,7 km/h (3 Bft) O-NO 67 0 min 0,000 mm 0,0 UV-I 62 W/m 4,2 C -2,3 C 24,1 km/h (4 Bft) 91,30 %
08.01.2018 11:02 4,9 C 4,4 C 95 % 1024,3 hPa 0,0 l/m 22,5 km/h (4 Bft) O-NO 67 0 min 0,000 mm 0,0 UV-I 63 W/m 4,2 C -4,2 C 30,6 km/h (5 Bft) 100,00 %
08.01.2018 11:03 4,9 C 4,4 C 95 % 1024,3 hPa 0,0 l/m 17,7 km/h (3 Bft) O-NO 67 0 min 0,000 mm 0,0 UV-I 67 W/m 4,2 C -2,3 C 24,1 km/h (4 Bft) 95,65 %
08.01.2018 11:04 4,9 C 4,4 C 95 % 1024,3 hPa 0,0 l/m 20,9 km/h (4 Bft) O-NO 67 0 min 0,000 mm 0,0 UV-I 56 W/m 4,2 C -3,7 C 25,7 km/h (4 Bft) 100,00 %
08.01.2018 11:05 4,9 C 4,4 C 95 % 1024,3 hPa 0,0 l/m 19,3 km/h (3 Bft) O-NO 67 0 min 0,000 mm 0,0 UV-I 54 W/m 4,2 C -3,0 C 22,5 km/h (4 Bft) 95,65 %
08.01.2018 11:06 4,9 C 4,4 C 95 % 1024,2 hPa 0,0 l/m 20,9 km/h (4 Bft) O-NO 67 0 min 0,000 mm 0,0 UV-I 56 W/m 4,2 C -3,7 C 30,6 km/h (5 Bft) 95,65 %
08.01.2018 11:07 4,9 C 4,4 C 95 % 1024,2 hPa 0,0 l/m 20,9 km/h (4 Bft) O-NO 67 0 min 0,000 mm 0,0 UV-I 53 W/m 4,2 C -3,7 C 25,7 km/h (4 Bft) 100,00 %
08.01.2018 11:08 4,9 C 4,4 C 95 % 1024,3 hPa 0,0 l/m 16,1 km/h (3 Bft) O-NO 67 0 min 0,000 mm 0,0 UV-I 52 W/m 4,2 C -1,6 C 22,5 km/h (4 Bft) 86,96 %
08.01.2018 11:09 4,9 C 4,4 C 95 % 1024,3 hPa 0,0 l/m 17,7 km/h (3 Bft) O-NO 67 0 min 0,000 mm 0,0 UV-I 51 W/m 4,2 C -2,3 C 25,7 km/h (4 Bft) 100,00 %
08.01.2018 11:10 5,0 C 4,4 C 95 % 1024,3 hPa 0,0 l/m 17,7 km/h (3 Bft) O-NO 67 0 min 0,000 mm 0,0 UV-I 46 W/m 4,3 C -2,2 C 22,5 km/h (4 Bft) 95,65 %
08.01.2018 11:11 5,0 C 4,4 C 95 % 1024,3 hPa 0,0 l/m 17,7 km/h (3 Bft) O-NO 67 0 min 0,000 mm 0,0 UV-I 46 W/m 4,3 C -2,2 C 22,5 km/h (4 Bft) 100,00 %
08.01.2018 11:12 4,9 C 4,4 C 95 % 1024,3 hPa 0,0 l/m 16,1 km/h (3 Bft) O-NO 67 0 min 0,000 mm 0,0 UV-I 62 W/m 4,2 C -1,6 C 27,4 km/h (4 Bft) 95,65 %
08.01.2018 11:13 4,9 C 4,4 C 95 % 1024,3 hPa 0,0 l/m 19,3 km/h (3 Bft) O-NO 67 0 min 0,000 mm 0,0 UV-I 54 W/m 4,2 C -3,0 C 25,7 km/h (4 Bft) 91,30 %
08.01.2018 11:14 4,9 C 4,4 C 95 % 1024,4 hPa 0,0 l/m 17,7 km/h (3 Bft) O-NO 67 0 min 0,000 mm 0,0 UV-I 67 W/m 4,2 C -2,3 C 24,1 km/h (4 Bft) 100,00 %
08.01.2018 11:15 4,9 C 4,4 C 95 % 1024,4 hPa 0,0 l/m 20,9 km/h (4 Bft) O-NO 67 0 min 0,000 mm 0,0 UV-I 72 W/m 4,2 C -3,7 C 25,7 km/h (4 Bft) 91,30 %
08.01.2018 11:16 4,9 C 4,4 C 95 % 1024,4 hPa 0,0 l/m 19,3 km/h (3 Bft) O-NO 67 0 min 0,000 mm 0,0 UV-I 62 W/m 4,2 C -3,0 C 29,0 km/h (5 Bft) 100,00 %
08.01.2018 11:17 4,9 C 4,4 C 95 % 1024,3 hPa 0,0 l/m 20,9 km/h (4 Bft) O-NO 67 0 min 0,000 mm 0,0 UV-I 62 W/m 4,2 C -3,7 C 27,4 km/h (4 Bft) 95,65 %
08.01.2018 11:18 4,9 C 4,4 C 95 % 1024,3 hPa 0,0 l/m 22,5 km/h (4 Bft) O-NO 67 0 min 0,000 mm 0,0 UV-I 56 W/m 4,2 C -4,2 C 29,0 km/h (5 Bft) 100,00 %
08.01.2018 11:19 5,0 C 4,4 C 95 % 1024,3 hPa 0,0 l/m 22,5 km/h (4 Bft) O-NO 67 0 min 0,000 mm 0,0 UV-I 56 W/m 4,3 C -4,1 C 27,4 km/h (4 Bft) 95,65 %
08.01.2018 11:20 5,0 C 4,4 C 95 % 1024,3 hPa 0,0 l/m 19,3 km/h (3 Bft) NO 45 0 min 0,000 mm 0,0 UV-I 64 W/m 4,3 C -2,9 C 24,1 km/h (4 Bft) 100,00 %
08.01.2018 11:21 5,0 C 4,4 C 95 % 1024,3 hPa 0,0 l/m 17,7 km/h (3 Bft) O-NO 67 0 min 0,000 mm 0,0 UV-I 62 W/m 4,3 C -2,2 C 22,5 km/h (4 Bft) 95,65 %
08.01.2018 11:22 5,0 C 4,4 C 95 % 1024,3 hPa 0,0 l/m 20,9 km/h (4 Bft) O-NO 67 0 min 0,000 mm 0,0 UV-I 69 W/m 4,3 C -3,5 C 25,7 km/h (4 Bft) 86,96 %
08.01.2018 11:23 5,0 C 4,4 C 95 % 1024,3 hPa 0,0 l/m 19,3 km/h (3 Bft) NO 45 0 min 0,000 mm 0,0 UV-I 91 W/m 4,3 C -2,9 C 27,4 km/h (4 Bft) 95,65 %
08.01.2018 11:24 5,0 C 4,4 C 95 % 1024,3 hPa 0,0 l/m 20,9 km/h (4 Bft) NO 45 0 min 0,000 mm 0,0 UV-I 93 W/m 4,3 C -3,5 C 27,4 km/h (4 Bft) 95,65 %
08.01.2018 11:25 5,0 C 4,4 C 95 % 1024,3 hPa 0,0 l/m 19,3 km/h (3 Bft) O-NO 67 0 min 0,000 mm 0,0 UV-I 102 W/m 4,3 C -2,9 C 24,1 km/h (4 Bft) 95,65 %
08.01.2018 11:26 5,0 C 4,4 C 95 % 1024,3 hPa 0,0 l/m 20,9 km/h (4 Bft) O-NO 67 0 min 0,000 mm 0,0 UV-I 102 W/m 4,3 C -3,5 C 27,4 km/h (4 Bft) 91,30 %
08.01.2018 11:27 5,0 C 4,4 C 95 % 1024,3 hPa 0,0 l/m 16,1 km/h (3 Bft) O-NO 67 0 min 0,000 mm 0,0 UV-I 95 W/m 4,3 C -1,5 C 20,9 km/h (4 Bft) 95,65 %
08.01.2018 11:28 5,0 C 4,4 C 95 % 1024,3 hPa 0,0 l/m 19,3 km/h (3 Bft) O-NO 67 0 min 0,000 mm 0,0 UV-I 98 W/m 4,3 C -2,9 C 25,7 km/h (4 Bft) 95,65 %
08.01.2018 11:29 5,0 C 4,4 C 95 % 1024,2 hPa 0,0 l/m 17,7 km/h (3 Bft) O-NO 67 0 min 0,000 mm 0,0 UV-I 90 W/m 4,3 C -2,2 C 24,1 km/h (4 Bft) 91,30 %
08.01.2018 11:30 5,0 C 4,4 C 95 % 1024,2 hPa 0,0 l/m 19,3 km/h (3 Bft) O-NO 67 0 min 0,000 mm 0,0 UV-I 86 W/m 4,3 C -2,9 C 24,1 km/h (4 Bft) 95,65 %
08.01.2018 11:31 5,0 C 4,4 C 95 % 1024,2 hPa 0,0 l/m 20,9 km/h (4 Bft) O-NO 67 0 min 0,000 mm 0,0 UV-I 86 W/m 4,3 C -3,5 C 29,0 km/h (5 Bft) 95,65 %
08.01.2018 11:32 5,0 C 4,4 C 95 % 1024,2 hPa 0,0 l/m 22,5 km/h (4 Bft) O-NO 67 0 min 0,000 mm 0,0 UV-I 91 W/m 4,3 C -4,1 C 29,0 km/h (5 Bft) 100,00 %
08.01.2018 11:33 5,1 C 4,4 C 95 % 1024,2 hPa 0,0 l/m 24,1 km/h (4 Bft) O-NO 67 0 min 0,000 mm 0,0 UV-I 86 W/m 4,4 C -4,5 C 32,2 km/h (5 Bft) 95,65 %
08.01.2018 11:34 5,0 C 4,4 C 95 % 1024,1 hPa 0,0 l/m 27,4 km/h (4 Bft) NO 45 0 min 0,000 mm 0,0 UV-I 86 W/m 4,3 C -5,7 C 35,4 km/h (5 Bft) 95,65 %
08.01.2018 11:35 5,0 C 4,4 C 95 % 1024,1 hPa 0,0 l/m 19,3 km/h (3 Bft) O-NO 67 0 min 0,000 mm 0,0 UV-I 81 W/m 4,3 C -2,9 C 24,1 km/h (4 Bft) 100,00 %
08.01.2018 11:36 5,1 C 4,4 C 95 % 1024,1 hPa 0,0 l/m 19,3 km/h (3 Bft) NO 45 0 min 0,000 mm 0,0 UV-I 88 W/m 4,4 C -2,8 C 29,0 km/h (5 Bft) 91,30 %
08.01.2018 11:37 5,1 C 4,4 C 95 % 1024,1 hPa 0,0 l/m 19,3 km/h (3 Bft) O-NO 67 0 min 0,000 mm 0,0 UV-I 97 W/m 4,4 C -2,8 C 24,1 km/h (4 Bft) 100,00 %
08.01.2018 11:38 5,1 C 4,4 C 95 % 1024,1 hPa 0,0 l/m 16,1 km/h (3 Bft) O-NO 67 0 min 0,000 mm 0,0 UV-I 105 W/m 4,4 C -1,3 C 20,9 km/h (4 Bft) 95,65 %
08.01.2018 11:39 5,1 C 4,4 C 95 % 1024,1 hPa 0,0 l/m 17,7 km/h (3 Bft) O-NO 67 0 min 0,000 mm 0,0 UV-I 98 W/m 4,4 C -2,1 C 24,1 km/h (4 Bft) 95,65 %
08.01.2018 11:40 5,1 C 4,4 C 95 % 1024,0 hPa 0,0 l/m 20,9 km/h (4 Bft) O-NO 67 0 min 0,000 mm 0,0 UV-I 111 W/m 4,4 C -3,4 C 29,0 km/h (5 Bft) 95,65 %
08.01.2018 11:41 5,1 C 4,4 C 95 % 1024,0 hPa 0,0 l/m 14,5 km/h (3 Bft) O-NO 67 0 min 0,000 mm 0,0 UV-I 97 W/m 4,4 C -0,5 C 19,3 km/h (3 Bft) 100,00 %
08.01.2018 11:42 5,1 C 4,4 C 95 % 1024,0 hPa 0,0 l/m 25,7 km/h (4 Bft) O-NO 67 0 min 0,000 mm 0,0 UV-I 97 W/m 4,4 C -5,0 C 33,8 km/h (5 Bft) 95,65 %
08.01.2018 11:43 5,1 C 4,4 C 94 % 1023,9 hPa 0,0 l/m 19,3 km/h (3 Bft) O-NO 67 0 min 0,000 mm 0,0 UV-I 86 W/m 4,2 C -2,8 C 33,8 km/h (5 Bft) 91,30 %
08.01.2018 11:44 5,1 C 4,4 C 94 % 1023,9 hPa 0,0 l/m 27,4 km/h (4 Bft) O-NO 67 0 min 0,000 mm 0,0 UV-I 84 W/m 4,2 C -5,5 C 33,8 km/h (5 Bft) 91,30 %
08.01.2018 11:45 5,1 C 4,4 C 95 % 1023,9 hPa 0,0 l/m 22,5 km/h (4 Bft) O-NO 67 0 min 0,000 mm 0,0 UV-I 81 W/m 4,4 C -4,0 C 30,6 km/h (5 Bft) 100,00 %
08.01.2018 11:46 5,1 C 4,4 C 94 % 1023,9 hPa 0,0 l/m 22,5 km/h (4 Bft) O-NO 67 0 min 0,000 mm 0,0 UV-I 76 W/m 4,2 C -4,0 C 29,0 km/h (5 Bft) 95,65 %
08.01.2018 11:47 5,1 C 4,4 C 95 % 1023,9 hPa 0,0 l/m 20,9 km/h (4 Bft) O-NO 67 0 min 0,000 mm 0,0 UV-I 72 W/m 4,4 C -3,4 C 29,0 km/h (5 Bft) 100,00 %
08.01.2018 11:48 5,1 C 4,4 C 95 % 1023,9 hPa 0,0 l/m 19,3 km/h (3 Bft) O-NO 67 0 min 0,000 mm 0,0 UV-I 81 W/m 4,4 C -2,8 C 22,5 km/h (4 Bft) 95,65 %
08.01.2018 11:49 5,1 C 4,4 C 95 % 1024,0 hPa 0,0 l/m 17,7 km/h (3 Bft) O-NO 67 0 min 0,000 mm 0,0 UV-I 92 W/m 4,4 C -2,1 C 25,7 km/h (4 Bft) 95,65 %
08.01.2018 11:50 5,1 C 4,4 C 94 % 1023,9 hPa 0,0 l/m 24,1 km/h (4 Bft) O-NO 67 0 min 0,000 mm 0,0 UV-I 72 W/m 4,2 C -4,5 C 27,4 km/h (4 Bft) 95,65 %
08.01.2018 11:51 5,1 C 4,4 C 94 % 1024,0 hPa 0,0 l/m 24,1 km/h (4 Bft) O 90 0 min 0,000 mm 0,0 UV-I 72 W/m 4,2 C -4,5 C 32,2 km/h (5 Bft) 100,00 %
08.01.2018 11:52 5,1 C 4,4 C 94 % 1023,9 hPa 0,0 l/m 19,3 km/h (3 Bft) O-NO 67 0 min 0,000 mm 0,0 UV-I 76 W/m 4,2 C -2,8 C 24,1 km/h (4 Bft) 100,00 %
08.01.2018 11:53 5,1 C 4,4 C 94 % 1024,0 hPa 0,0 l/m 22,5 km/h (4 Bft) O-NO 67 0 min 0,000 mm 0,0 UV-I 91 W/m 4,2 C -4,0 C 29,0 km/h (5 Bft) 95,65 %
08.01.2018 11:54 5,1 C 4,4 C 94 % 1024,0 hPa 0,0 l/m 20,9 km/h (4 Bft) O-NO 67 0 min 0,000 mm 0,0 UV-I 83 W/m 4,2 C -3,4 C 30,6 km/h (5 Bft) 100,00 %
08.01.2018 11:55 5,1 C 4,4 C 94 % 1023,9 hPa 0,0 l/m 19,3 km/h (3 Bft) O-NO 67 0 min 0,000 mm 0,0 UV-I 71 W/m 4,2 C -2,8 C 25,7 km/h (4 Bft) 100,00 %
08.01.2018 11:56 5,1 C 4,4 C 94 % 1023,9 hPa 0,0 l/m 20,9 km/h (4 Bft) O-NO 67 0 min 0,000 mm 0,0 UV-I 67 W/m 4,2 C -3,4 C 24,1 km/h (4 Bft) 100,00 %
08.01.2018 11:57 5,1 C 4,4 C 94 % 1023,9 hPa 0,0 l/m 19,3 km/h (3 Bft) O-NO 67 0 min 0,000 mm 0,0 UV-I 70 W/m 4,2 C -2,8 C 25,7 km/h (4 Bft) 95,65 %
08.01.2018 11:58 5,1 C 4,4 C 94 % 1023,9 hPa 0,0 l/m 20,9 km/h (4 Bft) O-NO 67 0 min 0,000 mm 0,0 UV-I 63 W/m 4,2 C -3,4 C 27,4 km/h (4 Bft) 100,00 %
08.01.2018 11:59 5,1 C 4,4 C 94 % 1023,9 hPa 0,0 l/m 17,7 km/h (3 Bft) O-NO 67 0 min 0,000 mm 0,0 UV-I 56 W/m 4,2 C -2,1 C 27,4 km/h (4 Bft) 95,65 %
08.01.2018 12:00 5,1 C 4,4 C 94 % 1023,8 hPa 0,0 l/m 19,3 km/h (3 Bft) O-NO 67 0 min 0,051 mm 0,0 UV-I 76 W/m 4,2 C -2,8 C 25,7 km/h (4 Bft) 100,00 %
08.01.2018 12:01 5,1 C 4,4 C 94 % 1023,8 hPa 0,0 l/m 19,3 km/h (3 Bft) O-NO 67 0 min 0,000 mm 0,0 UV-I 64 W/m 4,2 C -2,8 C 30,6 km/h (5 Bft) 95,65 %
08.01.2018 12:02 5,1 C 4,4 C 94 % 1023,8 hPa 0,0 l/m 17,7 km/h (3 Bft) O-NO 67 0 min 0,000 mm 0,0 UV-I 65 W/m 4,2 C -2,1 C 22,5 km/h (4 Bft) 100,00 %
08.01.2018 12:03 5,1 C 4,4 C 94 % 1023,8 hPa 0,0 l/m 16,1 km/h (3 Bft) O-NO 67 0 min 0,000 mm 0,0 UV-I 62 W/m 4,2 C -1,3 C 24,1 km/h (4 Bft) 100,00 %
08.01.2018 12:04 5,1 C 4,4 C 94 % 1023,8 hPa 0,0 l/m 20,9 km/h (4 Bft) O-NO 67 0 min 0,000 mm 0,0 UV-I 62 W/m 4,2 C -3,4 C 30,6 km/h (5 Bft) 91,30 %
08.01.2018 12:05 5,1 C 4,4 C 94 % 1023,7 hPa 0,0 l/m 24,1 km/h (4 Bft) O-NO 67 0 min 0,000 mm 0,0 UV-I 69 W/m 4,2 C -4,5 C 29,0 km/h (5 Bft) 100,00 %
08.01.2018 12:06 5,1 C 4,4 C 94 % 1023,7 hPa 0,0 l/m 22,5 km/h (4 Bft) O-NO 67 0 min 0,000 mm 0,0 UV-I 63 W/m 4,2 C -4,0 C 29,0 km/h (5 Bft) 95,65 %
08.01.2018 12:07 5,1 C 4,4 C 94 % 1023,6 hPa 0,0 l/m 20,9 km/h (4 Bft) O-NO 67 0 min 0,000 mm 0,0 UV-I 51 W/m 4,2 C -3,4 C 25,7 km/h (4 Bft) 100,00 %
08.01.2018 12:08 5,1 C 4,4 C 94 % 1023,6 hPa 0,0 l/m 16,1 km/h (3 Bft) O-NO 67 0 min 0,000 mm 0,0 UV-I 51 W/m 4,2 C -1,3 C 22,5 km/h (4 Bft) 100,00 %
08.01.2018 12:09 5,1 C 4,4 C 94 % 1023,6 hPa 0,0 l/m 19,3 km/h (3 Bft) NO 45 0 min 0,000 mm 0,0 UV-I 60 W/m 4,2 C -2,8 C 24,1 km/h (4 Bft) 95,65 %
08.01.2018 12:10 5,1 C 4,4 C 94 % 1023,6 hPa 0,0 l/m 24,1 km/h (4 Bft) O-NO 67 0 min 0,000 mm 0,0 UV-I 63 W/m 4,2 C -4,5 C 29,0 km/h (5 Bft) 100,00 %
08.01.2018 12:11 5,0 C 4,4 C 94 % 1023,6 hPa 0,0 l/m 24,1 km/h (4 Bft) O-NO 67 0 min 0,000 mm 0,0 UV-I 69 W/m 4,1 C -4,7 C 30,6 km/h (5 Bft) 95,65 %
08.01.2018 12:12 5,1 C 4,4 C 94 % 1023,5 hPa 0,0 l/m 20,9 km/h (4 Bft) O-NO 67 0 min 0,000 mm 0,0 UV-I 70 W/m 4,2 C -3,4 C 27,4 km/h (4 Bft) 100,00 %
08.01.2018 12:13 5,0 C 4,4 C 94 % 1023,6 hPa 0,0 l/m 22,5 km/h (4 Bft) O-NO 67 0 min 0,000 mm 0,0 UV-I 81 W/m 4,1 C -4,1 C 30,6 km/h (5 Bft) 100,00 %
08.01.2018 12:14 5,0 C 4,4 C 94 % 1023,5 hPa 0,0 l/m 25,7 km/h (4 Bft) O-NO 67 0 min 0,000 mm 0,0 UV-I 88 W/m 4,1 C -5,2 C 29,0 km/h (5 Bft) 100,00 %
08.01.2018 12:15 5,0 C 4,4 C 94 % 1023,5 hPa 0,0 l/m 24,1 km/h (4 Bft) O-NO 67 0 min 0,000 mm 0,0 UV-I 83 W/m 4,1 C -4,7 C 27,4 km/h (4 Bft) 100,00 %
08.01.2018 12:16 5,0 C 4,4 C 95 % 1023,5 hPa 0,0 l/m 22,5 km/h (4 Bft) O-NO 67 0 min 0,000 mm 0,0 UV-I 77 W/m 4,3 C -4,1 C 30,6 km/h (5 Bft) 100,00 %
08.01.2018 12:17 5,0 C 4,4 C 95 % 1023,5 hPa 0,0 l/m 14,5 km/h (3 Bft) O 90 0 min 0,000 mm 0,0 UV-I 76 W/m 4,3 C -0,7 C 22,5 km/h (4 Bft) 100,00 %
08.01.2018 12:18 5,1 C 4,4 C 95 % 1023,5 hPa 0,0 l/m 20,9 km/h (4 Bft) O-NO 67 0 min 0,000 mm 0,0 UV-I 69 W/m 4,4 C -3,4 C 27,4 km/h (4 Bft) 95,65 %
08.01.2018 12:19 5,1 C 4,4 C 95 % 1023,5 hPa 0,0 l/m 20,9 km/h (4 Bft) O-NO 67 0 min 0,000 mm 0,0 UV-I 65 W/m 4,4 C -3,4 C 30,6 km/h (5 Bft) 100,00 %
08.01.2018 12:20 5,0 C 4,4 C 95 % 1023,5 hPa 0,0 l/m 24,1 km/h (4 Bft) O-NO 67 0 min 0,000 mm 0,0 UV-I 62 W/m 4,3 C -4,7 C 32,2 km/h (5 Bft) 100,00 %
08.01.2018 12:21 5,1 C 4,4 C 94 % 1023,5 hPa 0,0 l/m 17,7 km/h (3 Bft) O-NO 67 0 min 0,000 mm 0,0 UV-I 47 W/m 4,2 C -2,1 C 24,1 km/h (4 Bft) 100,00 %
08.01.2018 12:22 5,1 C 4,4 C 94 % 1023,5 hPa 0,0 l/m 24,1 km/h (4 Bft) O 90 0 min 0,000 mm 0,0 UV-I 40 W/m 4,2 C -4,5 C 35,4 km/h (5 Bft) 100,00 %
08.01.2018 12:23 5,1 C 4,4 C 94 % 1023,5 hPa 0,0 l/m 24,1 km/h (4 Bft) O 90 0 min 0,000 mm 0,0 UV-I 35 W/m 4,2 C -4,5 C 33,8 km/h (5 Bft) 100,00 %
08.01.2018 12:24 5,1 C 4,4 C 94 % 1023,5 hPa 0,0 l/m 22,5 km/h (4 Bft) O 90 0 min 0,000 mm 0,0 UV-I 47 W/m 4,2 C -4,0 C 30,6 km/h (5 Bft) 100,00 %
08.01.2018 12:25 5,1 C 4,4 C 94 % 1023,5 hPa 0,0 l/m 20,9 km/h (4 Bft) O-NO 67 0 min 0,000 mm 0,0 UV-I 72 W/m 4,2 C -3,4 C 27,4 km/h (4 Bft) 95,65 %
08.01.2018 12:26 5,1 C 4,4 C 94 % 1023,5 hPa 0,0 l/m 19,3 km/h (3 Bft) O-NO 67 0 min 0,000 mm 0,0 UV-I 72 W/m 4,2 C -2,8 C 27,4 km/h (4 Bft) 100,00 %
08.01.2018 12:27 5,1 C 4,4 C 94 % 1023,5 hPa 0,0 l/m 16,1 km/h (3 Bft) O-NO 67 0 min 0,000 mm 0,0 UV-I 83 W/m 4,2 C -1,3 C 22,5 km/h (4 Bft) 100,00 %
08.01.2018 12:28 5,1 C 4,4 C 94 % 1023,5 hPa 0,0 l/m 24,1 km/h (4 Bft) O-NO 67 0 min 0,000 mm 0,0 UV-I 95 W/m 4,2 C -4,5 C 33,8 km/h (5 Bft) 100,00 %
08.01.2018 12:29 5,1 C 4,4 C 94 % 1023,5 hPa 0,0 l/m 27,4 km/h (4 Bft) O-NO 67 0 min 0,000 mm 0,0 UV-I 105 W/m 4,2 C -5,5 C 32,2 km/h (5 Bft) 100,00 %
08.01.2018 12:30 5,1 C 4,4 C 94 % 1023,5 hPa 0,0 l/m 22,5 km/h (4 Bft) O-NO 67 0 min 0,000 mm 0,0 UV-I 116 W/m 4,2 C -4,0 C 29,0 km/h (5 Bft) 95,65 %
08.01.2018 12:31 5,1 C 4,4 C 94 % 1023,5 hPa 0,0 l/m 20,9 km/h (4 Bft) O-NO 67 0 min 0,000 mm 0,0 UV-I 130 W/m 4,2 C -3,4 C 27,4 km/h (4 Bft) 100,00 %
08.01.2018 12:32 5,2 C 4,4 C 94 % 1023,5 hPa 0,0 l/m 20,9 km/h (4 Bft) O-NO 67 0 min 0,000 mm 0,0 UV-I 114 W/m 4,3 C -3,3 C 27,4 km/h (4 Bft) 95,65 %
08.01.2018 12:33 5,2 C 4,4 C 94 % 1023,4 hPa 0,0 l/m 25,7 km/h (4 Bft) O-NO 67 0 min 0,000 mm 0,0 UV-I 125 W/m 4,3 C -4,9 C 32,2 km/h (5 Bft) 100,00 %
08.01.2018 12:34 5,2 C 4,4 C 94 % 1023,4 hPa 0,0 l/m 22,5 km/h (4 Bft) O-NO 67 0 min 0,000 mm 0,0 UV-I 116 W/m 4,3 C -3,8 C 30,6 km/h (5 Bft) 100,00 %
08.01.2018 12:35 5,2 C 4,4 C 94 % 1023,4 hPa 0,0 l/m 17,7 km/h (3 Bft) O-NO 67 0 min 0,000 mm 0,0 UV-I 127 W/m 4,3 C -2,0 C 25,7 km/h (4 Bft) 100,00 %
08.01.2018 12:36 5,2 C 4,4 C 94 % 1023,4 hPa 0,0 l/m 20,9 km/h (4 Bft) O-NO 67 0 min 0,000 mm 0,0 UV-I 112 W/m 4,3 C -3,3 C 27,4 km/h (4 Bft) 100,00 %
08.01.2018 12:37 5,2 C 4,4 C 94 % 1023,4 hPa 0,0 l/m 22,5 km/h (4 Bft) O-NO 67 0 min 0,000 mm 0,0 UV-I 98 W/m 4,3 C -3,8 C 29,0 km/h (5 Bft) 100,00 %
08.01.2018 12:38 5,2 C 4,4 C 94 % 1023,4 hPa 0,0 l/m 25,7 km/h (4 Bft) O-NO 67 0 min 0,000 mm 0,0 UV-I 86 W/m 4,3 C -4,9 C 35,4 km/h (5 Bft) 100,00 %
08.01.2018 12:39 5,2 C 4,4 C 94 % 1023,3 hPa 0,0 l/m 20,9 km/h (4 Bft) O-NO 67 0 min 0,000 mm 0,0 UV-I 88 W/m 4,3 C -3,3 C 32,2 km/h (5 Bft) 95,65 %
08.01.2018 12:40 5,2 C 4,4 C 94 % 1023,4 hPa 0,0 l/m 20,9 km/h (4 Bft) O-NO 67 0 min 0,000 mm 0,0 UV-I 81 W/m 4,3 C -3,3 C 25,7 km/h (4 Bft) 95,65 %
08.01.2018 12:41 5,2 C 4,4 C 94 % 1023,3 hPa 0,0 l/m 25,7 km/h (4 Bft) O-NO 67 0 min 0,000 mm 0,0 UV-I 74 W/m 4,3 C -4,9 C 33,8 km/h (5 Bft) 100,00 %
08.01.2018 12:42 5,2 C 4,4 C 94 % 1023,3 hPa 0,0 l/m 19,3 km/h (3 Bft) O-NO 67 0 min 0,000 mm 0,0 UV-I 74 W/m 4,3 C -2,6 C 25,7 km/h (4 Bft) 100,00 %
08.01.2018 12:43 5,2 C 4,4 C 94 % 1023,2 hPa 0,0 l/m 29,0 km/h (5 Bft) O-NO 67 0 min 0,000 mm 0,0 UV-I 76 W/m 4,3 C -5,8 C 35,4 km/h (5 Bft) 100,00 %
08.01.2018 12:44 5,2 C 4,4 C 94 % 1023,2 hPa 0,0 l/m 24,1 km/h (4 Bft) O-NO 67 0 min 0,000 mm 0,0 UV-I 69 W/m 4,3 C -4,4 C 29,0 km/h (5 Bft) 100,00 %
08.01.2018 12:45 5,2 C 4,4 C 94 % 1023,2 hPa 0,0 l/m 19,3 km/h (3 Bft) O-NO 67 0 min 0,000 mm 0,0 UV-I 76 W/m 4,3 C -2,6 C 27,4 km/h (4 Bft) 95,65 %
08.01.2018 12:46 5,2 C 4,4 C 94 % 1023,1 hPa 0,0 l/m 22,5 km/h (4 Bft) NO 45 0 min 0,000 mm 0,0 UV-I 74 W/m 4,3 C -3,8 C 29,0 km/h (5 Bft) 86,96 %
08.01.2018 12:47 5,2 C 4,4 C 94 % 1023,2 hPa 0,0 l/m 25,7 km/h (4 Bft) O-NO 67 0 min 0,000 mm 0,0 UV-I 79 W/m 4,3 C -4,9 C 29,0 km/h (5 Bft) 95,65 %
08.01.2018 12:48 5,2 C 4,4 C 94 % 1023,1 hPa 0,0 l/m 19,3 km/h (3 Bft) O-NO 67 0 min 0,000 mm 0,0 UV-I 71 W/m 4,3 C -2,6 C 30,6 km/h (5 Bft) 95,65 %
08.01.2018 12:49 5,2 C 4,4 C 94 % 1023,2 hPa 0,0 l/m 17,7 km/h (3 Bft) O-NO 67 0 min 0,000 mm 0,0 UV-I 70 W/m 4,3 C -2,0 C 27,4 km/h (4 Bft) 100,00 %
08.01.2018 12:50 5,2 C 4,4 C 94 % 1023,1 hPa 0,0 l/m 19,3 km/h (3 Bft) O-NO 67 0 min 0,000 mm 0,0 UV-I 72 W/m 4,3 C -2,6 C 25,7 km/h (4 Bft) 95,65 %
08.01.2018 12:51 5,2 C 4,4 C 94 % 1023,2 hPa 0,0 l/m 22,5 km/h (4 Bft) NO 45 0 min 0,000 mm 0,0 UV-I 77 W/m 4,3 C -3,8 C 33,8 km/h (5 Bft) 100,00 %
08.01.2018 12:52 5,2 C 4,4 C 94 % 1023,1 hPa 0,0 l/m 24,1 km/h (4 Bft) O-NO 67 0 min 0,000 mm 0,0 UV-I 76 W/m 4,3 C -4,4 C 30,6 km/h (5 Bft) 95,65 %
08.01.2018 12:53 5,2 C 4,4 C 94 % 1023,1 hPa 0,0 l/m 20,9 km/h (4 Bft) O-NO 67 0 min 0,000 mm 0,0 UV-I 74 W/m 4,3 C -3,3 C 25,7 km/h (4 Bft) 91,30 %
08.01.2018 12:54 5,2 C 4,4 C 94 % 1023,2 hPa 0,0 l/m 19,3 km/h (3 Bft) O-NO 67 0 min 0,000 mm 0,0 UV-I 73 W/m 4,3 C -2,6 C 25,7 km/h (4 Bft) 91,30 %
08.01.2018 12:55 5,2 C 4,4 C 94 % 1023,1 hPa 0,0 l/m 19,3 km/h (3 Bft) O-NO 67 0 min 0,000 mm 0,0 UV-I 70 W/m 4,3 C -2,6 C 25,7 km/h (4 Bft) 95,65 %
08.01.2018 12:56 5,2 C 4,4 C 94 % 1023,2 hPa 0,0 l/m 19,3 km/h (3 Bft) NO 45 0 min 0,000 mm 0,0 UV-I 67 W/m 4,3 C -2,6 C 24,1 km/h (4 Bft) 95,65 %
08.01.2018 12:57 5,2 C 4,4 C 94 % 1023,2 hPa 0,0 l/m 19,3 km/h (3 Bft) O-NO 67 0 min 0,000 mm 0,0 UV-I 62 W/m 4,3 C -2,6 C 29,0 km/h (5 Bft) 91,30 %
08.01.2018 12:58 5,2 C 4,4 C 94 % 1023,2 hPa 0,0 l/m 17,7 km/h (3 Bft) O-NO 67 0 min 0,000 mm 0,0 UV-I 62 W/m 4,3 C -2,0 C 25,7 km/h (4 Bft) 100,00 %
08.01.2018 12:59 5,2 C 4,4 C 94 % 1023,2 hPa 0,0 l/m 17,7 km/h (3 Bft) O-NO 67 0 min 0,000 mm 0,0 UV-I 61 W/m 4,3 C -2,0 C 20,9 km/h (4 Bft) 91,30 %
08.01.2018 13:00 5,2 C 4,4 C 94 % 1023,3 hPa 0,0 l/m 19,3 km/h (3 Bft) O-NO 67 0 min 0,051 mm 0,0 UV-I 62 W/m 4,3 C -2,6 C 25,7 km/h (4 Bft) 95,65 %
08.01.2018 13:01 5,2 C 4,4 C 94 % 1023,2 hPa 0,0 l/m 16,1 km/h (3 Bft) O-NO 67 0 min 0,000 mm 0,0 UV-I 63 W/m 4,3 C -1,2 C 19,3 km/h (3 Bft) 95,65 %
08.01.2018 13:02 5,2 C 4,4 C 94 % 1023,3 hPa 0,0 l/m 17,7 km/h (3 Bft) O-NO 67 0 min 0,000 mm 0,0 UV-I 60 W/m 4,3 C -2,0 C 24,1 km/h (4 Bft) 100,00 %
08.01.2018 13:03 5,2 C 4,4 C 94 % 1023,2 hPa 0,0 l/m 19,3 km/h (3 Bft) O-NO 67 0 min 0,000 mm 0,0 UV-I 60 W/m 4,3 C -2,6 C 27,4 km/h (4 Bft) 86,96 %
08.01.2018 13:04 5,2 C 4,4 C 94 % 1023,2 hPa 0,0 l/m 20,9 km/h (4 Bft) O-NO 67 0 min 0,000 mm 0,0 UV-I 56 W/m 4,3 C -3,3 C 25,7 km/h (4 Bft) 100,00 %
08.01.2018 13:05 5,2 C 4,4 C 94 % 1023,2 hPa 0,0 l/m 19,3 km/h (3 Bft) O-NO 67 0 min 0,000 mm 0,0 UV-I 57 W/m 4,3 C -2,6 C 24,1 km/h (4 Bft) 91,30 %
08.01.2018 13:06 5,2 C 4,4 C 94 % 1023,2 hPa 0,0 l/m 20,9 km/h (4 Bft) O-NO 67 0 min 0,000 mm 0,0 UV-I 58 W/m 4,3 C -3,3 C 25,7 km/h (4 Bft) 91,30 %
08.01.2018 13:07 5,2 C 4,4 C 94 % 1023,1 hPa 0,0 l/m 20,9 km/h (4 Bft) O-NO 67 0 min 0,000 mm 0,0 UV-I 60 W/m 4,3 C -3,3 C 24,1 km/h (4 Bft) 91,30 %
08.01.2018 13:08 5,2 C 4,4 C 94 % 1023,1 hPa 0,0 l/m 16,1 km/h (3 Bft) O-NO 67 0 min 0,000 mm 0,0 UV-I 54 W/m 4,3 C -1,2 C 19,3 km/h (3 Bft) 95,65 %
08.01.2018 13:09 5,2 C 4,4 C 94 % 1023,0 hPa 0,0 l/m 19,3 km/h (3 Bft) O-NO 67 0 min 0,000 mm 0,0 UV-I 56 W/m 4,3 C -2,6 C 24,1 km/h (4 Bft) 100,00 %
08.01.2018 13:10 5,2 C 4,4 C 94 % 1023,0 hPa 0,0 l/m 17,7 km/h (3 Bft) O-NO 67 0 min 0,000 mm 0,0 UV-I 56 W/m 4,3 C -2,0 C 24,1 km/h (4 Bft) 95,65 %
08.01.2018 13:11 5,2 C 4,4 C 94 % 1023,0 hPa 0,0 l/m 20,9 km/h (4 Bft) O-NO 67 0 min 0,000 mm 0,0 UV-I 54 W/m 4,3 C -3,3 C 29,0 km/h (5 Bft) 100,00 %
08.01.2018 13:12 5,2 C 4,4 C 94 % 1023,0 hPa 0,0 l/m 17,7 km/h (3 Bft) O-NO 67 0 min 0,000 mm 0,0 UV-I 54 W/m 4,3 C -2,0 C 24,1 km/h (4 Bft) 95,65 %
08.01.2018 13:13 5,2 C 4,4 C 94 % 1023,1 hPa 0,0 l/m 17,7 km/h (3 Bft) O-NO 67 0 min 0,000 mm 0,0 UV-I 54 W/m 4,3 C -2,0 C 24,1 km/h (4 Bft) 100,00 %
08.01.2018 13:14 5,3 C 4,4 C 94 % 1023,1 hPa 0,0 l/m 27,4 km/h (4 Bft) O 90 0 min 0,000 mm 0,0 UV-I 51 W/m 4,4 C -5,3 C 35,4 km/h (5 Bft) 91,30 %
08.01.2018 13:15 5,3 C 4,4 C 94 % 1023,1 hPa 0,0 l/m 20,9 km/h (4 Bft) O-NO 67 0 min 0,000 mm 0,0 UV-I 51 W/m 4,4 C -3,1 C 32,2 km/h (5 Bft) 95,65 %
08.01.2018 13:16 5,3 C 4,4 C 94 % 1023,1 hPa 0,0 l/m 25,7 km/h (4 Bft) O-NO 67 0 min 0,000 mm 0,0 UV-I 51 W/m 4,4 C -4,8 C 32,2 km/h (5 Bft) 100,00 %
08.01.2018 13:17 5,3 C 4,4 C 94 % 1023,1 hPa 0,0 l/m 22,5 km/h (4 Bft) O-NO 67 0 min 0,000 mm 0,0 UV-I 48 W/m 4,4 C -3,7 C 27,4 km/h (4 Bft) 95,65 %
08.01.2018 13:18 5,3 C 4,4 C 94 % 1023,1 hPa 0,0 l/m 20,9 km/h (4 Bft) O-NO 67 0 min 0,000 mm 0,0 UV-I 53 W/m 4,4 C -3,1 C 27,4 km/h (4 Bft) 100,00 %
08.01.2018 13:19 5,3 C 4,4 C 93 % 1023,0 hPa 0,0 l/m 20,9 km/h (4 Bft) O-NO 67 0 min 0,000 mm 0,0 UV-I 53 W/m 4,3 C -3,1 C 25,7 km/h (4 Bft) 91,30 %
08.01.2018 13:20 5,3 C 4,4 C 93 % 1023,1 hPa 0,0 l/m 19,3 km/h (3 Bft) NO 45 0 min 0,000 mm 0,0 UV-I 47 W/m 4,3 C -2,5 C 24,1 km/h (4 Bft) 100,00 %
08.01.2018 13:21 5,3 C 4,4 C 93 % 1023,1 hPa 0,0 l/m 24,1 km/h (4 Bft) O-NO 67 0 min 0,000 mm 0,0 UV-I 49 W/m 4,3 C -4,2 C 30,6 km/h (5 Bft) 91,30 %
08.01.2018 13:22 5,3 C 4,4 C 93 % 1023,1 hPa 0,0 l/m 20,9 km/h (4 Bft) NO 45 0 min 0,000 mm 0,0 UV-I 47 W/m 4,3 C -3,1 C 24,1 km/h (4 Bft) 100,00 %
08.01.2018 13:23 5,3 C 4,4 C 93 % 1023,0 hPa 0,0 l/m 20,9 km/h (4 Bft) O-NO 67 0 min 0,000 mm 0,0 UV-I 46 W/m 4,3 C -3,1 C 25,7 km/h (4 Bft) 95,65 %
08.01.2018 13:24 5,3 C 4,4 C 93 % 1023,1 hPa 0,0 l/m 17,7 km/h (3 Bft) O-NO 67 0 min 0,000 mm 0,0 UV-I 44 W/m 4,3 C -1,8 C 20,9 km/h (4 Bft) 95,65 %
08.01.2018 13:25 5,3 C 4,4 C 93 % 1023,1 hPa 0,0 l/m 19,3 km/h (3 Bft) O-NO 67 0 min 0,000 mm 0,0 UV-I 46 W/m 4,3 C -2,5 C 25,7 km/h (4 Bft) 100,00 %
08.01.2018 13:26 5,3 C 4,4 C 93 % 1023,0 hPa 0,0 l/m 22,5 km/h (4 Bft) O-NO 67 0 min 0,000 mm 0,0 UV-I 46 W/m 4,3 C -3,7 C 29,0 km/h (5 Bft) 95,65 %
08.01.2018 13:27 5,3 C 4,4 C 93 % 1023,0 hPa 0,0 l/m 24,1 km/h (4 Bft) O-NO 67 0 min 0,000 mm 0,0 UV-I 46 W/m 4,3 C -4,2 C 29,0 km/h (5 Bft) 100,00 %
08.01.2018 13:28 5,3 C 4,4 C 93 % 1023,0 hPa 0,0 l/m 20,9 km/h (4 Bft) O-NO 67 0 min 0,000 mm 0,0 UV-I 47 W/m 4,3 C -3,1 C 27,4 km/h (4 Bft) 91,30 %
08.01.2018 13:29 5,3 C 4,4 C 93 % 1023,0 hPa 0,0 l/m 19,3 km/h (3 Bft) O-NO 67 0 min 0,000 mm 0,0 UV-I 47 W/m 4,3 C -2,5 C 25,7 km/h (4 Bft) 95,65 %
08.01.2018 13:30 5,3 C 4,4 C 93 % 1023,0 hPa 0,0 l/m 19,3 km/h (3 Bft) O-NO 67 0 min 0,000 mm 0,0 UV-I 42 W/m 4,3 C -2,5 C 24,1 km/h (4 Bft) 95,65 %
08.01.2018 13:31 5,3 C 4,4 C 93 % 1023,0 hPa 0,0 l/m 17,7 km/h (3 Bft) O-NO 67 0 min 0,000 mm 0,0 UV-I 42 W/m 4,3 C -1,8 C 22,5 km/h (4 Bft) 100,00 %
08.01.2018 13:32 5,3 C 4,4 C 93 % 1023,0 hPa 0,0 l/m 16,1 km/h (3 Bft) O-NO 67 0 min 0,000 mm 0,0 UV-I 46 W/m 4,3 C -1,1 C 22,5 km/h (4 Bft) 95,65 %
08.01.2018 13:33 5,3 C 4,4 C 93 % 1023,0 hPa 0,0 l/m 20,9 km/h (4 Bft) O-NO 67 0 min 0,000 mm 0,0 UV-I 44 W/m 4,3 C -3,1 C 25,7 km/h (4 Bft) 100,00 %
08.01.2018 13:34 5,3 C 4,4 C 93 % 1023,0 hPa 0,0 l/m 24,1 km/h (4 Bft) O-NO 67 0 min 0,000 mm 0,0 UV-I 44 W/m 4,3 C -4,2 C 29,0 km/h (5 Bft) 95,65 %
08.01.2018 13:35 5,3 C 4,4 C 93 % 1023,0 hPa 0,0 l/m 24,1 km/h (4 Bft) O-NO 67 0 min 0,000 mm 0,0 UV-I 47 W/m 4,3 C -4,2 C 33,8 km/h (5 Bft) 95,65 %
08.01.2018 13:36 5,3 C 4,4 C 93 % 1023,0 hPa 0,0 l/m 19,3 km/h (3 Bft) O-NO 67 0 min 0,000 mm 0,0 UV-I 46 W/m 4,3 C -2,5 C 24,1 km/h (4 Bft) 100,00 %
08.01.2018 13:37 5,3 C 4,4 C 93 % 1023,0 hPa 0,0 l/m 20,9 km/h (4 Bft) O-NO 67 0 min 0,000 mm 0,0 UV-I 47 W/m 4,3 C -3,1 C 27,4 km/h (4 Bft) 95,65 %
08.01.2018 13:38 5,3 C 4,4 C 93 % 1023,0 hPa 0,0 l/m 19,3 km/h (3 Bft) O-NO 67 0 min 0,000 mm 0,0 UV-I 47 W/m 4,3 C -2,5 C 24,1 km/h (4 Bft) 95,65 %
08.01.2018 13:39 5,3 C 4,4 C 93 % 1023,0 hPa 0,0 l/m 20,9 km/h (4 Bft) O-NO 67 0 min 0,000 mm 0,0 UV-I 47 W/m 4,3 C -3,1 C 29,0 km/h (5 Bft) 100,00 %
08.01.2018 13:40 5,3 C 4,4 C 93 % 1023,0 hPa 0,0 l/m 20,9 km/h (4 Bft) O-NO 67 0 min 0,000 mm 0,0 UV-I 47 W/m 4,3 C -3,1 C 27,4 km/h (4 Bft) 100,00 %
08.01.2018 13:41 5,3 C 4,4 C 93 % 1023,0 hPa 0,0 l/m 17,7 km/h (3 Bft) O-NO 67 0 min 0,000 mm 0,0 UV-I 44 W/m 4,3 C -1,8 C 24,1 km/h (4 Bft) 100,00 %
08.01.2018 13:42 5,3 C 4,4 C 93 % 1023,0 hPa 0,0 l/m 19,3 km/h (3 Bft) O-NO 67 0 min 0,000 mm 0,0 UV-I 42 W/m 4,3 C -2,5 C 22,5 km/h (4 Bft) 95,65 %
08.01.2018 13:43 5,3 C 4,4 C 93 % 1023,0 hPa 0,0 l/m 19,3 km/h (3 Bft) O-NO 67 0 min 0,000 mm 0,0 UV-I 44 W/m 4,3 C -2,5 C 24,1 km/h (4 Bft) 95,65 %
08.01.2018 13:44 5,3 C 4,4 C 93 % 1023,0 hPa 0,0 l/m 17,7 km/h (3 Bft) O-NO 67 0 min 0,000 mm 0,0 UV-I 44 W/m 4,3 C -1,8 C 22,5 km/h (4 Bft) 100,00 %
08.01.2018 13:45 5,3 C 4,4 C 93 % 1023,0 hPa 0,0 l/m 17,7 km/h (3 Bft) O 90 0 min 0,000 mm 0,0 UV-I 44 W/m 4,3 C -1,8 C 20,9 km/h (4 Bft) 100,00 %
08.01.2018 13:46 5,3 C 4,4 C 93 % 1023,0 hPa 0,0 l/m 16,1 km/h (3 Bft) O-NO 67 0 min 0,000 mm 0,0 UV-I 44 W/m 4,3 C -1,1 C 25,7 km/h (4 Bft) 100,00 %
08.01.2018 13:47 5,3 C 4,4 C 93 % 1022,9 hPa 0,0 l/m 20,9 km/h (4 Bft) O 90 0 min 0,000 mm 0,0 UV-I 49 W/m 4,3 C -3,1 C 22,5 km/h (4 Bft) 95,65 %
08.01.2018 13:48 5,3 C 4,4 C 93 % 1022,8 hPa 0,0 l/m 17,7 km/h (3 Bft) O-NO 67 0 min 0,000 mm 0,0 UV-I 44 W/m 4,3 C -1,8 C 24,1 km/h (4 Bft) 100,00 %
08.01.2018 13:49 5,3 C 4,4 C 93 % 1022,9 hPa 0,0 l/m 20,9 km/h (4 Bft) O-NO 67 0 min 0,000 mm 0,0 UV-I 44 W/m 4,3 C -3,1 C 27,4 km/h (4 Bft) 91,30 %
08.01.2018 13:50 5,3 C 4,4 C 93 % 1023,0 hPa 0,0 l/m 19,3 km/h (3 Bft) O-NO 67 0 min 0,000 mm 0,0 UV-I 42 W/m 4,3 C -2,5 C 29,0 km/h (5 Bft) 95,65 %
08.01.2018 13:51 5,3 C 4,4 C 93 % 1022,9 hPa 0,0 l/m 24,1 km/h (4 Bft) O-NO 67 0 min 0,000 mm 0,0 UV-I 46 W/m 4,3 C -4,2 C 30,6 km/h (5 Bft) 100,00 %
08.01.2018 13:52 5,3 C 4,4 C 93 % 1022,8 hPa 0,0 l/m 25,7 km/h (4 Bft) O-NO 67 0 min 0,000 mm 0,0 UV-I 48 W/m 4,3 C -4,8 C 32,2 km/h (5 Bft) 100,00 %
08.01.2018 13:53 5,3 C 4,4 C 93 % 1022,8 hPa 0,0 l/m 19,3 km/h (3 Bft) O-NO 67 0 min 0,000 mm 0,0 UV-I 46 W/m 4,3 C -2,5 C 24,1 km/h (4 Bft) 100,00 %
08.01.2018 13:54 5,3 C 4,4 C 93 % 1022,8 hPa 0,0 l/m 22,5 km/h (4 Bft) O-NO 67 0 min 0,000 mm 0,0 UV-I 42 W/m 4,3 C -3,7 C 27,4 km/h (4 Bft) 100,00 %
08.01.2018 13:55 5,3 C 4,4 C 93 % 1022,7 hPa 0,0 l/m 19,3 km/h (3 Bft) O-NO 67 0 min 0,000 mm 0,0 UV-I 47 W/m 4,3 C -2,5 C 27,4 km/h (4 Bft) 100,00 %
08.01.2018 13:56 5,3 C 4,4 C 93 % 1022,8 hPa 0,0 l/m 19,3 km/h (3 Bft) NO 45 0 min 0,000 mm 0,0 UV-I 47 W/m 4,3 C -2,5 C 24,1 km/h (4 Bft) 95,65 %
08.01.2018 13:57 5,3 C 4,4 C 93 % 1022,8 hPa 0,0 l/m 19,3 km/h (3 Bft) O-NO 67 0 min 0,000 mm 0,0 UV-I 44 W/m 4,3 C -2,5 C 24,1 km/h (4 Bft) 100,00 %
08.01.2018 13:58 5,3 C 4,4 C 93 % 1022,8 hPa 0,0 l/m 22,5 km/h (4 Bft) O-NO 67 0 min 0,000 mm 0,0 UV-I 40 W/m 4,3 C -3,7 C 27,4 km/h (4 Bft) 100,00 %
08.01.2018 13:59 5,3 C 4,4 C 93 % 1022,8 hPa 0,0 l/m 19,3 km/h (3 Bft) O-NO 67 0 min 0,000 mm 0,0 UV-I 39 W/m 4,3 C -2,5 C 29,0 km/h (5 Bft) 100,00 %
08.01.2018 14:00 5,3 C 4,4 C 93 % 1022,8 hPa 0,0 l/m 14,5 km/h (3 Bft) O-NO 67 0 min 0,025 mm 0,0 UV-I 42 W/m 4,3 C -0,3 C 19,3 km/h (3 Bft) 100,00 %
08.01.2018 14:01 5,3 C 4,4 C 93 % 1022,9 hPa 0,0 l/m 14,5 km/h (3 Bft) O-NO 67 0 min 0,000 mm 0,0 UV-I 46 W/m 4,3 C -0,3 C 20,9 km/h (4 Bft) 100,00 %
08.01.2018 14:02 5,3 C 4,4 C 93 % 1022,8 hPa 0,0 l/m 16,1 km/h (3 Bft) O-NO 67 0 min 0,000 mm 0,0 UV-I 47 W/m 4,3 C -1,1 C 25,7 km/h (4 Bft) 100,00 %
08.01.2018 14:03 5,3 C 4,4 C 93 % 1022,8 hPa 0,0 l/m 20,9 km/h (4 Bft) O-NO 67 0 min 0,000 mm 0,0 UV-I 47 W/m 4,3 C -3,1 C 27,4 km/h (4 Bft) 95,65 %
08.01.2018 14:04 5,3 C 4,4 C 93 % 1022,7 hPa 0,0 l/m 27,4 km/h (4 Bft) O-NO 67 0 min 0,000 mm 0,0 UV-I 47 W/m 4,3 C -5,3 C 35,4 km/h (5 Bft) 100,00 %
08.01.2018 14:05 5,3 C 4,4 C 93 % 1022,7 hPa 0,0 l/m 25,7 km/h (4 Bft) O-NO 67 0 min 0,000 mm 0,0 UV-I 42 W/m 4,3 C -4,8 C 33,8 km/h (5 Bft) 100,00 %
08.01.2018 14:06 5,3 C 4,4 C 93 % 1022,7 hPa 0,0 l/m 22,5 km/h (4 Bft) O-NO 67 0 min 0,000 mm 0,0 UV-I 42 W/m 4,3 C -3,7 C 27,4 km/h (4 Bft) 100,00 %
08.01.2018 14:07 5,3 C 4,4 C 93 % 1022,7 hPa 0,0 l/m 24,1 km/h (4 Bft) O 90 0 min 0,000 mm 0,0 UV-I 42 W/m 4,3 C -4,2 C 35,4 km/h (5 Bft) 95,65 %
08.01.2018 14:08 5,3 C 4,4 C 93 % 1022,7 hPa 0,0 l/m 22,5 km/h (4 Bft) O-NO 67 0 min 0,000 mm 0,0 UV-I 42 W/m 4,3 C -3,7 C 29,0 km/h (5 Bft) 100,00 %
08.01.2018 14:09 5,3 C 4,4 C 93 % 1022,7 hPa 0,0 l/m 19,3 km/h (3 Bft) O 90 0 min 0,000 mm 0,0 UV-I 46 W/m 4,3 C -2,5 C 24,1 km/h (4 Bft) 95,65 %
08.01.2018 14:10 5,3 C 4,4 C 93 % 1022,7 hPa 0,0 l/m 20,9 km/h (4 Bft) O-NO 67 0 min 0,000 mm 0,0 UV-I 44 W/m 4,3 C -3,1 C 27,4 km/h (4 Bft) 95,65 %
08.01.2018 14:11 5,3 C 4,4 C 93 % 1022,7 hPa 0,0 l/m 20,9 km/h (4 Bft) O-NO 67 0 min 0,000 mm 0,0 UV-I 44 W/m 4,3 C -3,1 C 24,1 km/h (4 Bft) 91,30 %
08.01.2018 14:12 5,3 C 4,4 C 93 % 1022,7 hPa 0,0 l/m 20,9 km/h (4 Bft) O-NO 67 0 min 0,000 mm 0,0 UV-I 46 W/m 4,3 C -3,1 C 29,0 km/h (5 Bft) 100,00 %
08.01.2018 14:13 5,3 C 4,4 C 93 % 1022,7 hPa 0,0 l/m 27,4 km/h (4 Bft) O 90 0 min 0,000 mm 0,0 UV-I 42 W/m 4,3 C -5,3 C 35,4 km/h (5 Bft) 95,65 %
08.01.2018 14:14 5,3 C 4,4 C 93 % 1022,7 hPa 0,0 l/m 20,9 km/h (4 Bft) O-NO 67 0 min 0,000 mm 0,0 UV-I 42 W/m 4,3 C -3,1 C 29,0 km/h (5 Bft) 95,65 %
08.01.2018 14:15 5,3 C 4,4 C 93 % 1022,7 hPa 0,0 l/m 20,9 km/h (4 Bft) O-NO 67 0 min 0,000 mm 0,0 UV-I 44 W/m 4,3 C -3,1 C 27,4 km/h (4 Bft) 100,00 %
08.01.2018 14:16 5,3 C 4,4 C 93 % 1022,7 hPa 0,0 l/m 20,9 km/h (4 Bft) NO 45 0 min 0,000 mm 0,0 UV-I 46 W/m 4,3 C -3,1 C 25,7 km/h (4 Bft) 95,65 %
08.01.2018 14:17 5,3 C 4,4 C 93 % 1022,7 hPa 0,0 l/m 17,7 km/h (3 Bft) O-NO 67 0 min 0,000 mm 0,0 UV-I 42 W/m 4,3 C -1,8 C 24,1 km/h (4 Bft) 91,30 %
08.01.2018 14:18 5,3 C 4,4 C 93 % 1022,7 hPa 0,0 l/m 22,5 km/h (4 Bft) O-NO 67 0 min 0,000 mm 0,0 UV-I 46 W/m 4,3 C -3,7 C 35,4 km/h (5 Bft) 91,30 %
08.01.2018 14:19 5,3 C 4,4 C 93 % 1022,7 hPa 0,0 l/m 24,1 km/h (4 Bft) O-NO 67 0 min 0,000 mm 0,0 UV-I 44 W/m 4,3 C -4,2 C 30,6 km/h (5 Bft) 95,65 %
08.01.2018 14:20 5,3 C 4,4 C 93 % 1022,7 hPa 0,0 l/m 22,5 km/h (4 Bft) O-NO 67 0 min 0,000 mm 0,0 UV-I 40 W/m 4,3 C -3,7 C 30,6 km/h (5 Bft) 95,65 %
08.01.2018 14:21 5,3 C 4,4 C 93 % 1022,7 hPa 0,0 l/m 17,7 km/h (3 Bft) O-NO 67 0 min 0,000 mm 0,0 UV-I 43 W/m 4,3 C -1,8 C 24,1 km/h (4 Bft) 100,00 %
08.01.2018 14:22 5,3 C 4,4 C 93 % 1022,7 hPa 0,0 l/m 19,3 km/h (3 Bft) O-NO 67 0 min 0,000 mm 0,0 UV-I 42 W/m 4,3 C -2,5 C 25,7 km/h (4 Bft) 95,65 %
08.01.2018 14:23 5,3 C 4,4 C 93 % 1022,7 hPa 0,0 l/m 19,3 km/h (3 Bft) O-NO 67 0 min 0,000 mm 0,0 UV-I 33 W/m 4,3 C -2,5 C 24,1 km/h (4 Bft) 100,00 %
08.01.2018 14:24 5,3 C 4,4 C 93 % 1022,7 hPa 0,0 l/m 19,3 km/h (3 Bft) O-NO 67 0 min 0,000 mm 0,0 UV-I 28 W/m 4,3 C -2,5 C 27,4 km/h (4 Bft) 91,30 %
08.01.2018 14:25 5,3 C 4,4 C 93 % 1022,8 hPa 0,0 l/m 19,3 km/h (3 Bft) O 90 0 min 0,000 mm 0,0 UV-I 23 W/m 4,3 C -2,5 C 30,6 km/h (5 Bft) 100,00 %
08.01.2018 14:26 5,3 C 4,4 C 93 % 1022,8 hPa 0,0 l/m 22,5 km/h (4 Bft) O-NO 67 0 min 0,000 mm 0,0 UV-I 23 W/m 4,3 C -3,7 C 30,6 km/h (5 Bft) 95,65 %
08.01.2018 14:27 5,3 C 4,4 C 93 % 1022,8 hPa 0,0 l/m 22,5 km/h (4 Bft) O-NO 67 0 min 0,000 mm 0,0 UV-I 26 W/m 4,3 C -3,7 C 32,2 km/h (5 Bft) 100,00 %
08.01.2018 14:28 5,3 C 4,4 C 93 % 1022,8 hPa 0,0 l/m 19,3 km/h (3 Bft) O-NO 67 0 min 0,000 mm 0,0 UV-I 16 W/m 4,3 C -2,5 C 25,7 km/h (4 Bft) 91,30 %
08.01.2018 14:29 5,3 C 4,4 C 93 % 1022,8 hPa 0,0 l/m 22,5 km/h (4 Bft) O-NO 67 0 min 0,000 mm 0,0 UV-I 14 W/m 4,3 C -3,7 C 29,0 km/h (5 Bft) 100,00 %
08.01.2018 14:30 5,3 C 4,4 C 93 % 1022,8 hPa 0,0 l/m 16,1 km/h (3 Bft) O-NO 67 0 min 0,000 mm 0,0 UV-I 14 W/m 4,3 C -1,1 C 22,5 km/h (4 Bft) 95,65 %
08.01.2018 14:31 5,3 C 4,4 C 93 % 1022,8 hPa 0,0 l/m 22,5 km/h (4 Bft) O-NO 67 0 min 0,000 mm 0,0 UV-I 12 W/m 4,3 C -3,7 C 27,4 km/h (4 Bft) 95,65 %
08.01.2018 14:32 5,2 C 4,4 C 93 % 1022,8 hPa 0,0 l/m 20,9 km/h (4 Bft) O-NO 67 0 min 0,000 mm 0,0 UV-I 12 W/m 4,2 C -3,3 C 29,0 km/h (5 Bft) 95,65 %
08.01.2018 14:33 5,2 C 4,4 C 93 % 1022,7 hPa 0,0 l/m 19,3 km/h (3 Bft) O 90 0 min 0,000 mm 0,0 UV-I 12 W/m 4,2 C -2,6 C 29,0 km/h (5 Bft) 100,00 %
08.01.2018 14:34 5,2 C 4,4 C 93 % 1022,7 hPa 0,0 l/m 24,1 km/h (4 Bft) O-NO 67 0 min 0,000 mm 0,0 UV-I 12 W/m 4,2 C -4,4 C 32,2 km/h (5 Bft) 100,00 %
08.01.2018 14:35 5,2 C 4,4 C 93 % 1022,7 hPa 0,0 l/m 20,9 km/h (4 Bft) O-NO 67 0 min 0,000 mm 0,0 UV-I 12 W/m 4,2 C -3,3 C 25,7 km/h (4 Bft) 100,00 %
08.01.2018 14:36 5,2 C 4,4 C 93 % 1022,6 hPa 0,0 l/m 19,3 km/h (3 Bft) O-NO 67 0 min 0,000 mm 0,0 UV-I 11 W/m 4,2 C -2,6 C 27,4 km/h (4 Bft) 95,65 %
08.01.2018 14:37 5,2 C 4,4 C 93 % 1022,6 hPa 0,0 l/m 19,3 km/h (3 Bft) O-NO 67 0 min 0,000 mm 0,0 UV-I 11 W/m 4,2 C -2,6 C 25,7 km/h (4 Bft) 100,00 %
08.01.2018 14:38 5,2 C 4,4 C 93 % 1022,6 hPa 0,0 l/m 17,7 km/h (3 Bft) O-NO 67 0 min 0,000 mm 0,0 UV-I 11 W/m 4,2 C -2,0 C 22,5 km/h (4 Bft) 95,65 %
08.01.2018 14:39 5,2 C 4,4 C 93 % 1022,6 hPa 0,0 l/m 17,7 km/h (3 Bft) O-NO 67 0 min 0,000 mm 0,0 UV-I 12 W/m 4,2 C -2,0 C 24,1 km/h (4 Bft) 100,00 %
08.01.2018 14:40 5,2 C 4,4 C 93 % 1022,6 hPa 0,0 l/m 25,7 km/h (4 Bft) O-NO 67 0 min 0,000 mm 0,0 UV-I 11 W/m 4,2 C -4,9 C 32,2 km/h (5 Bft) 100,00 %
08.01.2018 14:41 5,2 C 4,4 C 93 % 1022,6 hPa 0,0 l/m 22,5 km/h (4 Bft) O-NO 67 0 min 0,000 mm 0,0 UV-I 11 W/m 4,2 C -3,8 C 30,6 km/h (5 Bft) 100,00 %
08.01.2018 14:42 5,2 C 4,4 C 93 % 1022,5 hPa 0,0 l/m 30,6 km/h (5 Bft) O-NO 67 0 min 0,000 mm 0,0 UV-I 11 W/m 4,2 C -6,2 C 33,8 km/h (5 Bft) 100,00 %
08.01.2018 14:43 5,2 C 4,4 C 93 % 1022,6 hPa 0,0 l/m 27,4 km/h (4 Bft) O-NO 67 0 min 0,000 mm 0,0 UV-I 11 W/m 4,2 C -5,4 C 35,4 km/h (5 Bft) 100,00 %
08.01.2018 14:44 5,2 C 4,4 C 93 % 1022,6 hPa 0,0 l/m 24,1 km/h (4 Bft) O-NO 67 0 min 0,000 mm 0,0 UV-I 11 W/m 4,2 C -4,4 C 33,8 km/h (5 Bft) 100,00 %
08.01.2018 14:45 5,2 C 4,4 C 93 % 1022,6 hPa 0,0 l/m 20,9 km/h (4 Bft) O 90 0 min 0,000 mm 0,0 UV-I 11 W/m 4,2 C -3,3 C 27,4 km/h (4 Bft) 95,65 %
08.01.2018 14:46 5,1 C 4,4 C 93 % 1022,6 hPa 0,0 l/m 20,9 km/h (4 Bft) O-NO 67 0 min 0,000 mm 0,0 UV-I 11 W/m 4,1 C -3,4 C 25,7 km/h (4 Bft) 100,00 %
08.01.2018 14:47 5,1 C 4,4 C 93 % 1022,6 hPa 0,0 l/m 17,7 km/h (3 Bft) O-NO 67 0 min 0,000 mm 0,0 UV-I 12 W/m 4,1 C -2,1 C 24,1 km/h (4 Bft) 100,00 %
08.01.2018 14:48 5,1 C 4,4 C 93 % 1022,6 hPa 0,0 l/m 20,9 km/h (4 Bft) O-NO 67 0 min 0,000 mm 0,0 UV-I 11 W/m 4,1 C -3,4 C 29,0 km/h (5 Bft) 100,00 %
08.01.2018 14:49 5,1 C 4,4 C 93 % 1022,7 hPa 0,0 l/m 25,7 km/h (4 Bft) O-NO 67 0 min 0,000 mm 0,0 UV-I 11 W/m 4,1 C -5,0 C 33,8 km/h (5 Bft) 95,65 %
08.01.2018 14:50 5,1 C 4,4 C 93 % 1022,7 hPa 0,0 l/m 24,1 km/h (4 Bft) O-NO 67 0 min 0,000 mm 0,0 UV-I 11 W/m 4,1 C -4,5 C 35,4 km/h (5 Bft) 95,65 %
08.01.2018 14:51 5,1 C 4,4 C 93 % 1022,7 hPa 0,0 l/m 19,3 km/h (3 Bft) O-NO 67 0 min 0,000 mm 0,0 UV-I 11 W/m 4,1 C -2,8 C 25,7 km/h (4 Bft) 95,65 %
08.01.2018 14:52 5,1 C 4,4 C 93 % 1022,7 hPa 0,0 l/m 24,1 km/h (4 Bft) O-NO 67 0 min 0,000 mm 0,0 UV-I 11 W/m 4,1 C -4,5 C 30,6 km/h (5 Bft) 95,65 %
08.01.2018 14:53 5,1 C 4,4 C 93 % 1022,7 hPa 0,0 l/m 22,5 km/h (4 Bft) O-NO 67 0 min 0,000 mm 0,0 UV-I 12 W/m 4,1 C -4,0 C 30,6 km/h (5 Bft) 100,00 %
08.01.2018 14:54 5,1 C 4,4 C 93 % 1022,7 hPa 0,0 l/m 20,9 km/h (4 Bft) O-NO 67 0 min 0,000 mm 0,0 UV-I 11 W/m 4,1 C -3,4 C 25,7 km/h (4 Bft) 100,00 %
08.01.2018 14:55 5,1 C 4,4 C 93 % 1022,8 hPa 0,0 l/m 19,3 km/h (3 Bft) O-NO 67 0 min 0,000 mm 0,0 UV-I 12 W/m 4,1 C -2,8 C 25,7 km/h (4 Bft) 100,00 %
08.01.2018 14:56 5,1 C 4,4 C 93 % 1022,8 hPa 0,0 l/m 22,5 km/h (4 Bft) O-NO 67 0 min 0,000 mm 0,0 UV-I 12 W/m 4,1 C -4,0 C 33,8 km/h (5 Bft) 100,00 %
08.01.2018 14:57 5,1 C 4,4 C 93 % 1022,8 hPa 0,0 l/m 17,7 km/h (3 Bft) O-NO 67 0 min 0,000 mm 0,0 UV-I 12 W/m 4,1 C -2,1 C 25,7 km/h (4 Bft) 100,00 %
08.01.2018 14:58 5,0 C 4,4 C 93 % 1022,9 hPa 0,0 l/m 19,3 km/h (3 Bft) O 90 0 min 0,000 mm 0,0 UV-I 12 W/m 4,0 C -2,9 C 29,0 km/h (5 Bft) 100,00 %
08.01.2018 14:59 5,0 C 4,4 C 94 % 1022,8 hPa 0,0 l/m 24,1 km/h (4 Bft) O-NO 67 0 min 0,000 mm 0,0 UV-I 12 W/m 4,1 C -4,7 C 32,2 km/h (5 Bft) 91,30 %
08.01.2018 15:00 5,0 C 4,4 C 94 % 1022,8 hPa 0,0 l/m 22,5 km/h (4 Bft) O-NO 67 0 min 0,025 mm 0,0 UV-I 12 W/m 4,1 C -4,1 C 29,0 km/h (5 Bft) 100,00 %
08.01.2018 15:01 5,0 C 4,4 C 94 % 1022,8 hPa 0,0 l/m 17,7 km/h (3 Bft) O-NO 67 0 min 0,000 mm 0,0 UV-I 12 W/m 4,1 C -2,2 C 27,4 km/h (4 Bft) 91,30 %
08.01.2018 15:02 5,0 C 4,4 C 94 % 1022,9 hPa 0,0 l/m 20,9 km/h (4 Bft) O-NO 67 0 min 0,000 mm 0,0 UV-I 15 W/m 4,1 C -3,5 C 24,1 km/h (4 Bft) 100,00 %
08.01.2018 15:03 5,0 C 4,4 C 94 % 1022,9 hPa 0,0 l/m 25,7 km/h (4 Bft) O-NO 67 0 min 0,000 mm 0,0 UV-I 14 W/m 4,1 C -5,2 C 33,8 km/h (5 Bft) 95,65 %
08.01.2018 15:04 4,9 C 4,4 C 94 % 1022,9 hPa 0,0 l/m 19,3 km/h (3 Bft) O-NO 67 0 min 0,000 mm 0,0 UV-I 16 W/m 4,0 C -3,0 C 25,7 km/h (4 Bft) 100,00 %
08.01.2018 15:05 5,0 C 4,4 C 94 % 1022,9 hPa 0,0 l/m 22,5 km/h (4 Bft) O 90 0 min 0,000 mm 0,0 UV-I 16 W/m 4,1 C -4,1 C 25,7 km/h (4 Bft) 95,65 %
08.01.2018 15:06 5,0 C 4,4 C 94 % 1022,9 hPa 0,0 l/m 25,7 km/h (4 Bft) O-NO 67 0 min 0,000 mm 0,0 UV-I 16 W/m 4,1 C -5,2 C 30,6 km/h (5 Bft) 95,65 %
08.01.2018 15:07 4,9 C 4,4 C 94 % 1022,9 hPa 0,0 l/m 20,9 km/h (4 Bft) O-NO 67 0 min 0,000 mm 0,0 UV-I 16 W/m 4,0 C -3,7 C 30,6 km/h (5 Bft) 95,65 %
08.01.2018 15:08 4,9 C 4,4 C 94 % 1023,0 hPa 0,0 l/m 22,5 km/h (4 Bft) O-NO 67 0 min 0,000 mm 0,0 UV-I 16 W/m 4,0 C -4,2 C 32,2 km/h (5 Bft) 95,65 %
08.01.2018 15:09 4,9 C 4,4 C 94 % 1023,0 hPa 0,0 l/m 16,1 km/h (3 Bft) O-NO 67 0 min 0,000 mm 0,0 UV-I 16 W/m 4,0 C -1,6 C 20,9 km/h (4 Bft) 100,00 %
08.01.2018 15:10 5,0 C 4,4 C 94 % 1023,0 hPa 0,0 l/m 16,1 km/h (3 Bft) O-NO 67 0 min 0,000 mm 0,0 UV-I 14 W/m 4,1 C -1,5 C 20,9 km/h (4 Bft) 95,65 %
08.01.2018 15:11 5,0 C 4,4 C 94 % 1023,1 hPa 0,0 l/m 11,3 km/h (2 Bft) O 90 0 min 0,000 mm 0,0 UV-I 14 W/m 4,1 C 1,2 C 20,9 km/h (4 Bft) 100,00 %
08.01.2018 15:12 5,0 C 4,4 C 94 % 1023,1 hPa 0,0 l/m 17,7 km/h (3 Bft) O-NO 67 0 min 0,000 mm 0,0 UV-I 14 W/m 4,1 C -2,2 C 24,1 km/h (4 Bft) 95,65 %
08.01.2018 15:13 4,9 C 4,4 C 94 % 1023,1 hPa 0,0 l/m 16,1 km/h (3 Bft) O-SO 112 0 min 0,000 mm 0,0 UV-I 16 W/m 4,0 C -1,6 C 22,5 km/h (4 Bft) 95,65 %
08.01.2018 15:14 5,0 C 4,4 C 94 % 1023,1 hPa 0,0 l/m 16,1 km/h (3 Bft) O 90 0 min 0,000 mm 0,0 UV-I 15 W/m 4,1 C -1,5 C 24,1 km/h (4 Bft) 91,30 %
08.01.2018 15:15 4,9 C 4,4 C 94 % 1023,1 hPa 0,0 l/m 16,1 km/h (3 Bft) O-NO 67 0 min 0,000 mm 0,0 UV-I 16 W/m 4,0 C -1,6 C 24,1 km/h (4 Bft) 95,65 %
08.01.2018 15:16 5,0 C 4,4 C 94 % 1023,1 hPa 0,0 l/m 16,1 km/h (3 Bft) O-NO 67 0 min 0,000 mm 0,0 UV-I 16 W/m 4,1 C -1,5 C 22,5 km/h (4 Bft) 95,65 %
08.01.2018 15:17 4,9 C 4,4 C 94 % 1023,0 hPa 0,0 l/m 19,3 km/h (3 Bft) O-NO 67 0 min 0,000 mm 0,0 UV-I 16 W/m 4,0 C -3,0 C 22,5 km/h (4 Bft) 95,65 %
08.01.2018 15:18 5,0 C 4,4 C 94 % 1023,0 hPa 0,0 l/m 25,7 km/h (4 Bft) O-NO 67 0 min 0,000 mm 0,0 UV-I 16 W/m 4,1 C -5,2 C 33,8 km/h (5 Bft) 100,00 %
08.01.2018 15:19 4,9 C 4,4 C 94 % 1022,9 hPa 0,0 l/m 25,7 km/h (4 Bft) O-NO 67 0 min 0,000 mm 0,0 UV-I 16 W/m 4,0 C -5,3 C 33,8 km/h (5 Bft) 95,65 %
08.01.2018 15:20 4,9 C 4,4 C 94 % 1023,0 hPa 0,0 l/m 22,5 km/h (4 Bft) O 90 0 min 0,000 mm 0,0 UV-I 18 W/m 4,0 C -4,2 C 29,0 km/h (5 Bft) 95,65 %
08.01.2018 15:21 4,9 C 4,4 C 94 % 1022,9 hPa 0,0 l/m 16,1 km/h (3 Bft) O 90 0 min 0,000 mm 0,0 UV-I 18 W/m 4,0 C -1,6 C 20,9 km/h (4 Bft) 95,65 %
08.01.2018 15:22 4,9 C 4,4 C 94 % 1022,9 hPa 0,0 l/m 17,7 km/h (3 Bft) O 90 0 min 0,000 mm 0,0 UV-I 18 W/m 4,0 C -2,3 C 24,1 km/h (4 Bft) 100,00 %
08.01.2018 15:23 4,9 C 4,4 C 94 % 1022,9 hPa 0,0 l/m 24,1 km/h (4 Bft) O 90 0 min 0,000 mm 0,0 UV-I 16 W/m 4,0 C -4,8 C 29,0 km/h (5 Bft) 91,30 %
08.01.2018 15:24 4,9 C 4,4 C 94 % 1022,9 hPa 0,0 l/m 17,7 km/h (3 Bft) O-NO 67 0 min 0,000 mm 0,0 UV-I 16 W/m 4,0 C -2,3 C 29,0 km/h (5 Bft) 100,00 %
08.01.2018 15:25 4,9 C 4,4 C 94 % 1022,9 hPa 0,0 l/m 29,0 km/h (5 Bft) O-NO 67 0 min 0,000 mm 0,0 UV-I 16 W/m 4,0 C -6,3 C 33,8 km/h (5 Bft) 95,65 %
08.01.2018 15:26 4,9 C 4,4 C 94 % 1022,8 hPa 0,0 l/m 25,7 km/h (4 Bft) O-NO 67 0 min 0,000 mm 0,0 UV-I 16 W/m 4,0 C -5,3 C 33,8 km/h (5 Bft) 95,65 %
08.01.2018 15:27 4,9 C 4,4 C 94 % 1022,8 hPa 0,0 l/m 22,5 km/h (4 Bft) O-NO 67 0 min 0,000 mm 0,0 UV-I 16 W/m 4,0 C -4,2 C 29,0 km/h (5 Bft) 95,65 %
08.01.2018 15:28 4,9 C 4,4 C 94 % 1022,8 hPa 0,0 l/m 22,5 km/h (4 Bft) O-NO 67 0 min 0,000 mm 0,0 UV-I 16 W/m 4,0 C -4,2 C 29,0 km/h (5 Bft) 91,30 %
08.01.2018 15:29 4,9 C 4,4 C 94 % 1022,8 hPa 0,0 l/m 20,9 km/h (4 Bft) O-NO 67 0 min 0,000 mm 0,0 UV-I 16 W/m 4,0 C -3,7 C 32,2 km/h (5 Bft) 100,00 %
08.01.2018 15:30 4,9 C 4,4 C 94 % 1022,8 hPa 0,0 l/m 22,5 km/h (4 Bft) O-NO 67 0 min 0,000 mm 0,0 UV-I 16 W/m 4,0 C -4,2 C 29,0 km/h (5 Bft) 91,30 %
08.01.2018 15:31 4,9 C 4,4 C 94 % 1022,8 hPa 0,0 l/m 14,5 km/h (3 Bft) O 90 0 min 0,000 mm 0,0 UV-I 14 W/m 4,0 C -0,8 C 22,5 km/h (4 Bft) 100,00 %
08.01.2018 15:32 4,9 C 4,4 C 94 % 1022,8 hPa 0,0 l/m 17,7 km/h (3 Bft) O-NO 67 0 min 0,000 mm 0,0 UV-I 15 W/m 4,0 C -2,3 C 27,4 km/h (4 Bft) 91,30 %
08.01.2018 15:33 4,9 C 4,4 C 94 % 1022,7 hPa 0,0 l/m 20,9 km/h (4 Bft) O-NO 67 0 min 0,000 mm 0,0 UV-I 14 W/m 4,0 C -3,7 C 24,1 km/h (4 Bft) 100,00 %
08.01.2018 15:34 4,9 C 4,4 C 94 % 1022,7 hPa 0,0 l/m 25,7 km/h (4 Bft) O-NO 67 0 min 0,000 mm 0,0 UV-I 12 W/m 4,0 C -5,3 C 33,8 km/h (5 Bft) 95,65 %
08.01.2018 15:35 4,9 C 4,4 C 94 % 1022,7 hPa 0,0 l/m 19,3 km/h (3 Bft) O-NO 67 0 min 0,000 mm 0,0 UV-I 14 W/m 4,0 C -3,0 C 29,0 km/h (5 Bft) 86,96 %
08.01.2018 15:36 4,9 C 4,4 C 94 % 1022,7 hPa 0,0 l/m 27,4 km/h (4 Bft) O-NO 67 0 min 0,000 mm 0,0 UV-I 14 W/m 4,0 C -5,8 C 38,6 km/h (5 Bft) 100,00 %
08.01.2018 15:37 4,9 C 4,4 C 94 % 1022,7 hPa 0,0 l/m 22,5 km/h (4 Bft) O-NO 67 0 min 0,000 mm 0,0 UV-I 12 W/m 4,0 C -4,2 C 30,6 km/h (5 Bft) 95,65 %
08.01.2018 15:38 4,9 C 4,4 C 94 % 1022,7 hPa 0,0 l/m 20,9 km/h (4 Bft) O-NO 67 0 min 0,000 mm 0,0 UV-I 13 W/m 4,0 C -3,7 C 25,7 km/h (4 Bft) 100,00 %
08.01.2018 15:39 4,9 C 4,4 C 94 % 1022,6 hPa 0,0 l/m 24,1 km/h (4 Bft) O-NO 67 0 min 0,000 mm 0,0 UV-I 12 W/m 4,0 C -4,8 C 35,4 km/h (5 Bft) 95,65 %
08.01.2018 15:40 4,9 C 4,4 C 94 % 1022,7 hPa 0,0 l/m 25,7 km/h (4 Bft) O-NO 67 0 min 0,000 mm 0,0 UV-I 11 W/m 4,0 C -5,3 C 35,4 km/h (5 Bft) 95,65 %
08.01.2018 15:41 4,9 C 4,4 C 94 % 1022,7 hPa 0,0 l/m 27,4 km/h (4 Bft) O-NO 67 0 min 0,000 mm 0,0 UV-I 11 W/m 4,0 C -5,8 C 38,6 km/h (5 Bft) 91,30 %
08.01.2018 15:42 4,9 C 4,4 C 94 % 1022,8 hPa 0,0 l/m 22,5 km/h (4 Bft) O-NO 67 0 min 0,000 mm 0,0 UV-I 11 W/m 4,0 C -4,2 C 33,8 km/h (5 Bft) 95,65 %
08.01.2018 15:43 4,9 C 4,4 C 94 % 1022,8 hPa 0,0 l/m 19,3 km/h (3 Bft) O 90 0 min 0,000 mm 0,0 UV-I 9 W/m 4,0 C -3,0 C 24,1 km/h (4 Bft) 95,65 %
08.01.2018 15:44 4,9 C 4,4 C 94 % 1022,9 hPa 0,0 l/m 17,7 km/h (3 Bft) O-NO 67 0 min 0,000 mm 0,0 UV-I 9 W/m 4,0 C -2,3 C 19,3 km/h (3 Bft) 100,00 %
08.01.2018 15:45 4,8 C 4,4 C 94 % 1022,9 hPa 0,0 l/m 19,3 km/h (3 Bft) O-NO 67 0 min 0,000 mm 0,0 UV-I 9 W/m 3,9 C -3,1 C 22,5 km/h (4 Bft) 91,30 %
08.01.2018 15:46 4,9 C 4,4 C 94 % 1022,9 hPa 0,0 l/m 20,9 km/h (4 Bft) O-NO 67 0 min 0,000 mm 0,0 UV-I 11 W/m 4,0 C -3,7 C 29,0 km/h (5 Bft) 100,00 %
08.01.2018 15:47 4,8 C 4,4 C 94 % 1022,9 hPa 0,0 l/m 19,3 km/h (3 Bft) O-NO 67 0 min 0,000 mm 0,0 UV-I 11 W/m 3,9 C -3,1 C 24,1 km/h (4 Bft) 95,65 %
08.01.2018 15:48 4,8 C 4,4 C 94 % 1022,8 hPa 0,0 l/m 17,7 km/h (3 Bft) O-NO 67 0 min 0,000 mm 0,0 UV-I 9 W/m 3,9 C -2,5 C 20,9 km/h (4 Bft) 95,65 %
08.01.2018 15:49 4,8 C 4,4 C 94 % 1022,7 hPa 0,0 l/m 25,7 km/h (4 Bft) O-NO 67 0 min 0,000 mm 0,0 UV-I 11 W/m 3,9 C -5,4 C 30,6 km/h (5 Bft) 95,65 %
08.01.2018 15:50 4,8 C 4,4 C 94 % 1022,8 hPa 0,0 l/m 22,5 km/h (4 Bft) O-NO 67 0 min 0,000 mm 0,0 UV-I 11 W/m 3,9 C -4,4 C 37,0 km/h (5 Bft) 95,65 %
08.01.2018 15:51 4,8 C 4,4 C 94 % 1022,7 hPa 0,0 l/m 20,9 km/h (4 Bft) O-NO 67 0 min 0,000 mm 0,0 UV-I 11 W/m 3,9 C -3,8 C 29,0 km/h (5 Bft) 100,00 %
08.01.2018 15:52 4,8 C 4,4 C 94 % 1022,7 hPa 0,0 l/m 25,7 km/h (4 Bft) O-NO 67 0 min 0,000 mm 0,0 UV-I 11 W/m 3,9 C -5,4 C 38,6 km/h (5 Bft) 100,00 %
08.01.2018 15:53 4,8 C 4,4 C 94 % 1022,6 hPa 0,0 l/m 30,6 km/h (5 Bft) O-NO 67 0 min 0,000 mm 0,0 UV-I 11 W/m 3,9 C -6,8 C 38,6 km/h (5 Bft) 100,00 %
08.01.2018 15:54 4,8 C 4,4 C 94 % 1022,6 hPa 0,0 l/m 29,0 km/h (5 Bft) O-NO 67 0 min 0,000 mm 0,0 UV-I 11 W/m 3,9 C -6,4 C 38,6 km/h (5 Bft) 100,00 %
08.01.2018 15:55 4,8 C 4,4 C 94 % 1022,7 hPa 0,0 l/m 25,7 km/h (4 Bft) O-NO 67 0 min 0,000 mm 0,0 UV-I 9 W/m 3,9 C -5,4 C 30,6 km/h (5 Bft) 100,00 %
08.01.2018 15:56 4,8 C 4,4 C 94 % 1022,7 hPa 0,0 l/m 29,0 km/h (5 Bft) O-NO 67 0 min 0,000 mm 0,0 UV-I 9 W/m 3,9 C -6,4 C 43,5 km/h (6 Bft) 95,65 %
08.01.2018 15:57 4,8 C 4,4 C 94 % 1022,7 hPa 0,0 l/m 24,1 km/h (4 Bft) O-NO 67 0 min 0,000 mm 0,0 UV-I 7 W/m 3,9 C -4,9 C 32,2 km/h (5 Bft) 100,00 %
08.01.2018 15:58 4,8 C 4,4 C 94 % 1022,8 hPa 0,0 l/m 22,5 km/h (4 Bft) O-NO 67 0 min 0,000 mm 0,0 UV-I 9 W/m 3,9 C -4,4 C 27,4 km/h (4 Bft) 100,00 %
08.01.2018 15:59 4,8 C 4,4 C 94 % 1022,8 hPa 0,0 l/m 24,1 km/h (4 Bft) O-NO 67 0 min 0,000 mm 0,0 UV-I 9 W/m 3,9 C -4,9 C 37,0 km/h (5 Bft) 100,00 %
08.01.2018 16:00 4,8 C 4,4 C 94 % 1022,8 hPa 0,0 l/m 22,5 km/h (4 Bft) O-NO 67 0 min 0,025 mm 0,0 UV-I 7 W/m 3,9 C -4,4 C 29,0 km/h (5 Bft) 100,00 %
08.01.2018 16:01 4,8 C 4,4 C 94 % 1022,9 hPa 0,0 l/m 20,9 km/h (4 Bft) NO 45 0 min 0,000 mm 0,0 UV-I 7 W/m 3,9 C -3,8 C 27,4 km/h (4 Bft) 95,65 %
08.01.2018 16:02 4,8 C 4,4 C 94 % 1022,9 hPa 0,0 l/m 24,1 km/h (4 Bft) O-NO 67 0 min 0,000 mm 0,0 UV-I 5 W/m 3,9 C -4,9 C 37,0 km/h (5 Bft) 100,00 %
08.01.2018 16:03 4,8 C 4,4 C 94 % 1022,9 hPa 0,0 l/m 24,1 km/h (4 Bft) O-NO 67 0 min 0,000 mm 0,0 UV-I 5 W/m 3,9 C -4,9 C 35,4 km/h (5 Bft) 91,30 %
08.01.2018 16:04 4,8 C 4,4 C 94 % 1023,0 hPa 0,0 l/m 25,7 km/h (4 Bft) O-NO 67 0 min 0,000 mm 0,0 UV-I 5 W/m 3,9 C -5,4 C 32,2 km/h (5 Bft) 100,00 %
08.01.2018 16:05 4,8 C 4,4 C 94 % 1023,0 hPa 0,0 l/m 20,9 km/h (4 Bft) O-NO 67 0 min 0,000 mm 0,0 UV-I 5 W/m 3,9 C -3,8 C 30,6 km/h (5 Bft) 100,00 %
08.01.2018 16:06 4,8 C 4,4 C 94 % 1023,0 hPa 0,0 l/m 22,5 km/h (4 Bft) O-NO 67 0 min 0,000 mm 0,0 UV-I 5 W/m 3,9 C -4,4 C 30,6 km/h (5 Bft) 100,00 %
08.01.2018 16:07 4,8 C 4,4 C 94 % 1023,0 hPa 0,0 l/m 27,4 km/h (4 Bft) O-NO 67 0 min 0,000 mm 0,0 UV-I 5 W/m 3,9 C -5,9 C 38,6 km/h (5 Bft) 100,00 %
08.01.2018 16:08 4,8 C 4,4 C 94 % 1023,0 hPa 0,0 l/m 24,1 km/h (4 Bft) O 90 0 min 0,000 mm 0,0 UV-I 7 W/m 3,9 C -4,9 C 32,2 km/h (5 Bft) 100,00 %
08.01.2018 16:09 4,8 C 4,4 C 94 % 1023,0 hPa 0,0 l/m 25,7 km/h (4 Bft) O-NO 67 0 min 0,000 mm 0,0 UV-I 7 W/m 3,9 C -5,4 C 33,8 km/h (5 Bft) 100,00 %
08.01.2018 16:10 4,8 C 4,4 C 94 % 1022,9 hPa 0,0 l/m 25,7 km/h (4 Bft) O-NO 67 0 min 0,000 mm 0,0 UV-I 7 W/m 3,9 C -5,4 C 30,6 km/h (5 Bft) 95,65 %
08.01.2018 16:11 4,8 C 4,4 C 94 % 1023,0 hPa 0,0 l/m 24,1 km/h (4 Bft) O-NO 67 0 min 0,000 mm 0,0 UV-I 7 W/m 3,9 C -4,9 C 32,2 km/h (5 Bft) 100,00 %
08.01.2018 16:12 4,8 C 4,4 C 94 % 1023,0 hPa 0,0 l/m 25,7 km/h (4 Bft) O-NO 67 0 min 0,000 mm 0,0 UV-I 7 W/m 3,9 C -5,4 C 37,0 km/h (5 Bft) 100,00 %
08.01.2018 16:13 4,7 C 4,4 C 94 % 1023,0 hPa 0,0 l/m 27,4 km/h (4 Bft) O-NO 67 0 min 0,000 mm 0,0 UV-I 5 W/m 3,8 C -6,1 C 38,6 km/h (5 Bft) 95,65 %
08.01.2018 16:14 4,7 C 4,4 C 94 % 1023,0 hPa 0,0 l/m 30,6 km/h (5 Bft) O-NO 67 0 min 0,000 mm 0,0 UV-I 5 W/m 3,8 C -7,0 C 40,2 km/h (6 Bft) 100,00 %
08.01.2018 16:15 4,7 C 4,4 C 94 % 1023,0 hPa 0,0 l/m 19,3 km/h (3 Bft) O-NO 67 0 min 0,000 mm 0,0 UV-I 5 W/m 3,8 C -3,3 C 27,4 km/h (4 Bft) 100,00 %
08.01.2018 16:16 4,7 C 4,4 C 94 % 1023,0 hPa 0,0 l/m 25,7 km/h (4 Bft) O-NO 67 0 min 0,000 mm 0,0 UV-I 5 W/m 3,8 C -5,6 C 35,4 km/h (5 Bft) 100,00 %
08.01.2018 16:17 4,7 C 4,4 C 94 % 1022,9 hPa 0,0 l/m 30,6 km/h (5 Bft) O-NO 67 0 min 0,000 mm 0,0 UV-I 5 W/m 3,8 C -7,0 C 37,0 km/h (5 Bft) 91,30 %
08.01.2018 16:18 4,7 C 4,4 C 94 % 1022,9 hPa 0,0 l/m 25,7 km/h (4 Bft) O-NO 67 0 min 0,000 mm 0,0 UV-I 5 W/m 3,8 C -5,6 C 35,4 km/h (5 Bft) 100,00 %
08.01.2018 16:19 4,7 C 4,4 C 94 % 1022,9 hPa 0,0 l/m 22,5 km/h (4 Bft) O-NO 67 0 min 0,000 mm 0,0 UV-I 5 W/m 3,8 C -4,5 C 32,2 km/h (5 Bft) 100,00 %
08.01.2018 16:20 4,7 C 4,4 C 94 % 1022,9 hPa 0,0 l/m 32,2 km/h (5 Bft) O-NO 67 0 min 0,000 mm 0,0 UV-I 5 W/m 3,8 C -7,3 C 43,5 km/h (6 Bft) 100,00 %
08.01.2018 16:21 4,7 C 4,4 C 94 % 1023,0 hPa 0,0 l/m 24,1 km/h (4 Bft) O-NO 67 0 min 0,000 mm 0,0 UV-I 5 W/m 3,8 C -5,1 C 33,8 km/h (5 Bft) 100,00 %
08.01.2018 16:22 4,7 C 4,4 C 94 % 1023,0 hPa 0,0 l/m 29,0 km/h (5 Bft) O-NO 67 0 min 0,000 mm 0,0 UV-I 5 W/m 3,8 C -6,5 C 37,0 km/h (5 Bft) 100,00 %
08.01.2018 16:23 4,7 C 4,4 C 94 % 1023,0 hPa 0,0 l/m 25,7 km/h (4 Bft) O-NO 67 0 min 0,000 mm 0,0 UV-I 5 W/m 3,8 C -5,6 C 32,2 km/h (5 Bft) 100,00 %
08.01.2018 16:24 4,7 C 4,4 C 94 % 1023,0 hPa 0,0 l/m 27,4 km/h (4 Bft) O-NO 67 0 min 0,000 mm 0,0 UV-I 5 W/m 3,8 C -6,1 C 33,8 km/h (5 Bft) 91,30 %
08.01.2018 16:25 4,7 C 4,4 C 94 % 1023,0 hPa 0,0 l/m 24,1 km/h (4 Bft) O-NO 67 0 min 0,000 mm 0,0 UV-I 5 W/m 3,8 C -5,1 C 33,8 km/h (5 Bft) 100,00 %
08.01.2018 16:26 4,7 C 4,4 C 94 % 1022,9 hPa 0,0 l/m 24,1 km/h (4 Bft) O-NO 67 0 min 0,000 mm 0,0 UV-I 5 W/m 3,8 C -5,1 C 30,6 km/h (5 Bft) 100,00 %
08.01.2018 16:27 4,7 C 4,4 C 94 % 1023,0 hPa 0,0 l/m 30,6 km/h (5 Bft) O-NO 67 0 min 0,000 mm 0,0 UV-I 5 W/m 3,8 C -7,0 C 46,7 km/h (6 Bft) 100,00 %
08.01.2018 16:28 4,7 C 4,4 C 94 % 1023,0 hPa 0,0 l/m 24,1 km/h (4 Bft) O 90 0 min 0,000 mm 0,0 UV-I 5 W/m 3,8 C -5,1 C 35,4 km/h (5 Bft) 95,65 %
08.01.2018 16:29 4,7 C 4,4 C 94 % 1023,0 hPa 0,0 l/m 24,1 km/h (4 Bft) O-NO 67 0 min 0,000 mm 0,0 UV-I 5 W/m 3,8 C -5,1 C 33,8 km/h (5 Bft) 95,65 %
08.01.2018 16:30 4,7 C 4,4 C 95 % 1023,0 hPa 0,0 l/m 24,1 km/h (4 Bft) O 90 0 min 0,000 mm 0,0 UV-I 3 W/m 4,0 C -5,1 C 46,7 km/h (6 Bft) 100,00 %
08.01.2018 16:31 4,7 C 4,4 C 95 % 1023,0 hPa 0,0 l/m 27,4 km/h (4 Bft) O-NO 67 0 min 0,000 mm 0,0 UV-I 0 W/m 4,0 C -6,1 C 33,8 km/h (5 Bft) 95,65 %
08.01.2018 16:32 4,7 C 4,4 C 95 % 1023,1 hPa 0,0 l/m 24,1 km/h (4 Bft) O 90 0 min 0,000 mm 0,0 UV-I 0 W/m 4,0 C -5,1 C 30,6 km/h (5 Bft) 100,00 %
08.01.2018 16:33 4,6 C 4,4 C 95 % 1023,1 hPa 0,0 l/m 24,1 km/h (4 Bft) O-NO 67 0 min 0,000 mm 0,0 UV-I 0 W/m 3,9 C -5,2 C 32,2 km/h (5 Bft) 100,00 %
08.01.2018 16:34 4,6 C 4,4 C 95 % 1023,1 hPa 0,0 l/m 17,7 km/h (3 Bft) O-NO 67 0 min 0,000 mm 0,0 UV-I 0 W/m 3,9 C -2,7 C 25,7 km/h (4 Bft) 100,00 %
08.01.2018 16:35 4,6 C 4,4 C 95 % 1023,2 hPa 0,0 l/m 20,9 km/h (4 Bft) O-NO 67 0 min 0,000 mm 0,0 UV-I 0 W/m 3,9 C -4,0 C 35,4 km/h (5 Bft) 100,00 %
08.01.2018 16:36 4,6 C 4,4 C 95 % 1023,2 hPa 0,0 l/m 22,5 km/h (4 Bft) O-NO 67 0 min 0,000 mm 0,0 UV-I 0 W/m 3,9 C -4,6 C 30,6 km/h (5 Bft) 100,00 %
08.01.2018 16:37 4,6 C 4,4 C 95 % 1023,3 hPa 0,0 l/m 19,3 km/h (3 Bft) O-NO 67 0 min 0,000 mm 0,0 UV-I 0 W/m 3,9 C -3,4 C 27,4 km/h (4 Bft) 100,00 %
08.01.2018 16:38 4,6 C 4,4 C 95 % 1023,4 hPa 0,0 l/m 16,1 km/h (3 Bft) O-NO 67 0 min 0,000 mm 0,0 UV-I 0 W/m 3,9 C -2,0 C 20,9 km/h (4 Bft) 95,65 %
08.01.2018 16:39 4,6 C 4,4 C 95 % 1023,4 hPa 0,0 l/m 20,9 km/h (4 Bft) O-NO 67 0 min 0,000 mm 0,0 UV-I 0 W/m 3,9 C -4,0 C 27,4 km/h (4 Bft) 100,00 %
08.01.2018 16:40 4,7 C 4,4 C 95 % 1023,5 hPa 0,0 l/m 17,7 km/h (3 Bft) O-NO 67 0 min 0,000 mm 0,0 UV-I 0 W/m 4,0 C -2,6 C 24,1 km/h (4 Bft) 100,00 %
08.01.2018 16:41 4,6 C 4,4 C 95 % 1023,5 hPa 0,0 l/m 14,5 km/h (3 Bft) O-NO 67 0 min 0,000 mm 0,0 UV-I 0 W/m 3,9 C -1,1 C 20,9 km/h (4 Bft) 100,00 %
08.01.2018 16:42 4,6 C 4,4 C 95 % 1023,6 hPa 0,0 l/m 17,7 km/h (3 Bft) O 90 0 min 0,000 mm 0,0 UV-I 0 W/m 3,9 C -2,7 C 33,8 km/h (5 Bft) 100,00 %
08.01.2018 16:43 4,6 C 4,4 C 95 % 1023,6 hPa 0,0 l/m 22,5 km/h (4 Bft) O 90 0 min 0,000 mm 0,0 UV-I 0 W/m 3,9 C -4,6 C 27,4 km/h (4 Bft) 95,65 %
08.01.2018 16:44 4,6 C 4,4 C 95 % 1023,6 hPa 0,0 l/m 12,9 km/h (3 Bft) O 90 0 min 0,000 mm 0,0 UV-I 0 W/m 3,9 C -0,2 C 19,3 km/h (3 Bft) 95,65 %
08.01.2018 16:45 4,6 C 4,4 C 95 % 1023,6 hPa 0,0 l/m 9,7 km/h (2 Bft) O 90 0 min 0,000 mm 0,0 UV-I 0 W/m 3,9 C 1,8 C 14,5 km/h (3 Bft) 95,65 %
08.01.2018 16:46 4,6 C 4,4 C 95 % 1023,6 hPa 0,0 l/m 22,5 km/h (4 Bft) O 90 0 min 0,000 mm 0,0 UV-I 0 W/m 3,9 C -4,6 C 27,4 km/h (4 Bft) 95,65 %
08.01.2018 16:47 4,6 C 4,4 C 95 % 1023,6 hPa 0,0 l/m 16,1 km/h (3 Bft) O 90 0 min 0,000 mm 0,0 UV-I 0 W/m 3,9 C -2,0 C 20,9 km/h (4 Bft) 100,00 %
08.01.2018 16:48 4,6 C 4,4 C 95 % 1023,5 hPa 0,0 l/m 16,1 km/h (3 Bft) O 90 0 min 0,000 mm 0,0 UV-I 0 W/m 3,9 C -2,0 C 19,3 km/h (3 Bft) 100,00 %
08.01.2018 16:49 4,6 C 4,4 C 95 % 1023,5 hPa 0,0 l/m 17,7 km/h (3 Bft) O-NO 67 0 min 0,000 mm 0,0 UV-I 0 W/m 3,9 C -2,7 C 20,9 km/h (4 Bft) 100,00 %
08.01.2018 16:50 4,6 C 4,4 C 95 % 1023,5 hPa 0,0 l/m 14,5 km/h (3 Bft) O-NO 67 0 min 0,000 mm 0,0 UV-I 0 W/m 3,9 C -1,1 C 19,3 km/h (3 Bft) 100,00 %
08.01.2018 16:51 4,6 C 4,4 C 95 % 1023,4 hPa 0,0 l/m 20,9 km/h (4 Bft) O-NO 67 0 min 0,000 mm 0,0 UV-I 0 W/m 3,9 C -4,0 C 25,7 km/h (4 Bft) 95,65 %
08.01.2018 16:52 4,6 C 4,4 C 95 % 1023,3 hPa 0,0 l/m 22,5 km/h (4 Bft) O-NO 67 0 min 0,000 mm 0,0 UV-I 0 W/m 3,9 C -4,6 C 33,8 km/h (5 Bft) 91,30 %
08.01.2018 16:53 4,6 C 4,4 C 95 % 1023,2 hPa 0,0 l/m 22,5 km/h (4 Bft) O-NO 67 0 min 0,000 mm 0,0 UV-I 0 W/m 3,9 C -4,6 C 29,0 km/h (5 Bft) 95,65 %
08.01.2018 16:54 4,5 C 4,4 C 95 % 1023,2 hPa 0,0 l/m 24,1 km/h (4 Bft) O-NO 67 0 min 0,000 mm 0,0 UV-I 0 W/m 3,8 C -5,3 C 33,8 km/h (5 Bft) 95,65 %
08.01.2018 16:55 4,5 C 4,4 C 95 % 1023,2 hPa 0,0 l/m 27,4 km/h (4 Bft) O-NO 67 0 min 0,000 mm 0,0 UV-I 0 W/m 3,8 C -6,4 C 40,2 km/h (6 Bft) 100,00 %
08.01.2018 16:56 4,5 C 4,4 C 95 % 1023,0 hPa 0,0 l/m 25,7 km/h (4 Bft) O-NO 67 0 min 0,000 mm 0,0 UV-I 0 W/m 3,8 C -5,8 C 30,6 km/h (5 Bft) 91,30 %
08.01.2018 16:57 4,5 C 4,4 C 95 % 1023,0 hPa 0,0 l/m 27,4 km/h (4 Bft) O 90 0 min 0,000 mm 0,0 UV-I 0 W/m 3,8 C -6,4 C 40,2 km/h (6 Bft) 100,00 %
08.01.2018 16:58 4,6 C 4,4 C 95 % 1023,0 hPa 0,0 l/m 29,0 km/h (5 Bft) O-NO 67 0 min 0,000 mm 0,0 UV-I 0 W/m 3,9 C -6,7 C 37,0 km/h (5 Bft) 95,65 %
08.01.2018 16:59 4,6 C 4,4 C 95 % 1023,0 hPa 0,0 l/m 30,6 km/h (5 Bft) O-NO 67 0 min 0,000 mm 0,0 UV-I 0 W/m 3,9 C -7,1 C 41,8 km/h (6 Bft) 95,65 %
08.01.2018 17:00 4,6 C 4,4 C 95 % 1023,0 hPa 0,0 l/m 29,0 km/h (5 Bft) O-NO 67 0 min 0,025 mm 0,0 UV-I 0 W/m 3,9 C -6,7 C 48,3 km/h (6 Bft) 91,30 %
08.01.2018 17:01 4,6 C 4,4 C 95 % 1023,0 hPa 0,0 l/m 29,0 km/h (5 Bft) O-NO 67 0 min 0,000 mm 0,0 UV-I 0 W/m 3,9 C -6,7 C 48,3 km/h (6 Bft) 95,65 %
08.01.2018 17:02 4,6 C 4,4 C 95 % 1023,0 hPa 0,0 l/m 27,4 km/h (4 Bft) O-NO 67 0 min 0,000 mm 0,0 UV-I 0 W/m 3,9 C -6,2 C 41,8 km/h (6 Bft) 95,65 %
08.01.2018 17:03 4,6 C 4,4 C 95 % 1023,0 hPa 0,0 l/m 29,0 km/h (5 Bft) O-NO 67 0 min 0,000 mm 0,0 UV-I 0 W/m 3,9 C -6,7 C 40,2 km/h (6 Bft) 95,65 %
08.01.2018 17:04 4,6 C 4,4 C 95 % 1023,0 hPa 0,0 l/m 29,0 km/h (5 Bft) O-NO 67 0 min 0,000 mm 0,0 UV-I 0 W/m 3,9 C -6,7 C 38,6 km/h (5 Bft) 91,30 %
08.01.2018 17:05 4,6 C 4,4 C 95 % 1023,0 hPa 0,0 l/m 29,0 km/h (5 Bft) O-NO 67 0 min 0,000 mm 0,0 UV-I 0 W/m 3,9 C -6,7 C 35,4 km/h (5 Bft) 95,65 %
08.01.2018 17:06 4,7 C 4,4 C 95 % 1023,0 hPa 0,0 l/m 25,7 km/h (4 Bft) O-NO 67 0 min 0,000 mm 0,0 UV-I 0 W/m 4,0 C -5,6 C 35,4 km/h (5 Bft) 86,96 %
08.01.2018 17:07 4,7 C 4,4 C 95 % 1023,0 hPa 0,0 l/m 30,6 km/h (5 Bft) O-NO 67 0 min 0,000 mm 0,0 UV-I 0 W/m 4,0 C -7,0 C 38,6 km/h (5 Bft) 95,65 %
08.01.2018 17:08 4,6 C 4,4 C 95 % 1023,1 hPa 0,0 l/m 29,0 km/h (5 Bft) O 90 0 min 0,000 mm 0,0 UV-I 0 W/m 3,9 C -6,7 C 40,2 km/h (6 Bft) 95,65 %
08.01.2018 17:09 4,7 C 4,4 C 95 % 1023,1 hPa 0,0 l/m 32,2 km/h (5 Bft) O-NO 67 0 min 0,000 mm 0,0 UV-I 0 W/m 4,0 C -7,3 C 48,3 km/h (6 Bft) 95,65 %
08.01.2018 17:10 4,7 C 4,4 C 95 % 1023,2 hPa 0,0 l/m 30,6 km/h (5 Bft) O-NO 67 0 min 0,000 mm 0,0 UV-I 0 W/m 4,0 C -7,0 C 45,1 km/h (6 Bft) 91,30 %
08.01.2018 17:11 4,7 C 4,4 C 95 % 1023,2 hPa 0,0 l/m 27,4 km/h (4 Bft) O-NO 67 0 min 0,000 mm 0,0 UV-I 0 W/m 4,0 C -6,1 C 38,6 km/h (5 Bft) 95,65 %
08.01.2018 17:12 4,7 C 4,4 C 94 % 1023,1 hPa 0,0 l/m 27,4 km/h (4 Bft) O 90 0 min 0,000 mm 0,0 UV-I 0 W/m 3,8 C -6,1 C 41,8 km/h (6 Bft) 95,65 %
08.01.2018 17:13 4,7 C 4,4 C 94 % 1023,1 hPa 0,0 l/m 25,7 km/h (4 Bft) O-NO 67 0 min 0,000 mm 0,0 UV-I 0 W/m 3,8 C -5,6 C 38,6 km/h (5 Bft) 95,65 %
08.01.2018 17:14 4,7 C 4,4 C 94 % 1023,2 hPa 0,0 l/m 22,5 km/h (4 Bft) O-NO 67 0 min 0,000 mm 0,0 UV-I 0 W/m 3,8 C -4,5 C 33,8 km/h (5 Bft) 95,65 %
08.01.2018 17:15 4,7 C 4,4 C 94 % 1023,1 hPa 0,0 l/m 25,7 km/h (4 Bft) O-NO 67 0 min 0,000 mm 0,0 UV-I 0 W/m 3,8 C -5,6 C 32,2 km/h (5 Bft) 100,00 %
08.01.2018 17:16 4,7 C 4,4 C 94 % 1023,2 hPa 0,0 l/m 27,4 km/h (4 Bft) O-NO 67 0 min 0,000 mm 0,0 UV-I 0 W/m 3,8 C -6,1 C 38,6 km/h (5 Bft) 91,30 %
08.01.2018 17:17 4,7 C 4,4 C 94 % 1023,2 hPa 0,0 l/m 25,7 km/h (4 Bft) O-NO 67 0 min 0,000 mm 0,0 UV-I 0 W/m 3,8 C -5,6 C 32,2 km/h (5 Bft) 95,65 %
08.01.2018 17:18 4,7 C 4,4 C 94 % 1023,2 hPa 0,0 l/m 24,1 km/h (4 Bft) O-NO 67 0 min 0,000 mm 0,0 UV-I 0 W/m 3,8 C -5,1 C 32,2 km/h (5 Bft) 100,00 %
08.01.2018 17:19 4,7 C 4,4 C 94 % 1023,1 hPa 0,0 l/m 25,7 km/h (4 Bft) O-NO 67 0 min 0,000 mm 0,0 UV-I 0 W/m 3,8 C -5,6 C 35,4 km/h (5 Bft) 95,65 %
08.01.2018 17:20 4,7 C 4,4 C 94 % 1023,1 hPa 0,0 l/m 25,7 km/h (4 Bft) O-NO 67 0 min 0,000 mm 0,0 UV-I 0 W/m 3,8 C -5,6 C 33,8 km/h (5 Bft) 95,65 %
08.01.2018 17:21 4,7 C 4,4 C 94 % 1023,1 hPa 0,0 l/m 22,5 km/h (4 Bft) O-NO 67 0 min 0,000 mm 0,0 UV-I 0 W/m 3,8 C -4,5 C 33,8 km/h (5 Bft) 95,65 %
08.01.2018 17:22 4,6 C 4,4 C 94 % 1023,2 hPa 0,0 l/m 17,7 km/h (3 Bft) O 90 0 min 0,000 mm 0,0 UV-I 0 W/m 3,7 C -2,7 C 29,0 km/h (5 Bft) 100,00 %
08.01.2018 17:23 4,6 C 4,4 C 94 % 1023,2 hPa 0,0 l/m 22,5 km/h (4 Bft) O-NO 67 0 min 0,000 mm 0,0 UV-I 0 W/m 3,7 C -4,6 C 30,6 km/h (5 Bft) 95,65 %
08.01.2018 17:24 4,6 C 4,4 C 94 % 1023,2 hPa 0,0 l/m 29,0 km/h (5 Bft) O-NO 67 0 min 0,000 mm 0,0 UV-I 0 W/m 3,7 C -6,7 C 37,0 km/h (5 Bft) 95,65 %
08.01.2018 17:25 4,6 C 4,4 C 94 % 1023,2 hPa 0,0 l/m 19,3 km/h (3 Bft) O-NO 67 0 min 0,000 mm 0,0 UV-I 0 W/m 3,7 C -3,4 C 30,6 km/h (5 Bft) 91,30 %
08.01.2018 17:26 4,6 C 4,4 C 95 % 1023,3 hPa 0,0 l/m 22,5 km/h (4 Bft) O-NO 67 0 min 0,000 mm 0,0 UV-I 0 W/m 3,9 C -4,6 C 32,2 km/h (5 Bft) 100,00 %
08.01.2018 17:27 4,6 C 4,4 C 95 % 1023,3 hPa 0,0 l/m 25,7 km/h (4 Bft) O-NO 67 0 min 0,000 mm 0,0 UV-I 0 W/m 3,9 C -5,7 C 35,4 km/h (5 Bft) 95,65 %
08.01.2018 17:28 4,6 C 4,4 C 95 % 1023,4 hPa 0,0 l/m 20,9 km/h (4 Bft) O-NO 67 0 min 0,000 mm 0,0 UV-I 0 W/m 3,9 C -4,0 C 27,4 km/h (4 Bft) 95,65 %
08.01.2018 17:29 4,6 C 4,4 C 95 % 1023,4 hPa 0,0 l/m 27,4 km/h (4 Bft) O-NO 67 0 min 0,000 mm 0,0 UV-I 0 W/m 3,9 C -6,2 C 40,2 km/h (6 Bft) 100,00 %
08.01.2018 17:30 4,6 C 4,4 C 95 % 1023,3 hPa 0,0 l/m 25,7 km/h (4 Bft) O-NO 67 0 min 0,000 mm 0,0 UV-I 0 W/m 3,9 C -5,7 C 30,6 km/h (5 Bft) 91,30 %
08.01.2018 17:31 4,6 C 4,4 C 95 % 1023,4 hPa 0,0 l/m 24,1 km/h (4 Bft) O-NO 67 0 min 0,000 mm 0,0 UV-I 0 W/m 3,9 C -5,2 C 29,0 km/h (5 Bft) 100,00 %
08.01.2018 17:32 4,6 C 4,4 C 95 % 1023,4 hPa 0,0 l/m 19,3 km/h (3 Bft) O-NO 67 0 min 0,000 mm 0,0 UV-I 0 W/m 3,9 C -3,4 C 27,4 km/h (4 Bft) 91,30 %
08.01.2018 17:33 4,6 C 4,4 C 95 % 1023,4 hPa 0,0 l/m 20,9 km/h (4 Bft) O-NO 67 0 min 0,000 mm 0,0 UV-I 0 W/m 3,9 C -4,0 C 30,6 km/h (5 Bft) 100,00 %
08.01.2018 17:34 4,5 C 4,4 C 95 % 1023,4 hPa 0,0 l/m 19,3 km/h (3 Bft) O-NO 67 0 min 0,000 mm 0,0 UV-I 0 W/m 3,8 C -3,5 C 25,7 km/h (4 Bft) 91,30 %
08.01.2018 17:35 4,5 C 4,4 C 95 % 1023,4 hPa 0,0 l/m 20,9 km/h (4 Bft) O-NO 67 0 min 0,000 mm 0,0 UV-I 0 W/m 3,8 C -4,2 C 30,6 km/h (5 Bft) 91,30 %
08.01.2018 17:36 4,5 C 4,4 C 95 % 1023,4 hPa 0,0 l/m 25,7 km/h (4 Bft) O-NO 67 0 min 0,000 mm 0,0 UV-I 0 W/m 3,8 C -5,8 C 37,0 km/h (5 Bft) 100,00 %
08.01.2018 17:37 4,4 C 4,4 C 95 % 1023,4 hPa 0,0 l/m 30,6 km/h (5 Bft) O-NO 67 0 min 0,000 mm 0,0 UV-I 0 W/m 3,7 C -7,4 C 37,0 km/h (5 Bft) 95,65 %
08.01.2018 17:38 4,4 C 4,4 C 95 % 1023,4 hPa 0,0 l/m 27,4 km/h (4 Bft) NO 45 0 min 0,000 mm 0,0 UV-I 0 W/m 3,7 C -6,5 C 35,4 km/h (5 Bft) 100,00 %
08.01.2018 17:39 4,4 C 4,4 C 95 % 1023,4 hPa 0,0 l/m 24,1 km/h (4 Bft) O-NO 67 0 min 0,000 mm 0,0 UV-I 0 W/m 3,7 C -5,5 C 30,6 km/h (5 Bft) 100,00 %
08.01.2018 17:40 4,4 C 4,4 C 95 % 1023,4 hPa 0,0 l/m 24,1 km/h (4 Bft) O-NO 67 0 min 0,000 mm 0,0 UV-I 0 W/m 3,7 C -5,5 C 38,6 km/h (5 Bft) 100,00 %
08.01.2018 17:41 4,4 C 4,4 C 95 % 1023,3 hPa 0,0 l/m 27,4 km/h (4 Bft) O-NO 67 0 min 0,000 mm 0,0 UV-I 0 W/m 3,7 C -6,5 C 35,4 km/h (5 Bft) 95,65 %
08.01.2018 17:42 4,4 C 4,4 C 95 % 1023,3 hPa 0,0 l/m 29,0 km/h (5 Bft) O-NO 67 0 min 0,000 mm 0,0 UV-I 0 W/m 3,7 C -6,9 C 37,0 km/h (5 Bft) 100,00 %
08.01.2018 17:43 4,4 C 4,4 C 95 % 1023,3 hPa 0,0 l/m 25,7 km/h (4 Bft) O-NO 67 0 min 0,000 mm 0,0 UV-I 0 W/m 3,7 C -6,0 C 35,4 km/h (5 Bft) 100,00 %
08.01.2018 17:44 4,4 C 4,4 C 95 % 1023,3 hPa 0,0 l/m 22,5 km/h (4 Bft) O-NO 67 0 min 0,000 mm 0,0 UV-I 0 W/m 3,7 C -4,9 C 32,2 km/h (5 Bft) 100,00 %
08.01.2018 17:45 4,4 C 4,4 C 95 % 1023,3 hPa 0,0 l/m 20,9 km/h (4 Bft) O-NO 67 0 min 0,000 mm 0,0 UV-I 0 W/m 3,7 C -4,3 C 27,4 km/h (4 Bft) 100,00 %
08.01.2018 17:46 4,4 C 4,4 C 95 % 1023,3 hPa 0,0 l/m 22,5 km/h (4 Bft) O-NO 67 0 min 0,000 mm 0,0 UV-I 0 W/m 3,7 C -4,9 C 25,7 km/h (4 Bft) 100,00 %
08.01.2018 17:47 4,4 C 4,4 C 95 % 1023,3 hPa 0,0 l/m 25,7 km/h (4 Bft) O-NO 67 0 min 0,000 mm 0,0 UV-I 0 W/m 3,7 C -6,0 C 32,2 km/h (5 Bft) 95,65 %
08.01.2018 17:48 4,4 C 4,4 C 95 % 1023,3 hPa 0,0 l/m 29,0 km/h (5 Bft) O-NO 67 0 min 0,000 mm 0,0 UV-I 0 W/m 3,7 C -6,9 C 43,5 km/h (6 Bft) 91,30 %
08.01.2018 17:49 4,4 C 4,4 C 95 % 1023,3 hPa 0,0 l/m 29,0 km/h (5 Bft) O-NO 67 0 min 0,000 mm 0,0 UV-I 0 W/m 3,7 C -6,9 C 40,2 km/h (6 Bft) 100,00 %
08.01.2018 17:50 4,4 C 4,4 C 95 % 1023,3 hPa 0,0 l/m 25,7 km/h (4 Bft) O-NO 67 0 min 0,000 mm 0,0 UV-I 0 W/m 3,7 C -6,0 C 32,2 km/h (5 Bft) 100,00 %
08.01.2018 17:51 4,4 C 4,4 C 95 % 1023,3 hPa 0,0 l/m 25,7 km/h (4 Bft) O-NO 67 0 min 0,000 mm 0,0 UV-I 0 W/m 3,7 C -6,0 C 32,2 km/h (5 Bft) 100,00 %
08.01.2018 17:52 4,4 C 4,4 C 95 % 1023,2 hPa 0,0 l/m 19,3 km/h (3 Bft) O-NO 67 0 min 0,000 mm 0,0 UV-I 0 W/m 3,7 C -3,7 C 29,0 km/h (5 Bft) 95,65 %
08.01.2018 17:53 4,4 C 4,4 C 95 % 1023,3 hPa 0,0 l/m 17,7 km/h (3 Bft) O-NO 67 0 min 0,000 mm 0,0 UV-I 0 W/m 3,7 C -3,0 C 24,1 km/h (4 Bft) 95,65 %
08.01.2018 17:54 4,3 C 4,4 C 95 % 1023,3 hPa 0,0 l/m 24,1 km/h (4 Bft) O 90 0 min 0,000 mm 0,0 UV-I 0 W/m 3,6 C -5,6 C 30,6 km/h (5 Bft) 100,00 %
08.01.2018 17:55 4,3 C 4,4 C 95 % 1023,3 hPa 0,0 l/m 17,7 km/h (3 Bft) O-NO 67 0 min 0,000 mm 0,0 UV-I 0 W/m 3,6 C -3,1 C 29,0 km/h (5 Bft) 91,30 %
08.01.2018 17:56 4,3 C 4,4 C 95 % 1023,3 hPa 0,0 l/m 19,3 km/h (3 Bft) O-NO 67 0 min 0,000 mm 0,0 UV-I 0 W/m 3,6 C -3,8 C 24,1 km/h (4 Bft) 100,00 %
08.01.2018 17:57 4,3 C 4,4 C 95 % 1023,4 hPa 0,0 l/m 22,5 km/h (4 Bft) O-NO 67 0 min 0,000 mm 0,0 UV-I 0 W/m 3,6 C -5,0 C 27,4 km/h (4 Bft) 100,00 %
08.01.2018 17:58 4,3 C 4,4 C 95 % 1023,4 hPa 0,0 l/m 20,9 km/h (4 Bft) O-NO 67 0 min 0,000 mm 0,0 UV-I 0 W/m 3,6 C -4,4 C 25,7 km/h (4 Bft) 100,00 %
08.01.2018 17:59 4,3 C 4,4 C 95 % 1023,4 hPa 0,0 l/m 16,1 km/h (3 Bft) O-NO 67 0 min 0,000 mm 0,0 UV-I 0 W/m 3,6 C -2,3 C 25,7 km/h (4 Bft) 100,00 %
08.01.2018 18:00 4,3 C 4,4 C 95 % 1023,4 hPa 0,0 l/m 19,3 km/h (3 Bft) O-NO 67 0 min 0,000 mm 0,0 UV-I 0 W/m 3,6 C -3,8 C 25,7 km/h (4 Bft) 100,00 %
08.01.2018 18:01 4,3 C 4,4 C 95 % 1023,4 hPa 0,0 l/m 14,5 km/h (3 Bft) O-NO 67 0 min 0,000 mm 0,0 UV-I 0 W/m 3,6 C -1,5 C 19,3 km/h (3 Bft) 95,65 %
08.01.2018 18:02 4,3 C 4,4 C 95 % 1023,4 hPa 0,0 l/m 25,7 km/h (4 Bft) O-NO 67 0 min 0,000 mm 0,0 UV-I 0 W/m 3,6 C -6,1 C 32,2 km/h (5 Bft) 95,65 %
08.01.2018 18:03 4,3 C 4,4 C 95 % 1023,4 hPa 0,0 l/m 24,1 km/h (4 Bft) O-NO 67 0 min 0,000 mm 0,0 UV-I 0 W/m 3,6 C -5,6 C 30,6 km/h (5 Bft) 100,00 %
08.01.2018 18:04 4,3 C 4,4 C 95 % 1023,4 hPa 0,0 l/m 17,7 km/h (3 Bft) O-NO 67 0 min 0,000 mm 0,0 UV-I 0 W/m 3,6 C -3,1 C 24,1 km/h (4 Bft) 100,00 %
08.01.2018 18:05 4,3 C 4,4 C 95 % 1023,4 hPa 0,0 l/m 22,5 km/h (4 Bft) O-NO 67 0 min 0,000 mm 0,0 UV-I 0 W/m 3,6 C -5,0 C 38,6 km/h (5 Bft) 100,00 %
08.01.2018 18:06 4,3 C 4,4 C 95 % 1023,3 hPa 0,0 l/m 25,7 km/h (4 Bft) O-NO 67 0 min 0,000 mm 0,0 UV-I 0 W/m 3,6 C -6,1 C 35,4 km/h (5 Bft) 100,00 %
08.01.2018 18:07 4,3 C 4,4 C 95 % 1023,3 hPa 0,0 l/m 20,9 km/h (4 Bft) O-NO 67 0 min 0,000 mm 0,0 UV-I 0 W/m 3,6 C -4,4 C 27,4 km/h (4 Bft) 100,00 %
08.01.2018 18:08 4,3 C 4,4 C 95 % 1023,4 hPa 0,0 l/m 25,7 km/h (4 Bft) O-NO 67 0 min 0,000 mm 0,0 UV-I 0 W/m 3,6 C -6,1 C 33,8 km/h (5 Bft) 100,00 %
08.01.2018 18:09 4,3 C 4,4 C 95 % 1023,4 hPa 0,0 l/m 27,4 km/h (4 Bft) O-NO 67 0 min 0,000 mm 0,0 UV-I 0 W/m 3,6 C -6,6 C 37,0 km/h (5 Bft) 95,65 %
08.01.2018 18:10 4,3 C 4,4 C 95 % 1023,3 hPa 0,0 l/m 27,4 km/h (4 Bft) O-NO 67 0 min 0,000 mm 0,0 UV-I 0 W/m 3,6 C -6,6 C 37,0 km/h (5 Bft) 100,00 %
08.01.2018 18:11 4,3 C 4,4 C 95 % 1023,4 hPa 0,0 l/m 25,7 km/h (4 Bft) O-NO 67 0 min 0,000 mm 0,0 UV-I 0 W/m 3,6 C -6,1 C 33,8 km/h (5 Bft) 100,00 %
08.01.2018 18:12 4,3 C 4,4 C 95 % 1023,3 hPa 0,0 l/m 22,5 km/h (4 Bft) O-NO 67 0 min 0,000 mm 0,0 UV-I 0 W/m 3,6 C -5,0 C 27,4 km/h (4 Bft) 95,65 %
08.01.2018 18:13 4,3 C 4,4 C 95 % 1023,3 hPa 0,0 l/m 22,5 km/h (4 Bft) O-NO 67 0 min 0,000 mm 0,0 UV-I 0 W/m 3,6 C -5,0 C 32,2 km/h (5 Bft) 95,65 %
08.01.2018 18:14 4,3 C 4,4 C 95 % 1023,3 hPa 0,0 l/m 25,7 km/h (4 Bft) O-NO 67 0 min 0,000 mm 0,0 UV-I 0 W/m 3,6 C -6,1 C 37,0 km/h (5 Bft) 95,65 %
08.01.2018 18:15 4,3 C 4,4 C 95 % 1023,3 hPa 0,0 l/m 24,1 km/h (4 Bft) O-NO 67 0 min 0,000 mm 0,0 UV-I 0 W/m 3,6 C -5,6 C 32,2 km/h (5 Bft) 91,30 %
08.01.2018 18:16 4,3 C 4,4 C 95 % 1023,3 hPa 0,0 l/m 24,1 km/h (4 Bft) O-NO 67 0 min 0,000 mm 0,0 UV-I 0 W/m 3,6 C -5,6 C 33,8 km/h (5 Bft) 91,30 %
08.01.2018 18:17 4,3 C 4,4 C 95 % 1023,3 hPa 0,0 l/m 22,5 km/h (4 Bft) O-NO 67 0 min 0,000 mm 0,0 UV-I 0 W/m 3,6 C -5,0 C 29,0 km/h (5 Bft) 95,65 %
08.01.2018 18:18 4,3 C 4,4 C 95 % 1023,3 hPa 0,0 l/m 22,5 km/h (4 Bft) O-NO 67 0 min 0,000 mm 0,0 UV-I 0 W/m 3,6 C -5,0 C 27,4 km/h (4 Bft) 100,00 %
08.01.2018 18:19 4,3 C 4,4 C 95 % 1023,3 hPa 0,0 l/m 25,7 km/h (4 Bft) O-NO 67 0 min 0,000 mm 0,0 UV-I 0 W/m 3,6 C -6,1 C 40,2 km/h (6 Bft) 95,65 %
08.01.2018 18:20 4,3 C 4,4 C 95 % 1023,2 hPa 0,0 l/m 25,7 km/h (4 Bft) O-NO 67 0 min 0,000 mm 0,0 UV-I 0 W/m 3,6 C -6,1 C 38,6 km/h (5 Bft) 95,65 %
08.01.2018 18:21 4,3 C 4,4 C 95 % 1023,4 hPa 0,0 l/m 25,7 km/h (4 Bft) O-NO 67 0 min 0,000 mm 0,0 UV-I 0 W/m 3,6 C -6,1 C 38,6 km/h (5 Bft) 95,65 %
08.01.2018 18:22 4,3 C 4,4 C 95 % 1023,3 hPa 0,0 l/m 25,7 km/h (4 Bft) O-NO 67 0 min 0,000 mm 0,0 UV-I 0 W/m 3,6 C -6,1 C 41,8 km/h (6 Bft) 100,00 %
08.01.2018 18:23 4,3 C 4,4 C 95 % 1023,3 hPa 0,0 l/m 22,5 km/h (4 Bft) O-NO 67 0 min 0,000 mm 0,0 UV-I 0 W/m 3,6 C -5,0 C 29,0 km/h (5 Bft) 91,30 %
08.01.2018 18:24 4,3 C 4,4 C 95 % 1023,3 hPa 0,0 l/m 27,4 km/h (4 Bft) O-NO 67 0 min 0,000 mm 0,0 UV-I 0 W/m 3,6 C -6,6 C 35,4 km/h (5 Bft) 100,00 %
08.01.2018 18:25 4,3 C 4,4 C 95 % 1023,3 hPa 0,0 l/m 30,6 km/h (5 Bft) O-NO 67 0 min 0,000 mm 0,0 UV-I 0 W/m 3,6 C -7,5 C 38,6 km/h (5 Bft) 95,65 %
08.01.2018 18:26 4,3 C 4,4 C 95 % 1023,3 hPa 0,0 l/m 24,1 km/h (4 Bft) O-NO 67 0 min 0,000 mm 0,0 UV-I 0 W/m 3,6 C -5,6 C 30,6 km/h (5 Bft) 100,00 %
08.01.2018 18:27 4,3 C 4,4 C 95 % 1023,3 hPa 0,0 l/m 25,7 km/h (4 Bft) O-NO 67 0 min 0,000 mm 0,0 UV-I 0 W/m 3,6 C -6,1 C 32,2 km/h (5 Bft) 95,65 %
08.01.2018 18:28 4,3 C 4,4 C 95 % 1023,3 hPa 0,0 l/m 25,7 km/h (4 Bft) O-NO 67 0 min 0,000 mm 0,0 UV-I 0 W/m 3,6 C -6,1 C 38,6 km/h (5 Bft) 100,00 %
08.01.2018 18:29 4,3 C 4,4 C 95 % 1023,3 hPa 0,0 l/m 27,4 km/h (4 Bft) NO 45 0 min 0,000 mm 0,0 UV-I 0 W/m 3,6 C -6,6 C 40,2 km/h (6 Bft) 95,65 %
08.01.2018 18:30 4,3 C 4,4 C 95 % 1023,3 hPa 0,0 l/m 25,7 km/h (4 Bft) O-NO 67 0 min 0,000 mm 0,0 UV-I 0 W/m 3,6 C -6,1 C 37,0 km/h (5 Bft) 91,30 %
08.01.2018 18:31 4,3 C 4,4 C 95 % 1023,3 hPa 0,0 l/m 27,4 km/h (4 Bft) NO 45 0 min 0,000 mm 0,0 UV-I 0 W/m 3,6 C -6,6 C 33,8 km/h (5 Bft) 95,65 %
08.01.2018 18:32 4,3 C 4,4 C 95 % 1023,2 hPa 0,0 l/m 25,7 km/h (4 Bft) O-NO 67 0 min 0,000 mm 0,0 UV-I 0 W/m 3,6 C -6,1 C 30,6 km/h (5 Bft) 91,30 %
08.01.2018 18:33 4,3 C 4,4 C 95 % 1023,3 hPa 0,0 l/m 24,1 km/h (4 Bft) NO 45 0 min 0,000 mm 0,0 UV-I 0 W/m 3,6 C -5,6 C 32,2 km/h (5 Bft) 100,00 %
08.01.2018 18:34 4,3 C 4,4 C 95 % 1023,3 hPa 0,0 l/m 22,5 km/h (4 Bft) O-NO 67 0 min 0,000 mm 0,0 UV-I 0 W/m 3,6 C -5,0 C 27,4 km/h (4 Bft) 100,00 %
08.01.2018 18:35 4,3 C 4,4 C 95 % 1023,3 hPa 0,0 l/m 24,1 km/h (4 Bft) O-NO 67 0 min 0,000 mm 0,0 UV-I 0 W/m 3,6 C -5,6 C 27,4 km/h (4 Bft) 100,00 %
08.01.2018 18:36 4,3 C 4,4 C 95 % 1023,4 hPa 0,0 l/m 20,9 km/h (4 Bft) NO 45 0 min 0,000 mm 0,0 UV-I 0 W/m 3,6 C -4,4 C 24,1 km/h (4 Bft) 100,00 %
08.01.2018 18:37 4,3 C 4,4 C 95 % 1023,4 hPa 0,0 l/m 24,1 km/h (4 Bft) NO 45 0 min 0,000 mm 0,0 UV-I 0 W/m 3,6 C -5,6 C 32,2 km/h (5 Bft) 95,65 %
08.01.2018 18:38 4,3 C 4,4 C 95 % 1023,4 hPa 0,0 l/m 20,9 km/h (4 Bft) O-NO 67 0 min 0,000 mm 0,0 UV-I 0 W/m 3,6 C -4,4 C 25,7 km/h (4 Bft) 100,00 %
08.01.2018 18:39 4,3 C 4,4 C 95 % 1023,5 hPa 0,0 l/m 25,7 km/h (4 Bft) O-NO 67 0 min 0,000 mm 0,0 UV-I 0 W/m 3,6 C -6,1 C 33,8 km/h (5 Bft) 95,65 %
08.01.2018 18:40 4,3 C 4,4 C 95 % 1023,5 hPa 0,0 l/m 20,9 km/h (4 Bft) O-NO 67 0 min 0,000 mm 0,0 UV-I 0 W/m 3,6 C -4,4 C 27,4 km/h (4 Bft) 100,00 %
08.01.2018 18:41 4,2 C 4,4 C 95 % 1023,5 hPa 0,0 l/m 19,3 km/h (3 Bft) O-NO 67 0 min 0,000 mm 0,0 UV-I 0 W/m 3,5 C -3,9 C 25,7 km/h (4 Bft) 100,00 %
08.01.2018 18:42 4,2 C 4,4 C 95 % 1023,4 hPa 0,0 l/m 24,1 km/h (4 Bft) O-NO 67 0 min 0,000 mm 0,0 UV-I 0 W/m 3,5 C -5,7 C 30,6 km/h (5 Bft) 100,00 %
08.01.2018 18:43 4,3 C 4,4 C 95 % 1023,4 hPa 0,0 l/m 24,1 km/h (4 Bft) O-NO 67 0 min 0,000 mm 0,0 UV-I 0 W/m 3,6 C -5,6 C 32,2 km/h (5 Bft) 100,00 %
08.01.2018 18:44 4,3 C 4,4 C 95 % 1023,4 hPa 0,0 l/m 19,3 km/h (3 Bft) O-NO 67 0 min 0,000 mm 0,0 UV-I 0 W/m 3,6 C -3,8 C 27,4 km/h (4 Bft) 91,30 %
08.01.2018 18:45 4,3 C 4,4 C 95 % 1023,5 hPa 0,0 l/m 17,7 km/h (3 Bft) O-NO 67 0 min 0,000 mm 0,0 UV-I 0 W/m 3,6 C -3,1 C 25,7 km/h (4 Bft) 100,00 %
08.01.2018 18:46 4,3 C 4,4 C 95 % 1023,4 hPa 0,0 l/m 19,3 km/h (3 Bft) O-NO 67 0 min 0,000 mm 0,0 UV-I 0 W/m 3,6 C -3,8 C 25,7 km/h (4 Bft) 100,00 %
08.01.2018 18:47 4,3 C 4,4 C 95 % 1023,4 hPa 0,0 l/m 24,1 km/h (4 Bft) O-NO 67 0 min 0,000 mm 0,0 UV-I 0 W/m 3,6 C -5,6 C 35,4 km/h (5 Bft) 100,00 %
08.01.2018 18:48 4,3 C 4,4 C 95 % 1023,4 hPa 0,0 l/m 22,5 km/h (4 Bft) O-NO 67 0 min 0,000 mm 0,0 UV-I 0 W/m 3,6 C -5,0 C 30,6 km/h (5 Bft) 100,00 %
08.01.2018 18:49 4,3 C 4,4 C 95 % 1023,4 hPa 0,0 l/m 29,0 km/h (5 Bft) O-NO 67 0 min 0,000 mm 0,0 UV-I 0 W/m 3,6 C -7,1 C 40,2 km/h (6 Bft) 100,00 %
08.01.2018 18:50 4,3 C 4,4 C 95 % 1023,4 hPa 0,0 l/m 29,0 km/h (5 Bft) O-NO 67 0 min 0,000 mm 0,0 UV-I 0 W/m 3,6 C -7,1 C 33,8 km/h (5 Bft) 100,00 %
08.01.2018 18:51 4,3 C 4,4 C 95 % 1023,4 hPa 0,0 l/m 24,1 km/h (4 Bft) O-NO 67 0 min 0,000 mm 0,0 UV-I 0 W/m 3,6 C -5,6 C 32,2 km/h (5 Bft) 95,65 %
08.01.2018 18:52 4,3 C 4,4 C 95 % 1023,4 hPa 0,0 l/m 20,9 km/h (4 Bft) O-NO 67 0 min 0,000 mm 0,0 UV-I 0 W/m 3,6 C -4,4 C 32,2 km/h (5 Bft) 100,00 %
08.01.2018 18:53 4,3 C 4,4 C 95 % 1023,4 hPa 0,0 l/m 20,9 km/h (4 Bft) O-NO 67 0 min 0,000 mm 0,0 UV-I 0 W/m 3,6 C -4,4 C 29,0 km/h (5 Bft) 91,30 %
08.01.2018 18:54 4,3 C 4,4 C 95 % 1023,5 hPa 0,0 l/m 22,5 km/h (4 Bft) O-NO 67 0 min 0,000 mm 0,0 UV-I 0 W/m 3,6 C -5,0 C 29,0 km/h (5 Bft) 100,00 %
08.01.2018 18:55 4,3 C 4,4 C 95 % 1023,5 hPa 0,0 l/m 20,9 km/h (4 Bft) O-NO 67 0 min 0,000 mm 0,0 UV-I 0 W/m 3,6 C -4,4 C 30,6 km/h (5 Bft) 100,00 %
08.01.2018 18:56 4,3 C 4,4 C 95 % 1023,6 hPa 0,0 l/m 22,5 km/h (4 Bft) O-NO 67 0 min 0,000 mm 0,0 UV-I 0 W/m 3,6 C -5,0 C 27,4 km/h (4 Bft) 100,00 %
08.01.2018 18:57 4,3 C 4,4 C 95 % 1023,6 hPa 0,0 l/m 19,3 km/h (3 Bft) O-NO 67 0 min 0,000 mm 0,0 UV-I 0 W/m 3,6 C -3,8 C 24,1 km/h (4 Bft) 100,00 %
08.01.2018 18:58 4,3 C 4,4 C 95 % 1023,6 hPa 0,0 l/m 22,5 km/h (4 Bft) O-NO 67 0 min 0,000 mm 0,0 UV-I 0 W/m 3,6 C -5,0 C 30,6 km/h (5 Bft) 91,30 %
08.01.2018 18:59 4,3 C 4,4 C 95 % 1023,7 hPa 0,0 l/m 22,5 km/h (4 Bft) O-NO 67 0 min 0,000 mm 0,0 UV-I 0 W/m 3,6 C -5,0 C 29,0 km/h (5 Bft) 100,00 %
08.01.2018 19:00 4,3 C 4,4 C 95 % 1023,7 hPa 0,0 l/m 17,7 km/h (3 Bft) O-NO 67 0 min 0,000 mm 0,0 UV-I 0 W/m 3,6 C -3,1 C 24,1 km/h (4 Bft) 100,00 %
08.01.2018 19:01 4,3 C 4,4 C 95 % 1023,7 hPa 0,0 l/m 19,3 km/h (3 Bft) O-NO 67 0 min 0,000 mm 0,0 UV-I 0 W/m 3,6 C -3,8 C 22,5 km/h (4 Bft) 95,65 %
08.01.2018 19:02 4,3 C 4,4 C 95 % 1023,8 hPa 0,0 l/m 19,3 km/h (3 Bft) O-NO 67 0 min 0,000 mm 0,0 UV-I 0 W/m 3,6 C -3,8 C 27,4 km/h (4 Bft) 100,00 %
08.01.2018 19:03 4,3 C 4,4 C 95 % 1023,8 hPa 0,0 l/m 22,5 km/h (4 Bft) O-NO 67 0 min 0,000 mm 0,0 UV-I 0 W/m 3,6 C -5,0 C 27,4 km/h (4 Bft) 95,65 %
08.01.2018 19:04 4,3 C 4,4 C 95 % 1023,8 hPa 0,0 l/m 20,9 km/h (4 Bft) O-NO 67 0 min 0,000 mm 0,0 UV-I 0 W/m 3,6 C -4,4 C 25,7 km/h (4 Bft) 100,00 %
08.01.2018 19:05 4,3 C 4,4 C 95 % 1023,8 hPa 0,0 l/m 20,9 km/h (4 Bft) O-NO 67 0 min 0,000 mm 0,0 UV-I 0 W/m 3,6 C -4,4 C 25,7 km/h (4 Bft) 91,30 %
08.01.2018 19:06 4,3 C 4,4 C 95 % 1023,8 hPa 0,0 l/m 19,3 km/h (3 Bft) O-NO 67 0 min 0,000 mm 0,0 UV-I 0 W/m 3,6 C -3,8 C 30,6 km/h (5 Bft) 100,00 %
08.01.2018 19:07 4,3 C 4,4 C 95 % 1023,7 hPa 0,0 l/m 29,0 km/h (5 Bft) O-NO 67 0 min 0,000 mm 0,0 UV-I 0 W/m 3,6 C -7,1 C 37,0 km/h (5 Bft) 95,65 %
08.01.2018 19:08 4,3 C 4,4 C 95 % 1023,7 hPa 0,0 l/m 27,4 km/h (4 Bft) O-NO 67 0 min 0,000 mm 0,0 UV-I 0 W/m 3,6 C -6,6 C 33,8 km/h (5 Bft) 100,00 %
08.01.2018 19:09 4,3 C 4,4 C 95 % 1023,6 hPa 0,0 l/m 22,5 km/h (4 Bft) O-NO 67 0 min 0,000 mm 0,0 UV-I 0 W/m 3,6 C -5,0 C 29,0 km/h (5 Bft) 95,65 %
08.01.2018 19:10 4,3 C 4,4 C 95 % 1023,6 hPa 0,0 l/m 19,3 km/h (3 Bft) O-NO 67 0 min 0,000 mm 0,0 UV-I 0 W/m 3,6 C -3,8 C 29,0 km/h (5 Bft) 95,65 %
08.01.2018 19:11 4,3 C 4,4 C 95 % 1023,6 hPa 0,0 l/m 20,9 km/h (4 Bft) O 90 0 min 0,000 mm 0,0 UV-I 0 W/m 3,6 C -4,4 C 29,0 km/h (5 Bft) 100,00 %
08.01.2018 19:12 4,3 C 4,4 C 95 % 1023,5 hPa 0,0 l/m 19,3 km/h (3 Bft) O-NO 67 0 min 0,000 mm 0,0 UV-I 0 W/m 3,6 C -3,8 C 25,7 km/h (4 Bft) 91,30 %
08.01.2018 19:13 4,3 C 4,4 C 95 % 1023,5 hPa 0,0 l/m 22,5 km/h (4 Bft) O-NO 67 0 min 0,000 mm 0,0 UV-I 0 W/m 3,6 C -5,0 C 30,6 km/h (5 Bft) 95,65 %
08.01.2018 19:14 4,3 C 4,4 C 95 % 1023,4 hPa 0,0 l/m 17,7 km/h (3 Bft) O-NO 67 0 min 0,000 mm 0,0 UV-I 0 W/m 3,6 C -3,1 C 25,7 km/h (4 Bft) 95,65 %
08.01.2018 19:15 4,2 C 4,4 C 95 % 1023,4 hPa 0,0 l/m 22,5 km/h (4 Bft) O-NO 67 0 min 0,000 mm 0,0 UV-I 0 W/m 3,5 C -5,2 C 32,2 km/h (5 Bft) 95,65 %
08.01.2018 19:16 4,2 C 4,4 C 95 % 1023,4 hPa 0,0 l/m 22,5 km/h (4 Bft) O-NO 67 0 min 0,000 mm 0,0 UV-I 0 W/m 3,5 C -5,2 C 30,6 km/h (5 Bft) 95,65 %
08.01.2018 19:17 4,2 C 4,4 C 95 % 1023,4 hPa 0,0 l/m 19,3 km/h (3 Bft) O-NO 67 0 min 0,000 mm 0,0 UV-I 0 W/m 3,5 C -3,9 C 25,7 km/h (4 Bft) 100,00 %
08.01.2018 19:18 4,2 C 4,4 C 95 % 1023,5 hPa 0,0 l/m 20,9 km/h (4 Bft) O-NO 67 0 min 0,000 mm 0,0 UV-I 0 W/m 3,5 C -4,6 C 24,1 km/h (4 Bft) 95,65 %
08.01.2018 19:19 4,2 C 4,4 C 95 % 1023,5 hPa 0,0 l/m 27,4 km/h (4 Bft) O-NO 67 0 min 0,000 mm 0,0 UV-I 0 W/m 3,5 C -6,8 C 35,4 km/h (5 Bft) 86,96 %
08.01.2018 19:20 4,2 C 4,4 C 95 % 1023,5 hPa 0,0 l/m 27,4 km/h (4 Bft) O-NO 67 0 min 0,000 mm 0,0 UV-I 0 W/m 3,5 C -6,8 C 33,8 km/h (5 Bft) 100,00 %
08.01.2018 19:21 4,2 C 4,4 C 95 % 1023,5 hPa 0,0 l/m 24,1 km/h (4 Bft) NO 45 0 min 0,000 mm 0,0 UV-I 0 W/m 3,5 C -5,7 C 32,2 km/h (5 Bft) 95,65 %
08.01.2018 19:22 4,2 C 4,4 C 95 % 1023,4 hPa 0,0 l/m 20,9 km/h (4 Bft) O-NO 67 0 min 0,000 mm 0,0 UV-I 0 W/m 3,5 C -4,6 C 27,4 km/h (4 Bft) 100,00 %
08.01.2018 19:23 4,2 C 4,4 C 95 % 1023,4 hPa 0,0 l/m 20,9 km/h (4 Bft) NO 45 0 min 0,000 mm 0,0 UV-I 0 W/m 3,5 C -4,6 C 27,4 km/h (4 Bft) 86,96 %
08.01.2018 19:24 4,2 C 4,4 C 95 % 1023,4 hPa 0,0 l/m 19,3 km/h (3 Bft) O-NO 67 0 min 0,000 mm 0,0 UV-I 0 W/m 3,5 C -3,9 C 25,7 km/h (4 Bft) 100,00 %
08.01.2018 19:25 4,2 C 4,4 C 95 % 1023,3 hPa 0,0 l/m 24,1 km/h (4 Bft) O-NO 67 0 min 0,000 mm 0,0 UV-I 0 W/m 3,5 C -5,7 C 30,6 km/h (5 Bft) 95,65 %
08.01.2018 19:26 4,2 C 4,4 C 95 % 1023,3 hPa 0,0 l/m 19,3 km/h (3 Bft) O-NO 67 0 min 0,000 mm 0,0 UV-I 0 W/m 3,5 C -3,9 C 27,4 km/h (4 Bft) 95,65 %
08.01.2018 19:27 4,2 C 4,4 C 95 % 1023,3 hPa 0,0 l/m 20,9 km/h (4 Bft) NO 45 0 min 0,000 mm 0,0 UV-I 0 W/m 3,5 C -4,6 C 30,6 km/h (5 Bft) 95,65 %
08.01.2018 19:28 4,2 C 4,4 C 95 % 1023,2 hPa 0,0 l/m 29,0 km/h (5 Bft) O-NO 67 0 min 0,000 mm 0,0 UV-I 0 W/m 3,5 C -7,2 C 43,5 km/h (6 Bft) 95,65 %
08.01.2018 19:29 4,2 C 4,4 C 96 % 1023,3 hPa 0,0 l/m 27,4 km/h (4 Bft) O-NO 67 0 min 0,000 mm 0,0 UV-I 0 W/m 3,6 C -6,8 C 35,4 km/h (5 Bft) 100,00 %
08.01.2018 19:30 4,2 C 4,4 C 96 % 1023,2 hPa 0,0 l/m 25,7 km/h (4 Bft) O-NO 67 0 min 0,000 mm 0,0 UV-I 0 W/m 3,6 C -6,3 C 37,0 km/h (5 Bft) 95,65 %
08.01.2018 19:31 4,2 C 4,4 C 96 % 1023,2 hPa 0,0 l/m 22,5 km/h (4 Bft) O-NO 67 0 min 0,000 mm 0,0 UV-I 0 W/m 3,6 C -5,2 C 30,6 km/h (5 Bft) 100,00 %
08.01.2018 19:32 4,2 C 4,4 C 96 % 1023,2 hPa 0,0 l/m 30,6 km/h (5 Bft) O-NO 67 0 min 0,000 mm 0,0 UV-I 0 W/m 3,6 C -7,7 C 38,6 km/h (5 Bft) 95,65 %
08.01.2018 19:33 4,2 C 4,4 C 96 % 1023,2 hPa 0,0 l/m 33,8 km/h (5 Bft) O-NO 67 0 min 0,000 mm 0,0 UV-I 0 W/m 3,6 C -8,4 C 45,1 km/h (6 Bft) 95,65 %
08.01.2018 19:34 4,2 C 4,4 C 95 % 1023,2 hPa 0,0 l/m 32,2 km/h (5 Bft) O-NO 67 0 min 0,000 mm 0,0 UV-I 0 W/m 3,5 C -8,1 C 43,5 km/h (6 Bft) 91,30 %
08.01.2018 19:35 4,2 C 4,4 C 95 % 1023,2 hPa 0,0 l/m 27,4 km/h (4 Bft) O-NO 67 0 min 0,000 mm 0,0 UV-I 0 W/m 3,5 C -6,8 C 37,0 km/h (5 Bft) 95,65 %
08.01.2018 19:36 4,2 C 4,4 C 95 % 1023,1 hPa 0,0 l/m 27,4 km/h (4 Bft) O-NO 67 0 min 0,000 mm 0,0 UV-I 0 W/m 3,5 C -6,8 C 33,8 km/h (5 Bft) 91,30 %
08.01.2018 19:37 4,2 C 4,4 C 95 % 1023,1 hPa 0,0 l/m 25,7 km/h (4 Bft) O-NO 67 0 min 0,000 mm 0,0 UV-I 0 W/m 3,5 C -6,3 C 37,0 km/h (5 Bft) 95,65 %
08.01.2018 19:38 4,2 C 4,4 C 95 % 1023,1 hPa 0,0 l/m 24,1 km/h (4 Bft) O-NO 67 0 min 0,000 mm 0,0 UV-I 0 W/m 3,5 C -5,7 C 32,2 km/h (5 Bft) 95,65 %
08.01.2018 19:39 4,2 C 4,4 C 95 % 1023,1 hPa 0,0 l/m 32,2 km/h (5 Bft) O-NO 67 0 min 0,000 mm 0,0 UV-I 0 W/m 3,5 C -8,1 C 48,3 km/h (6 Bft) 95,65 %
08.01.2018 19:40 4,1 C 4,4 C 95 % 1023,1 hPa 0,0 l/m 27,4 km/h (4 Bft) O-NO 67 0 min 0,000 mm 0,0 UV-I 0 W/m 3,4 C -6,9 C 35,4 km/h (5 Bft) 91,30 %
08.01.2018 19:41 4,1 C 4,4 C 95 % 1023,1 hPa 0,0 l/m 25,7 km/h (4 Bft) O-NO 67 0 min 0,000 mm 0,0 UV-I 0 W/m 3,4 C -6,4 C 37,0 km/h (5 Bft) 100,00 %
08.01.2018 19:42 4,1 C 4,4 C 96 % 1023,1 hPa 0,0 l/m 22,5 km/h (4 Bft) O-NO 67 0 min 0,000 mm 0,0 UV-I 0 W/m 3,5 C -5,3 C 32,2 km/h (5 Bft) 95,65 %
08.01.2018 19:43 4,1 C 4,4 C 96 % 1023,1 hPa 0,0 l/m 22,5 km/h (4 Bft) O-NO 67 0 min 0,000 mm 0,0 UV-I 0 W/m 3,5 C -5,3 C 30,6 km/h (5 Bft) 95,65 %
08.01.2018 19:44 4,1 C 4,4 C 95 % 1023,1 hPa 0,0 l/m 22,5 km/h (4 Bft) O-NO 67 0 min 0,000 mm 0,0 UV-I 0 W/m 3,4 C -5,3 C 29,0 km/h (5 Bft) 95,65 %
08.01.2018 19:45 4,1 C 4,4 C 95 % 1023,2 hPa 0,0 l/m 22,5 km/h (4 Bft) O-NO 67 0 min 0,000 mm 0,0 UV-I 0 W/m 3,4 C -5,3 C 35,4 km/h (5 Bft) 100,00 %
08.01.2018 19:46 4,1 C 4,4 C 95 % 1023,1 hPa 0,0 l/m 22,5 km/h (4 Bft) O-NO 67 0 min 0,000 mm 0,0 UV-I 0 W/m 3,4 C -5,3 C 35,4 km/h (5 Bft) 91,30 %
08.01.2018 19:47 4,1 C 4,4 C 95 % 1023,1 hPa 0,0 l/m 25,7 km/h (4 Bft) O-NO 67 0 min 0,000 mm 0,0 UV-I 0 W/m 3,4 C -6,4 C 33,8 km/h (5 Bft) 95,65 %
08.01.2018 19:48 4,1 C 4,4 C 95 % 1023,2 hPa 0,0 l/m 29,0 km/h (5 Bft) O-NO 67 0 min 0,000 mm 0,0 UV-I 0 W/m 3,4 C -7,4 C 40,2 km/h (6 Bft) 95,65 %
08.01.2018 19:49 4,1 C 4,4 C 95 % 1023,1 hPa 0,0 l/m 30,6 km/h (5 Bft) O-NO 67 0 min 0,000 mm 0,0 UV-I 0 W/m 3,4 C -7,8 C 41,8 km/h (6 Bft) 100,00 %
08.01.2018 19:50 4,1 C 4,4 C 95 % 1023,1 hPa 0,0 l/m 27,4 km/h (4 Bft) O-NO 67 0 min 0,000 mm 0,0 UV-I 0 W/m 3,4 C -6,9 C 35,4 km/h (5 Bft) 91,30 %
08.01.2018 19:51 4,1 C 4,4 C 95 % 1023,1 hPa 0,0 l/m 20,9 km/h (4 Bft) O-NO 67 0 min 0,000 mm 0,0 UV-I 0 W/m 3,4 C -4,7 C 30,6 km/h (5 Bft) 91,30 %
08.01.2018 19:52 4,1 C 4,4 C 95 % 1023,1 hPa 0,0 l/m 25,7 km/h (4 Bft) O-NO 67 0 min 0,000 mm 0,0 UV-I 0 W/m 3,4 C -6,4 C 35,4 km/h (5 Bft) 100,00 %
08.01.2018 19:53 4,1 C 4,4 C 95 % 1023,1 hPa 0,0 l/m 20,9 km/h (4 Bft) O-NO 67 0 min 0,000 mm 0,0 UV-I 0 W/m 3,4 C -4,7 C 27,4 km/h (4 Bft) 95,65 %
08.01.2018 19:54 4,1 C 4,4 C 95 % 1023,2 hPa 0,0 l/m 17,7 km/h (3 Bft) O 90 0 min 0,000 mm 0,0 UV-I 0 W/m 3,4 C -3,3 C 22,5 km/h (4 Bft) 95,65 %
08.01.2018 19:55 4,1 C 4,4 C 95 % 1023,2 hPa 0,0 l/m 19,3 km/h (3 Bft) O 90 0 min 0,000 mm 0,0 UV-I 0 W/m 3,4 C -4,0 C 24,1 km/h (4 Bft) 95,65 %
08.01.2018 19:56 4,1 C 4,4 C 95 % 1023,2 hPa 0,0 l/m 20,9 km/h (4 Bft) O-NO 67 0 min 0,000 mm 0,0 UV-I 0 W/m 3,4 C -4,7 C 30,6 km/h (5 Bft) 100,00 %
08.01.2018 19:57 4,1 C 4,4 C 95 % 1023,3 hPa 0,0 l/m 16,1 km/h (3 Bft) O-NO 67 0 min 0,000 mm 0,0 UV-I 0 W/m 3,4 C -2,6 C 22,5 km/h (4 Bft) 95,65 %
08.01.2018 19:58 4,1 C 4,4 C 96 % 1023,3 hPa 0,0 l/m 12,9 km/h (3 Bft) O-NO 67 0 min 0,000 mm 0,0 UV-I 0 W/m 3,5 C -0,8 C 19,3 km/h (3 Bft) 91,30 %
08.01.2018 19:59 4,1 C 4,4 C 96 % 1023,4 hPa 0,0 l/m 27,4 km/h (4 Bft) O-NO 67 0 min 0,000 mm 0,0 UV-I 0 W/m 3,5 C -6,9 C 32,2 km/h (5 Bft) 100,00 %
08.01.2018 20:00 4,0 C 4,4 C 96 % 1023,3 hPa 0,0 l/m 22,5 km/h (4 Bft) O 90 0 min 0,000 mm 0,0 UV-I 0 W/m 3,4 C -5,4 C 32,2 km/h (5 Bft) 95,65 %
08.01.2018 20:01 4,0 C 4,4 C 96 % 1023,3 hPa 0,0 l/m 24,1 km/h (4 Bft) O-NO 67 0 min 0,000 mm 0,0 UV-I 0 W/m 3,4 C -6,0 C 32,2 km/h (5 Bft) 95,65 %
08.01.2018 20:02 4,0 C 4,4 C 96 % 1023,3 hPa 0,0 l/m 27,4 km/h (4 Bft) O 90 0 min 0,000 mm 0,0 UV-I 0 W/m 3,4 C -7,0 C 40,2 km/h (6 Bft) 91,30 %
08.01.2018 20:03 4,0 C 4,4 C 96 % 1023,3 hPa 0,0 l/m 24,1 km/h (4 Bft) O-NO 67 0 min 0,000 mm 0,0 UV-I 0 W/m 3,4 C -6,0 C 32,2 km/h (5 Bft) 100,00 %
08.01.2018 20:04 4,0 C 4,4 C 96 % 1023,4 hPa 0,0 l/m 25,7 km/h (4 Bft) O-NO 67 0 min 0,000 mm 0,0 UV-I 0 W/m 3,4 C -6,5 C 35,4 km/h (5 Bft) 100,00 %
08.01.2018 20:05 4,0 C 4,4 C 96 % 1023,4 hPa 0,0 l/m 24,1 km/h (4 Bft) O-NO 67 0 min 0,000 mm 0,0 UV-I 0 W/m 3,4 C -6,0 C 32,2 km/h (5 Bft) 100,00 %
08.01.2018 20:06 4,0 C 4,4 C 96 % 1023,3 hPa 0,0 l/m 20,9 km/h (4 Bft) O-NO 67 0 min 0,000 mm 0,0 UV-I 0 W/m 3,4 C -4,8 C 29,0 km/h (5 Bft) 100,00 %
08.01.2018 20:07 4,0 C 4,4 C 96 % 1023,3 hPa 0,0 l/m 22,5 km/h (4 Bft) O-NO 67 0 min 0,000 mm 0,0 UV-I 0 W/m 3,4 C -5,4 C 30,6 km/h (5 Bft) 95,65 %
08.01.2018 20:08 4,0 C 4,4 C 96 % 1023,2 hPa 0,0 l/m 19,3 km/h (3 Bft) O 90 0 min 0,000 mm 0,0 UV-I 0 W/m 3,4 C -4,2 C 27,4 km/h (4 Bft) 95,65 %
08.01.2018 20:09 4,0 C 4,4 C 96 % 1023,3 hPa 0,0 l/m 22,5 km/h (4 Bft) O-NO 67 0 min 0,000 mm 0,0 UV-I 0 W/m 3,4 C -5,4 C 35,4 km/h (5 Bft) 95,65 %
08.01.2018 20:10 3,9 C 4,4 C 96 % 1023,2 hPa 0,0 l/m 22,5 km/h (4 Bft) O-NO 67 0 min 0,000 mm 0,0 UV-I 0 W/m 3,3 C -5,6 C 29,0 km/h (5 Bft) 100,00 %
08.01.2018 20:11 3,9 C 4,4 C 96 % 1023,2 hPa 0,0 l/m 27,4 km/h (4 Bft) O-NO 67 0 min 0,000 mm 0,0 UV-I 0 W/m 3,3 C -7,2 C 33,8 km/h (5 Bft) 100,00 %
08.01.2018 20:12 3,9 C 4,4 C 96 % 1023,1 hPa 0,0 l/m 25,7 km/h (4 Bft) O-NO 67 0 min 0,000 mm 0,0 UV-I 0 W/m 3,3 C -6,7 C 35,4 km/h (5 Bft) 100,00 %
08.01.2018 20:13 3,9 C 4,4 C 96 % 1023,1 hPa 0,0 l/m 29,0 km/h (5 Bft) O-NO 67 0 min 0,000 mm 0,0 UV-I 0 W/m 3,3 C -7,6 C 33,8 km/h (5 Bft) 100,00 %
08.01.2018 20:14 3,9 C 4,4 C 96 % 1023,1 hPa 0,0 l/m 27,4 km/h (4 Bft) O-NO 67 0 min 0,000 mm 0,0 UV-I 0 W/m 3,3 C -7,2 C 41,8 km/h (6 Bft) 100,00 %
08.01.2018 20:15 3,9 C 4,4 C 96 % 1023,0 hPa 0,0 l/m 25,7 km/h (4 Bft) O-NO 67 0 min 0,000 mm 0,0 UV-I 0 W/m 3,3 C -6,7 C 38,6 km/h (5 Bft) 95,65 %
08.01.2018 20:16 3,9 C 4,4 C 96 % 1023,0 hPa 0,0 l/m 25,7 km/h (4 Bft) O-NO 67 0 min 0,000 mm 0,0 UV-I 0 W/m 3,3 C -6,7 C 35,4 km/h (5 Bft) 100,00 %
08.01.2018 20:17 3,9 C 4,4 C 96 % 1023,0 hPa 0,0 l/m 27,4 km/h (4 Bft) O-NO 67 0 min 0,000 mm 0,0 UV-I 0 W/m 3,3 C -7,2 C 33,8 km/h (5 Bft) 100,00 %
08.01.2018 20:18 3,9 C 4,4 C 96 % 1023,1 hPa 0,0 l/m 24,1 km/h (4 Bft) O-NO 67 0 min 0,000 mm 0,0 UV-I 0 W/m 3,3 C -6,1 C 32,2 km/h (5 Bft) 95,65 %
08.01.2018 20:19 3,9 C 4,4 C 96 % 1023,1 hPa 0,0 l/m 20,9 km/h (4 Bft) O-NO 67 0 min 0,000 mm 0,0 UV-I 0 W/m 3,3 C -5,0 C 27,4 km/h (4 Bft) 100,00 %
08.01.2018 20:20 3,9 C 4,4 C 96 % 1023,1 hPa 0,0 l/m 20,9 km/h (4 Bft) O-NO 67 0 min 0,000 mm 0,0 UV-I 0 W/m 3,3 C -5,0 C 30,6 km/h (5 Bft) 95,65 %
08.01.2018 20:21 3,9 C 4,4 C 96 % 1023,1 hPa 0,0 l/m 19,3 km/h (3 Bft) O-NO 67 0 min 0,000 mm 0,0 UV-I 0 W/m 3,3 C -4,3 C 27,4 km/h (4 Bft) 100,00 %
08.01.2018 20:22 3,9 C 4,4 C 96 % 1023,1 hPa 0,0 l/m 24,1 km/h (4 Bft) O-NO 67 0 min 0,000 mm 0,0 UV-I 0 W/m 3,3 C -6,1 C 30,6 km/h (5 Bft) 91,30 %
08.01.2018 20:23 3,9 C 4,4 C 96 % 1023,1 hPa 0,0 l/m 25,7 km/h (4 Bft) O 90 0 min 0,000 mm 0,0 UV-I 0 W/m 3,3 C -6,7 C 37,0 km/h (5 Bft) 95,65 %
08.01.2018 20:24 3,9 C 4,4 C 96 % 1023,0 hPa 0,0 l/m 24,1 km/h (4 Bft) O-NO 67 0 min 0,000 mm 0,0 UV-I 0 W/m 3,3 C -6,1 C 29,0 km/h (5 Bft) 100,00 %
08.01.2018 20:25 3,8 C 4,4 C 96 % 1023,0 hPa 0,0 l/m 22,5 km/h (4 Bft) O-NO 67 0 min 0,000 mm 0,0 UV-I 0 W/m 3,2 C -5,7 C 29,0 km/h (5 Bft) 100,00 %
08.01.2018 20:26 3,8 C 4,4 C 96 % 1023,0 hPa 0,0 l/m 20,9 km/h (4 Bft) O-NO 67 0 min 0,000 mm 0,0 UV-I 0 W/m 3,2 C -5,1 C 25,7 km/h (4 Bft) 100,00 %
08.01.2018 20:27 3,9 C 4,4 C 96 % 1023,0 hPa 0,0 l/m 22,5 km/h (4 Bft) O-NO 67 0 min 0,000 mm 0,0 UV-I 0 W/m 3,3 C -5,6 C 29,0 km/h (5 Bft) 100,00 %
08.01.2018 20:28 3,9 C 4,4 C 96 % 1023,0 hPa 0,0 l/m 24,1 km/h (4 Bft) O-NO 67 0 min 0,000 mm 0,0 UV-I 0 W/m 3,3 C -6,1 C 29,0 km/h (5 Bft) 100,00 %
08.01.2018 20:29 3,9 C 4,4 C 96 % 1023,0 hPa 0,0 l/m 25,7 km/h (4 Bft) O 90 0 min 0,000 mm 0,0 UV-I 0 W/m 3,3 C -6,7 C 33,8 km/h (5 Bft) 95,65 %
08.01.2018 20:30 3,9 C 4,4 C 96 % 1023,0 hPa 0,0 l/m 20,9 km/h (4 Bft) O-NO 67 0 min 0,000 mm 0,0 UV-I 0 W/m 3,3 C -5,0 C 29,0 km/h (5 Bft) 100,00 %
08.01.2018 20:31 3,9 C 4,4 C 96 % 1023,0 hPa 0,0 l/m 22,5 km/h (4 Bft) O-NO 67 0 min 0,000 mm 0,0 UV-I 0 W/m 3,3 C -5,6 C 30,6 km/h (5 Bft) 100,00 %
08.01.2018 20:32 3,9 C 4,4 C 96 % 1023,0 hPa 0,0 l/m 20,9 km/h (4 Bft) O-NO 67 0 min 0,000 mm 0,0 UV-I 0 W/m 3,3 C -5,0 C 27,4 km/h (4 Bft) 100,00 %
08.01.2018 20:33 3,9 C 4,4 C 96 % 1023,0 hPa 0,0 l/m 19,3 km/h (3 Bft) O 90 0 min 0,000 mm 0,0 UV-I 0 W/m 3,3 C -4,3 C 25,7 km/h (4 Bft) 100,00 %
08.01.2018 20:34 3,9 C 4,4 C 96 % 1023,1 hPa 0,0 l/m 22,5 km/h (4 Bft) O-NO 67 0 min 0,000 mm 0,0 UV-I 0 W/m 3,3 C -5,6 C 29,0 km/h (5 Bft) 100,00 %
08.01.2018 20:35 3,9 C 4,4 C 96 % 1023,1 hPa 0,0 l/m 24,1 km/h (4 Bft) O-NO 67 0 min 0,000 mm 0,0 UV-I 0 W/m 3,3 C -6,1 C 33,8 km/h (5 Bft) 100,00 %
08.01.2018 20:36 3,9 C 4,4 C 96 % 1023,1 hPa 0,0 l/m 19,3 km/h (3 Bft) O-NO 67 0 min 0,000 mm 0,0 UV-I 0 W/m 3,3 C -4,3 C 24,1 km/h (4 Bft) 91,30 %
08.01.2018 20:37 3,9 C 4,4 C 96 % 1023,1 hPa 0,0 l/m 19,3 km/h (3 Bft) O-NO 67 0 min 0,000 mm 0,0 UV-I 0 W/m 3,3 C -4,3 C 25,7 km/h (4 Bft) 100,00 %
08.01.2018 20:38 3,9 C 4,4 C 96 % 1023,1 hPa 0,0 l/m 22,5 km/h (4 Bft) O-NO 67 0 min 0,000 mm 0,0 UV-I 0 W/m 3,3 C -5,6 C 27,4 km/h (4 Bft) 95,65 %
08.01.2018 20:39 3,9 C 4,4 C 96 % 1023,1 hPa 0,0 l/m 17,7 km/h (3 Bft) O-NO 67 0 min 0,000 mm 0,0 UV-I 0 W/m 3,3 C -3,6 C 22,5 km/h (4 Bft) 100,00 %
08.01.2018 20:40 3,8 C 4,4 C 96 % 1023,1 hPa 0,0 l/m 16,1 km/h (3 Bft) O-NO 67 0 min 0,000 mm 0,0 UV-I 0 W/m 3,2 C -2,9 C 22,5 km/h (4 Bft) 100,00 %
08.01.2018 20:41 3,9 C 4,4 C 96 % 1023,1 hPa 0,0 l/m 19,3 km/h (3 Bft) O-NO 67 0 min 0,000 mm 0,0 UV-I 0 W/m 3,3 C -4,3 C 25,7 km/h (4 Bft) 100,00 %
08.01.2018 20:42 3,8 C 4,4 C 96 % 1023,1 hPa 0,0 l/m 20,9 km/h (4 Bft) O-NO 67 0 min 0,000 mm 0,0 UV-I 0 W/m 3,2 C -5,1 C 24,1 km/h (4 Bft) 100,00 %
08.01.2018 20:43 3,8 C 4,4 C 96 % 1023,1 hPa 0,0 l/m 17,7 km/h (3 Bft) O-NO 67 0 min 0,000 mm 0,0 UV-I 0 W/m 3,2 C -3,7 C 27,4 km/h (4 Bft) 91,30 %
08.01.2018 20:44 3,8 C 4,4 C 96 % 1023,0 hPa 0,0 l/m 17,7 km/h (3 Bft) O 90 0 min 0,000 mm 0,0 UV-I 0 W/m 3,2 C -3,7 C 22,5 km/h (4 Bft) 100,00 %
08.01.2018 20:45 3,8 C 4,4 C 96 % 1023,1 hPa 0,0 l/m 19,3 km/h (3 Bft) O-NO 67 0 min 0,000 mm 0,0 UV-I 0 W/m 3,2 C -4,4 C 24,1 km/h (4 Bft) 100,00 %
08.01.2018 20:46 3,8 C 4,4 C 96 % 1023,0 hPa 0,0 l/m 24,1 km/h (4 Bft) O-NO 67 0 min 0,000 mm 0,0 UV-I 0 W/m 3,2 C -6,3 C 32,2 km/h (5 Bft) 100,00 %
08.01.2018 20:47 3,8 C 4,4 C 96 % 1023,0 hPa 0,0 l/m 22,5 km/h (4 Bft) O-NO 67 0 min 0,000 mm 0,0 UV-I 0 W/m 3,2 C -5,7 C 29,0 km/h (5 Bft) 100,00 %
08.01.2018 20:48 3,8 C 4,4 C 96 % 1023,0 hPa 0,0 l/m 20,9 km/h (4 Bft) O-NO 67 0 min 0,000 mm 0,0 UV-I 0 W/m 3,2 C -5,1 C 30,6 km/h (5 Bft) 100,00 %
08.01.2018 20:49 3,8 C 4,4 C 96 % 1023,0 hPa 0,0 l/m 25,7 km/h (4 Bft) O-NO 67 0 min 0,000 mm 0,0 UV-I 0 W/m 3,2 C -6,8 C 29,0 km/h (5 Bft) 100,00 %
08.01.2018 20:50 3,8 C 4,4 C 96 % 1023,1 hPa 0,0 l/m 17,7 km/h (3 Bft) O-NO 67 0 min 0,000 mm 0,0 UV-I 0 W/m 3,2 C -3,7 C 25,7 km/h (4 Bft) 95,65 %
08.01.2018 20:51 3,8 C 4,4 C 96 % 1023,0 hPa 0,0 l/m 22,5 km/h (4 Bft) O-NO 67 0 min 0,000 mm 0,0 UV-I 0 W/m 3,2 C -5,7 C 30,6 km/h (5 Bft) 100,00 %
08.01.2018 20:52 3,8 C 4,4 C 96 % 1023,0 hPa 0,0 l/m 22,5 km/h (4 Bft) O-NO 67 0 min 0,000 mm 0,0 UV-I 0 W/m 3,2 C -5,7 C 30,6 km/h (5 Bft) 100,00 %
08.01.2018 20:53 3,8 C 4,4 C 96 % 1023,0 hPa 0,0 l/m 20,9 km/h (4 Bft) O-NO 67 0 min 0,000 mm 0,0 UV-I 0 W/m 3,2 C -5,1 C 29,0 km/h (5 Bft) 100,00 %
08.01.2018 20:54 3,8 C 4,4 C 96 % 1023,0 hPa 0,0 l/m 17,7 km/h (3 Bft) O-NO 67 0 min 0,000 mm 0,0 UV-I 0 W/m 3,2 C -3,7 C 29,0 km/h (5 Bft) 100,00 %
08.01.2018 20:55 3,8 C 4,4 C 96 % 1023,0 hPa 0,0 l/m 20,9 km/h (4 Bft) O-NO 67 0 min 0,000 mm 0,0 UV-I 0 W/m 3,2 C -5,1 C 29,0 km/h (5 Bft) 95,65 %
08.01.2018 20:56 3,8 C 4,4 C 96 % 1023,0 hPa 0,0 l/m 25,7 km/h (4 Bft) O-NO 67 0 min 0,000 mm 0,0 UV-I 0 W/m 3,2 C -6,8 C 33,8 km/h (5 Bft) 100,00 %
08.01.2018 20:57 3,8 C 4,4 C 96 % 1023,0 hPa 0,0 l/m 19,3 km/h (3 Bft) O 90 0 min 0,000 mm 0,0 UV-I 0 W/m 3,2 C -4,4 C 27,4 km/h (4 Bft) 91,30 %
08.01.2018 20:58 3,8 C 4,4 C 96 % 1023,0 hPa 0,0 l/m 17,7 km/h (3 Bft) O-NO 67 0 min 0,000 mm 0,0 UV-I 0 W/m 3,2 C -3,7 C 24,1 km/h (4 Bft) 95,65 %
08.01.2018 20:59 3,8 C 4,4 C 96 % 1022,9 hPa 0,0 l/m 20,9 km/h (4 Bft) O-NO 67 0 min 0,000 mm 0,0 UV-I 0 W/m 3,2 C -5,1 C 30,6 km/h (5 Bft) 95,65 %
08.01.2018 21:00 3,8 C 4,4 C 96 % 1022,9 hPa 0,0 l/m 19,3 km/h (3 Bft) O-NO 67 0 min 0,000 mm 0,0 UV-I 0 W/m 3,2 C -4,4 C 25,7 km/h (4 Bft) 100,00 %
08.01.2018 21:01 3,8 C 4,4 C 96 % 1022,9 hPa 0,0 l/m 22,5 km/h (4 Bft) O-NO 67 0 min 0,000 mm 0,0 UV-I 0 W/m 3,2 C -5,7 C 29,0 km/h (5 Bft) 95,65 %
08.01.2018 21:02 3,8 C 4,4 C 96 % 1022,9 hPa 0,0 l/m 20,9 km/h (4 Bft) O-NO 67 0 min 0,000 mm 0,0 UV-I 0 W/m 3,2 C -5,1 C 25,7 km/h (4 Bft) 100,00 %
08.01.2018 21:03 3,8 C 4,4 C 96 % 1022,8 hPa 0,0 l/m 20,9 km/h (4 Bft) O-NO 67 0 min 0,000 mm 0,0 UV-I 0 W/m 3,2 C -5,1 C 27,4 km/h (4 Bft) 91,30 %
08.01.2018 21:04 3,8 C 4,4 C 96 % 1022,8 hPa 0,0 l/m 20,9 km/h (4 Bft) NO 45 0 min 0,000 mm 0,0 UV-I 0 W/m 3,2 C -5,1 C 27,4 km/h (4 Bft) 95,65 %
08.01.2018 21:05 3,8 C 4,4 C 96 % 1022,8 hPa 0,0 l/m 16,1 km/h (3 Bft) O-NO 67 0 min 0,000 mm 0,0 UV-I 0 W/m 3,2 C -2,9 C 22,5 km/h (4 Bft) 86,96 %
08.01.2018 21:06 3,8 C 4,4 C 96 % 1022,9 hPa 0,0 l/m 20,9 km/h (4 Bft) O-NO 67 0 min 0,000 mm 0,0 UV-I 0 W/m 3,2 C -5,1 C 30,6 km/h (5 Bft) 100,00 %
08.01.2018 21:07 3,8 C 4,4 C 96 % 1022,9 hPa 0,0 l/m 17,7 km/h (3 Bft) NO 45 0 min 0,000 mm 0,0 UV-I 0 W/m 3,2 C -3,7 C 22,5 km/h (4 Bft) 82,61 %
08.01.2018 21:08 3,8 C 4,4 C 96 % 1022,9 hPa 0,0 l/m 19,3 km/h (3 Bft) O-NO 67 0 min 0,000 mm 0,0 UV-I 0 W/m 3,2 C -4,4 C 30,6 km/h (5 Bft) 100,00 %
08.01.2018 21:09 3,8 C 4,4 C 96 % 1022,9 hPa 0,0 l/m 20,9 km/h (4 Bft) O-NO 67 0 min 0,000 mm 0,0 UV-I 0 W/m 3,2 C -5,1 C 27,4 km/h (4 Bft) 91,30 %
08.01.2018 21:10 3,8 C 4,4 C 96 % 1023,0 hPa 0,0 l/m 22,5 km/h (4 Bft) O-NO 67 0 min 0,000 mm 0,0 UV-I 0 W/m 3,2 C -5,7 C 29,0 km/h (5 Bft) 91,30 %
08.01.2018 21:11 3,8 C 4,4 C 96 % 1023,0 hPa 0,0 l/m 27,4 km/h (4 Bft) O-NO 67 0 min 0,000 mm 0,0 UV-I 0 W/m 3,2 C -7,3 C 35,4 km/h (5 Bft) 91,30 %
08.01.2018 21:12 3,7 C 4,4 C 96 % 1023,0 hPa 0,0 l/m 25,7 km/h (4 Bft) O-NO 67 0 min 0,000 mm 0,0 UV-I 0 W/m 3,1 C -6,9 C 35,4 km/h (5 Bft) 91,30 %
08.01.2018 21:13 3,8 C 4,4 C 96 % 1022,9 hPa 0,0 l/m 14,5 km/h (3 Bft) NO 45 0 min 0,000 mm 0,0 UV-I 0 W/m 3,2 C -2,1 C 19,3 km/h (3 Bft) 100,00 %
08.01.2018 21:14 3,8 C 4,4 C 96 % 1022,9 hPa 0,0 l/m 20,9 km/h (4 Bft) O-NO 67 0 min 0,000 mm 0,0 UV-I 0 W/m 3,2 C -5,1 C 24,1 km/h (4 Bft) 91,30 %
08.01.2018 21:15 3,8 C 4,4 C 96 % 1022,9 hPa 0,0 l/m 22,5 km/h (4 Bft) O-NO 67 0 min 0,000 mm 0,0 UV-I 0 W/m 3,2 C -5,7 C 29,0 km/h (5 Bft) 100,00 %
08.01.2018 21:16 3,8 C 4,4 C 96 % 1022,8 hPa 0,0 l/m 22,5 km/h (4 Bft) O-NO 67 0 min 0,000 mm 0,0 UV-I 0 W/m 3,2 C -5,7 C 30,6 km/h (5 Bft) 86,96 %
08.01.2018 21:17 3,8 C 4,4 C 96 % 1022,8 hPa 0,0 l/m 20,9 km/h (4 Bft) O-NO 67 0 min 0,000 mm 0,0 UV-I 0 W/m 3,2 C -5,1 C 29,0 km/h (5 Bft) 100,00 %
08.01.2018 21:18 3,8 C 4,4 C 96 % 1022,8 hPa 0,0 l/m 16,1 km/h (3 Bft) O-NO 67 0 min 0,000 mm 0,0 UV-I 0 W/m 3,2 C -2,9 C 19,3 km/h (3 Bft) 86,96 %
08.01.2018 21:19 3,8 C 4,4 C 96 % 1022,7 hPa 0,0 l/m 24,1 km/h (4 Bft) O-NO 67 0 min 0,000 mm 0,0 UV-I 0 W/m 3,2 C -6,3 C 30,6 km/h (5 Bft) 95,65 %
08.01.2018 21:20 3,8 C 4,4 C 96 % 1022,7 hPa 0,0 l/m 20,9 km/h (4 Bft) O-NO 67 0 min 0,000 mm 0,0 UV-I 0 W/m 3,2 C -5,1 C 25,7 km/h (4 Bft) 95,65 %
08.01.2018 21:21 3,8 C 4,4 C 96 % 1022,7 hPa 0,0 l/m 20,9 km/h (4 Bft) O-NO 67 0 min 0,000 mm 0,0 UV-I 0 W/m 3,2 C -5,1 C 30,6 km/h (5 Bft) 95,65 %
08.01.2018 21:22 3,8 C 4,4 C 96 % 1022,7 hPa 0,0 l/m 27,4 km/h (4 Bft) O-NO 67 0 min 0,000 mm 0,0 UV-I 0 W/m 3,2 C -7,3 C 33,8 km/h (5 Bft) 95,65 %
08.01.2018 21:23 3,8 C 4,4 C 96 % 1022,7 hPa 0,0 l/m 32,2 km/h (5 Bft) O-NO 67 0 min 0,000 mm 0,0 UV-I 0 W/m 3,2 C -8,6 C 40,2 km/h (6 Bft) 95,65 %
08.01.2018 21:24 3,8 C 4,4 C 96 % 1022,7 hPa 0,0 l/m 24,1 km/h (4 Bft) O-NO 67 0 min 0,000 mm 0,0 UV-I 0 W/m 3,2 C -6,3 C 32,2 km/h (5 Bft) 100,00 %
08.01.2018 21:25 3,8 C 4,4 C 96 % 1022,7 hPa 0,0 l/m 24,1 km/h (4 Bft) O-NO 67 0 min 0,000 mm 0,0 UV-I 0 W/m 3,2 C -6,3 C 30,6 km/h (5 Bft) 91,30 %
08.01.2018 21:26 3,8 C 4,4 C 96 % 1022,6 hPa 0,0 l/m 27,4 km/h (4 Bft) O-NO 67 0 min 0,000 mm 0,0 UV-I 0 W/m 3,2 C -7,3 C 37,0 km/h (5 Bft) 100,00 %
08.01.2018 21:27 3,8 C 4,4 C 96 % 1022,6 hPa 0,0 l/m 25,7 km/h (4 Bft) O-NO 67 0 min 0,000 mm 0,0 UV-I 0 W/m 3,2 C -6,8 C 32,2 km/h (5 Bft) 95,65 %
08.01.2018 21:28 3,8 C 4,4 C 96 % 1022,6 hPa 0,0 l/m 25,7 km/h (4 Bft) O-NO 67 0 min 0,000 mm 0,0 UV-I 0 W/m 3,2 C -6,8 C 33,8 km/h (5 Bft) 100,00 %
08.01.2018 21:29 3,8 C 4,4 C 96 % 1022,6 hPa 0,0 l/m 27,4 km/h (4 Bft) O 90 0 min 0,000 mm 0,0 UV-I 0 W/m 3,2 C -7,3 C 40,2 km/h (6 Bft) 95,65 %
08.01.2018 21:30 3,8 C 4,4 C 96 % 1022,6 hPa 0,0 l/m 29,0 km/h (5 Bft) O-NO 67 0 min 0,000 mm 0,0 UV-I 0 W/m 3,2 C -7,8 C 37,0 km/h (5 Bft) 95,65 %
08.01.2018 21:31 3,8 C 4,4 C 96 % 1022,6 hPa 0,0 l/m 25,7 km/h (4 Bft) O-NO 67 0 min 0,000 mm 0,0 UV-I 0 W/m 3,2 C -6,8 C 33,8 km/h (5 Bft) 100,00 %
08.01.2018 21:32 3,8 C 4,4 C 96 % 1022,5 hPa 0,0 l/m 29,0 km/h (5 Bft) O-NO 67 0 min 0,000 mm 0,0 UV-I 0 W/m 3,2 C -7,8 C 38,6 km/h (5 Bft) 91,30 %
08.01.2018 21:33 3,8 C 4,4 C 96 % 1022,4 hPa 0,0 l/m 30,6 km/h (5 Bft) O-NO 67 0 min 0,000 mm 0,0 UV-I 0 W/m 3,2 C -8,2 C 38,6 km/h (5 Bft) 100,00 %
08.01.2018 21:34 3,8 C 4,4 C 96 % 1022,4 hPa 0,0 l/m 20,9 km/h (4 Bft) O-NO 67 0 min 0,000 mm 0,0 UV-I 0 W/m 3,2 C -5,1 C 27,4 km/h (4 Bft) 91,30 %
08.01.2018 21:35 3,7 C 4,4 C 96 % 1022,4 hPa 0,0 l/m 19,3 km/h (3 Bft) O-NO 67 0 min 0,000 mm 0,0 UV-I 0 W/m 3,1 C -4,6 C 29,0 km/h (5 Bft) 95,65 %
08.01.2018 21:36 3,7 C 4,4 C 96 % 1022,4 hPa 0,0 l/m 19,3 km/h (3 Bft) O-NO 67 0 min 0,000 mm 0,0 UV-I 0 W/m 3,1 C -4,6 C 29,0 km/h (5 Bft) 95,65 %
08.01.2018 21:37 3,7 C 4,4 C 96 % 1022,4 hPa 0,0 l/m 27,4 km/h (4 Bft) O-NO 67 0 min 0,000 mm 0,0 UV-I 0 W/m 3,1 C -7,5 C 35,4 km/h (5 Bft) 95,65 %
08.01.2018 21:38 3,7 C 4,4 C 96 % 1022,4 hPa 0,0 l/m 24,1 km/h (4 Bft) O-NO 67 0 min 0,000 mm 0,0 UV-I 0 W/m 3,1 C -6,4 C 33,8 km/h (5 Bft) 100,00 %
08.01.2018 21:39 3,7 C 4,4 C 96 % 1022,3 hPa 0,0 l/m 25,7 km/h (4 Bft) O-NO 67 0 min 0,000 mm 0,0 UV-I 0 W/m 3,1 C -6,9 C 35,4 km/h (5 Bft) 91,30 %
08.01.2018 21:40 3,7 C 4,4 C 96 % 1022,3 hPa 0,0 l/m 24,1 km/h (4 Bft) O-NO 67 0 min 0,000 mm 0,0 UV-I 0 W/m 3,1 C -6,4 C 32,2 km/h (5 Bft) 100,00 %
08.01.2018 21:41 3,7 C 4,4 C 96 % 1022,4 hPa 0,0 l/m 19,3 km/h (3 Bft) O-NO 67 0 min 0,000 mm 0,0 UV-I 0 W/m 3,1 C -4,6 C 27,4 km/h (4 Bft) 91,30 %
08.01.2018 21:42 3,7 C 4,4 C 96 % 1022,4 hPa 0,0 l/m 24,1 km/h (4 Bft) O-NO 67 0 min 0,000 mm 0,0 UV-I 0 W/m 3,1 C -6,4 C 32,2 km/h (5 Bft) 100,00 %
08.01.2018 21:43 3,7 C 4,4 C 96 % 1022,5 hPa 0,0 l/m 16,1 km/h (3 Bft) O-NO 67 0 min 0,000 mm 0,0 UV-I 0 W/m 3,1 C -3,1 C 20,9 km/h (4 Bft) 100,00 %
08.01.2018 21:44 3,7 C 4,4 C 96 % 1022,4 hPa 0,0 l/m 17,7 km/h (3 Bft) O-NO 67 0 min 0,000 mm 0,0 UV-I 0 W/m 3,1 C -3,8 C 22,5 km/h (4 Bft) 100,00 %
08.01.2018 21:45 3,7 C 4,4 C 96 % 1022,5 hPa 0,0 l/m 22,5 km/h (4 Bft) NO 45 0 min 0,000 mm 0,0 UV-I 0 W/m 3,1 C -5,8 C 27,4 km/h (4 Bft) 100,00 %
08.01.2018 21:46 3,7 C 4,4 C 96 % 1022,4 hPa 0,0 l/m 20,9 km/h (4 Bft) O-NO 67 0 min 0,000 mm 0,0 UV-I 0 W/m 3,1 C -5,2 C 29,0 km/h (5 Bft) 86,96 %
08.01.2018 21:47 3,7 C 4,4 C 96 % 1022,4 hPa 0,0 l/m 24,1 km/h (4 Bft) O-NO 67 0 min 0,000 mm 0,0 UV-I 0 W/m 3,1 C -6,4 C 29,0 km/h (5 Bft) 100,00 %
08.01.2018 21:48 3,7 C 4,4 C 96 % 1022,4 hPa 0,0 l/m 25,7 km/h (4 Bft) O-NO 67 0 min 0,000 mm 0,0 UV-I 0 W/m 3,1 C -6,9 C 32,2 km/h (5 Bft) 100,00 %
08.01.2018 21:49 3,7 C 4,4 C 96 % 1022,4 hPa 0,0 l/m 22,5 km/h (4 Bft) O-NO 67 0 min 0,000 mm 0,0 UV-I 0 W/m 3,1 C -5,8 C 27,4 km/h (4 Bft) 100,00 %
08.01.2018 21:50 3,7 C 4,4 C 96 % 1022,4 hPa 0,0 l/m 17,7 km/h (3 Bft) O-NO 67 0 min 0,000 mm 0,0 UV-I 0 W/m 3,1 C -3,8 C 24,1 km/h (4 Bft) 100,00 %
08.01.2018 21:51 3,7 C 4,4 C 96 % 1022,4 hPa 0,0 l/m 22,5 km/h (4 Bft) O-NO 67 0 min 0,000 mm 0,0 UV-I 0 W/m 3,1 C -5,8 C 32,2 km/h (5 Bft) 100,00 %
08.01.2018 21:52 3,7 C 4,4 C 96 % 1022,3 hPa 0,0 l/m 25,7 km/h (4 Bft) O-NO 67 0 min 0,000 mm 0,0 UV-I 0 W/m 3,1 C -6,9 C 30,6 km/h (5 Bft) 100,00 %
08.01.2018 21:53 3,7 C 4,4 C 96 % 1022,4 hPa 0,0 l/m 20,9 km/h (4 Bft) O-NO 67 0 min 0,000 mm 0,0 UV-I 0 W/m 3,1 C -5,2 C 29,0 km/h (5 Bft) 95,65 %
08.01.2018 21:54 3,7 C 4,4 C 96 % 1022,4 hPa 0,0 l/m 20,9 km/h (4 Bft) O-NO 67 0 min 0,000 mm 0,0 UV-I 0 W/m 3,1 C -5,2 C 33,8 km/h (5 Bft) 95,65 %
08.01.2018 21:55 3,7 C 4,4 C 96 % 1022,4 hPa 0,0 l/m 25,7 km/h (4 Bft) O-NO 67 0 min 0,000 mm 0,0 UV-I 0 W/m 3,1 C -6,9 C 33,8 km/h (5 Bft) 100,00 %
08.01.2018 21:56 3,7 C 4,4 C 96 % 1022,3 hPa 0,0 l/m 24,1 km/h (4 Bft) O-NO 67 0 min 0,000 mm 0,0 UV-I 0 W/m 3,1 C -6,4 C 32,2 km/h (5 Bft) 100,00 %
08.01.2018 21:57 3,7 C 4,4 C 96 % 1022,3 hPa 0,0 l/m 25,7 km/h (4 Bft) O-NO 67 0 min 0,000 mm 0,0 UV-I 0 W/m 3,1 C -6,9 C 33,8 km/h (5 Bft) 100,00 %
08.01.2018 21:58 3,7 C 4,4 C 96 % 1022,4 hPa 0,0 l/m 22,5 km/h (4 Bft) O-NO 67 0 min 0,000 mm 0,0 UV-I 0 W/m 3,1 C -5,8 C 30,6 km/h (5 Bft) 100,00 %
08.01.2018 21:59 3,7 C 4,4 C 96 % 1022,3 hPa 0,0 l/m 17,7 km/h (3 Bft) O-NO 67 0 min 0,000 mm 0,0 UV-I 0 W/m 3,1 C -3,8 C 25,7 km/h (4 Bft) 100,00 %
08.01.2018 22:00 3,7 C 4,4 C 96 % 1022,4 hPa 0,0 l/m 19,3 km/h (3 Bft) O-NO 67 0 min 0,000 mm 0,0 UV-I 0 W/m 3,1 C -4,6 C 29,0 km/h (5 Bft) 95,65 %
08.01.2018 22:01 3,7 C 4,4 C 96 % 1022,4 hPa 0,0 l/m 24,1 km/h (4 Bft) O-NO 67 0 min 0,000 mm 0,0 UV-I 0 W/m 3,1 C -6,4 C 32,2 km/h (5 Bft) 100,00 %
08.01.2018 22:02 3,7 C 4,4 C 96 % 1022,5 hPa 0,0 l/m 19,3 km/h (3 Bft) O-NO 67 0 min 0,000 mm 0,0 UV-I 0 W/m 3,1 C -4,6 C 29,0 km/h (5 Bft) 100,00 %
08.01.2018 22:03 3,7 C 4,4 C 96 % 1022,6 hPa 0,0 l/m 19,3 km/h (3 Bft) O-NO 67 0 min 0,000 mm 0,0 UV-I 0 W/m 3,1 C -4,6 C 25,7 km/h (4 Bft) 100,00 %
08.01.2018 22:04 3,7 C 4,4 C 96 % 1022,5 hPa 0,0 l/m 16,1 km/h (3 Bft) O-NO 67 0 min 0,000 mm 0,0 UV-I 0 W/m 3,1 C -3,1 C 22,5 km/h (4 Bft) 95,65 %
08.01.2018 22:05 3,7 C 4,4 C 96 % 1022,5 hPa 0,0 l/m 16,1 km/h (3 Bft) O-NO 67 0 min 0,000 mm 0,0 UV-I 0 W/m 3,1 C -3,1 C 22,5 km/h (4 Bft) 100,00 %
08.01.2018 22:06 3,7 C 4,4 C 96 % 1022,6 hPa 0,0 l/m 17,7 km/h (3 Bft) O-NO 67 0 min 0,000 mm 0,0 UV-I 0 W/m 3,1 C -3,8 C 30,6 km/h (5 Bft) 100,00 %
08.01.2018 22:07 3,7 C 4,4 C 96 % 1022,6 hPa 0,0 l/m 17,7 km/h (3 Bft) O-NO 67 0 min 0,000 mm 0,0 UV-I 0 W/m 3,1 C -3,8 C 22,5 km/h (4 Bft) 95,65 %
08.01.2018 22:08 3,7 C 4,4 C 96 % 1022,6 hPa 0,0 l/m 17,7 km/h (3 Bft) O-NO 67 0 min 0,000 mm 0,0 UV-I 0 W/m 3,1 C -3,8 C 25,7 km/h (4 Bft) 100,00 %
08.01.2018 22:09 3,7 C 4,4 C 96 % 1022,6 hPa 0,0 l/m 16,1 km/h (3 Bft) O-NO 67 0 min 0,000 mm 0,0 UV-I 0 W/m 3,1 C -3,1 C 22,5 km/h (4 Bft) 100,00 %
08.01.2018 22:10 3,7 C 4,4 C 96 % 1022,6 hPa 0,0 l/m 20,9 km/h (4 Bft) O-NO 67 0 min 0,000 mm 0,0 UV-I 0 W/m 3,1 C -5,2 C 32,2 km/h (5 Bft) 95,65 %
08.01.2018 22:11 3,7 C 4,4 C 96 % 1022,6 hPa 0,0 l/m 19,3 km/h (3 Bft) O-NO 67 0 min 0,000 mm 0,0 UV-I 0 W/m 3,1 C -4,6 C 24,1 km/h (4 Bft) 95,65 %
08.01.2018 22:12 3,7 C 4,4 C 96 % 1022,6 hPa 0,0 l/m 16,1 km/h (3 Bft) O-NO 67 0 min 0,000 mm 0,0 UV-I 0 W/m 3,1 C -3,1 C 20,9 km/h (4 Bft) 100,00 %
08.01.2018 22:13 3,7 C 4,4 C 96 % 1022,7 hPa 0,0 l/m 17,7 km/h (3 Bft) O-NO 67 0 min 0,000 mm 0,0 UV-I 0 W/m 3,1 C -3,8 C 25,7 km/h (4 Bft) 95,65 %
08.01.2018 22:14 3,7 C 4,4 C 96 % 1022,6 hPa 0,0 l/m 17,7 km/h (3 Bft) O-NO 67 0 min 0,000 mm 0,0 UV-I 0 W/m 3,1 C -3,8 C 25,7 km/h (4 Bft) 95,65 %
08.01.2018 22:15 3,7 C 4,4 C 96 % 1022,6 hPa 0,0 l/m 16,1 km/h (3 Bft) O-NO 67 0 min 0,000 mm 0,0 UV-I 0 W/m 3,1 C -3,1 C 22,5 km/h (4 Bft) 100,00 %
08.01.2018 22:16 3,7 C 4,4 C 97 % 1022,5 hPa 0,0 l/m 19,3 km/h (3 Bft) O-NO 67 0 min 0,000 mm 0,0 UV-I 0 W/m 3,3 C -4,6 C 27,4 km/h (4 Bft) 100,00 %
08.01.2018 22:17 3,7 C 4,4 C 96 % 1022,5 hPa 0,0 l/m 19,3 km/h (3 Bft) O-NO 67 0 min 0,000 mm 0,0 UV-I 0 W/m 3,1 C -4,6 C 24,1 km/h (4 Bft) 100,00 %
08.01.2018 22:18 3,7 C 4,4 C 96 % 1022,4 hPa 0,0 l/m 19,3 km/h (3 Bft) O 90 0 min 0,000 mm 0,0 UV-I 0 W/m 3,1 C -4,6 C 24,1 km/h (4 Bft) 95,65 %
08.01.2018 22:19 3,7 C 4,4 C 97 % 1022,3 hPa 0,0 l/m 16,1 km/h (3 Bft) O-NO 67 0 min 0,000 mm 0,0 UV-I 0 W/m 3,3 C -3,1 C 20,9 km/h (4 Bft) 100,00 %
08.01.2018 22:20 3,7 C 4,4 C 97 % 1022,4 hPa 0,0 l/m 17,7 km/h (3 Bft) O-NO 67 0 min 0,000 mm 0,0 UV-I 0 W/m 3,3 C -3,8 C 20,9 km/h (4 Bft) 95,65 %
08.01.2018 22:21 3,7 C 4,4 C 97 % 1022,4 hPa 0,0 l/m 24,1 km/h (4 Bft) NO 45 0 min 0,000 mm 0,0 UV-I 0 W/m 3,3 C -6,4 C 32,2 km/h (5 Bft) 100,00 %
08.01.2018 22:22 3,7 C 4,4 C 97 % 1022,4 hPa 0,0 l/m 22,5 km/h (4 Bft) O-NO 67 0 min 0,000 mm 0,0 UV-I 0 W/m 3,3 C -5,8 C 29,0 km/h (5 Bft) 91,30 %
08.01.2018 22:23 3,7 C 4,4 C 97 % 1022,3 hPa 0,0 l/m 24,1 km/h (4 Bft) O-NO 67 0 min 0,000 mm 0,0 UV-I 0 W/m 3,3 C -6,4 C 30,6 km/h (5 Bft) 95,65 %
08.01.2018 22:24 3,7 C 4,4 C 97 % 1022,3 hPa 0,0 l/m 24,1 km/h (4 Bft) O-NO 67 0 min 0,000 mm 0,0 UV-I 0 W/m 3,3 C -6,4 C 33,8 km/h (5 Bft) 95,65 %
08.01.2018 22:25 3,7 C 4,4 C 97 % 1022,3 hPa 0,0 l/m 24,1 km/h (4 Bft) O-NO 67 0 min 0,000 mm 0,0 UV-I 0 W/m 3,3 C -6,4 C 30,6 km/h (5 Bft) 100,00 %
08.01.2018 22:26 3,7 C 4,4 C 97 % 1022,3 hPa 0,0 l/m 19,3 km/h (3 Bft) O-NO 67 0 min 0,000 mm 0,0 UV-I 0 W/m 3,3 C -4,6 C 25,7 km/h (4 Bft) 95,65 %
08.01.2018 22:27 3,7 C 4,4 C 97 % 1022,3 hPa 0,0 l/m 22,5 km/h (4 Bft) NO 45 0 min 0,000 mm 0,0 UV-I 0 W/m 3,3 C -5,8 C 30,6 km/h (5 Bft) 100,00 %
08.01.2018 22:28 3,8 C 4,4 C 97 % 1022,2 hPa 0,0 l/m 29,0 km/h (5 Bft) O-NO 67 0 min 0,000 mm 0,0 UV-I 0 W/m 3,4 C -7,8 C 43,5 km/h (6 Bft) 95,65 %
08.01.2018 22:29 3,7 C 4,4 C 97 % 1022,1 hPa 0,0 l/m 33,8 km/h (5 Bft) O-NO 67 0 min 0,000 mm 0,0 UV-I 0 W/m 3,3 C -9,2 C 41,8 km/h (6 Bft) 95,65 %
08.01.2018 22:30 3,7 C 4,4 C 97 % 1022,1 hPa 0,0 l/m 27,4 km/h (4 Bft) O-NO 67 0 min 0,000 mm 0,0 UV-I 0 W/m 3,3 C -7,5 C 41,8 km/h (6 Bft) 95,65 %
08.01.2018 22:31 3,8 C 4,4 C 97 % 1022,2 hPa 0,0 l/m 32,2 km/h (5 Bft) O-NO 67 0 min 0,000 mm 0,0 UV-I 0 W/m 3,4 C -8,6 C 41,8 km/h (6 Bft) 95,65 %
08.01.2018 22:32 3,7 C 4,4 C 97 % 1022,2 hPa 0,0 l/m 30,6 km/h (5 Bft) O-NO 67 0 min 0,000 mm 0,0 UV-I 0 W/m 3,3 C -8,4 C 37,0 km/h (5 Bft) 100,00 %
08.01.2018 22:33 3,7 C 4,4 C 97 % 1022,2 hPa 0,0 l/m 0,0 km/h (0 Bft) N 0 0 min 0,000 mm 0,0 UV-I 0 W/m 3,3 C 3,7 C 0,0 km/h (0 Bft) 0,00 %
08.01.2018 22:34 3,7 C 4,4 C 96 % 1022,3 hPa 0,0 l/m 29,0 km/h (5 Bft) O 90 0 min 0,000 mm 0,0 UV-I 0 W/m 3,1 C -7,9 C 29,0 km/h (5 Bft) 4,35 %
08.01.2018 22:35 3,7 C 4,4 C 97 % 1022,2 hPa 0,0 l/m 0,0 km/h (0 Bft) N 0 0 min 0,000 mm 0,0 UV-I 0 W/m 3,3 C 3,7 C 0,0 km/h (0 Bft) 0,00 %
08.01.2018 22:36 3,7 C 4,4 C 97 % 1022,3 hPa 0,0 l/m 27,4 km/h (4 Bft) O-NO 67 0 min 0,000 mm 0,0 UV-I 0 W/m 3,3 C -7,5 C 33,8 km/h (5 Bft) 69,57 %
08.01.2018 22:37 3,7 C 4,4 C 97 % 1022,2 hPa 0,0 l/m 25,7 km/h (4 Bft) O-NO 67 0 min 0,000 mm 0,0 UV-I 0 W/m 3,3 C -6,9 C 35,4 km/h (5 Bft) 95,65 %
08.01.2018 22:38 3,7 C 4,4 C 96 % 1022,3 hPa 0,0 l/m 30,6 km/h (5 Bft) O-NO 67 0 min 0,000 mm 0,0 UV-I 0 W/m 3,1 C -8,4 C 43,5 km/h (6 Bft) 100,00 %
08.01.2018 22:39 3,7 C 4,4 C 97 % 1022,3 hPa 0,0 l/m 22,5 km/h (4 Bft) O-NO 67 0 min 0,000 mm 0,0 UV-I 0 W/m 3,3 C -5,8 C 30,6 km/h (5 Bft) 100,00 %
08.01.2018 22:40 3,7 C 4,4 C 97 % 1022,3 hPa 0,0 l/m 22,5 km/h (4 Bft) O-NO 67 0 min 0,000 mm 0,0 UV-I 0 W/m 3,3 C -5,8 C 27,4 km/h (4 Bft) 100,00 %
08.01.2018 22:41 3,7 C 4,4 C 97 % 1022,3 hPa 0,0 l/m 30,6 km/h (5 Bft) O-NO 67 0 min 0,000 mm 0,0 UV-I 0 W/m 3,3 C -8,4 C 38,6 km/h (5 Bft) 100,00 %
08.01.2018 22:42 3,7 C 4,4 C 97 % 1022,4 hPa 0,0 l/m 22,5 km/h (4 Bft) O-NO 67 0 min 0,000 mm 0,0 UV-I 0 W/m 3,3 C -5,8 C 32,2 km/h (5 Bft) 100,00 %
08.01.2018 22:43 3,7 C 4,4 C 97 % 1022,3 hPa 0,0 l/m 22,5 km/h (4 Bft) O-NO 67 0 min 0,000 mm 0,0 UV-I 0 W/m 3,3 C -5,8 C 29,0 km/h (5 Bft) 95,65 %
08.01.2018 22:44 3,7 C 4,4 C 97 % 1022,4 hPa 0,0 l/m 25,7 km/h (4 Bft) O-NO 67 0 min 0,000 mm 0,0 UV-I 0 W/m 3,3 C -6,9 C 35,4 km/h (5 Bft) 100,00 %
08.01.2018 22:45 3,7 C 4,4 C 97 % 1022,3 hPa 0,0 l/m 25,7 km/h (4 Bft) O-NO 67 0 min 0,000 mm 0,0 UV-I 0 W/m 3,3 C -6,9 C 32,2 km/h (5 Bft) 100,00 %
08.01.2018 22:46 3,7 C 4,4 C 97 % 1022,4 hPa 0,0 l/m 19,3 km/h (3 Bft) O-NO 67 0 min 0,000 mm 0,0 UV-I 0 W/m 3,3 C -4,6 C 24,1 km/h (4 Bft) 100,00 %
08.01.2018 22:47 3,7 C 4,4 C 97 % 1022,4 hPa 0,0 l/m 27,4 km/h (4 Bft) O-NO 67 0 min 0,000 mm 0,0 UV-I 0 W/m 3,3 C -7,5 C 37,0 km/h (5 Bft) 100,00 %
08.01.2018 22:48 3,7 C 4,4 C 97 % 1022,3 hPa 0,0 l/m 30,6 km/h (5 Bft) O-NO 67 0 min 0,000 mm 0,0 UV-I 0 W/m 3,3 C -8,4 C 40,2 km/h (6 Bft) 95,65 %
08.01.2018 22:49 3,8 C 4,4 C 96 % 1022,4 hPa 0,0 l/m 24,1 km/h (4 Bft) O-NO 67 0 min 0,000 mm 0,0 UV-I 0 W/m 3,2 C -6,3 C 30,6 km/h (5 Bft) 100,00 %
08.01.2018 22:50 3,8 C 4,4 C 96 % 1022,4 hPa 0,0 l/m 22,5 km/h (4 Bft) O-NO 67 0 min 0,000 mm 0,0 UV-I 0 W/m 3,2 C -5,7 C 29,0 km/h (5 Bft) 91,30 %
08.01.2018 22:51 3,7 C 4,4 C 96 % 1022,3 hPa 0,0 l/m 24,1 km/h (4 Bft) O-NO 67 0 min 0,000 mm 0,0 UV-I 0 W/m 3,1 C -6,4 C 33,8 km/h (5 Bft) 100,00 %
08.01.2018 22:52 3,7 C 4,4 C 96 % 1022,4 hPa 0,0 l/m 22,5 km/h (4 Bft) O-NO 67 0 min 0,000 mm 0,0 UV-I 0 W/m 3,1 C -5,8 C 29,0 km/h (5 Bft) 100,00 %
08.01.2018 22:53 3,8 C 4,4 C 96 % 1022,4 hPa 0,0 l/m 25,7 km/h (4 Bft) O-NO 67 0 min 0,000 mm 0,0 UV-I 0 W/m 3,2 C -6,8 C 32,2 km/h (5 Bft) 100,00 %
08.01.2018 22:54 3,8 C 4,4 C 96 % 1022,4 hPa 0,0 l/m 22,5 km/h (4 Bft) O-NO 67 0 min 0,000 mm 0,0 UV-I 0 W/m 3,2 C -5,7 C 32,2 km/h (5 Bft) 95,65 %
08.01.2018 22:55 3,8 C 4,4 C 96 % 1022,3 hPa 0,0 l/m 24,1 km/h (4 Bft) O-NO 67 0 min 0,000 mm 0,0 UV-I 0 W/m 3,2 C -6,3 C 35,4 km/h (5 Bft) 95,65 %
08.01.2018 22:56 3,8 C 4,4 C 96 % 1022,2 hPa 0,0 l/m 29,0 km/h (5 Bft) O-NO 67 0 min 0,000 mm 0,0 UV-I 0 W/m 3,2 C -7,8 C 35,4 km/h (5 Bft) 100,00 %
08.01.2018 22:57 3,8 C 4,4 C 96 % 1022,3 hPa 0,0 l/m 29,0 km/h (5 Bft) O-NO 67 0 min 0,000 mm 0,0 UV-I 0 W/m 3,2 C -7,8 C 38,6 km/h (5 Bft) 95,65 %
08.01.2018 22:58 3,8 C 4,4 C 96 % 1022,3 hPa 0,0 l/m 22,5 km/h (4 Bft) O-NO 67 0 min 0,000 mm 0,0 UV-I 0 W/m 3,2 C -5,7 C 29,0 km/h (5 Bft) 100,00 %
08.01.2018 22:59 3,8 C 4,4 C 96 % 1022,3 hPa 0,0 l/m 22,5 km/h (4 Bft) O-NO 67 0 min 0,000 mm 0,0 UV-I 0 W/m 3,2 C -5,7 C 32,2 km/h (5 Bft) 100,00 %
08.01.2018 23:00 3,8 C 4,4 C 96 % 1022,3 hPa 0,0 l/m 22,5 km/h (4 Bft) O-NO 67 0 min 0,000 mm 0,0 UV-I 0 W/m 3,2 C -5,7 C 29,0 km/h (5 Bft) 100,00 %
08.01.2018 23:01 3,8 C 4,4 C 97 % 1022,4 hPa 0,0 l/m 27,4 km/h (4 Bft) NO 45 0 min 0,000 mm 0,0 UV-I 0 W/m 3,4 C -7,3 C 32,2 km/h (5 Bft) 95,65 %
08.01.2018 23:02 3,8 C 4,4 C 96 % 1022,3 hPa 0,0 l/m 27,4 km/h (4 Bft) NO 45 0 min 0,000 mm 0,0 UV-I 0 W/m 3,2 C -7,3 C 45,1 km/h (6 Bft) 100,00 %
08.01.2018 23:03 3,8 C 4,4 C 97 % 1022,2 hPa 0,0 l/m 22,5 km/h (4 Bft) O-NO 67 0 min 0,000 mm 0,0 UV-I 0 W/m 3,4 C -5,7 C 29,0 km/h (5 Bft) 95,65 %
08.01.2018 23:04 3,8 C 4,4 C 97 % 1022,3 hPa 0,0 l/m 24,1 km/h (4 Bft) NO 45 0 min 0,000 mm 0,0 UV-I 0 W/m 3,4 C -6,3 C 30,6 km/h (5 Bft) 91,30 %
08.01.2018 23:05 3,8 C 4,4 C 97 % 1022,2 hPa 0,0 l/m 22,5 km/h (4 Bft) O-NO 67 0 min 0,000 mm 0,0 UV-I 0 W/m 3,4 C -5,7 C 32,2 km/h (5 Bft) 95,65 %
08.01.2018 23:06 3,8 C 4,4 C 97 % 1022,2 hPa 0,0 l/m 22,5 km/h (4 Bft) O-NO 67 0 min 0,000 mm 0,0 UV-I 0 W/m 3,4 C -5,7 C 32,2 km/h (5 Bft) 100,00 %
08.01.2018 23:07 3,8 C 4,4 C 97 % 1022,2 hPa 0,0 l/m 24,1 km/h (4 Bft) O-NO 67 0 min 0,000 mm 0,0 UV-I 0 W/m 3,4 C -6,3 C 30,6 km/h (5 Bft) 100,00 %
08.01.2018 23:08 3,8 C 4,4 C 97 % 1022,2 hPa 0,0 l/m 24,1 km/h (4 Bft) O-NO 67 0 min 0,000 mm 0,0 UV-I 0 W/m 3,4 C -6,3 C 33,8 km/h (5 Bft) 100,00 %
08.01.2018 23:09 3,8 C 4,4 C 97 % 1022,2 hPa 0,0 l/m 25,7 km/h (4 Bft) O-NO 67 0 min 0,000 mm 0,0 UV-I 0 W/m 3,4 C -6,8 C 32,2 km/h (5 Bft) 95,65 %
08.01.2018 23:10 3,8 C 4,4 C 97 % 1022,2 hPa 0,0 l/m 25,7 km/h (4 Bft) O 90 0 min 0,000 mm 0,0 UV-I 0 W/m 3,4 C -6,8 C 33,8 km/h (5 Bft) 95,65 %
08.01.2018 23:11 3,8 C 4,4 C 97 % 1022,2 hPa 0,0 l/m 20,9 km/h (4 Bft) O-NO 67 0 min 0,000 mm 0,0 UV-I 0 W/m 3,4 C -5,1 C 27,4 km/h (4 Bft) 91,30 %
08.01.2018 23:12 3,8 C 4,4 C 97 % 1022,2 hPa 0,0 l/m 20,9 km/h (4 Bft) O-NO 67 0 min 0,000 mm 0,0 UV-I 0 W/m 3,4 C -5,1 C 25,7 km/h (4 Bft) 100,00 %
08.01.2018 23:13 3,8 C 4,4 C 97 % 1022,2 hPa 0,0 l/m 19,3 km/h (3 Bft) O-NO 67 0 min 0,000 mm 0,0 UV-I 0 W/m 3,4 C -4,4 C 27,4 km/h (4 Bft) 95,65 %
08.01.2018 23:14 3,8 C 4,4 C 97 % 1022,1 hPa 0,0 l/m 20,9 km/h (4 Bft) NO 45 0 min 0,000 mm 0,0 UV-I 0 W/m 3,4 C -5,1 C 27,4 km/h (4 Bft) 95,65 %
08.01.2018 23:15 3,8 C 4,4 C 97 % 1022,1 hPa 0,0 l/m 22,5 km/h (4 Bft) O-NO 67 0 min 0,000 mm 0,0 UV-I 0 W/m 3,4 C -5,7 C 29,0 km/h (5 Bft) 100,00 %
08.01.2018 23:16 3,8 C 4,4 C 97 % 1022,1 hPa 0,0 l/m 25,7 km/h (4 Bft) O-NO 67 0 min 0,000 mm 0,0 UV-I 0 W/m 3,4 C -6,8 C 29,0 km/h (5 Bft) 95,65 %
08.01.2018 23:17 3,8 C 4,4 C 97 % 1022,0 hPa 0,0 l/m 24,1 km/h (4 Bft) O-NO 67 0 min 0,000 mm 0,0 UV-I 0 W/m 3,4 C -6,3 C 32,2 km/h (5 Bft) 95,65 %
08.01.2018 23:18 3,8 C 4,4 C 97 % 1022,1 hPa 0,0 l/m 24,1 km/h (4 Bft) O-NO 67 0 min 0,000 mm 0,0 UV-I 0 W/m 3,4 C -6,3 C 29,0 km/h (5 Bft) 91,30 %
08.01.2018 23:19 3,8 C 4,4 C 97 % 1022,0 hPa 0,0 l/m 27,4 km/h (4 Bft) O-NO 67 0 min 0,000 mm 0,0 UV-I 0 W/m 3,4 C -7,3 C 33,8 km/h (5 Bft) 95,65 %
08.01.2018 23:20 3,8 C 4,4 C 97 % 1022,0 hPa 0,0 l/m 30,6 km/h (5 Bft) O-NO 67 0 min 0,000 mm 0,0 UV-I 0 W/m 3,4 C -8,2 C 40,2 km/h (6 Bft) 91,30 %
08.01.2018 23:21 3,8 C 4,4 C 97 % 1021,8 hPa 0,0 l/m 32,2 km/h (5 Bft) NO 45 0 min 0,000 mm 0,0 UV-I 0 W/m 3,4 C -8,6 C 45,1 km/h (6 Bft) 95,65 %
08.01.2018 23:22 3,8 C 4,4 C 97 % 1022,0 hPa 0,0 l/m 29,0 km/h (5 Bft) O-NO 67 0 min 0,000 mm 0,0 UV-I 0 W/m 3,4 C -7,8 C 40,2 km/h (6 Bft) 100,00 %
08.01.2018 23:23 3,8 C 4,4 C 97 % 1021,9 hPa 0,0 l/m 29,0 km/h (5 Bft) O-NO 67 0 min 0,000 mm 0,0 UV-I 0 W/m 3,4 C -7,8 C 38,6 km/h (5 Bft) 95,65 %
08.01.2018 23:24 3,8 C 4,4 C 97 % 1021,9 hPa 0,0 l/m 25,7 km/h (4 Bft) O-NO 67 0 min 0,000 mm 0,0 UV-I 0 W/m 3,4 C -6,8 C 33,8 km/h (5 Bft) 100,00 %
08.01.2018 23:25 3,8 C 4,4 C 97 % 1022,0 hPa 0,0 l/m 24,1 km/h (4 Bft) O-NO 67 0 min 0,000 mm 0,0 UV-I 0 W/m 3,4 C -6,3 C 30,6 km/h (5 Bft) 91,30 %
08.01.2018 23:26 3,8 C 4,4 C 97 % 1021,9 hPa 0,0 l/m 22,5 km/h (4 Bft) O-NO 67 0 min 0,000 mm 0,0 UV-I 0 W/m 3,4 C -5,7 C 30,6 km/h (5 Bft) 100,00 %
08.01.2018 23:27 3,8 C 4,4 C 97 % 1021,9 hPa 0,0 l/m 27,4 km/h (4 Bft) O-NO 67 0 min 0,000 mm 0,0 UV-I 0 W/m 3,4 C -7,3 C 33,8 km/h (5 Bft) 95,65 %
08.01.2018 23:28 3,8 C 4,4 C 97 % 1021,9 hPa 0,0 l/m 30,6 km/h (5 Bft) O-NO 67 0 min 0,000 mm 0,0 UV-I 0 W/m 3,4 C -8,2 C 38,6 km/h (5 Bft) 100,00 %
08.01.2018 23:29 3,8 C 4,4 C 97 % 1021,8 hPa 0,0 l/m 27,4 km/h (4 Bft) O-NO 67 0 min 0,000 mm 0,0 UV-I 0 W/m 3,4 C -7,3 C 35,4 km/h (5 Bft) 95,65 %
08.01.2018 23:30 3,8 C 4,4 C 97 % 1021,9 hPa 0,0 l/m 27,4 km/h (4 Bft) O-NO 67 0 min 0,000 mm 0,0 UV-I 0 W/m 3,4 C -7,3 C 37,0 km/h (5 Bft) 95,65 %
08.01.2018 23:31 3,8 C 4,4 C 97 % 1021,8 hPa 0,0 l/m 25,7 km/h (4 Bft) O-NO 67 0 min 0,000 mm 0,0 UV-I 0 W/m 3,4 C -6,8 C 35,4 km/h (5 Bft) 100,00 %
08.01.2018 23:32 3,8 C 4,4 C 97 % 1021,8 hPa 0,0 l/m 24,1 km/h (4 Bft) O-NO 67 0 min 0,000 mm 0,0 UV-I 0 W/m 3,4 C -6,3 C 38,6 km/h (5 Bft) 86,96 %
08.01.2018 23:33 3,8 C 4,4 C 97 % 1021,7 hPa 0,0 l/m 22,5 km/h (4 Bft) NO 45 0 min 0,000 mm 0,0 UV-I 0 W/m 3,4 C -5,7 C 30,6 km/h (5 Bft) 100,00 %
08.01.2018 23:34 3,8 C 4,4 C 97 % 1021,8 hPa 0,0 l/m 25,7 km/h (4 Bft) O-NO 67 0 min 0,000 mm 0,0 UV-I 0 W/m 3,4 C -6,8 C 35,4 km/h (5 Bft) 95,65 %
08.01.2018 23:35 3,8 C 4,4 C 97 % 1021,8 hPa 0,0 l/m 20,9 km/h (4 Bft) O-NO 67 0 min 0,000 mm 0,0 UV-I 0 W/m 3,4 C -5,1 C 27,4 km/h (4 Bft) 95,65 %
08.01.2018 23:36 3,8 C 4,4 C 97 % 1021,7 hPa 0,0 l/m 25,7 km/h (4 Bft) O-NO 67 0 min 0,000 mm 0,0 UV-I 0 W/m 3,4 C -6,8 C 30,6 km/h (5 Bft) 95,65 %
08.01.2018 23:37 3,8 C 4,4 C 97 % 1021,8 hPa 0,0 l/m 22,5 km/h (4 Bft) O-NO 67 0 min 0,000 mm 0,0 UV-I 0 W/m 3,4 C -5,7 C 32,2 km/h (5 Bft) 95,65 %
08.01.2018 23:38 3,8 C 4,4 C 97 % 1021,8 hPa 0,0 l/m 29,0 km/h (5 Bft) O-NO 67 0 min 0,000 mm 0,0 UV-I 0 W/m 3,4 C -7,8 C 35,4 km/h (5 Bft) 95,65 %
08.01.2018 23:39 3,8 C 4,4 C 97 % 1021,8 hPa 0,0 l/m 19,3 km/h (3 Bft) O-NO 67 0 min 0,000 mm 0,0 UV-I 0 W/m 3,4 C -4,4 C 25,7 km/h (4 Bft) 86,96 %
08.01.2018 23:40 3,8 C 4,4 C 97 % 1021,8 hPa 0,0 l/m 24,1 km/h (4 Bft) O-NO 67 0 min 0,000 mm 0,0 UV-I 0 W/m 3,4 C -6,3 C 37,0 km/h (5 Bft) 95,65 %
08.01.2018 23:41 3,8 C 4,4 C 97 % 1021,7 hPa 0,0 l/m 27,4 km/h (4 Bft) O-NO 67 0 min 0,000 mm 0,0 UV-I 0 W/m 3,4 C -7,3 C 33,8 km/h (5 Bft) 86,96 %
08.01.2018 23:42 3,8 C 4,4 C 97 % 1021,7 hPa 0,0 l/m 22,5 km/h (4 Bft) O-NO 67 0 min 0,000 mm 0,0 UV-I 0 W/m 3,4 C -5,7 C 32,2 km/h (5 Bft) 100,00 %
08.01.2018 23:43 3,8 C 4,4 C 97 % 1021,8 hPa 0,0 l/m 25,7 km/h (4 Bft) O-NO 67 0 min 0,000 mm 0,0 UV-I 0 W/m 3,4 C -6,8 C 35,4 km/h (5 Bft) 91,30 %
08.01.2018 23:44 3,8 C 4,4 C 97 % 1021,7 hPa 0,0 l/m 24,1 km/h (4 Bft) O-NO 67 0 min 0,000 mm 0,0 UV-I 0 W/m 3,4 C -6,3 C 29,0 km/h (5 Bft) 95,65 %
08.01.2018 23:45 3,8 C 4,4 C 97 % 1021,7 hPa 0,0 l/m 20,9 km/h (4 Bft) O-NO 67 0 min 0,000 mm 0,0 UV-I 0 W/m 3,4 C -5,1 C 25,7 km/h (4 Bft) 100,00 %
08.01.2018 23:46 3,8 C 4,4 C 97 % 1021,7 hPa 0,0 l/m 27,4 km/h (4 Bft) O-NO 67 0 min 0,000 mm 0,0 UV-I 0 W/m 3,4 C -7,3 C 38,6 km/h (5 Bft) 95,65 %
08.01.2018 23:47 3,8 C 4,4 C 97 % 1021,6 hPa 0,0 l/m 25,7 km/h (4 Bft) O-NO 67 0 min 0,000 mm 0,0 UV-I 0 W/m 3,4 C -6,8 C 35,4 km/h (5 Bft) 95,65 %
08.01.2018 23:48 3,8 C 4,4 C 97 % 1021,6 hPa 0,0 l/m 23,9 km/h (4 Bft) O 79 0 min 0,000 mm 0,0 UV-I 0 W/m 3,4 C -6,2 C 25,7 km/h (4 Bft) 100,00 %
08.01.2018 23:49 3,8 C 4,4 C 97 % 1021,6 hPa 0,0 l/m 18,3 km/h (3 Bft) O-NO 65 0 min 0,000 mm 0,0 UV-I 0 W/m 3,4 C -4,0 C 29,0 km/h (5 Bft) 100,00 %
08.01.2018 23:50 3,8 C 4,4 C 97 % 1021,6 hPa 0,0 l/m 24,4 km/h (4 Bft) O-NO 69 0 min 0,000 mm 0,0 UV-I 0 W/m 3,4 C -6,4 C 30,6 km/h (5 Bft) 100,00 %
08.01.2018 23:51 3,8 C 4,4 C 97 % 1021,5 hPa 0,0 l/m 24,1 km/h (4 Bft) O-NO 67 0 min 0,000 mm 0,0 UV-I 0 W/m 3,4 C -6,3 C 30,6 km/h (5 Bft) 100,00 %
08.01.2018 23:52 3,8 C 4,4 C 97 % 1021,6 hPa 0,0 l/m 22,1 km/h (4 Bft) O 97 0 min 0,000 mm 0,0 UV-I 0 W/m 3,4 C -5,5 C 25,7 km/h (4 Bft) 97,83 %
08.01.2018 23:53 3,8 C 4,4 C 97 % 1021,6 hPa 0,0 l/m 24,7 km/h (4 Bft) O-NO 74 0 min 0,000 mm 0,0 UV-I 0 W/m 3,4 C -6,5 C 33,8 km/h (5 Bft) 100,00 %
08.01.2018 23:54 3,8 C 4,4 C 97 % 1021,5 hPa 0,0 l/m 28,2 km/h (4 Bft) NO 56 0 min 0,000 mm 0,0 UV-I 0 W/m 3,4 C -7,6 C 37,0 km/h (5 Bft) 96,15 %
08.01.2018 23:56 3,8 C 4,4 C 96 % 1021,5 hPa 0,0 l/m 26,0 km/h (4 Bft) O-NO 69 0 min 0,000 mm 0,0 UV-I 0 W/m 3,2 C -6,9 C 35,4 km/h (5 Bft) 98,00 %
08.01.2018 23:58 3,8 C 4,4 C 96 % 1021,6 hPa 0,0 l/m 22,7 km/h (4 Bft) O-NO 65 0 min 0,000 mm 0,0 UV-I 0 W/m 3,2 C -5,8 C 30,6 km/h (5 Bft) 100,00 %
08.01.2018 23:59 3,8 C 4,4 C 96 % 1021,6 hPa 0,0 l/m 24,1 km/h (4 Bft) O-NO 67 0 min 0,000 mm 0,0 UV-I 0 W/m 3,2 C -6,3 C 33,8 km/h (5 Bft) 100,00 %
_ Min-Zeit 21:12 00:00 13:19 23:51 - 22:33 - - - - - - 21:12 22:29 22:33 22:33
Minimum _ 3,7 C 4,4 C 93 % 1021,5 hPa - 0,0 km/h (0 Bft) - - - - - - 3,1 C -9,2 C 0,0 km/h (0 Bft) 0,00 %
_ Max-Zeit 00:00 00:00 05:44 09:01 00:00 19:33 - - 00:00 12:00 00:00 12:31 00:00 22:33 17:00 00:02
Maximum _ 5,6 C 4,4 C 97 % 1024,6 hPa 0,0 l/m 33,8 km/h
O-NO (5 Bft)
- - 0 min 0,051 mm 0,0 UV-I 130 W/m 4,7 C 3,7 C 48,3 km/h
O-NO (6 Bft)
100,00 %
Durchschnitt _ 4,6 C 4,4 C 95 % 1023,2 hPa #0,0 l/m 20,7 km/h (4 Bft) O-NO - #0 min. #0,277 mm 0,0 UV-I 37 W/m 4,0 C -3,8 C 27,7 km/h (4 Bft) 96,86 %